<?xml version='1.0' encoding='UTF-8'?><gpx version="1.1" creator="JPX - https://github.com/jenetics/jpx" xmlns="http://www.topografix.com/GPX/1/1"><trk><trkseg><trkpt lat="45.0780658" lon="7.4613435"><ele>348.2</ele><time>2026-04-27T17:22:02.123Z</time></trkpt><trkpt lat="45.0780934" lon="7.4612179"><ele>348.4</ele><time>2026-04-27T17:22:05.123Z</time></trkpt><trkpt lat="45.0781311" lon="7.4610947"><ele>348.59999999999997</ele><time>2026-04-27T17:22:07.123Z</time></trkpt><trkpt lat="45.0781222" lon="7.4609708"><ele>348.79999999999995</ele><time>2026-04-27T17:22:09.122Z</time></trkpt><trkpt lat="45.0781134" lon="7.4608215"><ele>349.0</ele><time>2026-04-27T17:22:11.123Z</time></trkpt><trkpt lat="45.0781081" lon="7.4606687"><ele>349.0</ele><time>2026-04-27T17:22:13.123Z</time></trkpt><trkpt lat="45.0780987" lon="7.4605259"><ele>349.0</ele><time>2026-04-27T17:22:15.123Z</time></trkpt><trkpt lat="45.0780875" lon="7.4603798"><ele>349.0</ele><time>2026-04-27T17:22:17.122Z</time></trkpt><trkpt lat="45.0780835" lon="7.4602341"><ele>349.0</ele><time>2026-04-27T17:22:19.124Z</time></trkpt><trkpt lat="45.0780755" lon="7.4600879"><ele>349.0</ele><time>2026-04-27T17:22:21.122Z</time></trkpt><trkpt lat="45.0780698" lon="7.4599349"><ele>348.79999999999995</ele><time>2026-04-27T17:22:23.122Z</time></trkpt><trkpt lat="45.0780604" lon="7.4597827"><ele>348.59999999999997</ele><time>2026-04-27T17:22:25.123Z</time></trkpt><trkpt lat="45.0780455" lon="7.459641"><ele>348.4</ele><time>2026-04-27T17:22:27.124Z</time></trkpt><trkpt lat="45.078025" lon="7.4594989"><ele>348.2</ele><time>2026-04-27T17:22:29.123Z</time></trkpt><trkpt lat="45.0780108" lon="7.4593537"><ele>348.0</ele><time>2026-04-27T17:22:31.123Z</time></trkpt><trkpt lat="45.0780101" lon="7.4592169"><ele>348.0</ele><time>2026-04-27T17:22:33.124Z</time></trkpt><trkpt lat="45.0779923" lon="7.4590727"><ele>348.0</ele><time>2026-04-27T17:22:35.123Z</time></trkpt><trkpt lat="45.0779806" lon="7.4589228"><ele>348.0</ele><time>2026-04-27T17:22:37.122Z</time></trkpt><trkpt lat="45.0779649" lon="7.4587872"><ele>348.0</ele><time>2026-04-27T17:22:39.123Z</time></trkpt><trkpt lat="45.0779554" lon="7.458648"><ele>348.0</ele><time>2026-04-27T17:22:41.123Z</time></trkpt><trkpt lat="45.0779466" lon="7.4585095"><ele>348.0</ele><time>2026-04-27T17:22:43.123Z</time></trkpt><trkpt lat="45.0779326" lon="7.4583641"><ele>348.0</ele><time>2026-04-27T17:22:45.123Z</time></trkpt><trkpt lat="45.0779213" lon="7.458229"><ele>348.0</ele><time>2026-04-27T17:22:47.123Z</time></trkpt><trkpt lat="45.0779122" lon="7.4580892"><ele>348.0</ele><time>2026-04-27T17:22:49.123Z</time></trkpt><trkpt lat="45.0779129" lon="7.4579459"><ele>348.0</ele><time>2026-04-27T17:22:51.123Z</time></trkpt><trkpt lat="45.0779124" lon="7.4578012"><ele>348.0</ele><time>2026-04-27T17:22:53.124Z</time></trkpt><trkpt lat="45.0779077" lon="7.4576708"><ele>348.0</ele><time>2026-04-27T17:22:55.123Z</time></trkpt><trkpt lat="45.0778998" lon="7.457538"><ele>348.0</ele><time>2026-04-27T17:22:57.123Z</time></trkpt><trkpt lat="45.0778901" lon="7.4573986"><ele>348.0</ele><time>2026-04-27T17:22:59.122Z</time></trkpt><trkpt lat="45.0778769" lon="7.4572762"><ele>348.0</ele><time>2026-04-27T17:23:01.123Z</time></trkpt><trkpt lat="45.0778611" lon="7.4571504"><ele>348.2</ele><time>2026-04-27T17:23:03.122Z</time></trkpt><trkpt lat="45.0778351" lon="7.4570263"><ele>348.4</ele><time>2026-04-27T17:23:05.124Z</time></trkpt><trkpt lat="45.0778057" lon="7.4568988"><ele>348.59999999999997</ele><time>2026-04-27T17:23:07.124Z</time></trkpt><trkpt lat="45.0777742" lon="7.4567828"><ele>348.79999999999995</ele><time>2026-04-27T17:23:09.123Z</time></trkpt><trkpt lat="45.0777386" lon="7.4566586"><ele>349.0</ele><time>2026-04-27T17:23:11.123Z</time></trkpt><trkpt lat="45.0777025" lon="7.4565252"><ele>349.0</ele><time>2026-04-27T17:23:13.122Z</time></trkpt><trkpt lat="45.0776607" lon="7.4564012"><ele>349.0</ele><time>2026-04-27T17:23:15.123Z</time></trkpt><trkpt lat="45.0776208" lon="7.4562801"><ele>349.0</ele><time>2026-04-27T17:23:17.123Z</time></trkpt><trkpt lat="45.0775837" lon="7.4561573"><ele>349.0</ele><time>2026-04-27T17:23:19.123Z</time></trkpt><trkpt lat="45.0775424" lon="7.4560441"><ele>349.0</ele><time>2026-04-27T17:23:21.123Z</time></trkpt><trkpt lat="45.0775065" lon="7.4559257"><ele>349.0</ele><time>2026-04-27T17:23:23.123Z</time></trkpt><trkpt lat="45.0774687" lon="7.4558012"><ele>349.0</ele><time>2026-04-27T17:23:25.122Z</time></trkpt><trkpt lat="45.0774236" lon="7.4556795"><ele>349.0</ele><time>2026-04-27T17:23:27.122Z</time></trkpt><trkpt lat="45.0773874" lon="7.4555582"><ele>349.0</ele><time>2026-04-27T17:23:29.123Z</time></trkpt><trkpt lat="45.077351" lon="7.4554411"><ele>349.0</ele><time>2026-04-27T17:23:31.123Z</time></trkpt><trkpt lat="45.0773237" lon="7.455326"><ele>349.4</ele><time>2026-04-27T17:23:33.122Z</time></trkpt><trkpt lat="45.0773481" lon="7.4552005"><ele>349.79999999999995</ele><time>2026-04-27T17:23:35.123Z</time></trkpt><trkpt lat="45.0773459" lon="7.4550746"><ele>350.20000000000005</ele><time>2026-04-27T17:23:37.123Z</time></trkpt><trkpt lat="45.0773097" lon="7.4549566"><ele>350.6</ele><time>2026-04-27T17:23:39.123Z</time></trkpt><trkpt lat="45.0772399" lon="7.4548727"><ele>351.0</ele><time>2026-04-27T17:23:41.123Z</time></trkpt><trkpt lat="45.0771667" lon="7.4547748"><ele>351.0</ele><time>2026-04-27T17:23:43.123Z</time></trkpt><trkpt lat="45.0770927" lon="7.4546918"><ele>351.0</ele><time>2026-04-27T17:23:45.123Z</time></trkpt><trkpt lat="45.0770137" lon="7.4546109"><ele>351.0</ele><time>2026-04-27T17:23:47.123Z</time></trkpt><trkpt lat="45.0769248" lon="7.4545405"><ele>351.0</ele><time>2026-04-27T17:23:49.123Z</time></trkpt><trkpt lat="45.0768437" lon="7.4544496"><ele>351.0</ele><time>2026-04-27T17:23:51.123Z</time></trkpt><trkpt lat="45.0767681" lon="7.4543494"><ele>350.8</ele><time>2026-04-27T17:23:53.123Z</time></trkpt><trkpt lat="45.076696" lon="7.4542545"><ele>350.6</ele><time>2026-04-27T17:23:55.123Z</time></trkpt><trkpt lat="45.0766232" lon="7.4541564"><ele>350.4</ele><time>2026-04-27T17:23:57.123Z</time></trkpt><trkpt lat="45.0765475" lon="7.4540498"><ele>350.2</ele><time>2026-04-27T17:23:59.122Z</time></trkpt><trkpt lat="45.0764761" lon="7.4539489"><ele>350.0</ele><time>2026-04-27T17:24:01.123Z</time></trkpt><trkpt lat="45.0763986" lon="7.4538452"><ele>351.0</ele><time>2026-04-27T17:24:03.123Z</time></trkpt><trkpt lat="45.0763271" lon="7.4537425"><ele>352.0</ele><time>2026-04-27T17:24:05.123Z</time></trkpt><trkpt lat="45.0762495" lon="7.4536444"><ele>353.0</ele><time>2026-04-27T17:24:07.123Z</time></trkpt><trkpt lat="45.0761721" lon="7.4535466"><ele>354.0</ele><time>2026-04-27T17:24:09.122Z</time></trkpt><trkpt lat="45.076098" lon="7.4534509"><ele>355.0</ele><time>2026-04-27T17:24:11.123Z</time></trkpt><trkpt lat="45.0760245" lon="7.4533585"><ele>355.0</ele><time>2026-04-27T17:24:13.122Z</time></trkpt><trkpt lat="45.0759541" lon="7.4532611"><ele>355.0</ele><time>2026-04-27T17:24:15.123Z</time></trkpt><trkpt lat="45.0758777" lon="7.4531696"><ele>355.0</ele><time>2026-04-27T17:24:17.124Z</time></trkpt><trkpt lat="45.0758054" lon="7.4530637"><ele>355.0</ele><time>2026-04-27T17:24:19.124Z</time></trkpt><trkpt lat="45.0757391" lon="7.4529756"><ele>355.0</ele><time>2026-04-27T17:24:21.124Z</time></trkpt><trkpt lat="45.0756612" lon="7.4529014"><ele>355.66666666666663</ele><time>2026-04-27T17:24:23.121Z</time></trkpt><trkpt lat="45.075566" lon="7.4528827"><ele>356.3333333333333</ele><time>2026-04-27T17:24:25.124Z</time></trkpt><trkpt lat="45.0755029" lon="7.4529471"><ele>357.0</ele><time>2026-04-27T17:24:27.122Z</time></trkpt><trkpt lat="45.0754607" lon="7.4530378"><ele>357.6666666666667</ele><time>2026-04-27T17:24:29.123Z</time></trkpt><trkpt lat="45.0754359" lon="7.453134"><ele>358.33333333333337</ele><time>2026-04-27T17:24:31.123Z</time></trkpt><trkpt lat="45.0754153" lon="7.4532389"><ele>359.0</ele><time>2026-04-27T17:24:33.122Z</time></trkpt><trkpt lat="45.0754042" lon="7.4533484"><ele>359.0</ele><time>2026-04-27T17:24:35.124Z</time></trkpt><trkpt lat="45.0754017" lon="7.4534533"><ele>359.0</ele><time>2026-04-27T17:24:37.122Z</time></trkpt><trkpt lat="45.075406" lon="7.4535613"><ele>359.0</ele><time>2026-04-27T17:24:39.124Z</time></trkpt><trkpt lat="45.0754109" lon="7.4536757"><ele>359.0</ele><time>2026-04-27T17:24:41.124Z</time></trkpt><trkpt lat="45.0754085" lon="7.4537927"><ele>359.0</ele><time>2026-04-27T17:24:43.124Z</time></trkpt><trkpt lat="45.0753907" lon="7.4539046"><ele>359.0</ele><time>2026-04-27T17:24:45.124Z</time></trkpt><trkpt lat="45.07537" lon="7.4540147"><ele>359.6666666666667</ele><time>2026-04-27T17:24:47.122Z</time></trkpt><trkpt lat="45.075348" lon="7.4541262"><ele>360.33333333333337</ele><time>2026-04-27T17:24:49.123Z</time></trkpt><trkpt lat="45.0753178" lon="7.4542382"><ele>361.0</ele><time>2026-04-27T17:24:51.123Z</time></trkpt><trkpt lat="45.075289" lon="7.4543522"><ele>361.6666666666667</ele><time>2026-04-27T17:24:53.122Z</time></trkpt><trkpt lat="45.0752571" lon="7.4544606"><ele>362.3333333333333</ele><time>2026-04-27T17:24:55.122Z</time></trkpt><trkpt lat="45.0752246" lon="7.4545695"><ele>363.0</ele><time>2026-04-27T17:24:57.124Z</time></trkpt><trkpt lat="45.0751814" lon="7.4546687"><ele>363.1666666666667</ele><time>2026-04-27T17:24:59.122Z</time></trkpt><trkpt lat="45.0751474" lon="7.4547689"><ele>363.3333333333333</ele><time>2026-04-27T17:25:01.123Z</time></trkpt><trkpt lat="45.0751228" lon="7.4548744"><ele>363.5</ele><time>2026-04-27T17:25:03.123Z</time></trkpt><trkpt lat="45.0750986" lon="7.454974"><ele>363.66666666666663</ele><time>2026-04-27T17:25:05.123Z</time></trkpt><trkpt lat="45.0750772" lon="7.4550841"><ele>363.8333333333333</ele><time>2026-04-27T17:25:07.122Z</time></trkpt><trkpt lat="45.0750614" lon="7.4551984"><ele>364.0</ele><time>2026-04-27T17:25:09.123Z</time></trkpt><trkpt lat="45.0750469" lon="7.4553118"><ele>364.0</ele><time>2026-04-27T17:25:11.122Z</time></trkpt><trkpt lat="45.0750274" lon="7.4554225"><ele>364.0</ele><time>2026-04-27T17:25:13.123Z</time></trkpt><trkpt lat="45.0750045" lon="7.4555322"><ele>364.0</ele><time>2026-04-27T17:25:15.122Z</time></trkpt><trkpt lat="45.0749798" lon="7.4556364"><ele>364.0</ele><time>2026-04-27T17:25:17.122Z</time></trkpt><trkpt lat="45.0749493" lon="7.4557273"><ele>364.0</ele><time>2026-04-27T17:25:19.123Z</time></trkpt><trkpt lat="45.0749079" lon="7.4558021"><ele>364.0</ele><time>2026-04-27T17:25:21.123Z</time></trkpt><trkpt lat="45.0748617" lon="7.4558675"><ele>364.0</ele><time>2026-04-27T17:25:23.123Z</time></trkpt><trkpt lat="45.0748125" lon="7.4559367"><ele>364.0</ele><time>2026-04-27T17:25:25.122Z</time></trkpt><trkpt lat="45.07476" lon="7.4560155"><ele>364.0</ele><time>2026-04-27T17:25:27.122Z</time></trkpt><trkpt lat="45.0747096" lon="7.4561064"><ele>364.0</ele><time>2026-04-27T17:25:29.123Z</time></trkpt><trkpt lat="45.074654" lon="7.4562105"><ele>364.0</ele><time>2026-04-27T17:25:31.123Z</time></trkpt><trkpt lat="45.0745981" lon="7.4563275"><ele>364.0</ele><time>2026-04-27T17:25:33.123Z</time></trkpt><trkpt lat="45.0745453" lon="7.4564499"><ele>364.0</ele><time>2026-04-27T17:25:35.122Z</time></trkpt><trkpt lat="45.0744809" lon="7.4565762"><ele>364.0</ele><time>2026-04-27T17:25:37.122Z</time></trkpt><trkpt lat="45.0744172" lon="7.4567036"><ele>364.0</ele><time>2026-04-27T17:25:39.122Z</time></trkpt><trkpt lat="45.074345" lon="7.4568273"><ele>364.0</ele><time>2026-04-27T17:25:41.123Z</time></trkpt><trkpt lat="45.0742649" lon="7.4569491"><ele>364.0</ele><time>2026-04-27T17:25:43.122Z</time></trkpt><trkpt lat="45.0741736" lon="7.457046"><ele>364.0</ele><time>2026-04-27T17:25:45.123Z</time></trkpt><trkpt lat="45.0740673" lon="7.4571321"><ele>364.0</ele><time>2026-04-27T17:25:47.123Z</time></trkpt><trkpt lat="45.0739644" lon="7.4571989"><ele>364.0</ele><time>2026-04-27T17:25:49.123Z</time></trkpt><trkpt lat="45.0738557" lon="7.4572724"><ele>364.0</ele><time>2026-04-27T17:25:51.123Z</time></trkpt><trkpt lat="45.0737447" lon="7.4573309"><ele>364.0</ele><time>2026-04-27T17:25:53.122Z</time></trkpt><trkpt lat="45.0736377" lon="7.457385"><ele>364.0</ele><time>2026-04-27T17:25:55.123Z</time></trkpt><trkpt lat="45.073529" lon="7.4574459"><ele>364.0</ele><time>2026-04-27T17:25:57.123Z</time></trkpt><trkpt lat="45.0734713" lon="7.4574877"><ele>364.0</ele><time>2026-04-27T17:25:58.123Z</time></trkpt><trkpt lat="45.073367" lon="7.457539"><ele>365.2</ele><time>2026-04-27T17:26:00.123Z</time></trkpt><trkpt lat="45.0732674" lon="7.4575843"><ele>366.4</ele><time>2026-04-27T17:26:02.123Z</time></trkpt><trkpt lat="45.0731692" lon="7.4576257"><ele>367.6</ele><time>2026-04-27T17:26:04.123Z</time></trkpt><trkpt lat="45.0730727" lon="7.4576787"><ele>368.8</ele><time>2026-04-27T17:26:06.121Z</time></trkpt><trkpt lat="45.072983" lon="7.4577081"><ele>370.0</ele><time>2026-04-27T17:26:08.123Z</time></trkpt><trkpt lat="45.0729017" lon="7.4577322"><ele>370.0</ele><time>2026-04-27T17:26:10.124Z</time></trkpt><trkpt lat="45.0728299" lon="7.4577713"><ele>370.0</ele><time>2026-04-27T17:26:12.122Z</time></trkpt><trkpt lat="45.0727652" lon="7.4578131"><ele>370.0</ele><time>2026-04-27T17:26:14.123Z</time></trkpt><trkpt lat="45.0726858" lon="7.4578612"><ele>370.0</ele><time>2026-04-27T17:26:17.122Z</time></trkpt><trkpt lat="45.072618" lon="7.4579238"><ele>370.0</ele><time>2026-04-27T17:26:20.124Z</time></trkpt><trkpt lat="45.0725392" lon="7.4579464"><ele>370.0</ele><time>2026-04-27T17:26:23.123Z</time></trkpt><trkpt lat="45.0724712" lon="7.4579982"><ele>371.8333333333333</ele><time>2026-04-27T17:26:26.123Z</time></trkpt><trkpt lat="45.0723946" lon="7.4580187"><ele>373.66666666666663</ele><time>2026-04-27T17:26:29.123Z</time></trkpt><trkpt lat="45.0723194" lon="7.4580267"><ele>375.5</ele><time>2026-04-27T17:26:32.123Z</time></trkpt><trkpt lat="45.0722445" lon="7.4580204"><ele>377.3333333333333</ele><time>2026-04-27T17:26:35.123Z</time></trkpt><trkpt lat="45.0721724" lon="7.4579797"><ele>379.1666666666667</ele><time>2026-04-27T17:26:38.123Z</time></trkpt><trkpt lat="45.0721021" lon="7.457935"><ele>381.0</ele><time>2026-04-27T17:26:41.123Z</time></trkpt><trkpt lat="45.0720244" lon="7.4579095"><ele>381.0</ele><time>2026-04-27T17:26:44.122Z</time></trkpt><trkpt lat="45.0719486" lon="7.4578791"><ele>381.0</ele><time>2026-04-27T17:26:47.122Z</time></trkpt><trkpt lat="45.0718735" lon="7.4578481"><ele>381.0</ele><time>2026-04-27T17:26:50.122Z</time></trkpt><trkpt lat="45.0717979" lon="7.4578196"><ele>381.0</ele><time>2026-04-27T17:26:53.121Z</time></trkpt><trkpt lat="45.0717225" lon="7.4577992"><ele>381.0</ele><time>2026-04-27T17:26:56.123Z</time></trkpt><trkpt lat="45.071646" lon="7.4577582"><ele>381.0</ele><time>2026-04-27T17:26:59.123Z</time></trkpt><trkpt lat="45.0715594" lon="7.4577173"><ele>382.6666666666667</ele><time>2026-04-27T17:27:02.122Z</time></trkpt><trkpt lat="45.0714768" lon="7.4576832"><ele>384.33333333333337</ele><time>2026-04-27T17:27:05.123Z</time></trkpt><trkpt lat="45.0713956" lon="7.4576456"><ele>386.0</ele><time>2026-04-27T17:27:08.124Z</time></trkpt><trkpt lat="45.0713103" lon="7.4576201"><ele>387.6666666666667</ele><time>2026-04-27T17:27:11.122Z</time></trkpt><trkpt lat="45.0712397" lon="7.4575892"><ele>389.33333333333337</ele><time>2026-04-27T17:27:14.122Z</time></trkpt><trkpt lat="45.0711687" lon="7.457565"><ele>391.0</ele><time>2026-04-27T17:27:17.123Z</time></trkpt><trkpt lat="45.0711047" lon="7.4575333"><ele>390.99999999999994</ele><time>2026-04-27T17:27:21.122Z</time></trkpt><trkpt lat="45.071043" lon="7.4575092"><ele>391.0</ele><time>2026-04-27T17:27:25.121Z</time></trkpt><trkpt lat="45.0709834" lon="7.4574702"><ele>391.0</ele><time>2026-04-27T17:27:29.124Z</time></trkpt><trkpt lat="45.0709231" lon="7.4574357"><ele>391.0</ele><time>2026-04-27T17:27:33.123Z</time></trkpt><trkpt lat="45.0708594" lon="7.457398"><ele>391.0</ele><time>2026-04-27T17:27:36.123Z</time></trkpt><trkpt lat="45.0707849" lon="7.4573758"><ele>390.99999999999994</ele><time>2026-04-27T17:27:40.124Z</time></trkpt><trkpt lat="45.0707042" lon="7.4573674"><ele>391.0</ele><time>2026-04-27T17:27:44.123Z</time></trkpt><trkpt lat="45.0706386" lon="7.4573554"><ele>391.33333333333337</ele><time>2026-04-27T17:27:47.122Z</time></trkpt><trkpt lat="45.0705613" lon="7.4573505"><ele>391.6666666666667</ele><time>2026-04-27T17:27:50.123Z</time></trkpt><trkpt lat="45.0704733" lon="7.4573569"><ele>392.0</ele><time>2026-04-27T17:27:53.123Z</time></trkpt><trkpt lat="45.0703772" lon="7.4573553"><ele>392.33333333333337</ele><time>2026-04-27T17:27:56.123Z</time></trkpt><trkpt lat="45.0703072" lon="7.457354"><ele>392.6666666666667</ele><time>2026-04-27T17:27:58.124Z</time></trkpt><trkpt lat="45.0702366" lon="7.4573544"><ele>393.0</ele><time>2026-04-27T17:28:00.123Z</time></trkpt><trkpt lat="45.0701605" lon="7.4573474"><ele>393.0</ele><time>2026-04-27T17:28:02.122Z</time></trkpt><trkpt lat="45.0700855" lon="7.4573406"><ele>393.0</ele><time>2026-04-27T17:28:04.123Z</time></trkpt><trkpt lat="45.0700069" lon="7.4573444"><ele>393.0</ele><time>2026-04-27T17:28:06.122Z</time></trkpt><trkpt lat="45.0699285" lon="7.4573662"><ele>393.0</ele><time>2026-04-27T17:28:08.123Z</time></trkpt><trkpt lat="45.069852" lon="7.4573948"><ele>393.0</ele><time>2026-04-27T17:28:10.123Z</time></trkpt><trkpt lat="45.0697723" lon="7.4574204"><ele>393.0</ele><time>2026-04-27T17:28:12.123Z</time></trkpt><trkpt lat="45.0696872" lon="7.4574537"><ele>393.0</ele><time>2026-04-27T17:28:14.122Z</time></trkpt><trkpt lat="45.0696034" lon="7.4574783"><ele>393.0</ele><time>2026-04-27T17:28:16.122Z</time></trkpt><trkpt lat="45.0695253" lon="7.4575042"><ele>393.0</ele><time>2026-04-27T17:28:18.123Z</time></trkpt><trkpt lat="45.0694495" lon="7.4575267"><ele>393.0</ele><time>2026-04-27T17:28:20.123Z</time></trkpt><trkpt lat="45.0693791" lon="7.4575276"><ele>393.0</ele><time>2026-04-27T17:28:22.123Z</time></trkpt><trkpt lat="45.0693116" lon="7.4574822"><ele>393.0</ele><time>2026-04-27T17:28:24.122Z</time></trkpt><trkpt lat="45.069242" lon="7.457412"><ele>393.0</ele><time>2026-04-27T17:28:26.122Z</time></trkpt><trkpt lat="45.0691688" lon="7.4573345"><ele>393.0</ele><time>2026-04-27T17:28:28.122Z</time></trkpt><trkpt lat="45.0690916" lon="7.45726"><ele>393.0</ele><time>2026-04-27T17:28:30.123Z</time></trkpt><trkpt lat="45.0690074" lon="7.4571998"><ele>393.0</ele><time>2026-04-27T17:28:32.122Z</time></trkpt><trkpt lat="45.068925" lon="7.45721"><ele>393.0</ele><time>2026-04-27T17:28:34.123Z</time></trkpt><trkpt lat="45.0688582" lon="7.4572736"><ele>393.0</ele><time>2026-04-27T17:28:36.122Z</time></trkpt><trkpt lat="45.0687989" lon="7.4573475"><ele>393.28571428571433</ele><time>2026-04-27T17:28:38.124Z</time></trkpt><trkpt lat="45.0687426" lon="7.4574198"><ele>393.57142857142856</ele><time>2026-04-27T17:28:40.124Z</time></trkpt><trkpt lat="45.0687109" lon="7.4574995"><ele>393.8571428571429</ele><time>2026-04-27T17:28:42.123Z</time></trkpt><trkpt lat="45.0686741" lon="7.4575826"><ele>394.14285714285717</ele><time>2026-04-27T17:28:47.122Z</time></trkpt><trkpt lat="45.0686167" lon="7.4576596"><ele>394.42857142857144</ele><time>2026-04-27T17:28:50.123Z</time></trkpt><trkpt lat="45.0685747" lon="7.4577309"><ele>394.7142857142857</ele><time>2026-04-27T17:28:52.123Z</time></trkpt><trkpt lat="45.0685281" lon="7.4578452"><ele>395.0</ele><time>2026-04-27T17:28:55.122Z</time></trkpt><trkpt lat="45.0684944" lon="7.4579261"><ele>395.1428571428571</ele><time>2026-04-27T17:28:57.122Z</time></trkpt><trkpt lat="45.0684563" lon="7.4580083"><ele>395.28571428571433</ele><time>2026-04-27T17:28:59.122Z</time></trkpt><trkpt lat="45.0684191" lon="7.45809"><ele>395.42857142857144</ele><time>2026-04-27T17:29:01.122Z</time></trkpt><trkpt lat="45.0683874" lon="7.4581726"><ele>395.57142857142856</ele><time>2026-04-27T17:29:03.123Z</time></trkpt><trkpt lat="45.068359" lon="7.4582602"><ele>395.71428571428567</ele><time>2026-04-27T17:29:05.123Z</time></trkpt><trkpt lat="45.0683259" lon="7.4583453"><ele>395.8571428571429</ele><time>2026-04-27T17:29:07.123Z</time></trkpt><trkpt lat="45.0682917" lon="7.4584264"><ele>396.0</ele><time>2026-04-27T17:29:09.122Z</time></trkpt><trkpt lat="45.0682534" lon="7.4585079"><ele>397.14285714285717</ele><time>2026-04-27T17:29:11.122Z</time></trkpt><trkpt lat="45.0682157" lon="7.4585877"><ele>398.2857142857143</ele><time>2026-04-27T17:29:13.122Z</time></trkpt><trkpt lat="45.0681752" lon="7.4586636"><ele>399.42857142857144</ele><time>2026-04-27T17:29:15.122Z</time></trkpt><trkpt lat="45.0681496" lon="7.4587467"><ele>400.57142857142856</ele><time>2026-04-27T17:29:17.122Z</time></trkpt><trkpt lat="45.0681431" lon="7.4588392"><ele>401.71428571428567</ele><time>2026-04-27T17:29:19.123Z</time></trkpt><trkpt lat="45.0681706" lon="7.4589634"><ele>402.85714285714283</ele><time>2026-04-27T17:29:22.124Z</time></trkpt><trkpt lat="45.0682127" lon="7.4590617"><ele>404.0</ele><time>2026-04-27T17:29:24.122Z</time></trkpt><trkpt lat="45.0682582" lon="7.459165"><ele>403.2</ele><time>2026-04-27T17:29:26.122Z</time></trkpt><trkpt lat="45.0682992" lon="7.4592738"><ele>402.4</ele><time>2026-04-27T17:29:28.123Z</time></trkpt><trkpt lat="45.0683493" lon="7.4593785"><ele>401.6</ele><time>2026-04-27T17:29:30.122Z</time></trkpt><trkpt lat="45.0683943" lon="7.4594942"><ele>400.8</ele><time>2026-04-27T17:29:32.123Z</time></trkpt><trkpt lat="45.0684399" lon="7.4596075"><ele>400.0</ele><time>2026-04-27T17:29:34.124Z</time></trkpt><trkpt lat="45.0684865" lon="7.4597166"><ele>400.0</ele><time>2026-04-27T17:29:36.123Z</time></trkpt><trkpt lat="45.0685334" lon="7.4598366"><ele>400.0</ele><time>2026-04-27T17:29:38.123Z</time></trkpt><trkpt lat="45.0685825" lon="7.4599501"><ele>400.0</ele><time>2026-04-27T17:29:40.123Z</time></trkpt><trkpt lat="45.0686317" lon="7.4600717"><ele>400.0</ele><time>2026-04-27T17:29:42.124Z</time></trkpt><trkpt lat="45.0686898" lon="7.4601853"><ele>400.0</ele><time>2026-04-27T17:29:44.123Z</time></trkpt><trkpt lat="45.0687693" lon="7.4602802"><ele>400.00000000000006</ele><time>2026-04-27T17:29:46.122Z</time></trkpt><trkpt lat="45.0688498" lon="7.4603726"><ele>400.0</ele><time>2026-04-27T17:29:48.123Z</time></trkpt><trkpt lat="45.068911" lon="7.4604724"><ele>400.0</ele><time>2026-04-27T17:29:50.123Z</time></trkpt><trkpt lat="45.0689642" lon="7.4605853"><ele>400.0</ele><time>2026-04-27T17:29:52.123Z</time></trkpt><trkpt lat="45.0689601" lon="7.4606964"><ele>400.00000000000006</ele><time>2026-04-27T17:29:54.123Z</time></trkpt><trkpt lat="45.0689134" lon="7.4607735"><ele>400.0</ele><time>2026-04-27T17:29:56.124Z</time></trkpt><trkpt lat="45.0688652" lon="7.4608461"><ele>400.83333333333337</ele><time>2026-04-27T17:29:58.123Z</time></trkpt><trkpt lat="45.0687952" lon="7.4609354"><ele>401.6666666666667</ele><time>2026-04-27T17:30:01.123Z</time></trkpt><trkpt lat="45.0687281" lon="7.4610289"><ele>402.5</ele><time>2026-04-27T17:30:04.123Z</time></trkpt><trkpt lat="45.0686841" lon="7.4611012"><ele>403.33333333333337</ele><time>2026-04-27T17:30:06.123Z</time></trkpt><trkpt lat="45.0686413" lon="7.4611713"><ele>404.1666666666667</ele><time>2026-04-27T17:30:08.124Z</time></trkpt><trkpt lat="45.0685992" lon="7.4612434"><ele>405.0</ele><time>2026-04-27T17:30:10.123Z</time></trkpt><trkpt lat="45.0685426" lon="7.4613365"><ele>405.0</ele><time>2026-04-27T17:30:13.123Z</time></trkpt><trkpt lat="45.0684876" lon="7.4614468"><ele>405.0</ele><time>2026-04-27T17:30:16.122Z</time></trkpt><trkpt lat="45.0684454" lon="7.461527"><ele>405.0</ele><time>2026-04-27T17:30:18.123Z</time></trkpt><trkpt lat="45.0684042" lon="7.461602"><ele>405.0</ele><time>2026-04-27T17:30:20.122Z</time></trkpt><trkpt lat="45.0683563" lon="7.4616919"><ele>405.0</ele><time>2026-04-27T17:30:22.124Z</time></trkpt><trkpt lat="45.0683112" lon="7.4617784"><ele>405.0</ele><time>2026-04-27T17:30:24.124Z</time></trkpt><trkpt lat="45.0682674" lon="7.4618707"><ele>405.0</ele><time>2026-04-27T17:30:26.122Z</time></trkpt><trkpt lat="45.0682293" lon="7.461965"><ele>405.0</ele><time>2026-04-27T17:30:28.123Z</time></trkpt><trkpt lat="45.0682055" lon="7.4620683"><ele>405.0</ele><time>2026-04-27T17:30:30.122Z</time></trkpt><trkpt lat="45.0682042" lon="7.4621752"><ele>405.0</ele><time>2026-04-27T17:30:32.123Z</time></trkpt><trkpt lat="45.0682151" lon="7.4622846"><ele>405.0</ele><time>2026-04-27T17:30:34.123Z</time></trkpt><trkpt lat="45.0682499" lon="7.4623836"><ele>405.0</ele><time>2026-04-27T17:30:36.123Z</time></trkpt><trkpt lat="45.0682864" lon="7.4624808"><ele>405.0</ele><time>2026-04-27T17:30:38.123Z</time></trkpt><trkpt lat="45.0683301" lon="7.4625787"><ele>405.0</ele><time>2026-04-27T17:30:40.123Z</time></trkpt><trkpt lat="45.068347" lon="7.4626932"><ele>405.0</ele><time>2026-04-27T17:30:42.123Z</time></trkpt><trkpt lat="45.0683495" lon="7.4628127"><ele>405.0</ele><time>2026-04-27T17:30:44.123Z</time></trkpt><trkpt lat="45.0683017" lon="7.4629155"><ele>405.0</ele><time>2026-04-27T17:30:46.122Z</time></trkpt><trkpt lat="45.0682284" lon="7.4629827"><ele>405.0</ele><time>2026-04-27T17:30:48.123Z</time></trkpt><trkpt lat="45.0681603" lon="7.4630455"><ele>405.8333333333333</ele><time>2026-04-27T17:30:50.123Z</time></trkpt><trkpt lat="45.0680872" lon="7.4631019"><ele>406.66666666666663</ele><time>2026-04-27T17:30:52.123Z</time></trkpt><trkpt lat="45.0680094" lon="7.4631185"><ele>407.5</ele><time>2026-04-27T17:30:54.123Z</time></trkpt><trkpt lat="45.0679401" lon="7.4630637"><ele>408.3333333333333</ele><time>2026-04-27T17:30:56.123Z</time></trkpt><trkpt lat="45.0678911" lon="7.4629727"><ele>409.16666666666663</ele><time>2026-04-27T17:30:58.123Z</time></trkpt><trkpt lat="45.067848" lon="7.4628708"><ele>410.0</ele><time>2026-04-27T17:31:00.121Z</time></trkpt><trkpt lat="45.0678001" lon="7.4627765"><ele>409.99999999999994</ele><time>2026-04-27T17:31:02.123Z</time></trkpt><trkpt lat="45.0677506" lon="7.4626808"><ele>410.0</ele><time>2026-04-27T17:31:04.122Z</time></trkpt><trkpt lat="45.0677007" lon="7.4625943"><ele>410.0</ele><time>2026-04-27T17:31:06.122Z</time></trkpt><trkpt lat="45.0676391" lon="7.4625296"><ele>410.0</ele><time>2026-04-27T17:31:08.123Z</time></trkpt><trkpt lat="45.0675588" lon="7.4625367"><ele>409.99999999999994</ele><time>2026-04-27T17:31:10.123Z</time></trkpt><trkpt lat="45.0674888" lon="7.4625861"><ele>410.0</ele><time>2026-04-27T17:31:12.122Z</time></trkpt><trkpt lat="45.0674295" lon="7.4626297"><ele>410.7142857142857</ele><time>2026-04-27T17:31:14.123Z</time></trkpt><trkpt lat="45.0673673" lon="7.4626841"><ele>411.4285714285714</ele><time>2026-04-27T17:31:16.122Z</time></trkpt><trkpt lat="45.0673058" lon="7.4627229"><ele>412.1428571428571</ele><time>2026-04-27T17:31:18.123Z</time></trkpt><trkpt lat="45.0672471" lon="7.4627696"><ele>412.8571428571429</ele><time>2026-04-27T17:31:20.122Z</time></trkpt><trkpt lat="45.0671926" lon="7.4628212"><ele>413.57142857142856</ele><time>2026-04-27T17:31:22.123Z</time></trkpt><trkpt lat="45.067137" lon="7.4628828"><ele>414.2857142857143</ele><time>2026-04-27T17:31:24.123Z</time></trkpt><trkpt lat="45.0670786" lon="7.4629348"><ele>415.0</ele><time>2026-04-27T17:31:26.123Z</time></trkpt><trkpt lat="45.0670146" lon="7.4629728"><ele>415.0</ele><time>2026-04-27T17:31:28.122Z</time></trkpt><trkpt lat="45.0669476" lon="7.4629982"><ele>415.0</ele><time>2026-04-27T17:31:30.122Z</time></trkpt><trkpt lat="45.0668805" lon="7.463011"><ele>415.0</ele><time>2026-04-27T17:31:32.121Z</time></trkpt><trkpt lat="45.0668134" lon="7.4630159"><ele>415.0</ele><time>2026-04-27T17:31:34.123Z</time></trkpt><trkpt lat="45.066748" lon="7.4630187"><ele>415.0</ele><time>2026-04-27T17:31:36.122Z</time></trkpt><trkpt lat="45.0666849" lon="7.4630255"><ele>415.0</ele><time>2026-04-27T17:31:38.123Z</time></trkpt><trkpt lat="45.0665923" lon="7.4630367"><ele>415.0</ele><time>2026-04-27T17:31:41.122Z</time></trkpt><trkpt lat="45.0665095" lon="7.4630721"><ele>416.33333333333337</ele><time>2026-04-27T17:31:44.123Z</time></trkpt><trkpt lat="45.0664258" lon="7.4631064"><ele>417.6666666666667</ele><time>2026-04-27T17:31:47.122Z</time></trkpt><trkpt lat="45.0663472" lon="7.4631374"><ele>419.0</ele><time>2026-04-27T17:31:50.122Z</time></trkpt><trkpt lat="45.0662628" lon="7.4631549"><ele>420.33333333333337</ele><time>2026-04-27T17:31:53.123Z</time></trkpt><trkpt lat="45.066181" lon="7.4631601"><ele>421.6666666666667</ele><time>2026-04-27T17:31:56.123Z</time></trkpt><trkpt lat="45.0661017" lon="7.4631728"><ele>423.0</ele><time>2026-04-27T17:31:59.123Z</time></trkpt><trkpt lat="45.0660207" lon="7.4631724"><ele>423.0</ele><time>2026-04-27T17:32:02.122Z</time></trkpt><trkpt lat="45.0659397" lon="7.4631923"><ele>423.0</ele><time>2026-04-27T17:32:05.123Z</time></trkpt><trkpt lat="45.0658643" lon="7.4632147"><ele>423.0</ele><time>2026-04-27T17:32:08.122Z</time></trkpt><trkpt lat="45.0657853" lon="7.4632279"><ele>423.0</ele><time>2026-04-27T17:32:11.122Z</time></trkpt><trkpt lat="45.0656989" lon="7.463225"><ele>423.0</ele><time>2026-04-27T17:32:14.123Z</time></trkpt><trkpt lat="45.0656142" lon="7.4632247"><ele>423.0</ele><time>2026-04-27T17:32:17.122Z</time></trkpt><trkpt lat="45.0655346" lon="7.4632169"><ele>424.6666666666667</ele><time>2026-04-27T17:32:20.123Z</time></trkpt><trkpt lat="45.0654577" lon="7.4632046"><ele>426.33333333333337</ele><time>2026-04-27T17:32:23.122Z</time></trkpt><trkpt lat="45.0653823" lon="7.463204"><ele>428.0</ele><time>2026-04-27T17:32:26.122Z</time></trkpt><trkpt lat="45.0653072" lon="7.4632122"><ele>429.6666666666667</ele><time>2026-04-27T17:32:29.123Z</time></trkpt><trkpt lat="45.0652328" lon="7.4632281"><ele>431.33333333333337</ele><time>2026-04-27T17:32:32.123Z</time></trkpt><trkpt lat="45.0651582" lon="7.4632487"><ele>433.0</ele><time>2026-04-27T17:32:35.123Z</time></trkpt><trkpt lat="45.0650816" lon="7.4632691"><ele>433.00000000000006</ele><time>2026-04-27T17:32:38.122Z</time></trkpt><trkpt lat="45.064998" lon="7.4632781"><ele>433.0</ele><time>2026-04-27T17:32:41.124Z</time></trkpt><trkpt lat="45.0649251" lon="7.4632253"><ele>433.0</ele><time>2026-04-27T17:32:44.123Z</time></trkpt><trkpt lat="45.064859" lon="7.4631516"><ele>433.0</ele><time>2026-04-27T17:32:47.122Z</time></trkpt><trkpt lat="45.0648089" lon="7.4630657"><ele>433.00000000000006</ele><time>2026-04-27T17:32:50.123Z</time></trkpt><trkpt lat="45.0647484" lon="7.4629919"><ele>433.0</ele><time>2026-04-27T17:32:53.123Z</time></trkpt><trkpt lat="45.0646935" lon="7.4629429"><ele>433.57142857142856</ele><time>2026-04-27T17:32:55.123Z</time></trkpt><trkpt lat="45.0646399" lon="7.4628921"><ele>434.1428571428571</ele><time>2026-04-27T17:32:57.123Z</time></trkpt><trkpt lat="45.0645908" lon="7.4628343"><ele>434.71428571428567</ele><time>2026-04-27T17:32:59.123Z</time></trkpt><trkpt lat="45.064539" lon="7.4627816"><ele>435.2857142857143</ele><time>2026-04-27T17:33:01.123Z</time></trkpt><trkpt lat="45.0644919" lon="7.4627181"><ele>435.8571428571429</ele><time>2026-04-27T17:33:03.122Z</time></trkpt><trkpt lat="45.0644534" lon="7.4626346"><ele>436.4285714285714</ele><time>2026-04-27T17:33:05.122Z</time></trkpt><trkpt lat="45.0644172" lon="7.4625529"><ele>437.0</ele><time>2026-04-27T17:33:07.123Z</time></trkpt><trkpt lat="45.0643887" lon="7.4624621"><ele>437.0</ele><time>2026-04-27T17:33:09.123Z</time></trkpt><trkpt lat="45.0643565" lon="7.4623773"><ele>437.0</ele><time>2026-04-27T17:33:11.121Z</time></trkpt><trkpt lat="45.0643208" lon="7.4622926"><ele>437.0</ele><time>2026-04-27T17:33:13.124Z</time></trkpt><trkpt lat="45.0642802" lon="7.4622078"><ele>437.0</ele><time>2026-04-27T17:33:15.122Z</time></trkpt><trkpt lat="45.0642423" lon="7.4621241"><ele>437.0</ele><time>2026-04-27T17:33:17.124Z</time></trkpt><trkpt lat="45.0642081" lon="7.4620309"><ele>437.0</ele><time>2026-04-27T17:33:19.122Z</time></trkpt><trkpt lat="45.064177" lon="7.4619348"><ele>437.0</ele><time>2026-04-27T17:33:21.122Z</time></trkpt><trkpt lat="45.0641446" lon="7.4618379"><ele>438.0</ele><time>2026-04-27T17:33:23.122Z</time></trkpt><trkpt lat="45.064109" lon="7.4617447"><ele>439.0</ele><time>2026-04-27T17:33:25.123Z</time></trkpt><trkpt lat="45.0640718" lon="7.4616573"><ele>440.0</ele><time>2026-04-27T17:33:27.123Z</time></trkpt><trkpt lat="45.0640353" lon="7.4615754"><ele>441.0</ele><time>2026-04-27T17:33:29.123Z</time></trkpt><trkpt lat="45.0639925" lon="7.4614873"><ele>442.0</ele><time>2026-04-27T17:33:31.122Z</time></trkpt><trkpt lat="45.0639516" lon="7.4613937"><ele>443.0</ele><time>2026-04-27T17:33:33.124Z</time></trkpt><trkpt lat="45.063915" lon="7.4612959"><ele>444.0</ele><time>2026-04-27T17:33:35.123Z</time></trkpt><trkpt lat="45.0638911" lon="7.4611903"><ele>444.1666666666667</ele><time>2026-04-27T17:33:37.124Z</time></trkpt><trkpt lat="45.0638793" lon="7.4610953"><ele>444.33333333333337</ele><time>2026-04-27T17:33:39.123Z</time></trkpt><trkpt lat="45.0638762" lon="7.4609855"><ele>444.5</ele><time>2026-04-27T17:33:41.123Z</time></trkpt><trkpt lat="45.0638693" lon="7.4608726"><ele>444.6666666666667</ele><time>2026-04-27T17:33:43.123Z</time></trkpt><trkpt lat="45.0638572" lon="7.460756"><ele>444.83333333333337</ele><time>2026-04-27T17:33:45.122Z</time></trkpt><trkpt lat="45.0638412" lon="7.4606546"><ele>445.0</ele><time>2026-04-27T17:33:47.123Z</time></trkpt><trkpt lat="45.0638255" lon="7.4605567"><ele>445.00000000000006</ele><time>2026-04-27T17:33:49.123Z</time></trkpt><trkpt lat="45.063807" lon="7.4604305"><ele>445.0</ele><time>2026-04-27T17:33:52.123Z</time></trkpt><trkpt lat="45.0637839" lon="7.4603395"><ele>445.0</ele><time>2026-04-27T17:33:54.122Z</time></trkpt><trkpt lat="45.0637426" lon="7.4602337"><ele>445.0</ele><time>2026-04-27T17:33:57.123Z</time></trkpt><trkpt lat="45.063693" lon="7.4601444"><ele>445.00000000000006</ele><time>2026-04-27T17:34:01.122Z</time></trkpt><trkpt lat="45.0636241" lon="7.4600937"><ele>445.0</ele><time>2026-04-27T17:34:04.122Z</time></trkpt><trkpt lat="45.0635598" lon="7.4600628"><ele>445.00000000000006</ele><time>2026-04-27T17:34:07.123Z</time></trkpt><trkpt lat="45.0634847" lon="7.4600402"><ele>445.0</ele><time>2026-04-27T17:34:11.122Z</time></trkpt><trkpt lat="45.0634629" lon="7.4599396"><ele>445.0</ele><time>2026-04-27T17:34:32.123Z</time></trkpt><trkpt lat="45.0635196" lon="7.4598399"><ele>445.0</ele><time>2026-04-27T17:34:35.123Z</time></trkpt><trkpt lat="45.0635676" lon="7.4597534"><ele>445.00000000000006</ele><time>2026-04-27T17:34:37.123Z</time></trkpt><trkpt lat="45.0636049" lon="7.4596547"><ele>445.0</ele><time>2026-04-27T17:34:39.123Z</time></trkpt><trkpt lat="45.0636439" lon="7.4594881"><ele>445.0</ele><time>2026-04-27T17:34:41.122Z</time></trkpt><trkpt lat="45.0636947" lon="7.4593353"><ele>445.0</ele><time>2026-04-27T17:34:43.123Z</time></trkpt><trkpt lat="45.0637348" lon="7.4591811"><ele>445.0</ele><time>2026-04-27T17:34:45.122Z</time></trkpt><trkpt lat="45.0637305" lon="7.459075"><ele>445.0</ele><time>2026-04-27T17:34:46.123Z</time></trkpt><trkpt lat="45.0637492" lon="7.4589839"><ele>445.0</ele><time>2026-04-27T17:34:47.124Z</time></trkpt><trkpt lat="45.0637608" lon="7.4588343"><ele>444.83333333333337</ele><time>2026-04-27T17:34:49.123Z</time></trkpt><trkpt lat="45.0637593" lon="7.458742"><ele>444.6666666666667</ele><time>2026-04-27T17:34:50.124Z</time></trkpt><trkpt lat="45.0637939" lon="7.4586261"><ele>444.5</ele><time>2026-04-27T17:34:51.121Z</time></trkpt><trkpt lat="45.0638184" lon="7.458532"><ele>444.33333333333337</ele><time>2026-04-27T17:34:52.124Z</time></trkpt><trkpt lat="45.063826" lon="7.4584425"><ele>444.1666666666667</ele><time>2026-04-27T17:34:53.123Z</time></trkpt><trkpt lat="45.0638283" lon="7.4583507"><ele>444.0</ele><time>2026-04-27T17:34:54.122Z</time></trkpt><trkpt lat="45.063845" lon="7.4581762"><ele>444.0</ele><time>2026-04-27T17:34:56.123Z</time></trkpt><trkpt lat="45.0638278" lon="7.4580078"><ele>444.0</ele><time>2026-04-27T17:34:58.123Z</time></trkpt><trkpt lat="45.063826" lon="7.4578797"><ele>444.0</ele><time>2026-04-27T17:35:00.123Z</time></trkpt><trkpt lat="45.0638211" lon="7.457773"><ele>444.0</ele><time>2026-04-27T17:35:02.122Z</time></trkpt><trkpt lat="45.0638266" lon="7.4576509"><ele>444.0</ele><time>2026-04-27T17:35:04.124Z</time></trkpt><trkpt lat="45.0638169" lon="7.4575162"><ele>444.1666666666667</ele><time>2026-04-27T17:35:06.123Z</time></trkpt><trkpt lat="45.0638109" lon="7.4573937"><ele>444.33333333333337</ele><time>2026-04-27T17:35:08.123Z</time></trkpt><trkpt lat="45.0637738" lon="7.4572737"><ele>444.5</ele><time>2026-04-27T17:35:10.122Z</time></trkpt><trkpt lat="45.0637497" lon="7.4571847"><ele>444.6666666666667</ele><time>2026-04-27T17:35:12.124Z</time></trkpt><trkpt lat="45.063724" lon="7.4570801"><ele>444.83333333333337</ele><time>2026-04-27T17:35:15.122Z</time></trkpt><trkpt lat="45.0636838" lon="7.4570095"><ele>445.0</ele><time>2026-04-27T17:35:18.123Z</time></trkpt><trkpt lat="45.0636284" lon="7.456936"><ele>445.14285714285717</ele><time>2026-04-27T17:35:22.123Z</time></trkpt><trkpt lat="45.0635861" lon="7.4568699"><ele>445.2857142857143</ele><time>2026-04-27T17:35:25.122Z</time></trkpt><trkpt lat="45.063552" lon="7.4567831"><ele>445.42857142857144</ele><time>2026-04-27T17:35:29.122Z</time></trkpt><trkpt lat="45.0635339" lon="7.4566914"><ele>445.57142857142856</ele><time>2026-04-27T17:35:32.123Z</time></trkpt><trkpt lat="45.063529" lon="7.4565927"><ele>445.71428571428567</ele><time>2026-04-27T17:35:35.122Z</time></trkpt><trkpt lat="45.063507" lon="7.4564773"><ele>445.85714285714283</ele><time>2026-04-27T17:35:38.123Z</time></trkpt><trkpt lat="45.0635185" lon="7.4563561"><ele>446.0</ele><time>2026-04-27T17:35:41.123Z</time></trkpt><trkpt lat="45.0635511" lon="7.45623"><ele>445.42857142857144</ele><time>2026-04-27T17:35:44.123Z</time></trkpt><trkpt lat="45.0635683" lon="7.4561295"><ele>444.85714285714283</ele><time>2026-04-27T17:35:46.123Z</time></trkpt><trkpt lat="45.0635789" lon="7.4560267"><ele>444.28571428571433</ele><time>2026-04-27T17:35:48.124Z</time></trkpt><trkpt lat="45.0635729" lon="7.455923"><ele>443.7142857142857</ele><time>2026-04-27T17:35:50.123Z</time></trkpt><trkpt lat="45.063565" lon="7.4558192"><ele>443.14285714285717</ele><time>2026-04-27T17:35:52.123Z</time></trkpt><trkpt lat="45.063558" lon="7.4557297"><ele>442.5714285714286</ele><time>2026-04-27T17:35:54.123Z</time></trkpt><trkpt lat="45.0635542" lon="7.4556192"><ele>442.0</ele><time>2026-04-27T17:35:57.124Z</time></trkpt><trkpt lat="45.0635247" lon="7.4555356"><ele>442.50000000000006</ele><time>2026-04-27T17:35:59.123Z</time></trkpt><trkpt lat="45.0635002" lon="7.4554349"><ele>443.0</ele><time>2026-04-27T17:36:01.123Z</time></trkpt><trkpt lat="45.0634848" lon="7.4553377"><ele>443.5</ele><time>2026-04-27T17:36:03.123Z</time></trkpt><trkpt lat="45.0634765" lon="7.4552327"><ele>444.0</ele><time>2026-04-27T17:36:05.123Z</time></trkpt><trkpt lat="45.0634786" lon="7.455106"><ele>444.50000000000006</ele><time>2026-04-27T17:36:08.123Z</time></trkpt><trkpt lat="45.0634772" lon="7.4550086"><ele>445.0</ele><time>2026-04-27T17:36:10.123Z</time></trkpt><trkpt lat="45.0634473" lon="7.4549127"><ele>445.00000000000006</ele><time>2026-04-27T17:36:12.123Z</time></trkpt><trkpt lat="45.0633903" lon="7.4548375"><ele>445.0</ele><time>2026-04-27T17:36:14.123Z</time></trkpt><trkpt lat="45.0633327" lon="7.4547694"><ele>445.0</ele><time>2026-04-27T17:36:16.123Z</time></trkpt><trkpt lat="45.0632885" lon="7.4547055"><ele>445.0</ele><time>2026-04-27T17:36:18.123Z</time></trkpt><trkpt lat="45.0632653" lon="7.4545793"><ele>445.00000000000006</ele><time>2026-04-27T17:36:21.123Z</time></trkpt><trkpt lat="45.063243" lon="7.4544595"><ele>445.0</ele><time>2026-04-27T17:36:24.123Z</time></trkpt><trkpt lat="45.0632053" lon="7.4543333"><ele>446.28571428571433</ele><time>2026-04-27T17:36:27.123Z</time></trkpt><trkpt lat="45.0631752" lon="7.4542387"><ele>447.57142857142856</ele><time>2026-04-27T17:36:29.123Z</time></trkpt><trkpt lat="45.0631514" lon="7.4541491"><ele>448.8571428571429</ele><time>2026-04-27T17:36:31.123Z</time></trkpt><trkpt lat="45.0631207" lon="7.45406"><ele>450.14285714285717</ele><time>2026-04-27T17:36:33.122Z</time></trkpt><trkpt lat="45.0631106" lon="7.4539597"><ele>451.42857142857144</ele><time>2026-04-27T17:36:35.122Z</time></trkpt><trkpt lat="45.0631076" lon="7.4538642"><ele>452.7142857142857</ele><time>2026-04-27T17:36:37.122Z</time></trkpt><trkpt lat="45.0631055" lon="7.4537708"><ele>454.0</ele><time>2026-04-27T17:36:40.123Z</time></trkpt><trkpt lat="45.0630952" lon="7.4536728"><ele>454.0</ele><time>2026-04-27T17:36:57.122Z</time></trkpt><trkpt lat="45.0630303" lon="7.4536909"><ele>454.00000000000006</ele><time>2026-04-27T17:37:02.124Z</time></trkpt><trkpt lat="45.062961" lon="7.4537085"><ele>454.0</ele><time>2026-04-27T17:37:05.122Z</time></trkpt><trkpt lat="45.0628766" lon="7.4537059"><ele>454.0</ele><time>2026-04-27T17:37:08.123Z</time></trkpt><trkpt lat="45.0628102" lon="7.4537359"><ele>454.00000000000006</ele><time>2026-04-27T17:37:10.124Z</time></trkpt><trkpt lat="45.062742" lon="7.4538065"><ele>454.0</ele><time>2026-04-27T17:37:12.122Z</time></trkpt><trkpt lat="45.0626964" lon="7.4538827"><ele>454.0</ele><time>2026-04-27T17:37:14.123Z</time></trkpt><trkpt lat="45.0626784" lon="7.453976"><ele>454.00000000000006</ele><time>2026-04-27T17:37:16.124Z</time></trkpt><trkpt lat="45.0626469" lon="7.4540816"><ele>454.0</ele><time>2026-04-27T17:37:18.122Z</time></trkpt><trkpt lat="45.0625974" lon="7.4541905"><ele>454.0</ele><time>2026-04-27T17:37:20.123Z</time></trkpt><trkpt lat="45.0625522" lon="7.4542662"><ele>454.0</ele><time>2026-04-27T17:37:21.124Z</time></trkpt><trkpt lat="45.0624882" lon="7.4543394"><ele>454.00000000000006</ele><time>2026-04-27T17:37:23.124Z</time></trkpt><trkpt lat="45.0624331" lon="7.4544306"><ele>454.0</ele><time>2026-04-27T17:37:25.123Z</time></trkpt><trkpt lat="45.0623626" lon="7.4545282"><ele>454.83333333333337</ele><time>2026-04-27T17:37:27.122Z</time></trkpt><trkpt lat="45.062288" lon="7.4545792"><ele>455.6666666666667</ele><time>2026-04-27T17:37:29.123Z</time></trkpt><trkpt lat="45.0621993" lon="7.4546298"><ele>456.5</ele><time>2026-04-27T17:37:31.122Z</time></trkpt><trkpt lat="45.0621234" lon="7.4546831"><ele>457.33333333333337</ele><time>2026-04-27T17:37:33.122Z</time></trkpt><trkpt lat="45.0620607" lon="7.4547315"><ele>458.1666666666667</ele><time>2026-04-27T17:37:35.123Z</time></trkpt><trkpt lat="45.0619897" lon="7.4547842"><ele>459.0</ele><time>2026-04-27T17:37:37.122Z</time></trkpt><trkpt lat="45.0619223" lon="7.4547475"><ele>459.0</ele><time>2026-04-27T17:37:39.124Z</time></trkpt><trkpt lat="45.0618772" lon="7.4546779"><ele>459.0</ele><time>2026-04-27T17:37:41.123Z</time></trkpt><trkpt lat="45.061855" lon="7.4545548"><ele>459.0</ele><time>2026-04-27T17:37:44.123Z</time></trkpt><trkpt lat="45.0618145" lon="7.4544697"><ele>459.0</ele><time>2026-04-27T17:37:46.122Z</time></trkpt><trkpt lat="45.0617465" lon="7.4543916"><ele>459.0</ele><time>2026-04-27T17:37:48.124Z</time></trkpt><trkpt lat="45.0616999" lon="7.4543248"><ele>459.0</ele><time>2026-04-27T17:37:50.122Z</time></trkpt><trkpt lat="45.0616403" lon="7.4542614"><ele>461.14285714285717</ele><time>2026-04-27T17:37:52.122Z</time></trkpt><trkpt lat="45.0615872" lon="7.4541991"><ele>463.2857142857142</ele><time>2026-04-27T17:37:54.123Z</time></trkpt><trkpt lat="45.061539" lon="7.4541222"><ele>465.4285714285714</ele><time>2026-04-27T17:37:56.123Z</time></trkpt><trkpt lat="45.0614806" lon="7.4540704"><ele>467.57142857142856</ele><time>2026-04-27T17:37:58.123Z</time></trkpt><trkpt lat="45.0614339" lon="7.4540067"><ele>469.71428571428567</ele><time>2026-04-27T17:38:00.122Z</time></trkpt><trkpt lat="45.0614241" lon="7.4538951"><ele>471.8571428571428</ele><time>2026-04-27T17:38:03.122Z</time></trkpt><trkpt lat="45.0614316" lon="7.453769"><ele>473.99999999999994</ele><time>2026-04-27T17:38:06.123Z</time></trkpt><trkpt lat="45.061435" lon="7.4536733"><ele>474.1428571428571</ele><time>2026-04-27T17:38:08.123Z</time></trkpt><trkpt lat="45.0614517" lon="7.4535785"><ele>474.2857142857143</ele><time>2026-04-27T17:38:10.122Z</time></trkpt><trkpt lat="45.0614509" lon="7.453483"><ele>474.42857142857144</ele><time>2026-04-27T17:38:12.122Z</time></trkpt><trkpt lat="45.061439" lon="7.4533831"><ele>474.57142857142856</ele><time>2026-04-27T17:38:14.123Z</time></trkpt><trkpt lat="45.0614118" lon="7.4532691"><ele>474.7142857142858</ele><time>2026-04-27T17:38:17.122Z</time></trkpt><trkpt lat="45.0613814" lon="7.4531734"><ele>474.8571428571429</ele><time>2026-04-27T17:38:19.123Z</time></trkpt><trkpt lat="45.0613438" lon="7.4530916"><ele>475.0</ele><time>2026-04-27T17:38:21.123Z</time></trkpt><trkpt lat="45.061284" lon="7.4529937"><ele>475.1666666666667</ele><time>2026-04-27T17:38:24.123Z</time></trkpt><trkpt lat="45.0612289" lon="7.4529297"><ele>475.33333333333337</ele><time>2026-04-27T17:38:26.123Z</time></trkpt><trkpt lat="45.0611886" lon="7.4528516"><ele>475.5</ele><time>2026-04-27T17:38:28.123Z</time></trkpt><trkpt lat="45.0611741" lon="7.4527349"><ele>475.66666666666663</ele><time>2026-04-27T17:38:30.123Z</time></trkpt><trkpt lat="45.0611588" lon="7.452619"><ele>475.8333333333333</ele><time>2026-04-27T17:38:33.123Z</time></trkpt><trkpt lat="45.0611397" lon="7.4524822"><ele>476.0</ele><time>2026-04-27T17:38:36.123Z</time></trkpt><trkpt lat="45.0611214" lon="7.4523662"><ele>476.0</ele><time>2026-04-27T17:38:38.123Z</time></trkpt><trkpt lat="45.0611065" lon="7.4522601"><ele>476.0</ele><time>2026-04-27T17:38:40.124Z</time></trkpt><trkpt lat="45.0610934" lon="7.4521447"><ele>476.0</ele><time>2026-04-27T17:38:42.122Z</time></trkpt><trkpt lat="45.0610872" lon="7.4520516"><ele>476.0</ele><time>2026-04-27T17:38:44.123Z</time></trkpt><trkpt lat="45.0610693" lon="7.4519612"><ele>476.0</ele><time>2026-04-27T17:38:46.124Z</time></trkpt><trkpt lat="45.0610456" lon="7.4518721"><ele>476.0</ele><time>2026-04-27T17:38:48.123Z</time></trkpt><trkpt lat="45.0610041" lon="7.4517766"><ele>476.0</ele><time>2026-04-27T17:38:50.124Z</time></trkpt><trkpt lat="45.0609538" lon="7.4516894"><ele>475.99999999999994</ele><time>2026-04-27T17:38:52.124Z</time></trkpt><trkpt lat="45.0609282" lon="7.4515724"><ele>476.0</ele><time>2026-04-27T17:38:54.123Z</time></trkpt><trkpt lat="45.0609206" lon="7.4514599"><ele>476.0</ele><time>2026-04-27T17:38:56.123Z</time></trkpt><trkpt lat="45.0609019" lon="7.4513629"><ele>476.0</ele><time>2026-04-27T17:38:58.122Z</time></trkpt><trkpt lat="45.0609174" lon="7.4512395"><ele>475.99999999999994</ele><time>2026-04-27T17:39:01.122Z</time></trkpt><trkpt lat="45.0609224" lon="7.4511504"><ele>476.0</ele><time>2026-04-27T17:39:03.123Z</time></trkpt><trkpt lat="45.0608933" lon="7.4510382"><ele>475.8333333333333</ele><time>2026-04-27T17:39:05.123Z</time></trkpt><trkpt lat="45.0608673" lon="7.4509485"><ele>475.66666666666663</ele><time>2026-04-27T17:39:07.122Z</time></trkpt><trkpt lat="45.0608439" lon="7.4508507"><ele>475.5</ele><time>2026-04-27T17:39:09.123Z</time></trkpt><trkpt lat="45.0608179" lon="7.4507346"><ele>475.33333333333337</ele><time>2026-04-27T17:39:12.123Z</time></trkpt><trkpt lat="45.0607981" lon="7.4506387"><ele>475.1666666666667</ele><time>2026-04-27T17:39:14.123Z</time></trkpt><trkpt lat="45.0607981" lon="7.450511"><ele>475.0</ele><time>2026-04-27T17:39:17.123Z</time></trkpt><trkpt lat="45.0607998" lon="7.4503827"><ele>475.00000000000006</ele><time>2026-04-27T17:39:20.123Z</time></trkpt><trkpt lat="45.0608003" lon="7.4502901"><ele>475.0</ele><time>2026-04-27T17:39:22.124Z</time></trkpt><trkpt lat="45.0607853" lon="7.450158"><ele>475.0</ele><time>2026-04-27T17:39:25.123Z</time></trkpt><trkpt lat="45.0607879" lon="7.4500633"><ele>475.0</ele><time>2026-04-27T17:39:27.123Z</time></trkpt><trkpt lat="45.0608056" lon="7.449931"><ele>475.00000000000006</ele><time>2026-04-27T17:39:30.122Z</time></trkpt><trkpt lat="45.0608534" lon="7.4498398"><ele>475.0</ele><time>2026-04-27T17:39:32.123Z</time></trkpt><trkpt lat="45.0608513" lon="7.4497472"><ele>475.00000000000006</ele><time>2026-04-27T17:39:34.124Z</time></trkpt><trkpt lat="45.0608143" lon="7.4496524"><ele>475.0</ele><time>2026-04-27T17:39:36.123Z</time></trkpt><trkpt lat="45.0607733" lon="7.4495656"><ele>475.0</ele><time>2026-04-27T17:39:38.123Z</time></trkpt><trkpt lat="45.0607413" lon="7.4494884"><ele>475.0</ele><time>2026-04-27T17:39:40.122Z</time></trkpt><trkpt lat="45.0607299" lon="7.4493893"><ele>475.00000000000006</ele><time>2026-04-27T17:39:42.123Z</time></trkpt><trkpt lat="45.060723" lon="7.4492684"><ele>475.0</ele><time>2026-04-27T17:39:44.123Z</time></trkpt><trkpt lat="45.0607068" lon="7.4491413"><ele>477.33333333333337</ele><time>2026-04-27T17:39:46.123Z</time></trkpt><trkpt lat="45.0606787" lon="7.4490348"><ele>479.6666666666667</ele><time>2026-04-27T17:39:48.123Z</time></trkpt><trkpt lat="45.0606412" lon="7.4489371"><ele>482.0</ele><time>2026-04-27T17:39:50.125Z</time></trkpt><trkpt lat="45.0606046" lon="7.4488392"><ele>484.33333333333337</ele><time>2026-04-27T17:39:52.123Z</time></trkpt><trkpt lat="45.0606026" lon="7.4487374"><ele>486.6666666666667</ele><time>2026-04-27T17:39:54.123Z</time></trkpt><trkpt lat="45.0605932" lon="7.4486253"><ele>489.0</ele><time>2026-04-27T17:39:56.124Z</time></trkpt><trkpt lat="45.0605874" lon="7.4485343"><ele>489.0</ele><time>2026-04-27T17:39:57.124Z</time></trkpt><trkpt lat="45.0605857" lon="7.4484199"><ele>489.0</ele><time>2026-04-27T17:39:59.123Z</time></trkpt><trkpt lat="45.0605565" lon="7.4483306"><ele>489.0</ele><time>2026-04-27T17:40:01.123Z</time></trkpt><trkpt lat="45.0605547" lon="7.4482269"><ele>489.0</ele><time>2026-04-27T17:40:03.123Z</time></trkpt><trkpt lat="45.0605218" lon="7.4481424"><ele>489.0</ele><time>2026-04-27T17:40:05.123Z</time></trkpt><trkpt lat="45.0605215" lon="7.448003"><ele>489.0</ele><time>2026-04-27T17:40:08.123Z</time></trkpt><trkpt lat="45.0605305" lon="7.4479123"><ele>488.8333333333333</ele><time>2026-04-27T17:40:10.124Z</time></trkpt><trkpt lat="45.0605535" lon="7.4477922"><ele>488.66666666666663</ele><time>2026-04-27T17:40:12.122Z</time></trkpt><trkpt lat="45.0605521" lon="7.4476791"><ele>488.5</ele><time>2026-04-27T17:40:14.122Z</time></trkpt><trkpt lat="45.0605319" lon="7.4475701"><ele>488.3333333333333</ele><time>2026-04-27T17:40:16.124Z</time></trkpt><trkpt lat="45.0604851" lon="7.4474635"><ele>488.16666666666663</ele><time>2026-04-27T17:40:18.123Z</time></trkpt><trkpt lat="45.0604548" lon="7.4473588"><ele>488.0</ele><time>2026-04-27T17:40:20.123Z</time></trkpt><trkpt lat="45.0604176" lon="7.44725"><ele>487.99999999999994</ele><time>2026-04-27T17:40:22.123Z</time></trkpt><trkpt lat="45.0603931" lon="7.4471536"><ele>488.0</ele><time>2026-04-27T17:40:24.123Z</time></trkpt><trkpt lat="45.0603765" lon="7.4470551"><ele>488.0</ele><time>2026-04-27T17:40:26.123Z</time></trkpt><trkpt lat="45.060362" lon="7.4469384"><ele>488.0</ele><time>2026-04-27T17:40:28.124Z</time></trkpt><trkpt lat="45.0603571" lon="7.4468215"><ele>487.99999999999994</ele><time>2026-04-27T17:40:30.123Z</time></trkpt><trkpt lat="45.0603481" lon="7.4467102"><ele>488.0</ele><time>2026-04-27T17:40:32.124Z</time></trkpt><trkpt lat="45.0603258" lon="7.4466136"><ele>487.3333333333333</ele><time>2026-04-27T17:40:34.122Z</time></trkpt><trkpt lat="45.0603005" lon="7.4465155"><ele>486.66666666666663</ele><time>2026-04-27T17:40:36.123Z</time></trkpt><trkpt lat="45.0602826" lon="7.4463995"><ele>486.0</ele><time>2026-04-27T17:40:38.124Z</time></trkpt><trkpt lat="45.06029" lon="7.4462601"><ele>485.33333333333337</ele><time>2026-04-27T17:40:40.124Z</time></trkpt><trkpt lat="45.0602904" lon="7.4461365"><ele>484.6666666666667</ele><time>2026-04-27T17:40:42.123Z</time></trkpt><trkpt lat="45.0602871" lon="7.4460249"><ele>484.0</ele><time>2026-04-27T17:40:44.122Z</time></trkpt><trkpt lat="45.0602695" lon="7.4459194"><ele>483.79999999999995</ele><time>2026-04-27T17:40:46.122Z</time></trkpt><trkpt lat="45.0602406" lon="7.4457789"><ele>483.59999999999997</ele><time>2026-04-27T17:40:48.123Z</time></trkpt><trkpt lat="45.0602267" lon="7.4456638"><ele>483.4</ele><time>2026-04-27T17:40:50.122Z</time></trkpt><trkpt lat="45.0602187" lon="7.4455185"><ele>483.2</ele><time>2026-04-27T17:40:52.123Z</time></trkpt><trkpt lat="45.0602321" lon="7.4453942"><ele>483.0</ele><time>2026-04-27T17:40:54.122Z</time></trkpt><trkpt lat="45.0602132" lon="7.4452797"><ele>482.8333333333333</ele><time>2026-04-27T17:40:56.124Z</time></trkpt><trkpt lat="45.0601959" lon="7.4451697"><ele>482.66666666666663</ele><time>2026-04-27T17:40:58.123Z</time></trkpt><trkpt lat="45.0601739" lon="7.4450611"><ele>482.5</ele><time>2026-04-27T17:41:00.123Z</time></trkpt><trkpt lat="45.060135" lon="7.4449646"><ele>482.3333333333333</ele><time>2026-04-27T17:41:02.123Z</time></trkpt><trkpt lat="45.0600871" lon="7.4448915"><ele>482.16666666666663</ele><time>2026-04-27T17:41:04.124Z</time></trkpt><trkpt lat="45.0600509" lon="7.4447795"><ele>482.0</ele><time>2026-04-27T17:41:06.123Z</time></trkpt><trkpt lat="45.0600117" lon="7.4446802"><ele>481.8333333333333</ele><time>2026-04-27T17:41:08.125Z</time></trkpt><trkpt lat="45.0599826" lon="7.4445876"><ele>481.66666666666663</ele><time>2026-04-27T17:41:10.123Z</time></trkpt><trkpt lat="45.0599542" lon="7.444471"><ele>481.5</ele><time>2026-04-27T17:41:12.123Z</time></trkpt><trkpt lat="45.059935" lon="7.4443607"><ele>481.33333333333337</ele><time>2026-04-27T17:41:14.123Z</time></trkpt><trkpt lat="45.059895" lon="7.4442397"><ele>481.1666666666667</ele><time>2026-04-27T17:41:16.124Z</time></trkpt><trkpt lat="45.0598689" lon="7.4441531"><ele>481.0</ele><time>2026-04-27T17:41:18.124Z</time></trkpt><trkpt lat="45.0598492" lon="7.4440497"><ele>482.6666666666667</ele><time>2026-04-27T17:41:20.122Z</time></trkpt><trkpt lat="45.0598364" lon="7.4439507"><ele>484.33333333333337</ele><time>2026-04-27T17:41:22.124Z</time></trkpt><trkpt lat="45.0598297" lon="7.4438385"><ele>486.0</ele><time>2026-04-27T17:41:24.123Z</time></trkpt><trkpt lat="45.059785" lon="7.4437469"><ele>487.66666666666663</ele><time>2026-04-27T17:41:26.123Z</time></trkpt><trkpt lat="45.0597608" lon="7.4436378"><ele>489.3333333333333</ele><time>2026-04-27T17:41:28.123Z</time></trkpt><trkpt lat="45.0597101" lon="7.4435432"><ele>491.0</ele><time>2026-04-27T17:41:31.124Z</time></trkpt><trkpt lat="45.0596518" lon="7.4434659"><ele>490.99999999999994</ele><time>2026-04-27T17:41:33.123Z</time></trkpt><trkpt lat="45.0596017" lon="7.4434074"><ele>491.0</ele><time>2026-04-27T17:41:35.124Z</time></trkpt><trkpt lat="45.0595362" lon="7.4433179"><ele>491.0</ele><time>2026-04-27T17:41:38.123Z</time></trkpt><trkpt lat="45.0595006" lon="7.4432226"><ele>491.0</ele><time>2026-04-27T17:41:41.123Z</time></trkpt><trkpt lat="45.0594935" lon="7.4431068"><ele>490.99999999999994</ele><time>2026-04-27T17:41:44.123Z</time></trkpt><trkpt lat="45.0594344" lon="7.4430227"><ele>491.0</ele><time>2026-04-27T17:41:47.123Z</time></trkpt><trkpt lat="45.059371" lon="7.4429683"><ele>490.57142857142856</ele><time>2026-04-27T17:41:50.124Z</time></trkpt><trkpt lat="45.0592987" lon="7.4428997"><ele>490.1428571428571</ele><time>2026-04-27T17:41:53.123Z</time></trkpt><trkpt lat="45.0592337" lon="7.4428664"><ele>489.71428571428567</ele><time>2026-04-27T17:41:56.123Z</time></trkpt><trkpt lat="45.0591622" lon="7.4428208"><ele>489.2857142857142</ele><time>2026-04-27T17:41:59.123Z</time></trkpt><trkpt lat="45.0590968" lon="7.4427807"><ele>488.85714285714283</ele><time>2026-04-27T17:42:02.122Z</time></trkpt><trkpt lat="45.0590235" lon="7.4427994"><ele>488.42857142857133</ele><time>2026-04-27T17:42:05.123Z</time></trkpt><trkpt lat="45.058962" lon="7.4428366"><ele>487.99999999999994</ele><time>2026-04-27T17:42:08.123Z</time></trkpt><trkpt lat="45.058879" lon="7.4428561"><ele>489.16666666666663</ele><time>2026-04-27T17:42:11.123Z</time></trkpt><trkpt lat="45.0588635" lon="7.4427484"><ele>490.3333333333333</ele><time>2026-04-27T17:42:19.124Z</time></trkpt><trkpt lat="45.0588787" lon="7.4426521"><ele>491.5</ele><time>2026-04-27T17:42:22.124Z</time></trkpt><trkpt lat="45.0588743" lon="7.4425511"><ele>492.66666666666663</ele><time>2026-04-27T17:42:24.123Z</time></trkpt><trkpt lat="45.0588478" lon="7.4424324"><ele>493.8333333333333</ele><time>2026-04-27T17:42:26.124Z</time></trkpt><trkpt lat="45.0588205" lon="7.4423306"><ele>495.0</ele><time>2026-04-27T17:42:28.123Z</time></trkpt><trkpt lat="45.0587988" lon="7.4422372"><ele>495.3333333333333</ele><time>2026-04-27T17:42:30.122Z</time></trkpt><trkpt lat="45.0587858" lon="7.4421006"><ele>495.66666666666663</ele><time>2026-04-27T17:42:33.124Z</time></trkpt><trkpt lat="45.0587763" lon="7.4419913"><ele>496.0</ele><time>2026-04-27T17:42:35.122Z</time></trkpt><trkpt lat="45.0587521" lon="7.4418751"><ele>496.3333333333333</ele><time>2026-04-27T17:42:37.122Z</time></trkpt><trkpt lat="45.0587257" lon="7.4417632"><ele>496.66666666666663</ele><time>2026-04-27T17:42:39.122Z</time></trkpt><trkpt lat="45.0587056" lon="7.4416599"><ele>497.0</ele><time>2026-04-27T17:42:41.123Z</time></trkpt><trkpt lat="45.0586761" lon="7.4415485"><ele>497.0</ele><time>2026-04-27T17:42:43.123Z</time></trkpt><trkpt lat="45.0586552" lon="7.4414227"><ele>497.00000000000006</ele><time>2026-04-27T17:42:45.123Z</time></trkpt><trkpt lat="45.0586818" lon="7.4413278"><ele>497.00000000000006</ele><time>2026-04-27T17:42:47.123Z</time></trkpt><trkpt lat="45.0587557" lon="7.4412156"><ele>497.0</ele><time>2026-04-27T17:42:49.123Z</time></trkpt><trkpt lat="45.0588107" lon="7.4410668"><ele>497.0</ele><time>2026-04-27T17:42:51.124Z</time></trkpt><trkpt lat="45.0588455" lon="7.4409868"><ele>497.3333333333333</ele><time>2026-04-27T17:42:52.123Z</time></trkpt><trkpt lat="45.0588356" lon="7.4408249"><ele>497.66666666666663</ele><time>2026-04-27T17:42:54.125Z</time></trkpt><trkpt lat="45.0588114" lon="7.4407122"><ele>498.0</ele><time>2026-04-27T17:42:56.123Z</time></trkpt><trkpt lat="45.0587914" lon="7.4406076"><ele>498.33333333333337</ele><time>2026-04-27T17:42:58.123Z</time></trkpt><trkpt lat="45.0587479" lon="7.4405183"><ele>498.6666666666667</ele><time>2026-04-27T17:43:01.123Z</time></trkpt><trkpt lat="45.05871" lon="7.440429"><ele>499.0</ele><time>2026-04-27T17:43:04.123Z</time></trkpt><trkpt lat="45.0586834" lon="7.4403403"><ele>499.33333333333337</ele><time>2026-04-27T17:43:07.123Z</time></trkpt><trkpt lat="45.0586879" lon="7.4402257"><ele>499.6666666666667</ele><time>2026-04-27T17:43:10.124Z</time></trkpt><trkpt lat="45.0586884" lon="7.440111"><ele>500.0</ele><time>2026-04-27T17:43:14.124Z</time></trkpt><trkpt lat="45.0586849" lon="7.4400183"><ele>500.33333333333337</ele><time>2026-04-27T17:43:17.123Z</time></trkpt><trkpt lat="45.0586833" lon="7.439893"><ele>500.6666666666667</ele><time>2026-04-27T17:43:21.123Z</time></trkpt><trkpt lat="45.0586933" lon="7.4397823"><ele>501.0</ele><time>2026-04-27T17:43:24.123Z</time></trkpt><trkpt lat="45.0587114" lon="7.4396619"><ele>501.0</ele><time>2026-04-27T17:43:27.123Z</time></trkpt><trkpt lat="45.0587349" lon="7.4395395"><ele>501.0</ele><time>2026-04-27T17:43:30.123Z</time></trkpt><trkpt lat="45.058744" lon="7.439417"><ele>501.0</ele><time>2026-04-27T17:43:33.123Z</time></trkpt><trkpt lat="45.0587203" lon="7.4393064"><ele>501.0</ele><time>2026-04-27T17:43:36.124Z</time></trkpt><trkpt lat="45.058687" lon="7.4392005"><ele>501.0</ele><time>2026-04-27T17:43:39.124Z</time></trkpt><trkpt lat="45.0586282" lon="7.4391021"><ele>501.0</ele><time>2026-04-27T17:43:42.123Z</time></trkpt><trkpt lat="45.0585912" lon="7.4390161"><ele>501.0</ele><time>2026-04-27T17:43:44.123Z</time></trkpt><trkpt lat="45.0585763" lon="7.4388972"><ele>501.0</ele><time>2026-04-27T17:43:47.123Z</time></trkpt><trkpt lat="45.0585171" lon="7.4388088"><ele>501.0</ele><time>2026-04-27T17:43:50.123Z</time></trkpt><trkpt lat="45.0584466" lon="7.4387509"><ele>501.0</ele><time>2026-04-27T17:43:52.124Z</time></trkpt><trkpt lat="45.0583859" lon="7.4387219"><ele>501.0</ele><time>2026-04-27T17:43:53.122Z</time></trkpt><trkpt lat="45.0583169" lon="7.4386754"><ele>501.0</ele><time>2026-04-27T17:43:55.124Z</time></trkpt><trkpt lat="45.0582389" lon="7.4386233"><ele>501.0</ele><time>2026-04-27T17:43:57.123Z</time></trkpt><trkpt lat="45.058176" lon="7.4385607"><ele>501.0</ele><time>2026-04-27T17:43:59.124Z</time></trkpt><trkpt lat="45.0581235" lon="7.4384718"><ele>501.0</ele><time>2026-04-27T17:44:02.123Z</time></trkpt><trkpt lat="45.0581617" lon="7.4383559"><ele>501.0</ele><time>2026-04-27T17:44:04.123Z</time></trkpt><trkpt lat="45.0582075" lon="7.438256"><ele>501.0</ele><time>2026-04-27T17:44:06.124Z</time></trkpt><trkpt lat="45.0582777" lon="7.4381507"><ele>501.0</ele><time>2026-04-27T17:44:08.124Z</time></trkpt><trkpt lat="45.0583536" lon="7.4380739"><ele>501.0</ele><time>2026-04-27T17:44:10.123Z</time></trkpt><trkpt lat="45.0584289" lon="7.4379985"><ele>501.0</ele><time>2026-04-27T17:44:12.124Z</time></trkpt><trkpt lat="45.0585032" lon="7.4379285"><ele>501.0</ele><time>2026-04-27T17:44:14.123Z</time></trkpt><trkpt lat="45.0585677" lon="7.4378554"><ele>501.0</ele><time>2026-04-27T17:44:16.122Z</time></trkpt><trkpt lat="45.0586236" lon="7.4377723"><ele>501.0</ele><time>2026-04-27T17:44:18.124Z</time></trkpt><trkpt lat="45.0587013" lon="7.4376993"><ele>501.0</ele><time>2026-04-27T17:44:20.124Z</time></trkpt><trkpt lat="45.0587649" lon="7.4375999"><ele>502.5</ele><time>2026-04-27T17:44:22.124Z</time></trkpt><trkpt lat="45.058806" lon="7.4375238"><ele>504.0</ele><time>2026-04-27T17:44:24.123Z</time></trkpt><trkpt lat="45.0588524" lon="7.4374267"><ele>505.5</ele><time>2026-04-27T17:44:26.122Z</time></trkpt><trkpt lat="45.0588859" lon="7.4373263"><ele>507.0</ele><time>2026-04-27T17:44:28.124Z</time></trkpt><trkpt lat="45.0589046" lon="7.4372142"><ele>508.5</ele><time>2026-04-27T17:44:30.124Z</time></trkpt><trkpt lat="45.0589128" lon="7.4371221"><ele>510.0</ele><time>2026-04-27T17:44:32.122Z</time></trkpt><trkpt lat="45.0589216" lon="7.4369835"><ele>510.1666666666667</ele><time>2026-04-27T17:44:35.123Z</time></trkpt><trkpt lat="45.0589399" lon="7.4368612"><ele>510.33333333333337</ele><time>2026-04-27T17:44:38.124Z</time></trkpt><trkpt lat="45.0589646" lon="7.4367472"><ele>510.5</ele><time>2026-04-27T17:44:41.122Z</time></trkpt><trkpt lat="45.0589632" lon="7.4366162"><ele>510.6666666666667</ele><time>2026-04-27T17:44:44.123Z</time></trkpt><trkpt lat="45.0589656" lon="7.4365003"><ele>510.83333333333337</ele><time>2026-04-27T17:44:47.123Z</time></trkpt><trkpt lat="45.0589547" lon="7.4363974"><ele>511.0</ele><time>2026-04-27T17:44:50.124Z</time></trkpt><trkpt lat="45.0589572" lon="7.4362778"><ele>511.0</ele><time>2026-04-27T17:44:53.125Z</time></trkpt><trkpt lat="45.0589709" lon="7.4361879"><ele>511.0</ele><time>2026-04-27T17:44:55.123Z</time></trkpt><trkpt lat="45.0589887" lon="7.4360564"><ele>511.0</ele><time>2026-04-27T17:44:58.124Z</time></trkpt><trkpt lat="45.0589952" lon="7.4359456"><ele>511.0</ele><time>2026-04-27T17:45:01.123Z</time></trkpt><trkpt lat="45.0590021" lon="7.4358548"><ele>511.0</ele><time>2026-04-27T17:45:03.122Z</time></trkpt><trkpt lat="45.0590094" lon="7.4357553"><ele>511.0</ele><time>2026-04-27T17:45:05.124Z</time></trkpt><trkpt lat="45.0590291" lon="7.4356669"><ele>511.0</ele><time>2026-04-27T17:45:07.123Z</time></trkpt><trkpt lat="45.0590446" lon="7.4355672"><ele>509.83333333333337</ele><time>2026-04-27T17:45:10.125Z</time></trkpt><trkpt lat="45.0590548" lon="7.4354155"><ele>508.6666666666667</ele><time>2026-04-27T17:45:45.123Z</time></trkpt><trkpt lat="45.0590967" lon="7.4353213"><ele>507.5</ele><time>2026-04-27T17:45:49.124Z</time></trkpt><trkpt lat="45.0591634" lon="7.435248"><ele>506.33333333333337</ele><time>2026-04-27T17:45:52.122Z</time></trkpt><trkpt lat="45.0592126" lon="7.4351703"><ele>505.1666666666667</ele><time>2026-04-27T17:45:54.124Z</time></trkpt><trkpt lat="45.0592721" lon="7.4351288"><ele>504.0</ele><time>2026-04-27T17:45:56.123Z</time></trkpt><trkpt lat="45.059302" lon="7.43503"><ele>504.0</ele><time>2026-04-27T17:46:00.123Z</time></trkpt><trkpt lat="45.0593182" lon="7.4349281"><ele>504.0</ele><time>2026-04-27T17:46:07.124Z</time></trkpt><trkpt lat="45.0593394" lon="7.4348278"><ele>504.0</ele><time>2026-04-27T17:46:10.124Z</time></trkpt><trkpt lat="45.0593922" lon="7.434711"><ele>504.0</ele><time>2026-04-27T17:46:13.123Z</time></trkpt><trkpt lat="45.059424" lon="7.4346126"><ele>504.0</ele><time>2026-04-27T17:46:16.124Z</time></trkpt><trkpt lat="45.059451" lon="7.4345247"><ele>504.0</ele><time>2026-04-27T17:46:19.125Z</time></trkpt><trkpt lat="45.0594143" lon="7.434449"><ele>502.6</ele><time>2026-04-27T17:46:22.123Z</time></trkpt><trkpt lat="45.059335" lon="7.4343755"><ele>501.2</ele><time>2026-04-27T17:46:25.123Z</time></trkpt><trkpt lat="45.0592666" lon="7.4343082"><ele>499.80000000000007</ele><time>2026-04-27T17:46:27.124Z</time></trkpt><trkpt lat="45.0591945" lon="7.4342255"><ele>498.40000000000003</ele><time>2026-04-27T17:46:29.124Z</time></trkpt><trkpt lat="45.0591085" lon="7.4341338"><ele>497.0</ele><time>2026-04-27T17:46:31.123Z</time></trkpt><trkpt lat="45.0590245" lon="7.4340321"><ele>495.99999999999994</ele><time>2026-04-27T17:46:33.125Z</time></trkpt><trkpt lat="45.0589235" lon="7.4339251"><ele>495.0</ele><time>2026-04-27T17:46:35.123Z</time></trkpt><trkpt lat="45.0588706" lon="7.4338687"><ele>494.0</ele><time>2026-04-27T17:46:36.123Z</time></trkpt><trkpt lat="45.0588177" lon="7.4338028"><ele>493.0</ele><time>2026-04-27T17:46:37.124Z</time></trkpt><trkpt lat="45.0587717" lon="7.4337348"><ele>491.99999999999994</ele><time>2026-04-27T17:46:38.124Z</time></trkpt><trkpt lat="45.0587216" lon="7.4336623"><ele>491.0</ele><time>2026-04-27T17:46:39.125Z</time></trkpt><trkpt lat="45.0586789" lon="7.4335887"><ele>490.71428571428567</ele><time>2026-04-27T17:46:40.123Z</time></trkpt><trkpt lat="45.0586378" lon="7.4335057"><ele>490.4285714285714</ele><time>2026-04-27T17:46:41.124Z</time></trkpt><trkpt lat="45.0585966" lon="7.4334246"><ele>490.1428571428571</ele><time>2026-04-27T17:46:42.123Z</time></trkpt><trkpt lat="45.0585605" lon="7.4333424"><ele>489.8571428571429</ele><time>2026-04-27T17:46:43.124Z</time></trkpt><trkpt lat="45.0585295" lon="7.4332569"><ele>489.5714285714286</ele><time>2026-04-27T17:46:44.124Z</time></trkpt><trkpt lat="45.0584976" lon="7.4331711"><ele>489.28571428571433</ele><time>2026-04-27T17:46:45.124Z</time></trkpt><trkpt lat="45.0584709" lon="7.4330845"><ele>489.0</ele><time>2026-04-27T17:46:46.122Z</time></trkpt><trkpt lat="45.0584406" lon="7.4329925"><ele>489.3333333333333</ele><time>2026-04-27T17:46:47.122Z</time></trkpt><trkpt lat="45.0584105" lon="7.4329046"><ele>489.66666666666663</ele><time>2026-04-27T17:46:48.122Z</time></trkpt><trkpt lat="45.0583795" lon="7.4328186"><ele>490.0</ele><time>2026-04-27T17:46:49.123Z</time></trkpt><trkpt lat="45.0583519" lon="7.4327347"><ele>490.3333333333333</ele><time>2026-04-27T17:46:50.122Z</time></trkpt><trkpt lat="45.0583253" lon="7.4326486"><ele>490.66666666666663</ele><time>2026-04-27T17:46:51.122Z</time></trkpt><trkpt lat="45.0582913" lon="7.4325598"><ele>491.0</ele><time>2026-04-27T17:46:52.124Z</time></trkpt><trkpt lat="45.0582378" lon="7.4323996"><ele>490.1428571428571</ele><time>2026-04-27T17:46:54.123Z</time></trkpt><trkpt lat="45.0582049" lon="7.4323179"><ele>489.2857142857142</ele><time>2026-04-27T17:46:55.123Z</time></trkpt><trkpt lat="45.0581749" lon="7.4322383"><ele>488.42857142857144</ele><time>2026-04-27T17:46:56.123Z</time></trkpt><trkpt lat="45.058147" lon="7.4321527"><ele>487.57142857142856</ele><time>2026-04-27T17:46:57.124Z</time></trkpt><trkpt lat="45.0581168" lon="7.4320694"><ele>486.7142857142857</ele><time>2026-04-27T17:46:58.123Z</time></trkpt><trkpt lat="45.0580863" lon="7.431988"><ele>485.8571428571429</ele><time>2026-04-27T17:46:59.122Z</time></trkpt><trkpt lat="45.0580575" lon="7.4319048"><ele>485.00000000000006</ele><time>2026-04-27T17:47:00.122Z</time></trkpt><trkpt lat="45.0580235" lon="7.4318262"><ele>484.5</ele><time>2026-04-27T17:47:01.123Z</time></trkpt><trkpt lat="45.0579531" lon="7.4316786"><ele>484.0</ele><time>2026-04-27T17:47:03.124Z</time></trkpt><trkpt lat="45.0578788" lon="7.431536"><ele>483.5</ele><time>2026-04-27T17:47:05.124Z</time></trkpt><trkpt lat="45.0578003" lon="7.4314023"><ele>483.0</ele><time>2026-04-27T17:47:07.124Z</time></trkpt><trkpt lat="45.0577192" lon="7.4312696"><ele>484.4</ele><time>2026-04-27T17:47:09.122Z</time></trkpt><trkpt lat="45.0576473" lon="7.4311456"><ele>485.79999999999995</ele><time>2026-04-27T17:47:11.123Z</time></trkpt><trkpt lat="45.0575745" lon="7.4310313"><ele>487.2</ele><time>2026-04-27T17:47:13.124Z</time></trkpt><trkpt lat="45.0575112" lon="7.43094"><ele>488.6</ele><time>2026-04-27T17:47:15.123Z</time></trkpt><trkpt lat="45.0574579" lon="7.4308406"><ele>490.0</ele><time>2026-04-27T17:47:17.123Z</time></trkpt><trkpt lat="45.0574036" lon="7.4307549"><ele>490.2857142857143</ele><time>2026-04-27T17:47:19.123Z</time></trkpt><trkpt lat="45.0573487" lon="7.4306817"><ele>490.57142857142856</ele><time>2026-04-27T17:47:21.124Z</time></trkpt><trkpt lat="45.0573048" lon="7.4306051"><ele>490.8571428571429</ele><time>2026-04-27T17:47:23.122Z</time></trkpt><trkpt lat="45.0572607" lon="7.4305361"><ele>491.14285714285717</ele><time>2026-04-27T17:47:25.125Z</time></trkpt><trkpt lat="45.0572195" lon="7.4304666"><ele>491.42857142857144</ele><time>2026-04-27T17:47:27.123Z</time></trkpt><trkpt lat="45.0571523" lon="7.4303881"><ele>491.7142857142858</ele><time>2026-04-27T17:47:30.124Z</time></trkpt><trkpt lat="45.0570948" lon="7.4302986"><ele>492.00000000000006</ele><time>2026-04-27T17:47:33.125Z</time></trkpt><trkpt lat="45.0570342" lon="7.4302202"><ele>492.6666666666667</ele><time>2026-04-27T17:47:36.124Z</time></trkpt><trkpt lat="45.0569709" lon="7.4301423"><ele>493.33333333333337</ele><time>2026-04-27T17:47:39.123Z</time></trkpt><trkpt lat="45.0569069" lon="7.4300642"><ele>494.0</ele><time>2026-04-27T17:47:42.123Z</time></trkpt><trkpt lat="45.056841" lon="7.4299828"><ele>494.6666666666667</ele><time>2026-04-27T17:47:45.123Z</time></trkpt><trkpt lat="45.0567767" lon="7.4298917"><ele>495.33333333333337</ele><time>2026-04-27T17:47:48.124Z</time></trkpt><trkpt lat="45.0567331" lon="7.4298247"><ele>496.0</ele><time>2026-04-27T17:47:50.123Z</time></trkpt><trkpt lat="45.0566857" lon="7.4297535"><ele>496.00000000000006</ele><time>2026-04-27T17:47:52.124Z</time></trkpt><trkpt lat="45.0566337" lon="7.4296856"><ele>496.0</ele><time>2026-04-27T17:47:54.124Z</time></trkpt><trkpt lat="45.0566614" lon="7.4295773"><ele>496.0</ele><time>2026-04-27T17:47:57.124Z</time></trkpt><trkpt lat="45.0567436" lon="7.4295739"><ele>496.0</ele><time>2026-04-27T17:48:00.124Z</time></trkpt><trkpt lat="45.0568283" lon="7.4295532"><ele>496.00000000000006</ele><time>2026-04-27T17:48:03.124Z</time></trkpt><trkpt lat="45.0569151" lon="7.4295463"><ele>496.0</ele><time>2026-04-27T17:48:06.123Z</time></trkpt><trkpt lat="45.0569869" lon="7.4295364"><ele>496.0</ele><time>2026-04-27T17:48:09.122Z</time></trkpt><trkpt lat="45.0570484" lon="7.4295103"><ele>496.00000000000006</ele><time>2026-04-27T17:48:13.122Z</time></trkpt><trkpt lat="45.0571073" lon="7.4295545"><ele>496.0</ele><time>2026-04-27T17:48:51.123Z</time></trkpt><trkpt lat="45.057167" lon="7.4296272"><ele>496.0</ele><time>2026-04-27T17:48:54.124Z</time></trkpt><trkpt lat="45.0572436" lon="7.4296614"><ele>496.00000000000006</ele><time>2026-04-27T17:48:57.124Z</time></trkpt><trkpt lat="45.0573195" lon="7.4296825"><ele>496.0</ele><time>2026-04-27T17:49:00.123Z</time></trkpt><trkpt lat="45.0573967" lon="7.4296805"><ele>496.0</ele><time>2026-04-27T17:49:03.124Z</time></trkpt><trkpt lat="45.0574701" lon="7.4296894"><ele>496.1666666666667</ele><time>2026-04-27T17:49:06.123Z</time></trkpt><trkpt lat="45.0575467" lon="7.4297208"><ele>496.33333333333337</ele><time>2026-04-27T17:49:09.124Z</time></trkpt><trkpt lat="45.0576275" lon="7.4297448"><ele>496.5</ele><time>2026-04-27T17:49:12.124Z</time></trkpt><trkpt lat="45.0577087" lon="7.4297698"><ele>496.66666666666663</ele><time>2026-04-27T17:49:15.123Z</time></trkpt><trkpt lat="45.0577931" lon="7.4297926"><ele>496.8333333333333</ele><time>2026-04-27T17:49:18.124Z</time></trkpt><trkpt lat="45.0578801" lon="7.4297953"><ele>497.0</ele><time>2026-04-27T17:49:21.122Z</time></trkpt><trkpt lat="45.0579692" lon="7.4297841"><ele>496.99999999999994</ele><time>2026-04-27T17:49:24.124Z</time></trkpt><trkpt lat="45.0580627" lon="7.42977"><ele>497.0</ele><time>2026-04-27T17:49:27.123Z</time></trkpt><trkpt lat="45.0581287" lon="7.4297665"><ele>497.0</ele><time>2026-04-27T17:49:29.124Z</time></trkpt><trkpt lat="45.0582196" lon="7.429759"><ele>497.0</ele><time>2026-04-27T17:49:32.122Z</time></trkpt><trkpt lat="45.0583066" lon="7.4297592"><ele>496.99999999999994</ele><time>2026-04-27T17:49:35.123Z</time></trkpt><trkpt lat="45.058394" lon="7.4297729"><ele>497.0</ele><time>2026-04-27T17:49:38.123Z</time></trkpt><trkpt lat="45.0584804" lon="7.4297839"><ele>497.49999999999994</ele><time>2026-04-27T17:49:41.123Z</time></trkpt><trkpt lat="45.0585207" lon="7.429673"><ele>498.0</ele><time>2026-04-27T17:49:45.125Z</time></trkpt><trkpt lat="45.0585177" lon="7.4295733"><ele>498.5</ele><time>2026-04-27T17:49:47.123Z</time></trkpt><trkpt lat="45.0585064" lon="7.4294724"><ele>499.0</ele><time>2026-04-27T17:49:49.123Z</time></trkpt><trkpt lat="45.0584897" lon="7.4293715"><ele>499.49999999999994</ele><time>2026-04-27T17:49:51.124Z</time></trkpt><trkpt lat="45.0584827" lon="7.4292632"><ele>500.0</ele><time>2026-04-27T17:49:53.124Z</time></trkpt><trkpt lat="45.0584767" lon="7.4291498"><ele>500.16666666666663</ele><time>2026-04-27T17:49:55.122Z</time></trkpt><trkpt lat="45.058468" lon="7.4290173"><ele>500.3333333333333</ele><time>2026-04-27T17:49:57.123Z</time></trkpt><trkpt lat="45.0584535" lon="7.4288664"><ele>500.5</ele><time>2026-04-27T17:49:59.124Z</time></trkpt><trkpt lat="45.058445" lon="7.4287013"><ele>500.66666666666663</ele><time>2026-04-27T17:50:01.125Z</time></trkpt><trkpt lat="45.0584572" lon="7.428611"><ele>500.8333333333333</ele><time>2026-04-27T17:50:02.125Z</time></trkpt><trkpt lat="45.0584729" lon="7.4285204"><ele>501.0</ele><time>2026-04-27T17:50:03.124Z</time></trkpt><trkpt lat="45.0585085" lon="7.428348"><ele>500.0</ele><time>2026-04-27T17:50:05.123Z</time></trkpt><trkpt lat="45.0585258" lon="7.4282565"><ele>499.0</ele><time>2026-04-27T17:50:06.123Z</time></trkpt><trkpt lat="45.0585447" lon="7.4281676"><ele>498.0</ele><time>2026-04-27T17:50:07.123Z</time></trkpt><trkpt lat="45.0585609" lon="7.4280751"><ele>497.0</ele><time>2026-04-27T17:50:08.123Z</time></trkpt><trkpt lat="45.0585778" lon="7.4279858"><ele>496.0</ele><time>2026-04-27T17:50:09.124Z</time></trkpt><trkpt lat="45.058623" lon="7.4278234"><ele>495.0</ele><time>2026-04-27T17:50:11.123Z</time></trkpt><trkpt lat="45.0586731" lon="7.4276813"><ele>494.8333333333333</ele><time>2026-04-27T17:50:13.123Z</time></trkpt><trkpt lat="45.0587119" lon="7.427549"><ele>494.66666666666663</ele><time>2026-04-27T17:50:15.124Z</time></trkpt><trkpt lat="45.058734" lon="7.4274227"><ele>494.5</ele><time>2026-04-27T17:50:17.124Z</time></trkpt><trkpt lat="45.0587568" lon="7.4272995"><ele>494.3333333333333</ele><time>2026-04-27T17:50:19.123Z</time></trkpt><trkpt lat="45.0587609" lon="7.4272021"><ele>494.16666666666663</ele><time>2026-04-27T17:50:21.123Z</time></trkpt><trkpt lat="45.0587851" lon="7.427075"><ele>494.0</ele><time>2026-04-27T17:50:24.122Z</time></trkpt><trkpt lat="45.0588266" lon="7.4269956"><ele>493.99999999999994</ele><time>2026-04-27T17:50:26.124Z</time></trkpt><trkpt lat="45.0588694" lon="7.4269048"><ele>494.0</ele><time>2026-04-27T17:50:28.124Z</time></trkpt><trkpt lat="45.0589089" lon="7.4268126"><ele>494.0</ele><time>2026-04-27T17:50:30.124Z</time></trkpt><trkpt lat="45.0589544" lon="7.4267249"><ele>494.0</ele><time>2026-04-27T17:50:32.122Z</time></trkpt><trkpt lat="45.0590165" lon="7.4266633"><ele>493.99999999999994</ele><time>2026-04-27T17:50:34.123Z</time></trkpt><trkpt lat="45.0590884" lon="7.4266245"><ele>494.0</ele><time>2026-04-27T17:50:36.123Z</time></trkpt><trkpt lat="45.0591536" lon="7.4265593"><ele>495.14285714285717</ele><time>2026-04-27T17:50:38.124Z</time></trkpt><trkpt lat="45.0592118" lon="7.4264945"><ele>496.2857142857142</ele><time>2026-04-27T17:50:40.124Z</time></trkpt><trkpt lat="45.0592626" lon="7.426423"><ele>497.4285714285714</ele><time>2026-04-27T17:50:42.124Z</time></trkpt><trkpt lat="45.0593099" lon="7.4263435"><ele>498.57142857142856</ele><time>2026-04-27T17:50:44.124Z</time></trkpt><trkpt lat="45.059358" lon="7.4262566"><ele>499.71428571428567</ele><time>2026-04-27T17:50:46.123Z</time></trkpt><trkpt lat="45.0594018" lon="7.4261779"><ele>500.8571428571428</ele><time>2026-04-27T17:50:48.123Z</time></trkpt><trkpt lat="45.0594391" lon="7.4260946"><ele>501.99999999999994</ele><time>2026-04-27T17:50:50.124Z</time></trkpt><trkpt lat="45.059484" lon="7.4260313"><ele>502.00000000000006</ele><time>2026-04-27T17:50:52.125Z</time></trkpt><trkpt lat="45.0595324" lon="7.4259409"><ele>502.0</ele><time>2026-04-27T17:50:55.124Z</time></trkpt><trkpt lat="45.0595613" lon="7.4258427"><ele>502.0</ele><time>2026-04-27T17:50:59.123Z</time></trkpt><trkpt lat="45.0595927" lon="7.4257457"><ele>502.0</ele><time>2026-04-27T17:51:02.123Z</time></trkpt><trkpt lat="45.059634" lon="7.425649"><ele>502.00000000000006</ele><time>2026-04-27T17:51:05.123Z</time></trkpt><trkpt lat="45.0596868" lon="7.4255583"><ele>502.0</ele><time>2026-04-27T17:51:08.124Z</time></trkpt><trkpt lat="45.0597175" lon="7.425465"><ele>502.1666666666667</ele><time>2026-04-27T17:51:11.124Z</time></trkpt><trkpt lat="45.0597483" lon="7.4253617"><ele>502.33333333333337</ele><time>2026-04-27T17:51:14.123Z</time></trkpt><trkpt lat="45.0597607" lon="7.425249"><ele>502.5</ele><time>2026-04-27T17:51:17.125Z</time></trkpt><trkpt lat="45.0597898" lon="7.4251493"><ele>502.66666666666663</ele><time>2026-04-27T17:51:20.125Z</time></trkpt><trkpt lat="45.0598334" lon="7.4250565"><ele>502.8333333333333</ele><time>2026-04-27T17:51:23.124Z</time></trkpt><trkpt lat="45.059875" lon="7.4249449"><ele>503.0</ele><time>2026-04-27T17:51:26.124Z</time></trkpt><trkpt lat="45.0599171" lon="7.424877"><ele>502.99999999999994</ele><time>2026-04-27T17:51:28.123Z</time></trkpt><trkpt lat="45.0599468" lon="7.4247872"><ele>503.0</ele><time>2026-04-27T17:51:30.124Z</time></trkpt><trkpt lat="45.0599731" lon="7.4246971"><ele>503.0</ele><time>2026-04-27T17:51:32.123Z</time></trkpt><trkpt lat="45.0600123" lon="7.4245856"><ele>503.0</ele><time>2026-04-27T17:51:35.123Z</time></trkpt><trkpt lat="45.0600545" lon="7.4244846"><ele>502.99999999999994</ele><time>2026-04-27T17:51:38.124Z</time></trkpt><trkpt lat="45.0600989" lon="7.4243719"><ele>503.0</ele><time>2026-04-27T17:51:41.123Z</time></trkpt><trkpt lat="45.0601219" lon="7.4242773"><ele>504.3333333333333</ele><time>2026-04-27T17:51:43.124Z</time></trkpt><trkpt lat="45.0601446" lon="7.4241815"><ele>505.66666666666663</ele><time>2026-04-27T17:51:45.123Z</time></trkpt><trkpt lat="45.0601761" lon="7.4240876"><ele>507.0</ele><time>2026-04-27T17:51:47.123Z</time></trkpt><trkpt lat="45.0602154" lon="7.4239975"><ele>508.33333333333337</ele><time>2026-04-27T17:51:49.124Z</time></trkpt><trkpt lat="45.0602492" lon="7.4239039"><ele>509.6666666666667</ele><time>2026-04-27T17:51:51.124Z</time></trkpt><trkpt lat="45.0602763" lon="7.4237681"><ele>511.0</ele><time>2026-04-27T17:51:53.124Z</time></trkpt><trkpt lat="45.0603006" lon="7.4236181"><ele>511.00000000000006</ele><time>2026-04-27T17:51:55.124Z</time></trkpt><trkpt lat="45.0603318" lon="7.423489"><ele>511.0</ele><time>2026-04-27T17:51:57.124Z</time></trkpt><trkpt lat="45.0603708" lon="7.4233749"><ele>511.0</ele><time>2026-04-27T17:51:59.123Z</time></trkpt><trkpt lat="45.0603816" lon="7.4232712"><ele>511.0</ele><time>2026-04-27T17:52:01.124Z</time></trkpt><trkpt lat="45.0603848" lon="7.4231636"><ele>511.00000000000006</ele><time>2026-04-27T17:52:03.123Z</time></trkpt><trkpt lat="45.0603815" lon="7.4230568"><ele>511.0</ele><time>2026-04-27T17:52:05.124Z</time></trkpt><trkpt lat="45.0603771" lon="7.4229502"><ele>511.83333333333337</ele><time>2026-04-27T17:52:07.123Z</time></trkpt><trkpt lat="45.0603572" lon="7.4228314"><ele>512.6666666666667</ele><time>2026-04-27T17:52:09.124Z</time></trkpt><trkpt lat="45.0603148" lon="7.4227576"><ele>513.5</ele><time>2026-04-27T17:52:10.123Z</time></trkpt><trkpt lat="45.0602797" lon="7.4226834"><ele>514.3333333333334</ele><time>2026-04-27T17:52:12.123Z</time></trkpt><trkpt lat="45.0602189" lon="7.4225671"><ele>515.1666666666666</ele><time>2026-04-27T17:52:15.125Z</time></trkpt><trkpt lat="45.0601757" lon="7.4224919"><ele>516.0</ele><time>2026-04-27T17:52:17.124Z</time></trkpt><trkpt lat="45.0601329" lon="7.4224215"><ele>516.0</ele><time>2026-04-27T17:52:19.124Z</time></trkpt><trkpt lat="45.0600626" lon="7.4223318"><ele>516.0</ele><time>2026-04-27T17:52:22.124Z</time></trkpt><trkpt lat="45.0600032" lon="7.4222596"><ele>516.0</ele><time>2026-04-27T17:52:24.125Z</time></trkpt><trkpt lat="45.0599373" lon="7.4221885"><ele>516.0</ele><time>2026-04-27T17:52:26.123Z</time></trkpt><trkpt lat="45.0598799" lon="7.4221072"><ele>516.0</ele><time>2026-04-27T17:52:28.124Z</time></trkpt><trkpt lat="45.0598194" lon="7.4220301"><ele>516.0</ele><time>2026-04-27T17:52:30.124Z</time></trkpt><trkpt lat="45.0597618" lon="7.4219537"><ele>514.3333333333334</ele><time>2026-04-27T17:52:32.124Z</time></trkpt><trkpt lat="45.0597006" lon="7.4218725"><ele>512.6666666666666</ele><time>2026-04-27T17:52:34.123Z</time></trkpt><trkpt lat="45.0596383" lon="7.4217894"><ele>511.0</ele><time>2026-04-27T17:52:36.124Z</time></trkpt><trkpt lat="45.0595872" lon="7.4216938"><ele>509.3333333333333</ele><time>2026-04-27T17:52:38.123Z</time></trkpt><trkpt lat="45.0595443" lon="7.4216017"><ele>507.66666666666663</ele><time>2026-04-27T17:52:40.124Z</time></trkpt><trkpt lat="45.0595025" lon="7.4215107"><ele>506.0</ele><time>2026-04-27T17:52:42.124Z</time></trkpt><trkpt lat="45.0594439" lon="7.4213889"><ele>506.3333333333333</ele><time>2026-04-27T17:52:44.124Z</time></trkpt><trkpt lat="45.0594001" lon="7.4212405"><ele>506.66666666666663</ele><time>2026-04-27T17:52:46.122Z</time></trkpt><trkpt lat="45.0593576" lon="7.4210927"><ele>507.0</ele><time>2026-04-27T17:52:48.123Z</time></trkpt><trkpt lat="45.0593309" lon="7.4210052"><ele>507.33333333333337</ele><time>2026-04-27T17:52:49.124Z</time></trkpt><trkpt lat="45.0593005" lon="7.4209236"><ele>507.6666666666667</ele><time>2026-04-27T17:52:50.123Z</time></trkpt><trkpt lat="45.0592685" lon="7.4208406"><ele>508.0</ele><time>2026-04-27T17:52:51.124Z</time></trkpt><trkpt lat="45.059226" lon="7.4207078"><ele>508.00000000000006</ele><time>2026-04-27T17:52:53.123Z</time></trkpt><trkpt lat="45.0591763" lon="7.4206007"><ele>508.0</ele><time>2026-04-27T17:52:55.124Z</time></trkpt><trkpt lat="45.0591112" lon="7.4205021"><ele>508.0</ele><time>2026-04-27T17:52:57.124Z</time></trkpt><trkpt lat="45.0590509" lon="7.4204274"><ele>508.0</ele><time>2026-04-27T17:52:59.122Z</time></trkpt><trkpt lat="45.0590298" lon="7.4203274"><ele>508.00000000000006</ele><time>2026-04-27T17:53:01.124Z</time></trkpt><trkpt lat="45.0590195" lon="7.4202187"><ele>508.0</ele><time>2026-04-27T17:53:03.124Z</time></trkpt><trkpt lat="45.0590145" lon="7.4201005"><ele>505.4</ele><time>2026-04-27T17:53:05.124Z</time></trkpt><trkpt lat="45.0590104" lon="7.4199522"><ele>502.79999999999995</ele><time>2026-04-27T17:53:07.123Z</time></trkpt><trkpt lat="45.0590138" lon="7.4198295"><ele>500.2</ele><time>2026-04-27T17:53:09.123Z</time></trkpt><trkpt lat="45.059034" lon="7.419697"><ele>497.6</ele><time>2026-04-27T17:53:11.123Z</time></trkpt><trkpt lat="45.0590533" lon="7.419533"><ele>495.0</ele><time>2026-04-27T17:53:13.124Z</time></trkpt><trkpt lat="45.0590759" lon="7.4193915"><ele>495.8571428571428</ele><time>2026-04-27T17:53:15.124Z</time></trkpt><trkpt lat="45.0591241" lon="7.4192983"><ele>496.71428571428567</ele><time>2026-04-27T17:53:17.124Z</time></trkpt><trkpt lat="45.059176" lon="7.4192186"><ele>497.57142857142856</ele><time>2026-04-27T17:53:19.124Z</time></trkpt><trkpt lat="45.0592231" lon="7.4191263"><ele>498.4285714285714</ele><time>2026-04-27T17:53:21.122Z</time></trkpt><trkpt lat="45.0592507" lon="7.4190437"><ele>499.2857142857142</ele><time>2026-04-27T17:53:33.124Z</time></trkpt><trkpt lat="45.0592612" lon="7.4191328"><ele>500.14285714285717</ele><time>2026-04-27T17:53:40.123Z</time></trkpt><trkpt lat="45.0593293" lon="7.4191418"><ele>501.0</ele><time>2026-04-27T17:53:43.123Z</time></trkpt><trkpt lat="45.0593975" lon="7.4191616"><ele>501.0</ele><time>2026-04-27T17:53:46.125Z</time></trkpt><trkpt lat="45.0594708" lon="7.4192264"><ele>501.0</ele><time>2026-04-27T17:53:50.125Z</time></trkpt><trkpt lat="45.0595371" lon="7.4192843"><ele>501.0</ele><time>2026-04-27T17:53:53.124Z</time></trkpt><trkpt lat="45.0596063" lon="7.4193445"><ele>501.0</ele><time>2026-04-27T17:53:56.125Z</time></trkpt><trkpt lat="45.0596534" lon="7.4194209"><ele>501.0</ele><time>2026-04-27T17:53:59.124Z</time></trkpt><trkpt lat="45.0596926" lon="7.4195054"><ele>501.0</ele><time>2026-04-27T17:54:02.124Z</time></trkpt><trkpt lat="45.0597377" lon="7.4195965"><ele>501.8333333333333</ele><time>2026-04-27T17:54:05.125Z</time></trkpt><trkpt lat="45.0598093" lon="7.4196615"><ele>502.66666666666663</ele><time>2026-04-27T17:54:08.124Z</time></trkpt><trkpt lat="45.0598713" lon="7.4196881"><ele>503.5</ele><time>2026-04-27T17:54:10.124Z</time></trkpt><trkpt lat="45.0599453" lon="7.4197267"><ele>504.3333333333333</ele><time>2026-04-27T17:54:13.124Z</time></trkpt><trkpt lat="45.060019" lon="7.4197129"><ele>505.16666666666663</ele><time>2026-04-27T17:54:15.124Z</time></trkpt><trkpt lat="45.060102" lon="7.4197245"><ele>506.0</ele><time>2026-04-27T17:54:18.123Z</time></trkpt><trkpt lat="45.0601559" lon="7.4197748"><ele>507.49999999999994</ele><time>2026-04-27T17:54:21.125Z</time></trkpt><trkpt lat="45.0602077" lon="7.4198403"><ele>509.0</ele><time>2026-04-27T17:54:24.124Z</time></trkpt><trkpt lat="45.0602939" lon="7.4198689"><ele>510.5</ele><time>2026-04-27T17:54:27.125Z</time></trkpt><trkpt lat="45.0603754" lon="7.4198872"><ele>512.0</ele><time>2026-04-27T17:54:30.123Z</time></trkpt><trkpt lat="45.0604363" lon="7.4199125"><ele>513.5</ele><time>2026-04-27T17:54:33.124Z</time></trkpt><trkpt lat="45.0605045" lon="7.4198653"><ele>515.0</ele><time>2026-04-27T17:54:36.124Z</time></trkpt><trkpt lat="45.060572" lon="7.4197924"><ele>515.0</ele><time>2026-04-27T17:54:39.124Z</time></trkpt><trkpt lat="45.060611" lon="7.419704"><ele>515.0</ele><time>2026-04-27T17:54:43.122Z</time></trkpt><trkpt lat="45.06064" lon="7.41962"><ele>515.0</ele><time>2026-04-27T17:54:46.124Z</time></trkpt><trkpt lat="45.060674" lon="7.4195329"><ele>515.0</ele><time>2026-04-27T17:54:49.124Z</time></trkpt><trkpt lat="45.0607011" lon="7.4194255"><ele>515.0</ele><time>2026-04-27T17:54:52.124Z</time></trkpt><trkpt lat="45.0607227" lon="7.4193003"><ele>515.0</ele><time>2026-04-27T17:54:55.124Z</time></trkpt><trkpt lat="45.0607103" lon="7.4191938"><ele>514.6666666666666</ele><time>2026-04-27T17:54:58.124Z</time></trkpt><trkpt lat="45.0606836" lon="7.4191012"><ele>514.3333333333333</ele><time>2026-04-27T17:55:01.123Z</time></trkpt><trkpt lat="45.0606213" lon="7.4190153"><ele>514.0</ele><time>2026-04-27T17:55:04.124Z</time></trkpt><trkpt lat="45.0605393" lon="7.4189759"><ele>513.6666666666666</ele><time>2026-04-27T17:55:07.124Z</time></trkpt><trkpt lat="45.0604645" lon="7.4189606"><ele>513.3333333333334</ele><time>2026-04-27T17:55:09.124Z</time></trkpt><trkpt lat="45.0603954" lon="7.4189269"><ele>513.0</ele><time>2026-04-27T17:55:11.124Z</time></trkpt><trkpt lat="45.0603327" lon="7.418882"><ele>513.0</ele><time>2026-04-27T17:55:13.124Z</time></trkpt><trkpt lat="45.0602672" lon="7.4188505"><ele>513.0</ele><time>2026-04-27T17:55:15.124Z</time></trkpt><trkpt lat="45.0602116" lon="7.41879"><ele>513.0</ele><time>2026-04-27T17:55:17.123Z</time></trkpt><trkpt lat="45.0601936" lon="7.4186904"><ele>513.0</ele><time>2026-04-27T17:55:19.125Z</time></trkpt><trkpt lat="45.0601746" lon="7.4185833"><ele>513.0</ele><time>2026-04-27T17:55:21.124Z</time></trkpt><trkpt lat="45.0601586" lon="7.4184738"><ele>513.0</ele><time>2026-04-27T17:55:23.124Z</time></trkpt><trkpt lat="45.060159" lon="7.4183557"><ele>513.6</ele><time>2026-04-27T17:55:25.124Z</time></trkpt><trkpt lat="45.0601617" lon="7.4182298"><ele>514.1999999999999</ele><time>2026-04-27T17:55:27.125Z</time></trkpt><trkpt lat="45.0601737" lon="7.4180903"><ele>514.8</ele><time>2026-04-27T17:55:29.125Z</time></trkpt><trkpt lat="45.0601917" lon="7.4179537"><ele>515.4</ele><time>2026-04-27T17:55:31.124Z</time></trkpt><trkpt lat="45.0602271" lon="7.4178459"><ele>516.0</ele><time>2026-04-27T17:55:33.123Z</time></trkpt><trkpt lat="45.0602866" lon="7.4177712"><ele>516.7142857142857</ele><time>2026-04-27T17:55:35.124Z</time></trkpt><trkpt lat="45.0603465" lon="7.4177008"><ele>517.4285714285714</ele><time>2026-04-27T17:55:37.125Z</time></trkpt><trkpt lat="45.0603864" lon="7.4176258"><ele>518.1428571428571</ele><time>2026-04-27T17:55:39.125Z</time></trkpt><trkpt lat="45.0604015" lon="7.4175251"><ele>518.8571428571429</ele><time>2026-04-27T17:55:41.124Z</time></trkpt><trkpt lat="45.0604046" lon="7.4174322"><ele>519.5714285714286</ele><time>2026-04-27T17:55:43.123Z</time></trkpt><trkpt lat="45.060388" lon="7.4173251"><ele>520.2857142857142</ele><time>2026-04-27T17:55:46.123Z</time></trkpt><trkpt lat="45.0603593" lon="7.4172387"><ele>521.0</ele><time>2026-04-27T17:55:49.124Z</time></trkpt><trkpt lat="45.0602854" lon="7.4172448"><ele>521.0</ele><time>2026-04-27T17:55:53.123Z</time></trkpt><trkpt lat="45.0602161" lon="7.4172236"><ele>521.0</ele><time>2026-04-27T17:55:57.123Z</time></trkpt><trkpt lat="45.0601579" lon="7.4171731"><ele>521.0</ele><time>2026-04-27T17:56:01.124Z</time></trkpt><trkpt lat="45.0600881" lon="7.417141"><ele>521.0</ele><time>2026-04-27T17:56:05.124Z</time></trkpt><trkpt lat="45.0600166" lon="7.4171256"><ele>521.0</ele><time>2026-04-27T17:56:09.125Z</time></trkpt><trkpt lat="45.0599541" lon="7.4171818"><ele>521.0</ele><time>2026-04-27T17:56:14.123Z</time></trkpt><trkpt lat="45.0599039" lon="7.4172593"><ele>521.0</ele><time>2026-04-27T17:56:18.123Z</time></trkpt><trkpt lat="45.059935" lon="7.4171629"><ele>521.0</ele><time>2026-04-27T17:56:29.124Z</time></trkpt><trkpt lat="45.0599908" lon="7.417108"><ele>521.0</ele><time>2026-04-27T17:56:32.123Z</time></trkpt><trkpt lat="45.0600495" lon="7.4170534"><ele>521.0</ele><time>2026-04-27T17:56:35.124Z</time></trkpt><trkpt lat="45.0601045" lon="7.4170044"><ele>521.0</ele><time>2026-04-27T17:56:38.124Z</time></trkpt><trkpt lat="45.0601612" lon="7.4169579"><ele>521.0</ele><time>2026-04-27T17:56:42.124Z</time></trkpt><trkpt lat="45.0601979" lon="7.4168589"><ele>521.0</ele><time>2026-04-27T17:56:46.124Z</time></trkpt><trkpt lat="45.060222" lon="7.4167677"><ele>521.0</ele><time>2026-04-27T17:56:50.124Z</time></trkpt><trkpt lat="45.060244" lon="7.4166784"><ele>521.0</ele><time>2026-04-27T17:56:54.124Z</time></trkpt><trkpt lat="45.0603004" lon="7.4165866"><ele>521.0</ele><time>2026-04-27T17:56:57.124Z</time></trkpt><trkpt lat="45.0603506" lon="7.4165104"><ele>521.0</ele><time>2026-04-27T17:56:59.124Z</time></trkpt><trkpt lat="45.0603941" lon="7.4164268"><ele>521.0</ele><time>2026-04-27T17:57:01.124Z</time></trkpt><trkpt lat="45.0604139" lon="7.4163422"><ele>521.0</ele><time>2026-04-27T17:57:03.123Z</time></trkpt><trkpt lat="45.0603996" lon="7.4162416"><ele>521.0</ele><time>2026-04-27T17:57:19.124Z</time></trkpt><trkpt lat="45.0603385" lon="7.4162191"><ele>521.0</ele><time>2026-04-27T17:57:21.124Z</time></trkpt><trkpt lat="45.060273" lon="7.4162853"><ele>523.2</ele><time>2026-04-27T17:57:23.124Z</time></trkpt><trkpt lat="45.0601727" lon="7.4162912"><ele>525.4000000000001</ele><time>2026-04-27T17:57:25.124Z</time></trkpt><trkpt lat="45.0600647" lon="7.4162441"><ele>527.6</ele><time>2026-04-27T17:57:27.124Z</time></trkpt><trkpt lat="45.0599935" lon="7.4161685"><ele>529.8000000000001</ele><time>2026-04-27T17:57:29.123Z</time></trkpt><trkpt lat="45.0599021" lon="7.4161625"><ele>532.0</ele><time>2026-04-27T17:57:31.124Z</time></trkpt><trkpt lat="45.0598177" lon="7.4162343"><ele>531.2</ele><time>2026-04-27T17:57:33.124Z</time></trkpt><trkpt lat="45.0597215" lon="7.4163187"><ele>530.4000000000001</ele><time>2026-04-27T17:57:35.123Z</time></trkpt><trkpt lat="45.0596623" lon="7.4163716"><ele>529.5999999999999</ele><time>2026-04-27T17:57:36.124Z</time></trkpt><trkpt lat="45.0596033" lon="7.4164215"><ele>528.8</ele><time>2026-04-27T17:57:37.124Z</time></trkpt><trkpt lat="45.0595105" lon="7.4165005"><ele>528.0</ele><time>2026-04-27T17:57:39.124Z</time></trkpt><trkpt lat="45.0594064" lon="7.4165926"><ele>528.0</ele><time>2026-04-27T17:57:41.124Z</time></trkpt><trkpt lat="45.0593112" lon="7.4166794"><ele>528.0</ele><time>2026-04-27T17:57:43.124Z</time></trkpt><trkpt lat="45.0591964" lon="7.416776"><ele>528.0</ele><time>2026-04-27T17:57:45.123Z</time></trkpt><trkpt lat="45.0591046" lon="7.4168772"><ele>528.0</ele><time>2026-04-27T17:57:47.124Z</time></trkpt><trkpt lat="45.0590552" lon="7.4169338"><ele>528.0</ele><time>2026-04-27T17:57:48.123Z</time></trkpt><trkpt lat="45.0589887" lon="7.4170702"><ele>528.0</ele><time>2026-04-27T17:57:49.124Z</time></trkpt><trkpt lat="45.0589265" lon="7.4171213"><ele>528.0</ele><time>2026-04-27T17:57:50.125Z</time></trkpt><trkpt lat="45.0588588" lon="7.4172124"><ele>528.0</ele><time>2026-04-27T17:57:51.123Z</time></trkpt><trkpt lat="45.0587394" lon="7.4172595"><ele>528.0</ele><time>2026-04-27T17:57:53.124Z</time></trkpt><trkpt lat="45.0586743" lon="7.4172591"><ele>528.0</ele><time>2026-04-27T17:57:54.123Z</time></trkpt><trkpt lat="45.0585596" lon="7.4172509"><ele>524.6666666666666</ele><time>2026-04-27T17:57:56.124Z</time></trkpt><trkpt lat="45.0584509" lon="7.4172447"><ele>521.3333333333334</ele><time>2026-04-27T17:57:58.125Z</time></trkpt><trkpt lat="45.0583603" lon="7.4172331"><ele>518.0</ele><time>2026-04-27T17:58:00.124Z</time></trkpt><trkpt lat="45.0582687" lon="7.4172447"><ele>514.6666666666667</ele><time>2026-04-27T17:58:02.126Z</time></trkpt><trkpt lat="45.0582007" lon="7.4172319"><ele>511.33333333333337</ele><time>2026-04-27T17:58:04.124Z</time></trkpt><trkpt lat="45.0581345" lon="7.4172252"><ele>508.0</ele><time>2026-04-27T17:58:06.125Z</time></trkpt><trkpt lat="45.0580444" lon="7.4172241"><ele>507.6666666666667</ele><time>2026-04-27T17:58:09.125Z</time></trkpt><trkpt lat="45.0579592" lon="7.41723"><ele>507.33333333333337</ele><time>2026-04-27T17:58:12.125Z</time></trkpt><trkpt lat="45.0578692" lon="7.4172219"><ele>507.0</ele><time>2026-04-27T17:58:15.126Z</time></trkpt><trkpt lat="45.0577761" lon="7.4172041"><ele>506.66666666666663</ele><time>2026-04-27T17:58:18.124Z</time></trkpt><trkpt lat="45.057706" lon="7.4171894"><ele>506.3333333333333</ele><time>2026-04-27T17:58:20.123Z</time></trkpt><trkpt lat="45.0576286" lon="7.417171"><ele>506.0</ele><time>2026-04-27T17:58:22.124Z</time></trkpt><trkpt lat="45.0575606" lon="7.4171329"><ele>506.57142857142867</ele><time>2026-04-27T17:58:24.123Z</time></trkpt><trkpt lat="45.0575004" lon="7.4170956"><ele>507.14285714285717</ele><time>2026-04-27T17:58:26.123Z</time></trkpt><trkpt lat="45.0574136" lon="7.4170501"><ele>507.7142857142858</ele><time>2026-04-27T17:58:29.123Z</time></trkpt><trkpt lat="45.0573545" lon="7.4170177"><ele>508.28571428571433</ele><time>2026-04-27T17:58:31.124Z</time></trkpt><trkpt lat="45.0572816" lon="7.4169822"><ele>508.8571428571429</ele><time>2026-04-27T17:58:34.124Z</time></trkpt><trkpt lat="45.0572045" lon="7.4169566"><ele>509.42857142857144</ele><time>2026-04-27T17:58:37.124Z</time></trkpt><trkpt lat="45.0571395" lon="7.4169207"><ele>510.0</ele><time>2026-04-27T18:01:30.124Z</time></trkpt><trkpt lat="45.0571078" lon="7.4168318"><ele>510.0</ele><time>2026-04-27T18:01:34.124Z</time></trkpt><trkpt lat="45.0570861" lon="7.4167282"><ele>510.0</ele><time>2026-04-27T18:01:38.125Z</time></trkpt><trkpt lat="45.0570795" lon="7.4166191"><ele>510.0</ele><time>2026-04-27T18:01:42.124Z</time></trkpt><trkpt lat="45.0570938" lon="7.4165232"><ele>510.0</ele><time>2026-04-27T18:01:46.124Z</time></trkpt><trkpt lat="45.0571318" lon="7.4164267"><ele>510.0</ele><time>2026-04-27T18:01:50.124Z</time></trkpt><trkpt lat="45.0571733" lon="7.416314"><ele>510.0</ele><time>2026-04-27T18:01:54.123Z</time></trkpt><trkpt lat="45.0572112" lon="7.416216"><ele>512.8333333333334</ele><time>2026-04-27T18:01:57.125Z</time></trkpt><trkpt lat="45.057229" lon="7.416103"><ele>515.6666666666666</ele><time>2026-04-27T18:02:00.124Z</time></trkpt><trkpt lat="45.0572568" lon="7.4159943"><ele>518.5</ele><time>2026-04-27T18:02:03.124Z</time></trkpt><trkpt lat="45.0572814" lon="7.4158881"><ele>521.3333333333333</ele><time>2026-04-27T18:02:06.124Z</time></trkpt><trkpt lat="45.0573031" lon="7.4157964"><ele>524.1666666666666</ele><time>2026-04-27T18:02:09.123Z</time></trkpt><trkpt lat="45.0573147" lon="7.4157073"><ele>527.0</ele><time>2026-04-27T18:02:12.123Z</time></trkpt><trkpt lat="45.0573565" lon="7.415613"><ele>527.0</ele><time>2026-04-27T18:02:16.123Z</time></trkpt><trkpt lat="45.0573948" lon="7.4155055"><ele>527.0</ele><time>2026-04-27T18:02:20.125Z</time></trkpt><trkpt lat="45.0574173" lon="7.4154199"><ele>527.0</ele><time>2026-04-27T18:02:23.123Z</time></trkpt><trkpt lat="45.0574483" lon="7.4153089"><ele>527.0</ele><time>2026-04-27T18:02:27.125Z</time></trkpt><trkpt lat="45.0574631" lon="7.4152018"><ele>527.0</ele><time>2026-04-27T18:02:31.124Z</time></trkpt><trkpt lat="45.0574948" lon="7.4150933"><ele>527.0</ele><time>2026-04-27T18:02:35.123Z</time></trkpt><trkpt lat="45.0575372" lon="7.4150221"><ele>528.0000000000001</ele><time>2026-04-27T18:02:38.125Z</time></trkpt><trkpt lat="45.0575892" lon="7.414967"><ele>529.0</ele><time>2026-04-27T18:02:41.125Z</time></trkpt><trkpt lat="45.0576493" lon="7.4148983"><ele>530.0</ele><time>2026-04-27T18:02:45.125Z</time></trkpt><trkpt lat="45.0577046" lon="7.4148155"><ele>531.0</ele><time>2026-04-27T18:02:49.126Z</time></trkpt><trkpt lat="45.05775" lon="7.4147439"><ele>532.0</ele><time>2026-04-27T18:02:53.124Z</time></trkpt><trkpt lat="45.0577759" lon="7.4146623"><ele>533.0000000000001</ele><time>2026-04-27T18:02:57.124Z</time></trkpt><trkpt lat="45.0577775" lon="7.4145711"><ele>534.0</ele><time>2026-04-27T18:03:04.124Z</time></trkpt><trkpt lat="45.0577606" lon="7.4144724"><ele>535.2857142857143</ele><time>2026-04-27T18:03:09.125Z</time></trkpt><trkpt lat="45.0577434" lon="7.414386"><ele>536.5714285714286</ele><time>2026-04-27T18:03:13.125Z</time></trkpt><trkpt lat="45.0577463" lon="7.4142856"><ele>537.8571428571429</ele><time>2026-04-27T18:03:18.124Z</time></trkpt><trkpt lat="45.0577645" lon="7.4141888"><ele>539.1428571428571</ele><time>2026-04-27T18:03:23.125Z</time></trkpt><trkpt lat="45.0577672" lon="7.4140887"><ele>540.4285714285714</ele><time>2026-04-27T18:03:29.124Z</time></trkpt><trkpt lat="45.057772" lon="7.4139995"><ele>541.7142857142858</ele><time>2026-04-27T18:03:33.125Z</time></trkpt><trkpt lat="45.0577574" lon="7.4139109"><ele>543.0</ele><time>2026-04-27T18:03:38.125Z</time></trkpt><trkpt lat="45.0577073" lon="7.413854"><ele>543.7142857142858</ele><time>2026-04-27T18:03:42.123Z</time></trkpt><trkpt lat="45.0576454" lon="7.4138166"><ele>544.4285714285714</ele><time>2026-04-27T18:03:47.124Z</time></trkpt><trkpt lat="45.0575791" lon="7.4138154"><ele>545.1428571428571</ele><time>2026-04-27T18:03:52.124Z</time></trkpt><trkpt lat="45.0575048" lon="7.413797"><ele>545.8571428571429</ele><time>2026-04-27T18:03:57.124Z</time></trkpt><trkpt lat="45.0574381" lon="7.4137739"><ele>546.5714285714286</ele><time>2026-04-27T18:04:02.123Z</time></trkpt><trkpt lat="45.0573612" lon="7.4137554"><ele>547.2857142857143</ele><time>2026-04-27T18:04:07.124Z</time></trkpt><trkpt lat="45.057296" lon="7.413696"><ele>548.0</ele><time>2026-04-27T18:04:11.123Z</time></trkpt><trkpt lat="45.0572344" lon="7.4136313"><ele>549.8571428571429</ele><time>2026-04-27T18:04:16.123Z</time></trkpt><trkpt lat="45.0571761" lon="7.4135926"><ele>551.7142857142858</ele><time>2026-04-27T18:04:20.125Z</time></trkpt><trkpt lat="45.057113" lon="7.4135616"><ele>553.5714285714286</ele><time>2026-04-27T18:04:24.124Z</time></trkpt><trkpt lat="45.0570424" lon="7.413516"><ele>555.4285714285714</ele><time>2026-04-27T18:04:29.125Z</time></trkpt><trkpt lat="45.0569738" lon="7.4134943"><ele>557.2857142857142</ele><time>2026-04-27T18:04:33.126Z</time></trkpt><trkpt lat="45.0569018" lon="7.413496"><ele>559.1428571428571</ele><time>2026-04-27T18:04:37.124Z</time></trkpt><trkpt lat="45.0568259" lon="7.4134726"><ele>561.0</ele><time>2026-04-27T18:04:44.124Z</time></trkpt><trkpt lat="45.0567618" lon="7.4134232"><ele>561.0</ele><time>2026-04-27T18:04:49.124Z</time></trkpt><trkpt lat="45.0567557" lon="7.4133317"><ele>561.0</ele><time>2026-04-27T18:04:53.124Z</time></trkpt><trkpt lat="45.0567421" lon="7.4132417"><ele>561.0</ele><time>2026-04-27T18:04:57.125Z</time></trkpt><trkpt lat="45.0567305" lon="7.413152"><ele>561.0</ele><time>2026-04-27T18:05:01.124Z</time></trkpt><trkpt lat="45.0567096" lon="7.4130613"><ele>561.0</ele><time>2026-04-27T18:05:05.125Z</time></trkpt><trkpt lat="45.0566789" lon="7.4129619"><ele>561.0</ele><time>2026-04-27T18:05:10.124Z</time></trkpt><trkpt lat="45.0566415" lon="7.4128616"><ele>561.0</ele><time>2026-04-27T18:05:14.125Z</time></trkpt><trkpt lat="45.0566036" lon="7.4127582"><ele>562.7142857142857</ele><time>2026-04-27T18:05:18.126Z</time></trkpt><trkpt lat="45.0565712" lon="7.4126657"><ele>564.4285714285713</ele><time>2026-04-27T18:05:22.124Z</time></trkpt><trkpt lat="45.0565629" lon="7.4125664"><ele>566.1428571428571</ele><time>2026-04-27T18:05:26.123Z</time></trkpt><trkpt lat="45.0565357" lon="7.4124621"><ele>567.8571428571429</ele><time>2026-04-27T18:05:30.126Z</time></trkpt><trkpt lat="45.0564888" lon="7.4123618"><ele>569.5714285714287</ele><time>2026-04-27T18:05:34.124Z</time></trkpt><trkpt lat="45.056457" lon="7.4122791"><ele>571.2857142857143</ele><time>2026-04-27T18:05:37.124Z</time></trkpt><trkpt lat="45.0564143" lon="7.4121979"><ele>573.0</ele><time>2026-04-27T18:05:40.124Z</time></trkpt><trkpt lat="45.0563709" lon="7.412123"><ele>574.0</ele><time>2026-04-27T18:05:43.125Z</time></trkpt><trkpt lat="45.0563412" lon="7.4120295"><ele>575.0</ele><time>2026-04-27T18:05:46.126Z</time></trkpt><trkpt lat="45.0563106" lon="7.4119489"><ele>576.0</ele><time>2026-04-27T18:05:49.125Z</time></trkpt><trkpt lat="45.0562548" lon="7.411866"><ele>577.0</ele><time>2026-04-27T18:05:52.126Z</time></trkpt><trkpt lat="45.0561911" lon="7.4117845"><ele>578.0</ele><time>2026-04-27T18:05:55.124Z</time></trkpt><trkpt lat="45.0561459" lon="7.4116873"><ele>579.0</ele><time>2026-04-27T18:05:59.124Z</time></trkpt><trkpt lat="45.0561228" lon="7.4115917"><ele>578.9999999999999</ele><time>2026-04-27T18:06:03.124Z</time></trkpt><trkpt lat="45.0560992" lon="7.4114899"><ele>579.0</ele><time>2026-04-27T18:06:07.125Z</time></trkpt><trkpt lat="45.0560812" lon="7.4113858"><ele>579.0</ele><time>2026-04-27T18:06:11.124Z</time></trkpt><trkpt lat="45.056082" lon="7.4112911"><ele>579.0</ele><time>2026-04-27T18:06:15.123Z</time></trkpt><trkpt lat="45.0560717" lon="7.4111976"><ele>579.0</ele><time>2026-04-27T18:06:19.124Z</time></trkpt><trkpt lat="45.0560712" lon="7.4111055"><ele>578.9999999999999</ele><time>2026-04-27T18:06:23.125Z</time></trkpt><trkpt lat="45.0560452" lon="7.4110127"><ele>579.0</ele><time>2026-04-27T18:06:27.124Z</time></trkpt><trkpt lat="45.0560176" lon="7.4109173"><ele>579.1428571428571</ele><time>2026-04-27T18:06:32.124Z</time></trkpt><trkpt lat="45.0559701" lon="7.4108398"><ele>579.2857142857142</ele><time>2026-04-27T18:06:36.125Z</time></trkpt><trkpt lat="45.0559179" lon="7.4107498"><ele>579.4285714285714</ele><time>2026-04-27T18:06:40.124Z</time></trkpt><trkpt lat="45.055857" lon="7.4107185"><ele>579.5714285714286</ele><time>2026-04-27T18:06:44.124Z</time></trkpt><trkpt lat="45.0557859" lon="7.4107404"><ele>579.7142857142858</ele><time>2026-04-27T18:06:49.125Z</time></trkpt><trkpt lat="45.0557209" lon="7.4107962"><ele>579.8571428571429</ele><time>2026-04-27T18:06:54.125Z</time></trkpt><trkpt lat="45.0556584" lon="7.4108317"><ele>580.0</ele><time>2026-04-27T18:06:59.124Z</time></trkpt><trkpt lat="45.0555907" lon="7.4108581"><ele>581.2857142857143</ele><time>2026-04-27T18:07:03.125Z</time></trkpt><trkpt lat="45.0555228" lon="7.410865"><ele>582.5714285714287</ele><time>2026-04-27T18:07:08.125Z</time></trkpt><trkpt lat="45.0554493" lon="7.4108483"><ele>583.8571428571429</ele><time>2026-04-27T18:07:13.124Z</time></trkpt><trkpt lat="45.0553767" lon="7.4108537"><ele>585.1428571428571</ele><time>2026-04-27T18:07:18.125Z</time></trkpt><trkpt lat="45.0553119" lon="7.4108574"><ele>586.4285714285713</ele><time>2026-04-27T18:07:23.124Z</time></trkpt><trkpt lat="45.0552432" lon="7.4108404"><ele>587.7142857142857</ele><time>2026-04-27T18:07:28.125Z</time></trkpt><trkpt lat="45.0551655" lon="7.4108334"><ele>589.0</ele><time>2026-04-27T18:07:34.126Z</time></trkpt><trkpt lat="45.0550851" lon="7.410827"><ele>589.0</ele><time>2026-04-27T18:07:38.124Z</time></trkpt><trkpt lat="45.0549615" lon="7.4107895"><ele>589.0</ele><time>2026-04-27T18:07:41.125Z</time></trkpt><trkpt lat="45.0548792" lon="7.4107609"><ele>589.0</ele><time>2026-04-27T18:07:43.124Z</time></trkpt><trkpt lat="45.0547774" lon="7.4106774"><ele>589.0</ele><time>2026-04-27T18:07:45.126Z</time></trkpt><trkpt lat="45.0546603" lon="7.4106356"><ele>588.6</ele><time>2026-04-27T18:07:47.125Z</time></trkpt><trkpt lat="45.0545987" lon="7.4106118"><ele>588.2</ele><time>2026-04-27T18:07:48.124Z</time></trkpt><trkpt lat="45.0544951" lon="7.4105676"><ele>587.8000000000001</ele><time>2026-04-27T18:07:50.125Z</time></trkpt><trkpt lat="45.0543891" lon="7.4105246"><ele>587.4</ele><time>2026-04-27T18:07:52.125Z</time></trkpt><trkpt lat="45.0543035" lon="7.410479"><ele>587.0</ele><time>2026-04-27T18:07:54.125Z</time></trkpt><trkpt lat="45.0542358" lon="7.4104136"><ele>587.0</ele><time>2026-04-27T18:07:56.125Z</time></trkpt><trkpt lat="45.0541976" lon="7.4103216"><ele>587.0</ele><time>2026-04-27T18:07:58.125Z</time></trkpt><trkpt lat="45.0542114" lon="7.41019"><ele>587.0</ele><time>2026-04-27T18:08:00.125Z</time></trkpt><trkpt lat="45.0542241" lon="7.4100721"><ele>587.0</ele><time>2026-04-27T18:08:02.125Z</time></trkpt><trkpt lat="45.0542422" lon="7.4099795"><ele>587.0</ele><time>2026-04-27T18:08:04.125Z</time></trkpt><trkpt lat="45.0542635" lon="7.4098688"><ele>587.0</ele><time>2026-04-27T18:08:06.125Z</time></trkpt><trkpt lat="45.0542781" lon="7.4097494"><ele>587.8333333333333</ele><time>2026-04-27T18:08:08.124Z</time></trkpt><trkpt lat="45.054257" lon="7.4096475"><ele>588.6666666666666</ele><time>2026-04-27T18:08:10.125Z</time></trkpt><trkpt lat="45.0541962" lon="7.409545"><ele>589.5</ele><time>2026-04-27T18:08:12.124Z</time></trkpt><trkpt lat="45.0541825" lon="7.409447"><ele>590.3333333333334</ele><time>2026-04-27T18:08:14.125Z</time></trkpt><trkpt lat="45.054179" lon="7.4093483"><ele>591.1666666666667</ele><time>2026-04-27T18:08:17.124Z</time></trkpt><trkpt lat="45.0541621" lon="7.4092366"><ele>592.0</ele><time>2026-04-27T18:08:20.124Z</time></trkpt><trkpt lat="45.0541518" lon="7.4091241"><ele>592.0</ele><time>2026-04-27T18:08:23.125Z</time></trkpt><trkpt lat="45.0541385" lon="7.4090232"><ele>592.0</ele><time>2026-04-27T18:08:26.125Z</time></trkpt><trkpt lat="45.0541194" lon="7.4089226"><ele>592.0</ele><time>2026-04-27T18:08:29.125Z</time></trkpt><trkpt lat="45.0540867" lon="7.4088187"><ele>592.0</ele><time>2026-04-27T18:08:33.126Z</time></trkpt><trkpt lat="45.0540514" lon="7.4087234"><ele>592.0</ele><time>2026-04-27T18:08:37.125Z</time></trkpt><trkpt lat="45.0540541" lon="7.4086329"><ele>592.0</ele><time>2026-04-27T18:08:40.125Z</time></trkpt><trkpt lat="45.0540379" lon="7.4085193"><ele>592.0</ele><time>2026-04-27T18:08:44.125Z</time></trkpt><trkpt lat="45.0540395" lon="7.4084244"><ele>593.8333333333334</ele><time>2026-04-27T18:08:47.124Z</time></trkpt><trkpt lat="45.0540399" lon="7.4083172"><ele>595.6666666666667</ele><time>2026-04-27T18:08:51.125Z</time></trkpt><trkpt lat="45.0540302" lon="7.4082127"><ele>597.5</ele><time>2026-04-27T18:08:55.124Z</time></trkpt><trkpt lat="45.0540253" lon="7.4080989"><ele>599.3333333333334</ele><time>2026-04-27T18:08:59.124Z</time></trkpt><trkpt lat="45.0540467" lon="7.4079773"><ele>601.1666666666666</ele><time>2026-04-27T18:09:03.126Z</time></trkpt><trkpt lat="45.0540695" lon="7.4078672"><ele>603.0</ele><time>2026-04-27T18:09:07.125Z</time></trkpt><trkpt lat="45.054085" lon="7.4077622"><ele>603.4285714285714</ele><time>2026-04-27T18:09:11.125Z</time></trkpt><trkpt lat="45.0541064" lon="7.4076574"><ele>603.8571428571428</ele><time>2026-04-27T18:09:15.125Z</time></trkpt><trkpt lat="45.0541191" lon="7.4075537"><ele>604.2857142857142</ele><time>2026-04-27T18:09:19.125Z</time></trkpt><trkpt lat="45.0541146" lon="7.4074365"><ele>604.7142857142858</ele><time>2026-04-27T18:09:23.124Z</time></trkpt><trkpt lat="45.0541046" lon="7.4073403"><ele>605.1428571428571</ele><time>2026-04-27T18:09:26.125Z</time></trkpt><trkpt lat="45.0540728" lon="7.4072591"><ele>605.5714285714286</ele><time>2026-04-27T18:09:29.125Z</time></trkpt><trkpt lat="45.0540572" lon="7.4071694"><ele>606.0</ele><time>2026-04-27T18:09:32.125Z</time></trkpt><trkpt lat="45.0540655" lon="7.4070799"><ele>605.1428571428571</ele><time>2026-04-27T18:09:35.124Z</time></trkpt><trkpt lat="45.0540222" lon="7.4069996"><ele>604.2857142857142</ele><time>2026-04-27T18:09:39.125Z</time></trkpt><trkpt lat="45.0539639" lon="7.4069524"><ele>603.4285714285713</ele><time>2026-04-27T18:09:43.125Z</time></trkpt><trkpt lat="45.0539042" lon="7.4068959"><ele>602.5714285714286</ele><time>2026-04-27T18:09:48.124Z</time></trkpt><trkpt lat="45.0538509" lon="7.4068139"><ele>601.7142857142857</ele><time>2026-04-27T18:09:53.125Z</time></trkpt><trkpt lat="45.0537944" lon="7.4067593"><ele>600.8571428571428</ele><time>2026-04-27T18:09:57.124Z</time></trkpt><trkpt lat="45.0537269" lon="7.4067594"><ele>600.0</ele><time>2026-04-27T18:10:01.124Z</time></trkpt><trkpt lat="45.0536598" lon="7.4068055"><ele>600.0</ele><time>2026-04-27T18:10:06.124Z</time></trkpt><trkpt lat="45.0536116" lon="7.4068842"><ele>600.0</ele><time>2026-04-27T18:10:11.125Z</time></trkpt><trkpt lat="45.0535589" lon="7.4069529"><ele>600.0</ele><time>2026-04-27T18:10:15.125Z</time></trkpt><trkpt lat="45.0535002" lon="7.4070011"><ele>600.0</ele><time>2026-04-27T18:10:18.125Z</time></trkpt><trkpt lat="45.0534462" lon="7.4070819"><ele>600.0</ele><time>2026-04-27T18:10:21.125Z</time></trkpt><trkpt lat="45.0534141" lon="7.4071912"><ele>600.0</ele><time>2026-04-27T18:10:24.125Z</time></trkpt><trkpt lat="45.0533611" lon="7.407271"><ele>600.8571428571428</ele><time>2026-04-27T18:10:27.125Z</time></trkpt><trkpt lat="45.0533018" lon="7.4073068"><ele>601.7142857142857</ele><time>2026-04-27T18:10:29.125Z</time></trkpt><trkpt lat="45.0532468" lon="7.4073547"><ele>602.5714285714286</ele><time>2026-04-27T18:10:31.124Z</time></trkpt><trkpt lat="45.0531901" lon="7.4073998"><ele>603.4285714285713</ele><time>2026-04-27T18:10:33.124Z</time></trkpt><trkpt lat="45.0531287" lon="7.4074378"><ele>604.2857142857142</ele><time>2026-04-27T18:10:35.125Z</time></trkpt><trkpt lat="45.0530519" lon="7.4075035"><ele>605.1428571428571</ele><time>2026-04-27T18:10:38.124Z</time></trkpt><trkpt lat="45.0529983" lon="7.4076071"><ele>606.0</ele><time>2026-04-27T18:10:41.126Z</time></trkpt><trkpt lat="45.0529705" lon="7.4076912"><ele>604.7142857142858</ele><time>2026-04-27T18:10:43.125Z</time></trkpt><trkpt lat="45.0529644" lon="7.4077874"><ele>603.4285714285714</ele><time>2026-04-27T18:10:45.124Z</time></trkpt><trkpt lat="45.052932" lon="7.4078775"><ele>602.1428571428571</ele><time>2026-04-27T18:10:47.125Z</time></trkpt><trkpt lat="45.0528872" lon="7.4079736"><ele>600.8571428571429</ele><time>2026-04-27T18:10:49.125Z</time></trkpt><trkpt lat="45.0528596" lon="7.4080693"><ele>599.5714285714286</ele><time>2026-04-27T18:10:51.124Z</time></trkpt><trkpt lat="45.0528305" lon="7.4081591"><ele>598.2857142857143</ele><time>2026-04-27T18:10:53.125Z</time></trkpt><trkpt lat="45.0527858" lon="7.4082562"><ele>597.0</ele><time>2026-04-27T18:10:55.126Z</time></trkpt><trkpt lat="45.0527379" lon="7.4083775"><ele>597.0000000000001</ele><time>2026-04-27T18:10:57.125Z</time></trkpt><trkpt lat="45.0527108" lon="7.4084616"><ele>597.0</ele><time>2026-04-27T18:10:58.124Z</time></trkpt><trkpt lat="45.0526714" lon="7.4085489"><ele>597.0</ele><time>2026-04-27T18:10:59.124Z</time></trkpt><trkpt lat="45.0526323" lon="7.4086386"><ele>597.0</ele><time>2026-04-27T18:11:00.125Z</time></trkpt><trkpt lat="45.0525951" lon="7.4087234"><ele>597.0</ele><time>2026-04-27T18:11:01.125Z</time></trkpt><trkpt lat="45.0525534" lon="7.4087993"><ele>597.0000000000001</ele><time>2026-04-27T18:11:02.125Z</time></trkpt><trkpt lat="45.052523" lon="7.4088809"><ele>597.0</ele><time>2026-04-27T18:11:03.124Z</time></trkpt><trkpt lat="45.0524632" lon="7.4089893"><ele>595.6</ele><time>2026-04-27T18:11:05.125Z</time></trkpt><trkpt lat="45.0523992" lon="7.4090834"><ele>594.2</ele><time>2026-04-27T18:11:07.125Z</time></trkpt><trkpt lat="45.0523181" lon="7.4091414"><ele>592.8</ele><time>2026-04-27T18:11:09.124Z</time></trkpt><trkpt lat="45.0522442" lon="7.4092514"><ele>591.4</ele><time>2026-04-27T18:11:11.124Z</time></trkpt><trkpt lat="45.0521914" lon="7.4093569"><ele>590.0</ele><time>2026-04-27T18:11:13.125Z</time></trkpt><trkpt lat="45.0521246" lon="7.4094375"><ele>590.0</ele><time>2026-04-27T18:11:15.125Z</time></trkpt><trkpt lat="45.0520504" lon="7.409475"><ele>590.0</ele><time>2026-04-27T18:11:17.125Z</time></trkpt><trkpt lat="45.0519588" lon="7.4094844"><ele>590.0</ele><time>2026-04-27T18:11:20.125Z</time></trkpt><trkpt lat="45.0518799" lon="7.4094687"><ele>590.0</ele><time>2026-04-27T18:11:23.125Z</time></trkpt><trkpt lat="45.0518225" lon="7.4095177"><ele>590.0</ele><time>2026-04-27T18:11:38.124Z</time></trkpt><trkpt lat="45.0517727" lon="7.4094587"><ele>590.0</ele><time>2026-04-27T18:12:28.126Z</time></trkpt><trkpt lat="45.0518338" lon="7.4095013"><ele>590.0000000000001</ele><time>2026-04-27T18:13:27.125Z</time></trkpt><trkpt lat="45.0519115" lon="7.4095145"><ele>590.0</ele><time>2026-04-27T18:13:34.125Z</time></trkpt><trkpt lat="45.0519826" lon="7.409516"><ele>590.0</ele><time>2026-04-27T18:13:37.125Z</time></trkpt><trkpt lat="45.0520441" lon="7.4095412"><ele>590.0</ele><time>2026-04-27T18:13:51.126Z</time></trkpt><trkpt lat="45.0520884" lon="7.4094747"><ele>590.0</ele><time>2026-04-27T18:14:10.125Z</time></trkpt><trkpt lat="45.0521587" lon="7.4094255"><ele>590.0000000000001</ele><time>2026-04-27T18:14:13.125Z</time></trkpt><trkpt lat="45.0522133" lon="7.409346"><ele>590.0</ele><time>2026-04-27T18:14:16.126Z</time></trkpt><trkpt lat="45.0522659" lon="7.4092613"><ele>590.0</ele><time>2026-04-27T18:14:19.126Z</time></trkpt><trkpt lat="45.0523363" lon="7.4092188"><ele>590.0</ele><time>2026-04-27T18:14:33.125Z</time></trkpt><trkpt lat="45.0523654" lon="7.4091205"><ele>590.0</ele><time>2026-04-27T18:14:38.125Z</time></trkpt><trkpt lat="45.0523144" lon="7.4091912"><ele>590.0</ele><time>2026-04-27T18:15:05.125Z</time></trkpt><trkpt lat="45.0522556" lon="7.4092534"><ele>590.0</ele><time>2026-04-27T18:15:07.125Z</time></trkpt><trkpt lat="45.0522078" lon="7.4093414"><ele>590.0</ele><time>2026-04-27T18:15:09.125Z</time></trkpt><trkpt lat="45.0521558" lon="7.4094214"><ele>590.0000000000001</ele><time>2026-04-27T18:15:11.125Z</time></trkpt><trkpt lat="45.0521003" lon="7.4094873"><ele>590.0</ele><time>2026-04-27T18:15:13.127Z</time></trkpt><trkpt lat="45.0520715" lon="7.4095738"><ele>590.0</ele><time>2026-04-27T18:15:16.124Z</time></trkpt><trkpt lat="45.0519884" lon="7.4095842"><ele>590.0</ele><time>2026-04-27T18:15:20.124Z</time></trkpt><trkpt lat="45.0519435" lon="7.4096517"><ele>590.0</ele><time>2026-04-27T18:15:23.125Z</time></trkpt><trkpt lat="45.0519806" lon="7.4095748"><ele>590.0000000000001</ele><time>2026-04-27T18:15:36.124Z</time></trkpt><trkpt lat="45.0520476" lon="7.4095075"><ele>590.0</ele><time>2026-04-27T18:15:41.124Z</time></trkpt><trkpt lat="45.0521085" lon="7.4094641"><ele>590.0000000000001</ele><time>2026-04-27T18:15:43.124Z</time></trkpt><trkpt lat="45.0521732" lon="7.4093985"><ele>590.0</ele><time>2026-04-27T18:15:45.126Z</time></trkpt><trkpt lat="45.0522236" lon="7.4093193"><ele>590.0</ele><time>2026-04-27T18:15:47.125Z</time></trkpt><trkpt lat="45.0522698" lon="7.4092543"><ele>590.0</ele><time>2026-04-27T18:15:49.125Z</time></trkpt><trkpt lat="45.0523301" lon="7.409195"><ele>590.0</ele><time>2026-04-27T18:15:55.125Z</time></trkpt><trkpt lat="45.052405" lon="7.4092133"><ele>590.0000000000001</ele><time>2026-04-27T18:15:59.124Z</time></trkpt><trkpt lat="45.0524532" lon="7.4092788"><ele>590.0</ele><time>2026-04-27T18:16:03.125Z</time></trkpt><trkpt lat="45.0524781" lon="7.4093845"><ele>591.0</ele><time>2026-04-27T18:16:08.126Z</time></trkpt><trkpt lat="45.052508" lon="7.4094837"><ele>592.0</ele><time>2026-04-27T18:16:10.125Z</time></trkpt><trkpt lat="45.0525385" lon="7.4095969"><ele>593.0</ele><time>2026-04-27T18:16:12.124Z</time></trkpt><trkpt lat="45.0525535" lon="7.4096953"><ele>594.0</ele><time>2026-04-27T18:16:13.126Z</time></trkpt><trkpt lat="45.0525835" lon="7.4098068"><ele>595.0</ele><time>2026-04-27T18:16:15.125Z</time></trkpt><trkpt lat="45.0525698" lon="7.4099152"><ele>596.0</ele><time>2026-04-27T18:16:19.127Z</time></trkpt><trkpt lat="45.0525775" lon="7.4100213"><ele>596.0</ele><time>2026-04-27T18:16:21.125Z</time></trkpt><trkpt lat="45.0525972" lon="7.4101319"><ele>596.0</ele><time>2026-04-27T18:16:23.126Z</time></trkpt><trkpt lat="45.0526146" lon="7.4102858"><ele>596.0</ele><time>2026-04-27T18:16:25.126Z</time></trkpt><trkpt lat="45.0526345" lon="7.4104019"><ele>596.0</ele><time>2026-04-27T18:16:27.125Z</time></trkpt><trkpt lat="45.0526754" lon="7.410492"><ele>596.0</ele><time>2026-04-27T18:16:29.125Z</time></trkpt><trkpt lat="45.0527104" lon="7.4105818"><ele>596.0</ele><time>2026-04-27T18:16:31.125Z</time></trkpt><trkpt lat="45.0528146" lon="7.4107191"><ele>595.6666666666666</ele><time>2026-04-27T18:16:33.125Z</time></trkpt><trkpt lat="45.0528706" lon="7.410768"><ele>595.3333333333333</ele><time>2026-04-27T18:16:34.124Z</time></trkpt><trkpt lat="45.0528521" lon="7.4108586"><ele>595.0</ele><time>2026-04-27T18:16:36.126Z</time></trkpt><trkpt lat="45.052793" lon="7.4109796"><ele>594.6666666666666</ele><time>2026-04-27T18:16:38.125Z</time></trkpt><trkpt lat="45.0527948" lon="7.4111464"><ele>594.3333333333334</ele><time>2026-04-27T18:16:40.124Z</time></trkpt><trkpt lat="45.05278" lon="7.4112394"><ele>594.0</ele><time>2026-04-27T18:16:41.125Z</time></trkpt><trkpt lat="45.052745" lon="7.4113843"><ele>592.8</ele><time>2026-04-27T18:16:43.125Z</time></trkpt><trkpt lat="45.0527241" lon="7.4115466"><ele>591.5999999999999</ele><time>2026-04-27T18:16:45.124Z</time></trkpt><trkpt lat="45.0527314" lon="7.4117041"><ele>590.4</ele><time>2026-04-27T18:16:47.126Z</time></trkpt><trkpt lat="45.0527497" lon="7.4117922"><ele>589.1999999999999</ele><time>2026-04-27T18:16:48.124Z</time></trkpt><trkpt lat="45.0527569" lon="7.4119324"><ele>588.0</ele><time>2026-04-27T18:16:50.125Z</time></trkpt><trkpt lat="45.052759" lon="7.4120813"><ele>586.6</ele><time>2026-04-27T18:16:52.126Z</time></trkpt><trkpt lat="45.0527774" lon="7.4122342"><ele>585.1999999999999</ele><time>2026-04-27T18:16:54.125Z</time></trkpt><trkpt lat="45.0527914" lon="7.4123846"><ele>583.8</ele><time>2026-04-27T18:16:56.125Z</time></trkpt><trkpt lat="45.052787" lon="7.4124902"><ele>582.4</ele><time>2026-04-27T18:16:58.125Z</time></trkpt><trkpt lat="45.052768" lon="7.4126057"><ele>581.0</ele><time>2026-04-27T18:17:01.124Z</time></trkpt><trkpt lat="45.0527438" lon="7.4127192"><ele>581.0</ele><time>2026-04-27T18:17:04.125Z</time></trkpt><trkpt lat="45.0527104" lon="7.4128094"><ele>581.0</ele><time>2026-04-27T18:17:06.125Z</time></trkpt><trkpt lat="45.0526709" lon="7.412915"><ele>581.0</ele><time>2026-04-27T18:17:09.127Z</time></trkpt><trkpt lat="45.0526077" lon="7.4130054"><ele>581.0</ele><time>2026-04-27T18:17:12.125Z</time></trkpt><trkpt lat="45.0525718" lon="7.4131022"><ele>581.0</ele><time>2026-04-27T18:17:14.126Z</time></trkpt><trkpt lat="45.0525707" lon="7.4132007"><ele>581.0</ele><time>2026-04-27T18:17:16.124Z</time></trkpt><trkpt lat="45.0525373" lon="7.4133264"><ele>580.3333333333333</ele><time>2026-04-27T18:17:19.125Z</time></trkpt><trkpt lat="45.052522" lon="7.4134196"><ele>579.6666666666666</ele><time>2026-04-27T18:17:21.124Z</time></trkpt><trkpt lat="45.0525207" lon="7.4135106"><ele>579.0</ele><time>2026-04-27T18:17:23.125Z</time></trkpt><trkpt lat="45.0525257" lon="7.413634"><ele>578.3333333333334</ele><time>2026-04-27T18:17:25.124Z</time></trkpt><trkpt lat="45.0525343" lon="7.4137901"><ele>577.6666666666667</ele><time>2026-04-27T18:17:27.126Z</time></trkpt><trkpt lat="45.0524991" lon="7.4139242"><ele>577.0</ele><time>2026-04-27T18:17:29.125Z</time></trkpt><trkpt lat="45.0524748" lon="7.4140277"><ele>576.3333333333334</ele><time>2026-04-27T18:17:31.125Z</time></trkpt><trkpt lat="45.0524339" lon="7.4141663"><ele>575.6666666666667</ele><time>2026-04-27T18:17:33.125Z</time></trkpt><trkpt lat="45.052423" lon="7.4142672"><ele>575.0</ele><time>2026-04-27T18:17:35.126Z</time></trkpt><trkpt lat="45.0524389" lon="7.4143794"><ele>574.3333333333334</ele><time>2026-04-27T18:17:37.125Z</time></trkpt><trkpt lat="45.0524674" lon="7.4144729"><ele>573.6666666666666</ele><time>2026-04-27T18:17:39.124Z</time></trkpt><trkpt lat="45.052451" lon="7.4146068"><ele>573.0</ele><time>2026-04-27T18:17:42.124Z</time></trkpt><trkpt lat="45.0524111" lon="7.4147057"><ele>572.5714285714286</ele><time>2026-04-27T18:17:44.126Z</time></trkpt><trkpt lat="45.0523682" lon="7.4147955"><ele>572.1428571428572</ele><time>2026-04-27T18:17:46.125Z</time></trkpt><trkpt lat="45.0523335" lon="7.414882"><ele>571.7142857142858</ele><time>2026-04-27T18:17:48.125Z</time></trkpt><trkpt lat="45.0522889" lon="7.4149746"><ele>571.2857142857143</ele><time>2026-04-27T18:17:50.125Z</time></trkpt><trkpt lat="45.052238" lon="7.4150325"><ele>570.8571428571429</ele><time>2026-04-27T18:17:52.127Z</time></trkpt><trkpt lat="45.0522097" lon="7.4151164"><ele>570.4285714285714</ele><time>2026-04-27T18:17:54.126Z</time></trkpt><trkpt lat="45.0521973" lon="7.4152293"><ele>570.0</ele><time>2026-04-27T18:17:56.125Z</time></trkpt><trkpt lat="45.0521745" lon="7.4153358"><ele>570.0</ele><time>2026-04-27T18:17:58.124Z</time></trkpt><trkpt lat="45.0521308" lon="7.4154141"><ele>570.0</ele><time>2026-04-27T18:18:00.125Z</time></trkpt><trkpt lat="45.0521126" lon="7.4155003"><ele>570.0</ele><time>2026-04-27T18:18:02.126Z</time></trkpt><trkpt lat="45.0520906" lon="7.4156103"><ele>570.0</ele><time>2026-04-27T18:18:04.126Z</time></trkpt><trkpt lat="45.0520565" lon="7.4157126"><ele>570.0</ele><time>2026-04-27T18:18:06.126Z</time></trkpt><trkpt lat="45.0520326" lon="7.4158457"><ele>570.0</ele><time>2026-04-27T18:18:08.125Z</time></trkpt><trkpt lat="45.0520211" lon="7.4159398"><ele>567.6666666666666</ele><time>2026-04-27T18:18:09.125Z</time></trkpt><trkpt lat="45.0520345" lon="7.4160692"><ele>565.3333333333334</ele><time>2026-04-27T18:18:11.125Z</time></trkpt><trkpt lat="45.0520646" lon="7.4161851"><ele>563.0</ele><time>2026-04-27T18:18:13.125Z</time></trkpt><trkpt lat="45.0521184" lon="7.4162599"><ele>560.6666666666667</ele><time>2026-04-27T18:18:15.124Z</time></trkpt><trkpt lat="45.0521174" lon="7.4163568"><ele>558.3333333333334</ele><time>2026-04-27T18:18:19.126Z</time></trkpt><trkpt lat="45.052184" lon="7.4163792"><ele>556.0</ele><time>2026-04-27T18:18:23.125Z</time></trkpt><trkpt lat="45.0522516" lon="7.4163574"><ele>553.8333333333334</ele><time>2026-04-27T18:18:25.125Z</time></trkpt><trkpt lat="45.052323" lon="7.4164244"><ele>551.6666666666667</ele><time>2026-04-27T18:18:28.126Z</time></trkpt><trkpt lat="45.0523302" lon="7.4165373"><ele>549.5</ele><time>2026-04-27T18:18:31.125Z</time></trkpt><trkpt lat="45.0522852" lon="7.4166345"><ele>547.3333333333334</ele><time>2026-04-27T18:18:34.126Z</time></trkpt><trkpt lat="45.0522365" lon="7.4166975"><ele>545.1666666666666</ele><time>2026-04-27T18:18:36.125Z</time></trkpt><trkpt lat="45.0521871" lon="7.4168049"><ele>543.0</ele><time>2026-04-27T18:18:39.125Z</time></trkpt><trkpt lat="45.052162" lon="7.41689"><ele>543.0</ele><time>2026-04-27T18:18:41.125Z</time></trkpt><trkpt lat="45.0521407" lon="7.4169761"><ele>543.0</ele><time>2026-04-27T18:18:43.125Z</time></trkpt><trkpt lat="45.0520953" lon="7.4170748"><ele>543.0</ele><time>2026-04-27T18:18:45.124Z</time></trkpt><trkpt lat="45.052027" lon="7.4171546"><ele>543.0</ele><time>2026-04-27T18:18:47.124Z</time></trkpt><trkpt lat="45.0519705" lon="7.4172384"><ele>543.0</ele><time>2026-04-27T18:18:49.125Z</time></trkpt><trkpt lat="45.0519808" lon="7.4173284"><ele>543.0</ele><time>2026-04-27T18:18:51.126Z</time></trkpt><trkpt lat="45.0520327" lon="7.4173965"><ele>541.0</ele><time>2026-04-27T18:18:53.126Z</time></trkpt><trkpt lat="45.0521135" lon="7.4174239"><ele>539.0</ele><time>2026-04-27T18:18:55.125Z</time></trkpt><trkpt lat="45.0521899" lon="7.417452"><ele>537.0</ele><time>2026-04-27T18:18:57.126Z</time></trkpt><trkpt lat="45.0522631" lon="7.4174512"><ele>535.0</ele><time>2026-04-27T18:18:59.126Z</time></trkpt><trkpt lat="45.0523595" lon="7.4174746"><ele>533.0</ele><time>2026-04-27T18:19:01.127Z</time></trkpt><trkpt lat="45.0524437" lon="7.4174806"><ele>531.0</ele><time>2026-04-27T18:19:03.126Z</time></trkpt><trkpt lat="45.0525359" lon="7.4175282"><ele>531.0</ele><time>2026-04-27T18:19:05.125Z</time></trkpt><trkpt lat="45.0526451" lon="7.4175792"><ele>531.0</ele><time>2026-04-27T18:19:07.124Z</time></trkpt><trkpt lat="45.0527767" lon="7.4176349"><ele>531.0</ele><time>2026-04-27T18:19:09.125Z</time></trkpt><trkpt lat="45.0528845" lon="7.4175971"><ele>531.0</ele><time>2026-04-27T18:19:11.126Z</time></trkpt><trkpt lat="45.0529925" lon="7.4175745"><ele>531.0</ele><time>2026-04-27T18:19:13.125Z</time></trkpt><trkpt lat="45.0531114" lon="7.417524"><ele>531.0</ele><time>2026-04-27T18:19:15.125Z</time></trkpt><trkpt lat="45.0531812" lon="7.4175418"><ele>531.0</ele><time>2026-04-27T18:19:17.125Z</time></trkpt><trkpt lat="45.0532737" lon="7.4175555"><ele>531.0</ele><time>2026-04-27T18:19:19.126Z</time></trkpt><trkpt lat="45.0533944" lon="7.417576"><ele>531.0</ele><time>2026-04-27T18:19:21.127Z</time></trkpt><trkpt lat="45.0534653" lon="7.4176247"><ele>530.0</ele><time>2026-04-27T18:19:23.124Z</time></trkpt><trkpt lat="45.0535316" lon="7.417647"><ele>529.0</ele><time>2026-04-27T18:19:25.124Z</time></trkpt><trkpt lat="45.0536153" lon="7.4176307"><ele>528.0</ele><time>2026-04-27T18:19:27.126Z</time></trkpt><trkpt lat="45.0536996" lon="7.4176436"><ele>527.0</ele><time>2026-04-27T18:19:29.126Z</time></trkpt><trkpt lat="45.0537752" lon="7.4176539"><ele>526.0</ele><time>2026-04-27T18:19:31.124Z</time></trkpt><trkpt lat="45.053862" lon="7.4176953"><ele>525.0</ele><time>2026-04-27T18:19:34.125Z</time></trkpt><trkpt lat="45.053977" lon="7.4176484"><ele>525.0</ele><time>2026-04-27T18:19:37.126Z</time></trkpt><trkpt lat="45.0540824" lon="7.4176679"><ele>525.0</ele><time>2026-04-27T18:19:39.126Z</time></trkpt><trkpt lat="45.0541927" lon="7.417701"><ele>525.0</ele><time>2026-04-27T18:19:41.124Z</time></trkpt><trkpt lat="45.0542567" lon="7.4176967"><ele>525.0</ele><time>2026-04-27T18:19:42.126Z</time></trkpt><trkpt lat="45.0543726" lon="7.4176992"><ele>525.0</ele><time>2026-04-27T18:19:44.126Z</time></trkpt><trkpt lat="45.0544496" lon="7.4177164"><ele>523.2</ele><time>2026-04-27T18:19:45.126Z</time></trkpt><trkpt lat="45.0545338" lon="7.4177113"><ele>521.4</ele><time>2026-04-27T18:19:47.125Z</time></trkpt><trkpt lat="45.054628" lon="7.4177098"><ele>519.6</ele><time>2026-04-27T18:19:49.125Z</time></trkpt><trkpt lat="45.0546959" lon="7.4177032"><ele>517.8</ele><time>2026-04-27T18:19:50.126Z</time></trkpt><trkpt lat="45.0548007" lon="7.417677"><ele>516.0</ele><time>2026-04-27T18:19:52.125Z</time></trkpt><trkpt lat="45.054894" lon="7.4176157"><ele>515.3333333333334</ele><time>2026-04-27T18:19:55.125Z</time></trkpt><trkpt lat="45.0549646" lon="7.4175617"><ele>514.6666666666666</ele><time>2026-04-27T18:19:57.127Z</time></trkpt><trkpt lat="45.0550488" lon="7.417488"><ele>514.0</ele><time>2026-04-27T18:19:59.125Z</time></trkpt><trkpt lat="45.0551045" lon="7.4174426"><ele>513.3333333333333</ele><time>2026-04-27T18:20:00.127Z</time></trkpt><trkpt lat="45.0551918" lon="7.4174207"><ele>512.6666666666666</ele><time>2026-04-27T18:20:02.125Z</time></trkpt><trkpt lat="45.0552608" lon="7.41739"><ele>512.0</ele><time>2026-04-27T18:20:04.126Z</time></trkpt><trkpt lat="45.055335" lon="7.4173818"><ele>511.99999999999994</ele><time>2026-04-27T18:20:06.125Z</time></trkpt><trkpt lat="45.0553542" lon="7.4175018"><ele>512.0</ele><time>2026-04-27T18:20:20.126Z</time></trkpt><trkpt lat="45.0553911" lon="7.4176181"><ele>512.0</ele><time>2026-04-27T18:20:23.125Z</time></trkpt><trkpt lat="45.0554706" lon="7.4176889"><ele>512.0</ele><time>2026-04-27T18:20:26.126Z</time></trkpt><trkpt lat="45.0555368" lon="7.4177782"><ele>511.99999999999994</ele><time>2026-04-27T18:20:29.126Z</time></trkpt><trkpt lat="45.0556139" lon="7.4178291"><ele>512.0</ele><time>2026-04-27T18:20:31.125Z</time></trkpt><trkpt lat="45.055679" lon="7.4178565"><ele>512.0</ele><time>2026-04-27T18:20:33.124Z</time></trkpt><trkpt lat="45.0557539" lon="7.4178416"><ele>511.99999999999994</ele><time>2026-04-27T18:20:35.124Z</time></trkpt><trkpt lat="45.0558167" lon="7.4178105"><ele>512.0</ele><time>2026-04-27T18:20:38.127Z</time></trkpt><trkpt lat="45.0558959" lon="7.4177898"><ele>512.0</ele><time>2026-04-27T18:20:41.126Z</time></trkpt><trkpt lat="45.0559307" lon="7.4178815"><ele>511.99999999999994</ele><time>2026-04-27T18:20:43.126Z</time></trkpt><trkpt lat="45.0559398" lon="7.4179885"><ele>512.0</ele><time>2026-04-27T18:20:46.125Z</time></trkpt><trkpt lat="45.0559363" lon="7.4180829"><ele>512.0</ele><time>2026-04-27T18:20:49.125Z</time></trkpt><trkpt lat="45.0559406" lon="7.4181947"><ele>508.49999999999994</ele><time>2026-04-27T18:20:52.126Z</time></trkpt><trkpt lat="45.0559837" lon="7.4182597"><ele>505.0</ele><time>2026-04-27T18:20:54.126Z</time></trkpt><trkpt lat="45.0560522" lon="7.4183224"><ele>501.5</ele><time>2026-04-27T18:20:56.126Z</time></trkpt><trkpt lat="45.0561187" lon="7.4183963"><ele>498.0</ele><time>2026-04-27T18:20:58.126Z</time></trkpt><trkpt lat="45.0561806" lon="7.4184781"><ele>494.49999999999994</ele><time>2026-04-27T18:21:00.124Z</time></trkpt><trkpt lat="45.0562418" lon="7.4185503"><ele>491.0</ele><time>2026-04-27T18:21:02.125Z</time></trkpt><trkpt lat="45.0563141" lon="7.4186282"><ele>490.99999999999994</ele><time>2026-04-27T18:21:04.127Z</time></trkpt><trkpt lat="45.0563851" lon="7.4187455"><ele>491.0</ele><time>2026-04-27T18:21:06.126Z</time></trkpt><trkpt lat="45.056452" lon="7.4188963"><ele>491.0</ele><time>2026-04-27T18:21:08.125Z</time></trkpt><trkpt lat="45.056486" lon="7.4189833"><ele>491.0</ele><time>2026-04-27T18:21:09.125Z</time></trkpt><trkpt lat="45.0565172" lon="7.4190699"><ele>490.99999999999994</ele><time>2026-04-27T18:21:10.125Z</time></trkpt><trkpt lat="45.0565417" lon="7.4191599"><ele>491.0</ele><time>2026-04-27T18:21:11.125Z</time></trkpt><trkpt lat="45.0565676" lon="7.4192523"><ele>490.1428571428571</ele><time>2026-04-27T18:21:12.125Z</time></trkpt><trkpt lat="45.0565768" lon="7.4193469"><ele>489.2857142857142</ele><time>2026-04-27T18:21:13.127Z</time></trkpt><trkpt lat="45.0565687" lon="7.4194428"><ele>488.42857142857144</ele><time>2026-04-27T18:21:14.126Z</time></trkpt><trkpt lat="45.0565408" lon="7.4195357"><ele>487.57142857142856</ele><time>2026-04-27T18:21:15.124Z</time></trkpt><trkpt lat="45.0565269" lon="7.4196365"><ele>486.7142857142857</ele><time>2026-04-27T18:21:16.126Z</time></trkpt><trkpt lat="45.0565222" lon="7.4197433"><ele>485.8571428571429</ele><time>2026-04-27T18:21:17.125Z</time></trkpt><trkpt lat="45.0565304" lon="7.4198467"><ele>485.00000000000006</ele><time>2026-04-27T18:21:18.125Z</time></trkpt><trkpt lat="45.0565553" lon="7.4199425"><ele>484.8571428571429</ele><time>2026-04-27T18:21:19.126Z</time></trkpt><trkpt lat="45.0565699" lon="7.4200552"><ele>484.7142857142857</ele><time>2026-04-27T18:21:20.126Z</time></trkpt><trkpt lat="45.0565721" lon="7.4201623"><ele>484.57142857142856</ele><time>2026-04-27T18:21:21.126Z</time></trkpt><trkpt lat="45.0565574" lon="7.4202622"><ele>484.42857142857144</ele><time>2026-04-27T18:21:22.126Z</time></trkpt><trkpt lat="45.0565284" lon="7.4203447"><ele>484.2857142857142</ele><time>2026-04-27T18:21:23.126Z</time></trkpt><trkpt lat="45.0564781" lon="7.4203986"><ele>484.1428571428571</ele><time>2026-04-27T18:21:24.127Z</time></trkpt><trkpt lat="45.0564191" lon="7.420442"><ele>484.0</ele><time>2026-04-27T18:21:25.126Z</time></trkpt><trkpt lat="45.0563566" lon="7.4205665"><ele>483.50000000000006</ele><time>2026-04-27T18:21:27.126Z</time></trkpt><trkpt lat="45.0563787" lon="7.4206912"><ele>483.0</ele><time>2026-04-27T18:21:29.125Z</time></trkpt><trkpt lat="45.0564071" lon="7.4207716"><ele>482.5</ele><time>2026-04-27T18:21:30.125Z</time></trkpt><trkpt lat="45.0564376" lon="7.4208504"><ele>482.0</ele><time>2026-04-27T18:21:31.124Z</time></trkpt><trkpt lat="45.0564815" lon="7.4210039"><ele>481.50000000000006</ele><time>2026-04-27T18:21:33.126Z</time></trkpt><trkpt lat="45.0565016" lon="7.4210952"><ele>481.0</ele><time>2026-04-27T18:21:34.126Z</time></trkpt><trkpt lat="45.0565212" lon="7.4211885"><ele>480.99999999999994</ele><time>2026-04-27T18:21:35.126Z</time></trkpt><trkpt lat="45.0565402" lon="7.4212854"><ele>481.0</ele><time>2026-04-27T18:21:36.125Z</time></trkpt><trkpt lat="45.0565583" lon="7.4213795"><ele>480.99999999999994</ele><time>2026-04-27T18:21:37.125Z</time></trkpt><trkpt lat="45.056577" lon="7.4214799"><ele>480.99999999999994</ele><time>2026-04-27T18:21:38.125Z</time></trkpt><trkpt lat="45.0565906" lon="7.4215843"><ele>481.0</ele><time>2026-04-27T18:21:39.126Z</time></trkpt><trkpt lat="45.0566034" lon="7.42169"><ele>480.99999999999994</ele><time>2026-04-27T18:21:40.126Z</time></trkpt><trkpt lat="45.0566136" lon="7.4217914"><ele>480.99999999999994</ele><time>2026-04-27T18:21:41.125Z</time></trkpt><trkpt lat="45.0566268" lon="7.4218992"><ele>480.83333333333337</ele><time>2026-04-27T18:21:42.126Z</time></trkpt><trkpt lat="45.0566462" lon="7.4220047"><ele>480.6666666666667</ele><time>2026-04-27T18:21:43.125Z</time></trkpt><trkpt lat="45.0566677" lon="7.4221076"><ele>480.5</ele><time>2026-04-27T18:21:44.126Z</time></trkpt><trkpt lat="45.0566898" lon="7.4222157"><ele>480.33333333333337</ele><time>2026-04-27T18:21:45.125Z</time></trkpt><trkpt lat="45.0567113" lon="7.4223253"><ele>480.1666666666667</ele><time>2026-04-27T18:21:46.126Z</time></trkpt><trkpt lat="45.0567394" lon="7.4224384"><ele>480.0</ele><time>2026-04-27T18:21:47.126Z</time></trkpt><trkpt lat="45.0567525" lon="7.4225422"><ele>479.5</ele><time>2026-04-27T18:21:48.126Z</time></trkpt><trkpt lat="45.0567644" lon="7.4226523"><ele>479.0</ele><time>2026-04-27T18:21:49.125Z</time></trkpt><trkpt lat="45.0567794" lon="7.4227555"><ele>478.5</ele><time>2026-04-27T18:21:50.125Z</time></trkpt><trkpt lat="45.0567905" lon="7.422862"><ele>478.0</ele><time>2026-04-27T18:21:51.126Z</time></trkpt><trkpt lat="45.0567976" lon="7.4229651"><ele>477.5</ele><time>2026-04-27T18:21:52.126Z</time></trkpt><trkpt lat="45.0568026" lon="7.4230705"><ele>477.0</ele><time>2026-04-27T18:21:53.125Z</time></trkpt><trkpt lat="45.0568083" lon="7.4231778"><ele>477.0</ele><time>2026-04-27T18:21:54.125Z</time></trkpt><trkpt lat="45.0568117" lon="7.423281"><ele>476.99999999999994</ele><time>2026-04-27T18:21:55.124Z</time></trkpt><trkpt lat="45.0568181" lon="7.4233912"><ele>477.0</ele><time>2026-04-27T18:21:56.125Z</time></trkpt><trkpt lat="45.0568089" lon="7.4234931"><ele>477.0</ele><time>2026-04-27T18:21:57.127Z</time></trkpt><trkpt lat="45.0568158" lon="7.4235948"><ele>476.99999999999994</ele><time>2026-04-27T18:21:58.127Z</time></trkpt><trkpt lat="45.0568248" lon="7.4236933"><ele>477.0</ele><time>2026-04-27T18:21:59.126Z</time></trkpt><trkpt lat="45.0568346" lon="7.4237977"><ele>477.0</ele><time>2026-04-27T18:22:00.125Z</time></trkpt><trkpt lat="45.0568466" lon="7.4239018"><ele>476.8333333333333</ele><time>2026-04-27T18:22:01.126Z</time></trkpt><trkpt lat="45.0568544" lon="7.4240032"><ele>476.66666666666663</ele><time>2026-04-27T18:22:02.126Z</time></trkpt><trkpt lat="45.0568638" lon="7.4240954"><ele>476.5</ele><time>2026-04-27T18:22:03.127Z</time></trkpt><trkpt lat="45.0568759" lon="7.4241842"><ele>476.3333333333333</ele><time>2026-04-27T18:22:04.125Z</time></trkpt><trkpt lat="45.0569427" lon="7.42432"><ele>476.16666666666663</ele><time>2026-04-27T18:22:06.126Z</time></trkpt><trkpt lat="45.0570309" lon="7.4243858"><ele>476.0</ele><time>2026-04-27T18:22:08.125Z</time></trkpt><trkpt lat="45.0571262" lon="7.4244213"><ele>475.99999999999994</ele><time>2026-04-27T18:22:10.125Z</time></trkpt><trkpt lat="45.0572113" lon="7.4244559"><ele>476.0</ele><time>2026-04-27T18:22:12.126Z</time></trkpt><trkpt lat="45.0572939" lon="7.4244962"><ele>476.0</ele><time>2026-04-27T18:22:14.125Z</time></trkpt><trkpt lat="45.0573637" lon="7.424573"><ele>476.0</ele><time>2026-04-27T18:22:16.126Z</time></trkpt><trkpt lat="45.0574148" lon="7.424648"><ele>475.99999999999994</ele><time>2026-04-27T18:22:18.126Z</time></trkpt><trkpt lat="45.0574474" lon="7.4247277"><ele>476.0</ele><time>2026-04-27T18:22:20.126Z</time></trkpt><trkpt lat="45.0574856" lon="7.4248457"><ele>476.42857142857144</ele><time>2026-04-27T18:22:23.126Z</time></trkpt><trkpt lat="45.0574873" lon="7.4249377"><ele>476.8571428571429</ele><time>2026-04-27T18:22:25.126Z</time></trkpt><trkpt lat="45.0574795" lon="7.4250293"><ele>477.2857142857143</ele><time>2026-04-27T18:22:27.125Z</time></trkpt><trkpt lat="45.057477" lon="7.4251639"><ele>477.7142857142857</ele><time>2026-04-27T18:22:30.126Z</time></trkpt><trkpt lat="45.0574701" lon="7.4252539"><ele>478.14285714285717</ele><time>2026-04-27T18:22:32.126Z</time></trkpt><trkpt lat="45.0574591" lon="7.4253451"><ele>478.57142857142856</ele><time>2026-04-27T18:22:34.124Z</time></trkpt><trkpt lat="45.0574397" lon="7.4254423"><ele>479.0</ele><time>2026-04-27T18:22:36.127Z</time></trkpt><trkpt lat="45.0574297" lon="7.425543"><ele>478.99999999999994</ele><time>2026-04-27T18:22:38.126Z</time></trkpt><trkpt lat="45.0574311" lon="7.4256421"><ele>479.0</ele><time>2026-04-27T18:22:40.126Z</time></trkpt><trkpt lat="45.0574428" lon="7.4257493"><ele>479.0</ele><time>2026-04-27T18:22:42.127Z</time></trkpt><trkpt lat="45.0574624" lon="7.4258696"><ele>479.0</ele><time>2026-04-27T18:22:44.126Z</time></trkpt><trkpt lat="45.0574918" lon="7.4259944"><ele>478.99999999999994</ele><time>2026-04-27T18:22:46.126Z</time></trkpt><trkpt lat="45.0575157" lon="7.4261155"><ele>479.0</ele><time>2026-04-27T18:22:48.126Z</time></trkpt><trkpt lat="45.0575461" lon="7.426262"><ele>480.2</ele><time>2026-04-27T18:22:50.126Z</time></trkpt><trkpt lat="45.0575742" lon="7.4263917"><ele>481.4</ele><time>2026-04-27T18:22:52.126Z</time></trkpt><trkpt lat="45.0575946" lon="7.4265227"><ele>482.6</ele><time>2026-04-27T18:22:54.126Z</time></trkpt><trkpt lat="45.0576087" lon="7.42666"><ele>483.8</ele><time>2026-04-27T18:22:56.125Z</time></trkpt><trkpt lat="45.0576212" lon="7.4267916"><ele>485.0</ele><time>2026-04-27T18:22:58.125Z</time></trkpt><trkpt lat="45.0576241" lon="7.4269322"><ele>485.0</ele><time>2026-04-27T18:23:00.126Z</time></trkpt><trkpt lat="45.0576217" lon="7.4270716"><ele>485.0</ele><time>2026-04-27T18:23:02.126Z</time></trkpt><trkpt lat="45.0575989" lon="7.427233"><ele>485.0</ele><time>2026-04-27T18:23:04.126Z</time></trkpt><trkpt lat="45.057588" lon="7.4273938"><ele>485.0</ele><time>2026-04-27T18:23:06.128Z</time></trkpt><trkpt lat="45.0575853" lon="7.4274871"><ele>485.0</ele><time>2026-04-27T18:23:07.126Z</time></trkpt><trkpt lat="45.0575884" lon="7.4275846"><ele>485.0</ele><time>2026-04-27T18:23:08.126Z</time></trkpt><trkpt lat="45.0576018" lon="7.4277647"><ele>485.0</ele><time>2026-04-27T18:23:10.126Z</time></trkpt><trkpt lat="45.0576054" lon="7.4278541"><ele>485.0</ele><time>2026-04-27T18:23:11.126Z</time></trkpt><trkpt lat="45.0576022" lon="7.4280336"><ele>485.0</ele><time>2026-04-27T18:23:13.125Z</time></trkpt><trkpt lat="45.0575717" lon="7.428208"><ele>485.0</ele><time>2026-04-27T18:23:15.127Z</time></trkpt><trkpt lat="45.0575454" lon="7.4282892"><ele>485.2</ele><time>2026-04-27T18:23:16.126Z</time></trkpt><trkpt lat="45.0575139" lon="7.4283673"><ele>485.4</ele><time>2026-04-27T18:23:17.125Z</time></trkpt><trkpt lat="45.0574524" lon="7.4284981"><ele>485.6</ele><time>2026-04-27T18:23:19.125Z</time></trkpt><trkpt lat="45.0573844" lon="7.4285984"><ele>485.8</ele><time>2026-04-27T18:23:21.126Z</time></trkpt><trkpt lat="45.0573194" lon="7.4286985"><ele>486.0</ele><time>2026-04-27T18:23:23.127Z</time></trkpt><trkpt lat="45.0572686" lon="7.4287987"><ele>486.1666666666667</ele><time>2026-04-27T18:23:25.127Z</time></trkpt><trkpt lat="45.0572212" lon="7.4288878"><ele>486.33333333333337</ele><time>2026-04-27T18:23:27.125Z</time></trkpt><trkpt lat="45.0571875" lon="7.4289647"><ele>486.5</ele><time>2026-04-27T18:23:29.126Z</time></trkpt><trkpt lat="45.0571514" lon="7.4290778"><ele>486.6666666666667</ele><time>2026-04-27T18:23:32.125Z</time></trkpt><trkpt lat="45.0571248" lon="7.4291896"><ele>486.83333333333337</ele><time>2026-04-27T18:23:35.125Z</time></trkpt><trkpt lat="45.057083" lon="7.4292902"><ele>487.0</ele><time>2026-04-27T18:23:38.126Z</time></trkpt><trkpt lat="45.0570471" lon="7.4293653"><ele>487.00000000000006</ele><time>2026-04-27T18:23:40.125Z</time></trkpt><trkpt lat="45.0569688" lon="7.4294362"><ele>487.0</ele><time>2026-04-27T18:23:43.127Z</time></trkpt><trkpt lat="45.0568848" lon="7.4294905"><ele>487.0</ele><time>2026-04-27T18:23:46.125Z</time></trkpt><trkpt lat="45.056826" lon="7.4295358"><ele>487.0</ele><time>2026-04-27T18:23:48.126Z</time></trkpt><trkpt lat="45.0567651" lon="7.4295734"><ele>487.00000000000006</ele><time>2026-04-27T18:23:50.126Z</time></trkpt><trkpt lat="45.056696" lon="7.4295632"><ele>487.0</ele><time>2026-04-27T18:23:52.125Z</time></trkpt><trkpt lat="45.0566275" lon="7.4296054"><ele>487.6666666666667</ele><time>2026-04-27T18:23:54.127Z</time></trkpt><trkpt lat="45.0566132" lon="7.4297183"><ele>488.33333333333337</ele><time>2026-04-27T18:23:56.126Z</time></trkpt><trkpt lat="45.0566629" lon="7.4298157"><ele>489.0</ele><time>2026-04-27T18:23:58.126Z</time></trkpt><trkpt lat="45.0567197" lon="7.4298825"><ele>489.66666666666663</ele><time>2026-04-27T18:24:00.126Z</time></trkpt><trkpt lat="45.0567718" lon="7.4299567"><ele>490.3333333333333</ele><time>2026-04-27T18:24:02.126Z</time></trkpt><trkpt lat="45.0568246" lon="7.4300319"><ele>491.0</ele><time>2026-04-27T18:24:04.125Z</time></trkpt><trkpt lat="45.0568854" lon="7.4301138"><ele>491.20000000000005</ele><time>2026-04-27T18:24:06.126Z</time></trkpt><trkpt lat="45.0569557" lon="7.4302021"><ele>491.40000000000003</ele><time>2026-04-27T18:24:08.126Z</time></trkpt><trkpt lat="45.0570338" lon="7.4303054"><ele>491.6</ele><time>2026-04-27T18:24:10.126Z</time></trkpt><trkpt lat="45.0571285" lon="7.4304276"><ele>491.8</ele><time>2026-04-27T18:24:12.125Z</time></trkpt><trkpt lat="45.0571804" lon="7.4304953"><ele>492.0</ele><time>2026-04-27T18:24:13.126Z</time></trkpt><trkpt lat="45.0572331" lon="7.4305695"><ele>492.0</ele><time>2026-04-27T18:24:14.125Z</time></trkpt><trkpt lat="45.0572879" lon="7.4306493"><ele>492.0</ele><time>2026-04-27T18:24:15.126Z</time></trkpt><trkpt lat="45.0573463" lon="7.4307319"><ele>492.0</ele><time>2026-04-27T18:24:16.126Z</time></trkpt><trkpt lat="45.0574021" lon="7.430821"><ele>492.0</ele><time>2026-04-27T18:24:17.126Z</time></trkpt><trkpt lat="45.0574563" lon="7.4309115"><ele>492.0</ele><time>2026-04-27T18:24:18.126Z</time></trkpt><trkpt lat="45.0575159" lon="7.4310051"><ele>492.0</ele><time>2026-04-27T18:24:19.126Z</time></trkpt><trkpt lat="45.0575755" lon="7.4311001"><ele>491.6666666666667</ele><time>2026-04-27T18:24:20.125Z</time></trkpt><trkpt lat="45.0576329" lon="7.4311963"><ele>491.33333333333337</ele><time>2026-04-27T18:24:21.125Z</time></trkpt><trkpt lat="45.0576913" lon="7.4312932"><ele>491.0</ele><time>2026-04-27T18:24:22.126Z</time></trkpt><trkpt lat="45.0577498" lon="7.4313847"><ele>490.6666666666667</ele><time>2026-04-27T18:24:23.125Z</time></trkpt><trkpt lat="45.057807" lon="7.431478"><ele>490.33333333333337</ele><time>2026-04-27T18:24:24.127Z</time></trkpt><trkpt lat="45.0578622" lon="7.4315748"><ele>490.0</ele><time>2026-04-27T18:24:25.125Z</time></trkpt><trkpt lat="45.057911" lon="7.4316648"><ele>489.1666666666667</ele><time>2026-04-27T18:24:26.127Z</time></trkpt><trkpt lat="45.0579597" lon="7.4317611"><ele>488.33333333333337</ele><time>2026-04-27T18:24:27.125Z</time></trkpt><trkpt lat="45.058" lon="7.4318546"><ele>487.5</ele><time>2026-04-27T18:24:28.126Z</time></trkpt><trkpt lat="45.058041" lon="7.4319519"><ele>486.66666666666663</ele><time>2026-04-27T18:24:29.126Z</time></trkpt><trkpt lat="45.0580799" lon="7.43205"><ele>485.8333333333333</ele><time>2026-04-27T18:24:30.126Z</time></trkpt><trkpt lat="45.0581135" lon="7.4321391"><ele>485.0</ele><time>2026-04-27T18:24:31.126Z</time></trkpt><trkpt lat="45.0581473" lon="7.432231"><ele>484.99999999999994</ele><time>2026-04-27T18:24:32.125Z</time></trkpt><trkpt lat="45.0581801" lon="7.4323185"><ele>485.0</ele><time>2026-04-27T18:24:33.126Z</time></trkpt><trkpt lat="45.0582144" lon="7.4324074"><ele>485.0</ele><time>2026-04-27T18:24:34.126Z</time></trkpt><trkpt lat="45.0582431" lon="7.4324915"><ele>485.0</ele><time>2026-04-27T18:24:35.126Z</time></trkpt><trkpt lat="45.0582736" lon="7.4325783"><ele>484.99999999999994</ele><time>2026-04-27T18:24:36.127Z</time></trkpt><trkpt lat="45.0583026" lon="7.4326651"><ele>485.0</ele><time>2026-04-27T18:24:37.126Z</time></trkpt><trkpt lat="45.0583551" lon="7.4328243"><ele>485.8</ele><time>2026-04-27T18:24:39.126Z</time></trkpt><trkpt lat="45.0583844" lon="7.4329033"><ele>486.6</ele><time>2026-04-27T18:24:40.126Z</time></trkpt><trkpt lat="45.0584399" lon="7.4330486"><ele>487.4</ele><time>2026-04-27T18:24:42.125Z</time></trkpt><trkpt lat="45.0584949" lon="7.4332008"><ele>488.2</ele><time>2026-04-27T18:24:44.125Z</time></trkpt><trkpt lat="45.0585513" lon="7.4333434"><ele>489.0</ele><time>2026-04-27T18:24:46.126Z</time></trkpt><trkpt lat="45.0586144" lon="7.43348"><ele>489.0</ele><time>2026-04-27T18:24:48.127Z</time></trkpt><trkpt lat="45.0586796" lon="7.4336045"><ele>489.0</ele><time>2026-04-27T18:24:50.125Z</time></trkpt><trkpt lat="45.058711" lon="7.4337455"><ele>489.0</ele><time>2026-04-27T18:24:52.126Z</time></trkpt><trkpt lat="45.0587023" lon="7.433891"><ele>489.0</ele><time>2026-04-27T18:24:54.125Z</time></trkpt><trkpt lat="45.0586328" lon="7.4340113"><ele>489.0</ele><time>2026-04-27T18:24:56.126Z</time></trkpt><trkpt lat="45.0585869" lon="7.43408"><ele>489.28571428571433</ele><time>2026-04-27T18:24:57.127Z</time></trkpt><trkpt lat="45.0585377" lon="7.4341423"><ele>489.5714285714286</ele><time>2026-04-27T18:24:58.127Z</time></trkpt><trkpt lat="45.0584851" lon="7.4342071"><ele>489.8571428571429</ele><time>2026-04-27T18:24:59.125Z</time></trkpt><trkpt lat="45.058433" lon="7.4342695"><ele>490.1428571428571</ele><time>2026-04-27T18:25:00.126Z</time></trkpt><trkpt lat="45.0583762" lon="7.4343104"><ele>490.4285714285714</ele><time>2026-04-27T18:25:01.126Z</time></trkpt><trkpt lat="45.0583206" lon="7.4343531"><ele>490.71428571428567</ele><time>2026-04-27T18:25:02.126Z</time></trkpt><trkpt lat="45.0582194" lon="7.4344387"><ele>491.0</ele><time>2026-04-27T18:25:04.125Z</time></trkpt><trkpt lat="45.0581284" lon="7.4345449"><ele>491.8</ele><time>2026-04-27T18:25:06.127Z</time></trkpt><trkpt lat="45.0580589" lon="7.4346668"><ele>492.6</ele><time>2026-04-27T18:25:08.126Z</time></trkpt><trkpt lat="45.0579991" lon="7.4347953"><ele>493.4</ele><time>2026-04-27T18:25:10.126Z</time></trkpt><trkpt lat="45.0579483" lon="7.4349263"><ele>494.2</ele><time>2026-04-27T18:25:12.126Z</time></trkpt><trkpt lat="45.0579041" lon="7.4350329"><ele>495.0</ele><time>2026-04-27T18:25:14.125Z</time></trkpt><trkpt lat="45.0578595" lon="7.4351252"><ele>494.99999999999994</ele><time>2026-04-27T18:25:16.126Z</time></trkpt><trkpt lat="45.0578191" lon="7.4352259"><ele>495.0</ele><time>2026-04-27T18:25:18.126Z</time></trkpt><trkpt lat="45.057782" lon="7.4353207"><ele>494.99999999999994</ele><time>2026-04-27T18:25:20.126Z</time></trkpt><trkpt lat="45.0577442" lon="7.4354099"><ele>494.99999999999994</ele><time>2026-04-27T18:25:22.126Z</time></trkpt><trkpt lat="45.0577149" lon="7.4354918"><ele>495.0</ele><time>2026-04-27T18:25:24.125Z</time></trkpt><trkpt lat="45.0576893" lon="7.4355783"><ele>494.99999999999994</ele><time>2026-04-27T18:25:26.126Z</time></trkpt><trkpt lat="45.0576573" lon="7.4356648"><ele>494.99999999999994</ele><time>2026-04-27T18:25:28.125Z</time></trkpt><trkpt lat="45.0576233" lon="7.4357609"><ele>495.5</ele><time>2026-04-27T18:25:30.126Z</time></trkpt><trkpt lat="45.05759" lon="7.4358567"><ele>496.0</ele><time>2026-04-27T18:25:32.125Z</time></trkpt><trkpt lat="45.0575429" lon="7.4359423"><ele>496.5</ele><time>2026-04-27T18:25:34.126Z</time></trkpt><trkpt lat="45.0574868" lon="7.436025"><ele>497.0</ele><time>2026-04-27T18:25:36.126Z</time></trkpt><trkpt lat="45.057424" lon="7.4361097"><ele>497.5</ele><time>2026-04-27T18:25:38.125Z</time></trkpt><trkpt lat="45.0573607" lon="7.4362129"><ele>498.0</ele><time>2026-04-27T18:25:40.125Z</time></trkpt><trkpt lat="45.0572913" lon="7.4363081"><ele>498.0</ele><time>2026-04-27T18:25:42.126Z</time></trkpt><trkpt lat="45.0572155" lon="7.4364171"><ele>497.99999999999994</ele><time>2026-04-27T18:25:44.126Z</time></trkpt><trkpt lat="45.0571381" lon="7.4365419"><ele>497.99999999999994</ele><time>2026-04-27T18:25:46.126Z</time></trkpt><trkpt lat="45.0570529" lon="7.436657"><ele>498.0</ele><time>2026-04-27T18:25:48.126Z</time></trkpt><trkpt lat="45.0570047" lon="7.4367195"><ele>498.0</ele><time>2026-04-27T18:25:49.128Z</time></trkpt><trkpt lat="45.056951" lon="7.4367775"><ele>498.0</ele><time>2026-04-27T18:25:50.126Z</time></trkpt><trkpt lat="45.0568998" lon="7.4368405"><ele>497.99999999999994</ele><time>2026-04-27T18:25:51.125Z</time></trkpt><trkpt lat="45.0568487" lon="7.4369075"><ele>498.0</ele><time>2026-04-27T18:25:52.127Z</time></trkpt><trkpt lat="45.0567942" lon="7.4369784"><ele>498.0</ele><time>2026-04-27T18:25:53.125Z</time></trkpt><trkpt lat="45.0567419" lon="7.4370399"><ele>497.99999999999994</ele><time>2026-04-27T18:25:54.126Z</time></trkpt><trkpt lat="45.0566868" lon="7.4370935"><ele>498.0</ele><time>2026-04-27T18:25:55.126Z</time></trkpt><trkpt lat="45.0566282" lon="7.4371355"><ele>498.0</ele><time>2026-04-27T18:25:56.125Z</time></trkpt><trkpt lat="45.056576" lon="7.4371999"><ele>496.79999999999995</ele><time>2026-04-27T18:25:57.128Z</time></trkpt><trkpt lat="45.0565256" lon="7.4372802"><ele>495.59999999999997</ele><time>2026-04-27T18:25:58.127Z</time></trkpt><trkpt lat="45.056486" lon="7.4373549"><ele>494.40000000000003</ele><time>2026-04-27T18:25:59.125Z</time></trkpt><trkpt lat="45.0564164" lon="7.4375"><ele>493.20000000000005</ele><time>2026-04-27T18:26:01.126Z</time></trkpt><trkpt lat="45.0563831" lon="7.4376538"><ele>492.0</ele><time>2026-04-27T18:26:03.126Z</time></trkpt><trkpt lat="45.0563364" lon="7.4378361"><ele>492.00000000000006</ele><time>2026-04-27T18:26:05.126Z</time></trkpt><trkpt lat="45.0563111" lon="7.437922"><ele>492.0</ele><time>2026-04-27T18:26:06.126Z</time></trkpt><trkpt lat="45.0562839" lon="7.4380176"><ele>492.00000000000006</ele><time>2026-04-27T18:26:07.126Z</time></trkpt><trkpt lat="45.056255" lon="7.4381136"><ele>492.00000000000006</ele><time>2026-04-27T18:26:08.126Z</time></trkpt><trkpt lat="45.0562244" lon="7.4382039"><ele>492.0</ele><time>2026-04-27T18:26:09.125Z</time></trkpt><trkpt lat="45.0561919" lon="7.4382987"><ele>492.00000000000006</ele><time>2026-04-27T18:26:10.126Z</time></trkpt><trkpt lat="45.0561643" lon="7.4384066"><ele>492.00000000000006</ele><time>2026-04-27T18:26:11.127Z</time></trkpt><trkpt lat="45.0561409" lon="7.4385055"><ele>492.3333333333333</ele><time>2026-04-27T18:26:12.127Z</time></trkpt><trkpt lat="45.0561232" lon="7.4386107"><ele>492.66666666666663</ele><time>2026-04-27T18:26:13.127Z</time></trkpt><trkpt lat="45.0560964" lon="7.4387172"><ele>493.0</ele><time>2026-04-27T18:26:14.127Z</time></trkpt><trkpt lat="45.0560804" lon="7.4388238"><ele>493.3333333333333</ele><time>2026-04-27T18:26:15.125Z</time></trkpt><trkpt lat="45.056061" lon="7.4389198"><ele>493.66666666666663</ele><time>2026-04-27T18:26:16.127Z</time></trkpt><trkpt lat="45.056031" lon="7.4390125"><ele>494.0</ele><time>2026-04-27T18:26:17.125Z</time></trkpt><trkpt lat="45.0560016" lon="7.4391122"><ele>493.42857142857144</ele><time>2026-04-27T18:26:18.126Z</time></trkpt><trkpt lat="45.0559754" lon="7.4392151"><ele>492.85714285714283</ele><time>2026-04-27T18:26:19.126Z</time></trkpt><trkpt lat="45.0559511" lon="7.4393041"><ele>492.2857142857143</ele><time>2026-04-27T18:26:20.127Z</time></trkpt><trkpt lat="45.0559173" lon="7.4393868"><ele>491.7142857142857</ele><time>2026-04-27T18:26:21.126Z</time></trkpt><trkpt lat="45.0558829" lon="7.439489"><ele>491.1428571428571</ele><time>2026-04-27T18:26:22.126Z</time></trkpt><trkpt lat="45.0558648" lon="7.4395862"><ele>490.57142857142856</ele><time>2026-04-27T18:26:23.125Z</time></trkpt><trkpt lat="45.0558511" lon="7.4396799"><ele>490.0</ele><time>2026-04-27T18:26:24.127Z</time></trkpt><trkpt lat="45.0558385" lon="7.439777"><ele>489.42857142857144</ele><time>2026-04-27T18:26:25.126Z</time></trkpt><trkpt lat="45.0558263" lon="7.4398819"><ele>488.8571428571429</ele><time>2026-04-27T18:26:26.126Z</time></trkpt><trkpt lat="45.0558225" lon="7.4399779"><ele>488.2857142857143</ele><time>2026-04-27T18:26:27.126Z</time></trkpt><trkpt lat="45.0558234" lon="7.4400776"><ele>487.7142857142857</ele><time>2026-04-27T18:26:28.126Z</time></trkpt><trkpt lat="45.0558312" lon="7.4401704"><ele>487.14285714285717</ele><time>2026-04-27T18:26:29.126Z</time></trkpt><trkpt lat="45.0558386" lon="7.4402717"><ele>486.57142857142856</ele><time>2026-04-27T18:26:30.127Z</time></trkpt><trkpt lat="45.0558542" lon="7.4403682"><ele>486.0</ele><time>2026-04-27T18:26:31.126Z</time></trkpt><trkpt lat="45.0558711" lon="7.440466"><ele>485.42857142857144</ele><time>2026-04-27T18:26:32.125Z</time></trkpt><trkpt lat="45.0558816" lon="7.4405571"><ele>484.8571428571429</ele><time>2026-04-27T18:26:33.127Z</time></trkpt><trkpt lat="45.0559054" lon="7.4406525"><ele>484.28571428571433</ele><time>2026-04-27T18:26:34.127Z</time></trkpt><trkpt lat="45.0559201" lon="7.4407496"><ele>483.7142857142857</ele><time>2026-04-27T18:26:35.126Z</time></trkpt><trkpt lat="45.0559291" lon="7.4408437"><ele>483.1428571428572</ele><time>2026-04-27T18:26:36.127Z</time></trkpt><trkpt lat="45.0559287" lon="7.4409347"><ele>482.5714285714286</ele><time>2026-04-27T18:26:37.125Z</time></trkpt><trkpt lat="45.0559384" lon="7.4410335"><ele>482.0</ele><time>2026-04-27T18:26:38.126Z</time></trkpt><trkpt lat="45.0559421" lon="7.4411294"><ele>481.99999999999994</ele><time>2026-04-27T18:26:39.127Z</time></trkpt><trkpt lat="45.0559515" lon="7.4412192"><ele>482.0</ele><time>2026-04-27T18:26:40.125Z</time></trkpt><trkpt lat="45.0559606" lon="7.4413126"><ele>482.0</ele><time>2026-04-27T18:26:41.126Z</time></trkpt><trkpt lat="45.0559651" lon="7.4414025"><ele>482.0</ele><time>2026-04-27T18:26:42.126Z</time></trkpt><trkpt lat="45.055986" lon="7.4415662"><ele>481.99999999999994</ele><time>2026-04-27T18:26:44.128Z</time></trkpt><trkpt lat="45.0559911" lon="7.4417305"><ele>482.0</ele><time>2026-04-27T18:26:46.126Z</time></trkpt><trkpt lat="45.0560071" lon="7.4418926"><ele>482.25</ele><time>2026-04-27T18:26:48.126Z</time></trkpt><trkpt lat="45.0560242" lon="7.4420572"><ele>482.5</ele><time>2026-04-27T18:26:50.126Z</time></trkpt><trkpt lat="45.0560593" lon="7.4422167"><ele>482.75</ele><time>2026-04-27T18:26:52.126Z</time></trkpt><trkpt lat="45.0560902" lon="7.4423631"><ele>483.0</ele><time>2026-04-27T18:26:54.126Z</time></trkpt><trkpt lat="45.0561239" lon="7.4425058"><ele>483.2</ele><time>2026-04-27T18:26:56.127Z</time></trkpt><trkpt lat="45.0561711" lon="7.4426387"><ele>483.4</ele><time>2026-04-27T18:26:58.126Z</time></trkpt><trkpt lat="45.0562352" lon="7.4427634"><ele>483.59999999999997</ele><time>2026-04-27T18:27:00.126Z</time></trkpt><trkpt lat="45.0562838" lon="7.4428791"><ele>483.79999999999995</ele><time>2026-04-27T18:27:02.126Z</time></trkpt><trkpt lat="45.056328" lon="7.4429805"><ele>484.0</ele><time>2026-04-27T18:27:04.126Z</time></trkpt><trkpt lat="45.0563812" lon="7.4430422"><ele>484.1666666666667</ele><time>2026-04-27T18:27:07.127Z</time></trkpt><trkpt lat="45.0564278" lon="7.4429558"><ele>484.33333333333337</ele><time>2026-04-27T18:27:11.125Z</time></trkpt><trkpt lat="45.0564711" lon="7.4428839"><ele>484.5</ele><time>2026-04-27T18:27:13.126Z</time></trkpt><trkpt lat="45.0565079" lon="7.4428071"><ele>484.66666666666663</ele><time>2026-04-27T18:27:15.125Z</time></trkpt><trkpt lat="45.0565646" lon="7.4427033"><ele>484.8333333333333</ele><time>2026-04-27T18:27:18.127Z</time></trkpt><trkpt lat="45.0566295" lon="7.4426437"><ele>485.0</ele><time>2026-04-27T18:27:20.126Z</time></trkpt><trkpt lat="45.0566929" lon="7.4425694"><ele>486.00000000000006</ele><time>2026-04-27T18:27:22.126Z</time></trkpt><trkpt lat="45.056759" lon="7.4425023"><ele>487.0</ele><time>2026-04-27T18:27:24.128Z</time></trkpt><trkpt lat="45.0568295" lon="7.4424678"><ele>488.00000000000006</ele><time>2026-04-27T18:27:26.126Z</time></trkpt><trkpt lat="45.0568967" lon="7.4424533"><ele>489.00000000000006</ele><time>2026-04-27T18:27:28.126Z</time></trkpt><trkpt lat="45.0569648" lon="7.442456"><ele>490.0</ele><time>2026-04-27T18:27:30.126Z</time></trkpt><trkpt lat="45.0570379" lon="7.4424555"><ele>491.00000000000006</ele><time>2026-04-27T18:27:32.125Z</time></trkpt><trkpt lat="45.0571044" lon="7.4424701"><ele>492.00000000000006</ele><time>2026-04-27T18:27:34.126Z</time></trkpt><trkpt lat="45.0571379" lon="7.4425615"><ele>492.0</ele><time>2026-04-27T18:27:36.128Z</time></trkpt><trkpt lat="45.057172" lon="7.4426668"><ele>492.0</ele><time>2026-04-27T18:27:38.126Z</time></trkpt><trkpt lat="45.0572259" lon="7.4427647"><ele>492.0</ele><time>2026-04-27T18:27:40.128Z</time></trkpt><trkpt lat="45.0572586" lon="7.4428789"><ele>492.0</ele><time>2026-04-27T18:27:42.126Z</time></trkpt><trkpt lat="45.0572739" lon="7.4430018"><ele>492.0</ele><time>2026-04-27T18:27:44.127Z</time></trkpt><trkpt lat="45.0573168" lon="7.4430999"><ele>492.0</ele><time>2026-04-27T18:27:46.127Z</time></trkpt><trkpt lat="45.0573802" lon="7.4431797"><ele>492.0</ele><time>2026-04-27T18:27:48.127Z</time></trkpt><trkpt lat="45.057441" lon="7.4432553"><ele>492.0</ele><time>2026-04-27T18:27:50.127Z</time></trkpt><trkpt lat="45.0575045" lon="7.4433393"><ele>492.0</ele><time>2026-04-27T18:27:52.125Z</time></trkpt><trkpt lat="45.0575668" lon="7.4434326"><ele>492.0</ele><time>2026-04-27T18:27:54.126Z</time></trkpt><trkpt lat="45.0576297" lon="7.4435353"><ele>492.0</ele><time>2026-04-27T18:27:56.126Z</time></trkpt><trkpt lat="45.0576594" lon="7.4436608"><ele>492.0</ele><time>2026-04-27T18:27:58.127Z</time></trkpt><trkpt lat="45.0576384" lon="7.4437907"><ele>491.8</ele><time>2026-04-27T18:28:00.127Z</time></trkpt><trkpt lat="45.0575969" lon="7.4439199"><ele>491.6</ele><time>2026-04-27T18:28:02.126Z</time></trkpt><trkpt lat="45.0575786" lon="7.444049"><ele>491.40000000000003</ele><time>2026-04-27T18:28:04.125Z</time></trkpt><trkpt lat="45.0575711" lon="7.4441898"><ele>491.20000000000005</ele><time>2026-04-27T18:28:06.126Z</time></trkpt><trkpt lat="45.0575645" lon="7.44434"><ele>491.0</ele><time>2026-04-27T18:28:08.127Z</time></trkpt><trkpt lat="45.0575546" lon="7.4445081"><ele>491.0</ele><time>2026-04-27T18:28:10.125Z</time></trkpt><trkpt lat="45.0576175" lon="7.4446407"><ele>491.0</ele><time>2026-04-27T18:28:12.127Z</time></trkpt><trkpt lat="45.0577216" lon="7.4447089"><ele>491.0</ele><time>2026-04-27T18:28:14.126Z</time></trkpt><trkpt lat="45.0578075" lon="7.444693"><ele>491.0</ele><time>2026-04-27T18:28:16.128Z</time></trkpt><trkpt lat="45.057886" lon="7.4446185"><ele>491.0</ele><time>2026-04-27T18:28:19.126Z</time></trkpt><trkpt lat="45.057928" lon="7.4445497"><ele>490.99999999999994</ele><time>2026-04-27T18:28:21.126Z</time></trkpt><trkpt lat="45.0580035" lon="7.4444107"><ele>491.0</ele><time>2026-04-27T18:28:23.126Z</time></trkpt><trkpt lat="45.0580541" lon="7.4442981"><ele>491.0</ele><time>2026-04-27T18:28:25.127Z</time></trkpt><trkpt lat="45.0580779" lon="7.4441727"><ele>491.0</ele><time>2026-04-27T18:28:27.125Z</time></trkpt><trkpt lat="45.0580936" lon="7.4440843"><ele>490.99999999999994</ele><time>2026-04-27T18:28:28.126Z</time></trkpt><trkpt lat="45.0581112" lon="7.4439922"><ele>491.0</ele><time>2026-04-27T18:28:29.128Z</time></trkpt><trkpt lat="45.0581782" lon="7.4438618"><ele>491.0</ele><time>2026-04-27T18:28:31.127Z</time></trkpt><trkpt lat="45.0582263" lon="7.443728"><ele>491.0</ele><time>2026-04-27T18:28:33.126Z</time></trkpt><trkpt lat="45.0582839" lon="7.4436094"><ele>491.0</ele><time>2026-04-27T18:28:35.126Z</time></trkpt><trkpt lat="45.0583544" lon="7.4435497"><ele>491.0</ele><time>2026-04-27T18:28:37.127Z</time></trkpt><trkpt lat="45.0584418" lon="7.4435714"><ele>491.0</ele><time>2026-04-27T18:28:39.127Z</time></trkpt><trkpt lat="45.0584995" lon="7.4436473"><ele>491.20000000000005</ele><time>2026-04-27T18:28:41.126Z</time></trkpt><trkpt lat="45.0585606" lon="7.4437284"><ele>491.40000000000003</ele><time>2026-04-27T18:28:43.127Z</time></trkpt><trkpt lat="45.058604" lon="7.4438177"><ele>491.6</ele><time>2026-04-27T18:28:45.126Z</time></trkpt><trkpt lat="45.0586463" lon="7.4439475"><ele>491.8</ele><time>2026-04-27T18:28:47.127Z</time></trkpt><trkpt lat="45.0586704" lon="7.4440648"><ele>492.0</ele><time>2026-04-27T18:28:49.127Z</time></trkpt><trkpt lat="45.058699" lon="7.4442049"><ele>491.40000000000003</ele><time>2026-04-27T18:28:51.127Z</time></trkpt><trkpt lat="45.0587376" lon="7.4443272"><ele>490.80000000000007</ele><time>2026-04-27T18:28:53.126Z</time></trkpt><trkpt lat="45.0587526" lon="7.4444604"><ele>490.2</ele><time>2026-04-27T18:28:55.126Z</time></trkpt><trkpt lat="45.058768" lon="7.4446232"><ele>489.6</ele><time>2026-04-27T18:28:57.127Z</time></trkpt><trkpt lat="45.058802" lon="7.4447408"><ele>489.0</ele><time>2026-04-27T18:28:59.126Z</time></trkpt><trkpt lat="45.0588491" lon="7.4448652"><ele>488.4</ele><time>2026-04-27T18:29:01.127Z</time></trkpt><trkpt lat="45.058864" lon="7.4449592"><ele>487.79999999999995</ele><time>2026-04-27T18:29:02.127Z</time></trkpt><trkpt lat="45.0588657" lon="7.4450926"><ele>487.20000000000005</ele><time>2026-04-27T18:29:04.126Z</time></trkpt><trkpt lat="45.0588937" lon="7.4452601"><ele>486.6</ele><time>2026-04-27T18:29:06.126Z</time></trkpt><trkpt lat="45.0589085" lon="7.4454054"><ele>486.0</ele><time>2026-04-27T18:29:08.126Z</time></trkpt><trkpt lat="45.0589421" lon="7.4455641"><ele>485.8333333333333</ele><time>2026-04-27T18:29:10.127Z</time></trkpt><trkpt lat="45.0589814" lon="7.4456717"><ele>485.66666666666663</ele><time>2026-04-27T18:29:12.127Z</time></trkpt><trkpt lat="45.0590493" lon="7.4457493"><ele>485.5</ele><time>2026-04-27T18:29:14.127Z</time></trkpt><trkpt lat="45.0591303" lon="7.4457626"><ele>485.3333333333333</ele><time>2026-04-27T18:29:16.128Z</time></trkpt><trkpt lat="45.0591995" lon="7.4458282"><ele>485.16666666666663</ele><time>2026-04-27T18:29:19.126Z</time></trkpt><trkpt lat="45.059235" lon="7.4459381"><ele>485.0</ele><time>2026-04-27T18:29:22.127Z</time></trkpt><trkpt lat="45.0592641" lon="7.446019"><ele>486.0</ele><time>2026-04-27T18:29:24.127Z</time></trkpt><trkpt lat="45.0592822" lon="7.4461111"><ele>487.0</ele><time>2026-04-27T18:29:26.126Z</time></trkpt><trkpt lat="45.0592726" lon="7.446213"><ele>488.0</ele><time>2026-04-27T18:29:28.128Z</time></trkpt><trkpt lat="45.0592204" lon="7.4463361"><ele>489.0</ele><time>2026-04-27T18:29:30.127Z</time></trkpt><trkpt lat="45.0592055" lon="7.4464895"><ele>490.0</ele><time>2026-04-27T18:29:32.127Z</time></trkpt><trkpt lat="45.0592406" lon="7.446622"><ele>490.0</ele><time>2026-04-27T18:29:34.126Z</time></trkpt><trkpt lat="45.0592924" lon="7.4467645"><ele>490.0</ele><time>2026-04-27T18:29:36.125Z</time></trkpt><trkpt lat="45.0593382" lon="7.446943"><ele>490.0</ele><time>2026-04-27T18:29:38.125Z</time></trkpt><trkpt lat="45.059346" lon="7.4470826"><ele>490.0</ele><time>2026-04-27T18:29:40.126Z</time></trkpt><trkpt lat="45.0593562" lon="7.4472015"><ele>490.0</ele><time>2026-04-27T18:29:42.127Z</time></trkpt><trkpt lat="45.0593091" lon="7.4473326"><ele>490.4</ele><time>2026-04-27T18:29:44.126Z</time></trkpt><trkpt lat="45.059312" lon="7.4474703"><ele>490.8</ele><time>2026-04-27T18:29:46.126Z</time></trkpt><trkpt lat="45.0593318" lon="7.4476149"><ele>491.20000000000005</ele><time>2026-04-27T18:29:48.126Z</time></trkpt><trkpt lat="45.0593703" lon="7.4477582"><ele>491.6</ele><time>2026-04-27T18:29:50.126Z</time></trkpt><trkpt lat="45.0594049" lon="7.4478828"><ele>492.0</ele><time>2026-04-27T18:29:52.126Z</time></trkpt><trkpt lat="45.059497" lon="7.4479332"><ele>492.0</ele><time>2026-04-27T18:29:54.128Z</time></trkpt><trkpt lat="45.0595873" lon="7.4479461"><ele>492.00000000000006</ele><time>2026-04-27T18:29:56.126Z</time></trkpt><trkpt lat="45.0596587" lon="7.4480458"><ele>492.00000000000006</ele><time>2026-04-27T18:29:58.126Z</time></trkpt><trkpt lat="45.0596725" lon="7.448168"><ele>492.0</ele><time>2026-04-27T18:30:00.127Z</time></trkpt><trkpt lat="45.0597196" lon="7.4482694"><ele>492.0</ele><time>2026-04-27T18:30:02.126Z</time></trkpt><trkpt lat="45.0597422" lon="7.4483909"><ele>492.0</ele><time>2026-04-27T18:30:04.127Z</time></trkpt><trkpt lat="45.0597381" lon="7.4485211"><ele>492.00000000000006</ele><time>2026-04-27T18:30:06.126Z</time></trkpt><trkpt lat="45.0597109" lon="7.4486438"><ele>492.00000000000006</ele><time>2026-04-27T18:30:08.128Z</time></trkpt><trkpt lat="45.0596698" lon="7.4487507"><ele>492.0</ele><time>2026-04-27T18:30:10.127Z</time></trkpt><trkpt lat="45.0596368" lon="7.4488902"><ele>492.0</ele><time>2026-04-27T18:30:12.125Z</time></trkpt><trkpt lat="45.0596247" lon="7.4490721"><ele>492.40000000000003</ele><time>2026-04-27T18:30:14.127Z</time></trkpt><trkpt lat="45.0596239" lon="7.4492122"><ele>492.80000000000007</ele><time>2026-04-27T18:30:16.127Z</time></trkpt><trkpt lat="45.0596575" lon="7.4493693"><ele>493.2</ele><time>2026-04-27T18:30:18.127Z</time></trkpt><trkpt lat="45.0596909" lon="7.4494689"><ele>493.6</ele><time>2026-04-27T18:30:20.126Z</time></trkpt><trkpt lat="45.0597356" lon="7.4496065"><ele>494.0</ele><time>2026-04-27T18:30:22.127Z</time></trkpt><trkpt lat="45.0597792" lon="7.4497063"><ele>493.99999999999994</ele><time>2026-04-27T18:30:23.127Z</time></trkpt><trkpt lat="45.0598226" lon="7.4498423"><ele>494.0</ele><time>2026-04-27T18:30:25.126Z</time></trkpt><trkpt lat="45.0598648" lon="7.4499203"><ele>494.0</ele><time>2026-04-27T18:30:26.126Z</time></trkpt><trkpt lat="45.0599053" lon="7.450009"><ele>494.0</ele><time>2026-04-27T18:30:27.126Z</time></trkpt><trkpt lat="45.0599248" lon="7.450114"><ele>493.99999999999994</ele><time>2026-04-27T18:30:28.126Z</time></trkpt><trkpt lat="45.0599762" lon="7.4502014"><ele>494.0</ele><time>2026-04-27T18:30:29.126Z</time></trkpt><trkpt lat="45.0600437" lon="7.4502842"><ele>493.99999999999994</ele><time>2026-04-27T18:30:30.125Z</time></trkpt><trkpt lat="45.0600658" lon="7.4503815"><ele>494.0</ele><time>2026-04-27T18:30:31.126Z</time></trkpt><trkpt lat="45.0600753" lon="7.4504879"><ele>494.0</ele><time>2026-04-27T18:30:32.127Z</time></trkpt><trkpt lat="45.0600855" lon="7.450586"><ele>494.0</ele><time>2026-04-27T18:30:33.127Z</time></trkpt><trkpt lat="45.0601075" lon="7.4506964"><ele>493.99999999999994</ele><time>2026-04-27T18:30:34.127Z</time></trkpt><trkpt lat="45.0600954" lon="7.4508127"><ele>494.0</ele><time>2026-04-27T18:30:35.128Z</time></trkpt><trkpt lat="45.0600656" lon="7.4509235"><ele>493.8333333333333</ele><time>2026-04-27T18:30:36.126Z</time></trkpt><trkpt lat="45.0600497" lon="7.4510307"><ele>493.66666666666663</ele><time>2026-04-27T18:30:37.128Z</time></trkpt><trkpt lat="45.0600663" lon="7.4511364"><ele>493.5</ele><time>2026-04-27T18:30:38.126Z</time></trkpt><trkpt lat="45.06009" lon="7.4512511"><ele>493.33333333333337</ele><time>2026-04-27T18:30:39.126Z</time></trkpt><trkpt lat="45.0600968" lon="7.4513621"><ele>493.1666666666667</ele><time>2026-04-27T18:30:40.126Z</time></trkpt><trkpt lat="45.06013" lon="7.451481"><ele>493.0</ele><time>2026-04-27T18:30:41.126Z</time></trkpt><trkpt lat="45.0601552" lon="7.4515796"><ele>493.00000000000006</ele><time>2026-04-27T18:30:42.127Z</time></trkpt><trkpt lat="45.0601843" lon="7.4516796"><ele>493.0</ele><time>2026-04-27T18:30:43.127Z</time></trkpt><trkpt lat="45.0602195" lon="7.4517638"><ele>493.0</ele><time>2026-04-27T18:30:44.127Z</time></trkpt><trkpt lat="45.0602384" lon="7.4518506"><ele>493.0</ele><time>2026-04-27T18:30:45.126Z</time></trkpt><trkpt lat="45.0602788" lon="7.4519793"><ele>493.00000000000006</ele><time>2026-04-27T18:30:47.126Z</time></trkpt><trkpt lat="45.0602969" lon="7.4521014"><ele>493.0</ele><time>2026-04-27T18:30:48.127Z</time></trkpt><trkpt lat="45.0602974" lon="7.4522055"><ele>493.0</ele><time>2026-04-27T18:30:49.126Z</time></trkpt><trkpt lat="45.0603197" lon="7.4522945"><ele>492.99999999999994</ele><time>2026-04-27T18:30:50.126Z</time></trkpt><trkpt lat="45.06034" lon="7.4523834"><ele>492.99999999999994</ele><time>2026-04-27T18:30:51.127Z</time></trkpt><trkpt lat="45.0603557" lon="7.4524982"><ele>493.0</ele><time>2026-04-27T18:30:52.127Z</time></trkpt><trkpt lat="45.0603662" lon="7.4526908"><ele>493.0</ele><time>2026-04-27T18:30:54.126Z</time></trkpt><trkpt lat="45.0603785" lon="7.4528577"><ele>493.0</ele><time>2026-04-27T18:30:56.127Z</time></trkpt><trkpt lat="45.0603904" lon="7.45295"><ele>492.99999999999994</ele><time>2026-04-27T18:30:57.125Z</time></trkpt><trkpt lat="45.0604015" lon="7.4531586"><ele>492.99999999999994</ele><time>2026-04-27T18:30:59.127Z</time></trkpt><trkpt lat="45.0603964" lon="7.4532702"><ele>493.0</ele><time>2026-04-27T18:31:00.127Z</time></trkpt><trkpt lat="45.0604276" lon="7.4534625"><ele>493.0</ele><time>2026-04-27T18:31:02.127Z</time></trkpt><trkpt lat="45.0604395" lon="7.4536577"><ele>492.57142857142856</ele><time>2026-04-27T18:31:04.127Z</time></trkpt><trkpt lat="45.0604614" lon="7.453743"><ele>492.14285714285717</ele><time>2026-04-27T18:31:05.127Z</time></trkpt><trkpt lat="45.0604642" lon="7.4538465"><ele>491.7142857142857</ele><time>2026-04-27T18:31:06.126Z</time></trkpt><trkpt lat="45.0604774" lon="7.4539414"><ele>491.2857142857143</ele><time>2026-04-27T18:31:07.128Z</time></trkpt><trkpt lat="45.060472" lon="7.4540517"><ele>490.8571428571429</ele><time>2026-04-27T18:31:08.127Z</time></trkpt><trkpt lat="45.0604765" lon="7.4541463"><ele>490.42857142857144</ele><time>2026-04-27T18:31:09.127Z</time></trkpt><trkpt lat="45.0604847" lon="7.4542442"><ele>490.0</ele><time>2026-04-27T18:31:10.127Z</time></trkpt><trkpt lat="45.0604973" lon="7.4543424"><ele>488.2</ele><time>2026-04-27T18:31:11.125Z</time></trkpt><trkpt lat="45.0605146" lon="7.4544331"><ele>486.4</ele><time>2026-04-27T18:31:12.127Z</time></trkpt><trkpt lat="45.0605511" lon="7.454593"><ele>484.6</ele><time>2026-04-27T18:31:14.127Z</time></trkpt><trkpt lat="45.0605905" lon="7.4547619"><ele>482.8</ele><time>2026-04-27T18:31:16.126Z</time></trkpt><trkpt lat="45.060614" lon="7.4549212"><ele>481.0</ele><time>2026-04-27T18:31:18.127Z</time></trkpt><trkpt lat="45.0606536" lon="7.4549934"><ele>480.50000000000006</ele><time>2026-04-27T18:31:19.127Z</time></trkpt><trkpt lat="45.0606992" lon="7.455071"><ele>480.0</ele><time>2026-04-27T18:31:20.127Z</time></trkpt><trkpt lat="45.0607285" lon="7.4551501"><ele>479.5</ele><time>2026-04-27T18:31:21.128Z</time></trkpt><trkpt lat="45.0607573" lon="7.4552767"><ele>479.0</ele><time>2026-04-27T18:31:23.127Z</time></trkpt><trkpt lat="45.060788" lon="7.4554303"><ele>478.50000000000006</ele><time>2026-04-27T18:31:25.127Z</time></trkpt><trkpt lat="45.0608281" lon="7.4555161"><ele>478.0</ele><time>2026-04-27T18:31:26.127Z</time></trkpt><trkpt lat="45.0608615" lon="7.4556722"><ele>477.79999999999995</ele><time>2026-04-27T18:31:28.127Z</time></trkpt><trkpt lat="45.0608576" lon="7.4558363"><ele>477.59999999999997</ele><time>2026-04-27T18:31:30.126Z</time></trkpt><trkpt lat="45.0608171" lon="7.4559765"><ele>477.40000000000003</ele><time>2026-04-27T18:31:32.128Z</time></trkpt><trkpt lat="45.0607936" lon="7.456087"><ele>477.20000000000005</ele><time>2026-04-27T18:31:34.127Z</time></trkpt><trkpt lat="45.0608055" lon="7.4562111"><ele>477.0</ele><time>2026-04-27T18:31:36.126Z</time></trkpt><trkpt lat="45.0607927" lon="7.4563371"><ele>477.0</ele><time>2026-04-27T18:31:38.127Z</time></trkpt><trkpt lat="45.0608009" lon="7.456454"><ele>477.0</ele><time>2026-04-27T18:31:40.126Z</time></trkpt><trkpt lat="45.0607812" lon="7.4565802"><ele>477.0</ele><time>2026-04-27T18:31:42.127Z</time></trkpt><trkpt lat="45.0607665" lon="7.456679"><ele>477.0</ele><time>2026-04-27T18:31:44.126Z</time></trkpt><trkpt lat="45.0607565" lon="7.4567783"><ele>477.0</ele><time>2026-04-27T18:31:46.127Z</time></trkpt><trkpt lat="45.060761" lon="7.4568796"><ele>477.0</ele><time>2026-04-27T18:31:48.127Z</time></trkpt><trkpt lat="45.0607681" lon="7.4569994"><ele>476.57142857142856</ele><time>2026-04-27T18:31:50.127Z</time></trkpt><trkpt lat="45.0607668" lon="7.4570992"><ele>476.1428571428571</ele><time>2026-04-27T18:31:52.128Z</time></trkpt><trkpt lat="45.0607549" lon="7.45719"><ele>475.71428571428567</ele><time>2026-04-27T18:31:54.126Z</time></trkpt><trkpt lat="45.0607463" lon="7.457282"><ele>475.2857142857142</ele><time>2026-04-27T18:31:56.126Z</time></trkpt><trkpt lat="45.0607493" lon="7.4573981"><ele>474.85714285714283</ele><time>2026-04-27T18:31:58.127Z</time></trkpt><trkpt lat="45.0607722" lon="7.4575075"><ele>474.42857142857133</ele><time>2026-04-27T18:32:00.126Z</time></trkpt><trkpt lat="45.0608139" lon="7.4576018"><ele>473.99999999999994</ele><time>2026-04-27T18:32:02.127Z</time></trkpt><trkpt lat="45.060816" lon="7.4577508"><ele>475.2</ele><time>2026-04-27T18:32:04.128Z</time></trkpt><trkpt lat="45.0608515" lon="7.4578979"><ele>476.4</ele><time>2026-04-27T18:32:06.127Z</time></trkpt><trkpt lat="45.0608712" lon="7.458048"><ele>477.6</ele><time>2026-04-27T18:32:08.127Z</time></trkpt><trkpt lat="45.060877" lon="7.4581922"><ele>478.8</ele><time>2026-04-27T18:32:10.126Z</time></trkpt><trkpt lat="45.0608619" lon="7.4583249"><ele>480.0</ele><time>2026-04-27T18:32:12.126Z</time></trkpt><trkpt lat="45.060843" lon="7.4584555"><ele>480.0</ele><time>2026-04-27T18:32:14.128Z</time></trkpt><trkpt lat="45.0608307" lon="7.4585896"><ele>480.0</ele><time>2026-04-27T18:32:16.127Z</time></trkpt><trkpt lat="45.0608239" lon="7.4587072"><ele>480.0</ele><time>2026-04-27T18:32:18.127Z</time></trkpt><trkpt lat="45.0608168" lon="7.4588224"><ele>480.0</ele><time>2026-04-27T18:32:20.127Z</time></trkpt><trkpt lat="45.0608501" lon="7.4589238"><ele>480.0</ele><time>2026-04-27T18:32:22.127Z</time></trkpt><trkpt lat="45.0608932" lon="7.4590129"><ele>480.0</ele><time>2026-04-27T18:32:24.127Z</time></trkpt><trkpt lat="45.0609453" lon="7.4591057"><ele>480.1666666666667</ele><time>2026-04-27T18:32:26.127Z</time></trkpt><trkpt lat="45.0609936" lon="7.4592067"><ele>480.33333333333337</ele><time>2026-04-27T18:32:28.127Z</time></trkpt><trkpt lat="45.061006" lon="7.4593324"><ele>480.5</ele><time>2026-04-27T18:32:30.126Z</time></trkpt><trkpt lat="45.0609856" lon="7.4594254"><ele>480.6666666666667</ele><time>2026-04-27T18:32:32.126Z</time></trkpt><trkpt lat="45.0609186" lon="7.459493"><ele>480.83333333333337</ele><time>2026-04-27T18:32:34.126Z</time></trkpt><trkpt lat="45.0609141" lon="7.4596079"><ele>481.0</ele><time>2026-04-27T18:32:36.127Z</time></trkpt><trkpt lat="45.0608959" lon="7.4597152"><ele>481.00000000000006</ele><time>2026-04-27T18:32:38.128Z</time></trkpt><trkpt lat="45.0608627" lon="7.4598253"><ele>481.0</ele><time>2026-04-27T18:32:40.126Z</time></trkpt><trkpt lat="45.0607976" lon="7.4599002"><ele>481.0</ele><time>2026-04-27T18:32:41.126Z</time></trkpt><trkpt lat="45.0607801" lon="7.460006"><ele>481.0</ele><time>2026-04-27T18:32:43.127Z</time></trkpt><trkpt lat="45.0607849" lon="7.4601071"><ele>481.00000000000006</ele><time>2026-04-27T18:32:46.127Z</time></trkpt><trkpt lat="45.06078" lon="7.460214"><ele>481.0</ele><time>2026-04-27T18:32:49.128Z</time></trkpt><trkpt lat="45.060771" lon="7.4603183"><ele>478.83333333333337</ele><time>2026-04-27T18:32:51.127Z</time></trkpt><trkpt lat="45.0607523" lon="7.4604201"><ele>476.6666666666667</ele><time>2026-04-27T18:32:53.127Z</time></trkpt><trkpt lat="45.0607431" lon="7.4605386"><ele>474.5</ele><time>2026-04-27T18:32:55.127Z</time></trkpt><trkpt lat="45.0607292" lon="7.4606593"><ele>472.33333333333337</ele><time>2026-04-27T18:32:57.128Z</time></trkpt><trkpt lat="45.0607022" lon="7.4607879"><ele>470.1666666666667</ele><time>2026-04-27T18:32:59.128Z</time></trkpt><trkpt lat="45.0607289" lon="7.4609139"><ele>468.0</ele><time>2026-04-27T18:33:00.127Z</time></trkpt><trkpt lat="45.0607205" lon="7.4610397"><ele>467.79999999999995</ele><time>2026-04-27T18:33:02.127Z</time></trkpt><trkpt lat="45.0606984" lon="7.4611759"><ele>467.59999999999997</ele><time>2026-04-27T18:33:04.127Z</time></trkpt><trkpt lat="45.060684" lon="7.4613179"><ele>467.40000000000003</ele><time>2026-04-27T18:33:06.127Z</time></trkpt><trkpt lat="45.0606359" lon="7.4613936"><ele>467.20000000000005</ele><time>2026-04-27T18:33:08.127Z</time></trkpt><trkpt lat="45.0605819" lon="7.4614888"><ele>467.0</ele><time>2026-04-27T18:33:10.126Z</time></trkpt><trkpt lat="45.0605428" lon="7.4616239"><ele>467.0</ele><time>2026-04-27T18:33:12.128Z</time></trkpt><trkpt lat="45.0605362" lon="7.4617542"><ele>467.00000000000006</ele><time>2026-04-27T18:33:14.128Z</time></trkpt><trkpt lat="45.0605298" lon="7.4618719"><ele>467.00000000000006</ele><time>2026-04-27T18:33:15.128Z</time></trkpt><trkpt lat="45.060588" lon="7.4619486"><ele>467.0</ele><time>2026-04-27T18:33:16.126Z</time></trkpt><trkpt lat="45.0605995" lon="7.4620365"><ele>467.0</ele><time>2026-04-27T18:33:17.127Z</time></trkpt><trkpt lat="45.0606394" lon="7.4622271"><ele>467.0</ele><time>2026-04-27T18:33:19.127Z</time></trkpt><trkpt lat="45.0606836" lon="7.4623549"><ele>467.00000000000006</ele><time>2026-04-27T18:33:21.126Z</time></trkpt><trkpt lat="45.0607139" lon="7.4625186"><ele>467.00000000000006</ele><time>2026-04-27T18:33:23.126Z</time></trkpt><trkpt lat="45.0607292" lon="7.4626055"><ele>467.0</ele><time>2026-04-27T18:33:24.127Z</time></trkpt><trkpt lat="45.0607504" lon="7.4627412"><ele>467.0</ele><time>2026-04-27T18:33:26.127Z</time></trkpt><trkpt lat="45.0607649" lon="7.462856"><ele>468.3333333333333</ele><time>2026-04-27T18:33:27.127Z</time></trkpt><trkpt lat="45.0607834" lon="7.4630329"><ele>469.66666666666663</ele><time>2026-04-27T18:33:29.126Z</time></trkpt><trkpt lat="45.0608141" lon="7.4631129"><ele>471.0</ele><time>2026-04-27T18:33:30.127Z</time></trkpt><trkpt lat="45.060835" lon="7.4631984"><ele>472.33333333333337</ele><time>2026-04-27T18:33:31.127Z</time></trkpt><trkpt lat="45.0608633" lon="7.4632902"><ele>473.6666666666667</ele><time>2026-04-27T18:33:32.127Z</time></trkpt><trkpt lat="45.0609184" lon="7.4634362"><ele>475.0</ele><time>2026-04-27T18:33:34.128Z</time></trkpt><trkpt lat="45.0609424" lon="7.4635208"><ele>475.0</ele><time>2026-04-27T18:33:35.127Z</time></trkpt><trkpt lat="45.0609831" lon="7.4636841"><ele>475.0</ele><time>2026-04-27T18:33:37.127Z</time></trkpt><trkpt lat="45.0610245" lon="7.4637515"><ele>475.0</ele><time>2026-04-27T18:33:38.127Z</time></trkpt><trkpt lat="45.0610712" lon="7.4638917"><ele>475.0</ele><time>2026-04-27T18:33:40.127Z</time></trkpt><trkpt lat="45.0610982" lon="7.4640333"><ele>475.0</ele><time>2026-04-27T18:33:42.128Z</time></trkpt><trkpt lat="45.0611309" lon="7.4641748"><ele>474.6</ele><time>2026-04-27T18:33:44.127Z</time></trkpt><trkpt lat="45.0611695" lon="7.4643255"><ele>474.2</ele><time>2026-04-27T18:33:46.126Z</time></trkpt><trkpt lat="45.0611894" lon="7.4644586"><ele>473.79999999999995</ele><time>2026-04-27T18:33:48.126Z</time></trkpt><trkpt lat="45.0611912" lon="7.4645826"><ele>473.4</ele><time>2026-04-27T18:33:50.127Z</time></trkpt><trkpt lat="45.0611543" lon="7.464728"><ele>473.0</ele><time>2026-04-27T18:33:52.127Z</time></trkpt><trkpt lat="45.0610799" lon="7.4648096"><ele>472.16666666666663</ele><time>2026-04-27T18:33:54.127Z</time></trkpt><trkpt lat="45.0609703" lon="7.4648541"><ele>471.3333333333333</ele><time>2026-04-27T18:33:56.126Z</time></trkpt><trkpt lat="45.0609153" lon="7.464899"><ele>470.5</ele><time>2026-04-27T18:33:57.128Z</time></trkpt><trkpt lat="45.0608573" lon="7.4649337"><ele>469.66666666666663</ele><time>2026-04-27T18:33:58.126Z</time></trkpt><trkpt lat="45.060798" lon="7.4649753"><ele>468.8333333333333</ele><time>2026-04-27T18:33:59.126Z</time></trkpt><trkpt lat="45.0606858" lon="7.465062"><ele>468.0</ele><time>2026-04-27T18:34:01.127Z</time></trkpt><trkpt lat="45.060624" lon="7.4650995"><ele>467.79999999999995</ele><time>2026-04-27T18:34:02.126Z</time></trkpt><trkpt lat="45.0605269" lon="7.4651877"><ele>467.59999999999997</ele><time>2026-04-27T18:34:04.127Z</time></trkpt><trkpt lat="45.0604793" lon="7.4652536"><ele>467.40000000000003</ele><time>2026-04-27T18:34:05.126Z</time></trkpt><trkpt lat="45.0603945" lon="7.4653896"><ele>467.20000000000005</ele><time>2026-04-27T18:34:07.127Z</time></trkpt><trkpt lat="45.0603525" lon="7.4654615"><ele>467.0</ele><time>2026-04-27T18:34:08.127Z</time></trkpt><trkpt lat="45.0602685" lon="7.465596"><ele>466.99999999999994</ele><time>2026-04-27T18:34:10.127Z</time></trkpt><trkpt lat="45.0602351" lon="7.465673"><ele>467.0</ele><time>2026-04-27T18:34:11.126Z</time></trkpt><trkpt lat="45.0601756" lon="7.4658225"><ele>467.0</ele><time>2026-04-27T18:34:13.128Z</time></trkpt><trkpt lat="45.0601562" lon="7.4659103"><ele>467.0</ele><time>2026-04-27T18:34:14.127Z</time></trkpt><trkpt lat="45.0601344" lon="7.4660122"><ele>466.99999999999994</ele><time>2026-04-27T18:34:15.127Z</time></trkpt><trkpt lat="45.0600994" lon="7.4661627"><ele>467.0</ele><time>2026-04-27T18:34:17.127Z</time></trkpt><trkpt lat="45.0600622" lon="7.4663083"><ele>467.8</ele><time>2026-04-27T18:34:19.127Z</time></trkpt><trkpt lat="45.0600404" lon="7.4664295"><ele>468.6</ele><time>2026-04-27T18:34:21.126Z</time></trkpt><trkpt lat="45.0600379" lon="7.4665596"><ele>469.40000000000003</ele><time>2026-04-27T18:34:23.126Z</time></trkpt><trkpt lat="45.0600301" lon="7.4666839"><ele>470.20000000000005</ele><time>2026-04-27T18:34:25.127Z</time></trkpt><trkpt lat="45.0600066" lon="7.4668206"><ele>471.0</ele><time>2026-04-27T18:34:27.128Z</time></trkpt><trkpt lat="45.0599933" lon="7.4669526"><ele>471.0</ele><time>2026-04-27T18:34:29.126Z</time></trkpt><trkpt lat="45.0599705" lon="7.4670862"><ele>471.0</ele><time>2026-04-27T18:34:31.127Z</time></trkpt><trkpt lat="45.059961" lon="7.4672188"><ele>471.0</ele><time>2026-04-27T18:34:33.127Z</time></trkpt><trkpt lat="45.0599561" lon="7.4673449"><ele>471.0</ele><time>2026-04-27T18:34:35.126Z</time></trkpt><trkpt lat="45.0599646" lon="7.4674523"><ele>471.0</ele><time>2026-04-27T18:34:37.127Z</time></trkpt><trkpt lat="45.0599615" lon="7.4675894"><ele>471.1666666666667</ele><time>2026-04-27T18:34:39.127Z</time></trkpt><trkpt lat="45.0600222" lon="7.4677184"><ele>471.33333333333337</ele><time>2026-04-27T18:34:41.127Z</time></trkpt><trkpt lat="45.0600503" lon="7.4678318"><ele>471.5</ele><time>2026-04-27T18:34:43.127Z</time></trkpt><trkpt lat="45.0600974" lon="7.4679604"><ele>471.6666666666667</ele><time>2026-04-27T18:34:45.126Z</time></trkpt><trkpt lat="45.0601269" lon="7.4680403"><ele>471.83333333333337</ele><time>2026-04-27T18:34:46.127Z</time></trkpt><trkpt lat="45.0601636" lon="7.4681201"><ele>472.0</ele><time>2026-04-27T18:34:47.128Z</time></trkpt><trkpt lat="45.0602097" lon="7.4682647"><ele>473.0</ele><time>2026-04-27T18:34:49.126Z</time></trkpt><trkpt lat="45.0602473" lon="7.4684046"><ele>474.00000000000006</ele><time>2026-04-27T18:34:51.127Z</time></trkpt><trkpt lat="45.0602651" lon="7.4685509"><ele>475.00000000000006</ele><time>2026-04-27T18:34:53.127Z</time></trkpt><trkpt lat="45.0602801" lon="7.4686418"><ele>476.0</ele><time>2026-04-27T18:34:54.128Z</time></trkpt><trkpt lat="45.0602731" lon="7.468796"><ele>477.0</ele><time>2026-04-27T18:34:56.127Z</time></trkpt><trkpt lat="45.0603094" lon="7.4689462"><ele>477.6</ele><time>2026-04-27T18:34:58.127Z</time></trkpt><trkpt lat="45.0603056" lon="7.469065"><ele>478.20000000000005</ele><time>2026-04-27T18:35:00.126Z</time></trkpt><trkpt lat="45.0603202" lon="7.469215"><ele>478.8</ele><time>2026-04-27T18:35:02.127Z</time></trkpt><trkpt lat="45.0603529" lon="7.4693597"><ele>479.4</ele><time>2026-04-27T18:35:04.127Z</time></trkpt><trkpt lat="45.0603475" lon="7.469512"><ele>480.0</ele><time>2026-04-27T18:35:06.127Z</time></trkpt><trkpt lat="45.0603235" lon="7.4696228"><ele>480.57142857142856</ele><time>2026-04-27T18:35:08.128Z</time></trkpt><trkpt lat="45.060306" lon="7.4697115"><ele>481.1428571428571</ele><time>2026-04-27T18:35:10.128Z</time></trkpt><trkpt lat="45.060284" lon="7.4698116"><ele>481.71428571428567</ele><time>2026-04-27T18:35:12.127Z</time></trkpt><trkpt lat="45.0602516" lon="7.4699004"><ele>482.2857142857143</ele><time>2026-04-27T18:35:14.127Z</time></trkpt><trkpt lat="45.0602108" lon="7.4699817"><ele>482.8571428571428</ele><time>2026-04-27T18:35:16.127Z</time></trkpt><trkpt lat="45.0601905" lon="7.4700816"><ele>483.4285714285714</ele><time>2026-04-27T18:35:18.127Z</time></trkpt><trkpt lat="45.0601738" lon="7.4702055"><ele>484.0</ele><time>2026-04-27T18:35:21.127Z</time></trkpt><trkpt lat="45.0601484" lon="7.4702883"><ele>484.0</ele><time>2026-04-27T18:35:23.126Z</time></trkpt><trkpt lat="45.0601328" lon="7.4703875"><ele>483.99999999999994</ele><time>2026-04-27T18:35:26.126Z</time></trkpt><trkpt lat="45.0600858" lon="7.4704796"><ele>484.0</ele><time>2026-04-27T18:35:29.127Z</time></trkpt><trkpt lat="45.0600575" lon="7.4705613"><ele>484.0</ele><time>2026-04-27T18:35:32.128Z</time></trkpt><trkpt lat="45.0600477" lon="7.4706639"><ele>483.99999999999994</ele><time>2026-04-27T18:35:36.128Z</time></trkpt><trkpt lat="45.0600353" lon="7.4707783"><ele>484.0</ele><time>2026-04-27T18:35:40.127Z</time></trkpt><trkpt lat="45.0600506" lon="7.470872"><ele>484.0</ele><time>2026-04-27T18:35:43.126Z</time></trkpt><trkpt lat="45.0600651" lon="7.4709814"><ele>484.1428571428571</ele><time>2026-04-27T18:35:47.127Z</time></trkpt><trkpt lat="45.0600742" lon="7.4710824"><ele>484.2857142857142</ele><time>2026-04-27T18:35:50.127Z</time></trkpt><trkpt lat="45.0600774" lon="7.4711801"><ele>484.42857142857144</ele><time>2026-04-27T18:35:53.126Z</time></trkpt><trkpt lat="45.0600655" lon="7.4712737"><ele>484.57142857142856</ele><time>2026-04-27T18:35:56.126Z</time></trkpt><trkpt lat="45.0600584" lon="7.4713648"><ele>484.7142857142857</ele><time>2026-04-27T18:35:59.127Z</time></trkpt><trkpt lat="45.0600495" lon="7.4714627"><ele>484.8571428571429</ele><time>2026-04-27T18:36:02.127Z</time></trkpt><trkpt lat="45.0600513" lon="7.4715884"><ele>485.00000000000006</ele><time>2026-04-27T18:36:05.127Z</time></trkpt><trkpt lat="45.0600462" lon="7.4717213"><ele>485.99999999999994</ele><time>2026-04-27T18:36:08.127Z</time></trkpt><trkpt lat="45.0600562" lon="7.4718227"><ele>487.0</ele><time>2026-04-27T18:36:11.128Z</time></trkpt><trkpt lat="45.0600576" lon="7.4719493"><ele>488.0</ele><time>2026-04-27T18:36:15.128Z</time></trkpt><trkpt lat="45.0600929" lon="7.4720389"><ele>489.0</ele><time>2026-04-27T18:36:17.126Z</time></trkpt><trkpt lat="45.0601267" lon="7.4721777"><ele>489.99999999999994</ele><time>2026-04-27T18:36:19.127Z</time></trkpt><trkpt lat="45.0601458" lon="7.4723022"><ele>491.0</ele><time>2026-04-27T18:36:21.127Z</time></trkpt><trkpt lat="45.060162" lon="7.4724182"><ele>490.99999999999994</ele><time>2026-04-27T18:36:23.127Z</time></trkpt><trkpt lat="45.0601915" lon="7.4725318"><ele>491.0</ele><time>2026-04-27T18:36:25.129Z</time></trkpt><trkpt lat="45.0602159" lon="7.4726371"><ele>491.0</ele><time>2026-04-27T18:36:27.126Z</time></trkpt><trkpt lat="45.0602281" lon="7.4727333"><ele>491.0</ele><time>2026-04-27T18:36:29.127Z</time></trkpt><trkpt lat="45.0602241" lon="7.472839"><ele>490.99999999999994</ele><time>2026-04-27T18:36:31.127Z</time></trkpt><trkpt lat="45.0602132" lon="7.4729537"><ele>491.0</ele><time>2026-04-27T18:36:34.127Z</time></trkpt><trkpt lat="45.0602251" lon="7.4730765"><ele>491.0</ele><time>2026-04-27T18:36:36.127Z</time></trkpt><trkpt lat="45.0602758" lon="7.4731727"><ele>491.0</ele><time>2026-04-27T18:36:37.127Z</time></trkpt><trkpt lat="45.0603212" lon="7.473352"><ele>491.0</ele><time>2026-04-27T18:36:39.128Z</time></trkpt><trkpt lat="45.0603776" lon="7.473478"><ele>491.0</ele><time>2026-04-27T18:36:41.126Z</time></trkpt><trkpt lat="45.0604123" lon="7.4735962"><ele>491.0</ele><time>2026-04-27T18:36:43.128Z</time></trkpt><trkpt lat="45.0604701" lon="7.4737035"><ele>492.0</ele><time>2026-04-27T18:36:45.126Z</time></trkpt><trkpt lat="45.0604724" lon="7.4738036"><ele>493.0</ele><time>2026-04-27T18:36:46.127Z</time></trkpt><trkpt lat="45.060459" lon="7.4739685"><ele>494.0</ele><time>2026-04-27T18:36:48.128Z</time></trkpt><trkpt lat="45.0604592" lon="7.4741028"><ele>495.0</ele><time>2026-04-27T18:36:50.127Z</time></trkpt><trkpt lat="45.0605014" lon="7.4742348"><ele>496.0</ele><time>2026-04-27T18:36:52.126Z</time></trkpt><trkpt lat="45.0605271" lon="7.4743599"><ele>496.0</ele><time>2026-04-27T18:36:54.127Z</time></trkpt><trkpt lat="45.0605997" lon="7.4744986"><ele>496.0</ele><time>2026-04-27T18:36:56.128Z</time></trkpt><trkpt lat="45.0606377" lon="7.4746303"><ele>496.0</ele><time>2026-04-27T18:36:58.127Z</time></trkpt><trkpt lat="45.0606797" lon="7.4747644"><ele>496.0</ele><time>2026-04-27T18:37:00.128Z</time></trkpt><trkpt lat="45.0607231" lon="7.4748883"><ele>496.0</ele><time>2026-04-27T18:37:02.128Z</time></trkpt><trkpt lat="45.0607636" lon="7.4750321"><ele>494.20000000000005</ele><time>2026-04-27T18:37:04.127Z</time></trkpt><trkpt lat="45.0607978" lon="7.4751829"><ele>492.40000000000003</ele><time>2026-04-27T18:37:06.127Z</time></trkpt><trkpt lat="45.0608201" lon="7.4753196"><ele>490.6</ele><time>2026-04-27T18:37:08.127Z</time></trkpt><trkpt lat="45.0608471" lon="7.475436"><ele>488.8</ele><time>2026-04-27T18:37:10.127Z</time></trkpt><trkpt lat="45.0608756" lon="7.4755687"><ele>487.0</ele><time>2026-04-27T18:37:12.127Z</time></trkpt><trkpt lat="45.0608788" lon="7.4756814"><ele>487.0</ele><time>2026-04-27T18:37:14.129Z</time></trkpt><trkpt lat="45.0608979" lon="7.4758264"><ele>487.00000000000006</ele><time>2026-04-27T18:37:16.128Z</time></trkpt><trkpt lat="45.060897" lon="7.4759767"><ele>487.00000000000006</ele><time>2026-04-27T18:37:18.128Z</time></trkpt><trkpt lat="45.0608749" lon="7.4761416"><ele>487.0</ele><time>2026-04-27T18:37:20.127Z</time></trkpt><trkpt lat="45.0608807" lon="7.4762743"><ele>487.0</ele><time>2026-04-27T18:37:22.127Z</time></trkpt><trkpt lat="45.0608887" lon="7.4763916"><ele>487.6666666666667</ele><time>2026-04-27T18:37:24.127Z</time></trkpt><trkpt lat="45.0609005" lon="7.4764935"><ele>488.33333333333337</ele><time>2026-04-27T18:37:26.127Z</time></trkpt><trkpt lat="45.0609406" lon="7.4766176"><ele>489.0</ele><time>2026-04-27T18:37:29.126Z</time></trkpt><trkpt lat="45.0609685" lon="7.4767054"><ele>489.66666666666663</ele><time>2026-04-27T18:37:31.129Z</time></trkpt><trkpt lat="45.0609807" lon="7.4767985"><ele>490.3333333333333</ele><time>2026-04-27T18:37:33.127Z</time></trkpt><trkpt lat="45.0610161" lon="7.4769045"><ele>491.0</ele><time>2026-04-27T18:37:35.127Z</time></trkpt><trkpt lat="45.0610541" lon="7.4770295"><ele>492.4</ele><time>2026-04-27T18:37:38.127Z</time></trkpt><trkpt lat="45.0610824" lon="7.477138"><ele>493.8</ele><time>2026-04-27T18:37:40.129Z</time></trkpt><trkpt lat="45.0611447" lon="7.4772598"><ele>495.19999999999993</ele><time>2026-04-27T18:37:42.129Z</time></trkpt><trkpt lat="45.0611885" lon="7.4773942"><ele>496.59999999999997</ele><time>2026-04-27T18:37:44.126Z</time></trkpt><trkpt lat="45.0612306" lon="7.4774621"><ele>498.0</ele><time>2026-04-27T18:37:45.126Z</time></trkpt><trkpt lat="45.0612866" lon="7.4775959"><ele>498.0</ele><time>2026-04-27T18:37:47.128Z</time></trkpt><trkpt lat="45.0613512" lon="7.4777329"><ele>497.99999999999994</ele><time>2026-04-27T18:37:49.127Z</time></trkpt><trkpt lat="45.0613984" lon="7.4778786"><ele>497.99999999999994</ele><time>2026-04-27T18:37:51.127Z</time></trkpt><trkpt lat="45.0614439" lon="7.4779427"><ele>498.0</ele><time>2026-04-27T18:37:52.128Z</time></trkpt><trkpt lat="45.0615113" lon="7.4780933"><ele>498.0</ele><time>2026-04-27T18:37:54.127Z</time></trkpt><trkpt lat="45.0615392" lon="7.4781786"><ele>498.75</ele><time>2026-04-27T18:37:55.128Z</time></trkpt><trkpt lat="45.0615771" lon="7.4783386"><ele>499.5</ele><time>2026-04-27T18:37:57.126Z</time></trkpt><trkpt lat="45.0616033" lon="7.478503"><ele>500.25</ele><time>2026-04-27T18:37:59.128Z</time></trkpt><trkpt lat="45.0616126" lon="7.4786629"><ele>501.0</ele><time>2026-04-27T18:38:01.128Z</time></trkpt><trkpt lat="45.0616207" lon="7.478823"><ele>497.4</ele><time>2026-04-27T18:38:03.126Z</time></trkpt><trkpt lat="45.061616" lon="7.4789129"><ele>493.8</ele><time>2026-04-27T18:38:04.128Z</time></trkpt><trkpt lat="45.0616191" lon="7.4790759"><ele>490.19999999999993</ele><time>2026-04-27T18:38:06.128Z</time></trkpt><trkpt lat="45.0616212" lon="7.479241"><ele>486.59999999999997</ele><time>2026-04-27T18:38:08.129Z</time></trkpt><trkpt lat="45.0616251" lon="7.4794034"><ele>483.0</ele><time>2026-04-27T18:38:10.127Z</time></trkpt><trkpt lat="45.0616253" lon="7.4795621"><ele>483.1666666666667</ele><time>2026-04-27T18:38:12.127Z</time></trkpt><trkpt lat="45.0616666" lon="7.4796934"><ele>483.33333333333337</ele><time>2026-04-27T18:38:14.127Z</time></trkpt><trkpt lat="45.0617196" lon="7.4797706"><ele>483.5</ele><time>2026-04-27T18:38:15.128Z</time></trkpt><trkpt lat="45.0617591" lon="7.4798513"><ele>483.6666666666667</ele><time>2026-04-27T18:38:16.127Z</time></trkpt><trkpt lat="45.0618026" lon="7.4799385"><ele>483.83333333333337</ele><time>2026-04-27T18:38:17.127Z</time></trkpt><trkpt lat="45.0618637" lon="7.4799996"><ele>484.0</ele><time>2026-04-27T18:38:18.127Z</time></trkpt><trkpt lat="45.0619187" lon="7.4800722"><ele>484.00000000000006</ele><time>2026-04-27T18:38:19.128Z</time></trkpt><trkpt lat="45.0619843" lon="7.4801421"><ele>484.0</ele><time>2026-04-27T18:38:20.129Z</time></trkpt><trkpt lat="45.0620466" lon="7.4802164"><ele>484.0</ele><time>2026-04-27T18:38:21.127Z</time></trkpt><trkpt lat="45.0621069" lon="7.4802883"><ele>484.0</ele><time>2026-04-27T18:38:22.128Z</time></trkpt><trkpt lat="45.0621577" lon="7.4803708"><ele>484.00000000000006</ele><time>2026-04-27T18:38:23.127Z</time></trkpt><trkpt lat="45.062213" lon="7.4804593"><ele>484.0</ele><time>2026-04-27T18:38:24.128Z</time></trkpt><trkpt lat="45.0622687" lon="7.4805408"><ele>484.33333333333337</ele><time>2026-04-27T18:38:25.127Z</time></trkpt><trkpt lat="45.062306" lon="7.4806392"><ele>484.6666666666667</ele><time>2026-04-27T18:38:26.127Z</time></trkpt><trkpt lat="45.0623454" lon="7.4807296"><ele>485.0</ele><time>2026-04-27T18:38:27.128Z</time></trkpt><trkpt lat="45.0623637" lon="7.4808327"><ele>485.33333333333337</ele><time>2026-04-27T18:38:28.128Z</time></trkpt><trkpt lat="45.0623926" lon="7.4809372"><ele>485.6666666666667</ele><time>2026-04-27T18:38:29.127Z</time></trkpt><trkpt lat="45.0624141" lon="7.4810354"><ele>486.0</ele><time>2026-04-27T18:38:30.126Z</time></trkpt><trkpt lat="45.0624382" lon="7.4811324"><ele>484.3333333333333</ele><time>2026-04-27T18:38:31.126Z</time></trkpt><trkpt lat="45.0624698" lon="7.481238"><ele>482.66666666666663</ele><time>2026-04-27T18:38:32.128Z</time></trkpt><trkpt lat="45.062508" lon="7.4813303"><ele>481.0</ele><time>2026-04-27T18:38:33.126Z</time></trkpt><trkpt lat="45.0625449" lon="7.4814201"><ele>479.3333333333333</ele><time>2026-04-27T18:38:34.129Z</time></trkpt><trkpt lat="45.0625959" lon="7.4815079"><ele>477.66666666666663</ele><time>2026-04-27T18:38:35.127Z</time></trkpt><trkpt lat="45.0626347" lon="7.4816"><ele>476.0</ele><time>2026-04-27T18:38:36.128Z</time></trkpt><trkpt lat="45.0626747" lon="7.4816974"><ele>475.99999999999994</ele><time>2026-04-27T18:38:37.129Z</time></trkpt><trkpt lat="45.0627066" lon="7.4817974"><ele>476.0</ele><time>2026-04-27T18:38:38.128Z</time></trkpt><trkpt lat="45.0627366" lon="7.4819027"><ele>476.0</ele><time>2026-04-27T18:38:39.127Z</time></trkpt><trkpt lat="45.062764" lon="7.4820149"><ele>476.0</ele><time>2026-04-27T18:38:40.127Z</time></trkpt><trkpt lat="45.0627828" lon="7.4821235"><ele>475.99999999999994</ele><time>2026-04-27T18:38:41.128Z</time></trkpt><trkpt lat="45.0627968" lon="7.4822299"><ele>476.0</ele><time>2026-04-27T18:38:42.128Z</time></trkpt><trkpt lat="45.0628084" lon="7.482337"><ele>476.0</ele><time>2026-04-27T18:38:43.127Z</time></trkpt><trkpt lat="45.0628289" lon="7.4824471"><ele>476.0</ele><time>2026-04-27T18:38:44.127Z</time></trkpt><trkpt lat="45.0628336" lon="7.4825523"><ele>476.0</ele><time>2026-04-27T18:38:45.126Z</time></trkpt><trkpt lat="45.0628484" lon="7.4826599"><ele>476.0</ele><time>2026-04-27T18:38:46.127Z</time></trkpt><trkpt lat="45.0628548" lon="7.4827614"><ele>476.0</ele><time>2026-04-27T18:38:47.127Z</time></trkpt><trkpt lat="45.0628644" lon="7.4828656"><ele>476.0</ele><time>2026-04-27T18:38:48.128Z</time></trkpt><trkpt lat="45.0628844" lon="7.4829618"><ele>476.0</ele><time>2026-04-27T18:38:49.126Z</time></trkpt><trkpt lat="45.0628992" lon="7.483071"><ele>476.0</ele><time>2026-04-27T18:38:50.127Z</time></trkpt><trkpt lat="45.0629162" lon="7.4831621"><ele>476.0</ele><time>2026-04-27T18:38:51.128Z</time></trkpt><trkpt lat="45.0629205" lon="7.4832717"><ele>476.0</ele><time>2026-04-27T18:38:52.128Z</time></trkpt><trkpt lat="45.0629162" lon="7.4833857"><ele>476.0</ele><time>2026-04-27T18:38:53.126Z</time></trkpt><trkpt lat="45.0629107" lon="7.4834926"><ele>476.0</ele><time>2026-04-27T18:38:54.128Z</time></trkpt><trkpt lat="45.0628977" lon="7.4835892"><ele>476.0</ele><time>2026-04-27T18:38:55.127Z</time></trkpt><trkpt lat="45.0628802" lon="7.483685"><ele>476.0</ele><time>2026-04-27T18:38:56.127Z</time></trkpt><trkpt lat="45.0628641" lon="7.4837797"><ele>476.2857142857143</ele><time>2026-04-27T18:38:57.128Z</time></trkpt><trkpt lat="45.0628495" lon="7.4838725"><ele>476.57142857142856</ele><time>2026-04-27T18:38:58.128Z</time></trkpt><trkpt lat="45.0628286" lon="7.483965"><ele>476.8571428571429</ele><time>2026-04-27T18:38:59.127Z</time></trkpt><trkpt lat="45.0628064" lon="7.4840557"><ele>477.14285714285717</ele><time>2026-04-27T18:39:00.128Z</time></trkpt><trkpt lat="45.0627915" lon="7.4841532"><ele>477.42857142857144</ele><time>2026-04-27T18:39:01.128Z</time></trkpt><trkpt lat="45.062787" lon="7.4842521"><ele>477.7142857142858</ele><time>2026-04-27T18:39:02.128Z</time></trkpt><trkpt lat="45.0627958" lon="7.4843512"><ele>478.00000000000006</ele><time>2026-04-27T18:39:03.128Z</time></trkpt><trkpt lat="45.0628147" lon="7.4844399"><ele>478.00000000000006</ele><time>2026-04-27T18:39:04.128Z</time></trkpt><trkpt lat="45.0628469" lon="7.4845364"><ele>478.0</ele><time>2026-04-27T18:39:05.129Z</time></trkpt><trkpt lat="45.0628858" lon="7.4846337"><ele>478.0</ele><time>2026-04-27T18:39:06.129Z</time></trkpt><trkpt lat="45.0629316" lon="7.4847253"><ele>478.0</ele><time>2026-04-27T18:39:07.127Z</time></trkpt><trkpt lat="45.0629711" lon="7.4848128"><ele>478.00000000000006</ele><time>2026-04-27T18:39:08.127Z</time></trkpt><trkpt lat="45.06302" lon="7.484895"><ele>478.0</ele><time>2026-04-27T18:39:09.127Z</time></trkpt><trkpt lat="45.063072" lon="7.48497"><ele>478.33333333333337</ele><time>2026-04-27T18:39:10.126Z</time></trkpt><trkpt lat="45.0631242" lon="7.4850436"><ele>478.6666666666667</ele><time>2026-04-27T18:39:11.127Z</time></trkpt><trkpt lat="45.0631763" lon="7.485124"><ele>479.0</ele><time>2026-04-27T18:39:12.127Z</time></trkpt><trkpt lat="45.0632252" lon="7.4852032"><ele>479.33333333333337</ele><time>2026-04-27T18:39:13.128Z</time></trkpt><trkpt lat="45.0632674" lon="7.4852754"><ele>479.6666666666667</ele><time>2026-04-27T18:39:14.129Z</time></trkpt><trkpt lat="45.0633133" lon="7.4853514"><ele>480.0</ele><time>2026-04-27T18:39:15.128Z</time></trkpt><trkpt lat="45.0633954" lon="7.4854604"><ele>478.8333333333333</ele><time>2026-04-27T18:39:17.127Z</time></trkpt><trkpt lat="45.0634997" lon="7.4855583"><ele>477.66666666666663</ele><time>2026-04-27T18:39:19.126Z</time></trkpt><trkpt lat="45.0635626" lon="7.4856081"><ele>476.5</ele><time>2026-04-27T18:39:20.129Z</time></trkpt><trkpt lat="45.0636293" lon="7.485669"><ele>475.3333333333333</ele><time>2026-04-27T18:39:21.128Z</time></trkpt><trkpt lat="45.0636923" lon="7.4857244"><ele>474.16666666666663</ele><time>2026-04-27T18:39:22.128Z</time></trkpt><trkpt lat="45.063748" lon="7.4858042"><ele>473.0</ele><time>2026-04-27T18:39:23.127Z</time></trkpt><trkpt lat="45.0637986" lon="7.4858903"><ele>472.99999999999994</ele><time>2026-04-27T18:39:24.126Z</time></trkpt><trkpt lat="45.0638376" lon="7.4859941"><ele>473.0</ele><time>2026-04-27T18:39:25.128Z</time></trkpt><trkpt lat="45.0638705" lon="7.4861057"><ele>473.0</ele><time>2026-04-27T18:39:26.128Z</time></trkpt><trkpt lat="45.0639179" lon="7.486201"><ele>473.0</ele><time>2026-04-27T18:39:27.127Z</time></trkpt><trkpt lat="45.0639755" lon="7.4862879"><ele>472.99999999999994</ele><time>2026-04-27T18:39:28.128Z</time></trkpt><trkpt lat="45.0640588" lon="7.4863443"><ele>473.0</ele><time>2026-04-27T18:39:29.128Z</time></trkpt><trkpt lat="45.0641335" lon="7.4864239"><ele>470.59999999999997</ele><time>2026-04-27T18:39:30.128Z</time></trkpt><trkpt lat="45.0642006" lon="7.4865164"><ele>468.19999999999993</ele><time>2026-04-27T18:39:31.126Z</time></trkpt><trkpt lat="45.0642533" lon="7.4866119"><ele>465.8</ele><time>2026-04-27T18:39:32.127Z</time></trkpt><trkpt lat="45.0643021" lon="7.486728"><ele>463.4</ele><time>2026-04-27T18:39:33.127Z</time></trkpt><trkpt lat="45.064333" lon="7.486854"><ele>461.0</ele><time>2026-04-27T18:39:34.128Z</time></trkpt><trkpt lat="45.0643744" lon="7.4869836"><ele>462.0</ele><time>2026-04-27T18:39:35.128Z</time></trkpt><trkpt lat="45.0644171" lon="7.4871248"><ele>463.0</ele><time>2026-04-27T18:39:36.127Z</time></trkpt><trkpt lat="45.064472" lon="7.487263"><ele>464.0</ele><time>2026-04-27T18:39:37.128Z</time></trkpt><trkpt lat="45.064529" lon="7.4873922"><ele>465.0</ele><time>2026-04-27T18:39:38.127Z</time></trkpt><trkpt lat="45.064602" lon="7.4875067"><ele>466.0</ele><time>2026-04-27T18:39:39.127Z</time></trkpt><trkpt lat="45.0646694" lon="7.4876278"><ele>466.0</ele><time>2026-04-27T18:39:40.128Z</time></trkpt><trkpt lat="45.064733" lon="7.4877272"><ele>466.0</ele><time>2026-04-27T18:39:41.126Z</time></trkpt><trkpt lat="45.0648065" lon="7.4878237"><ele>466.0</ele><time>2026-04-27T18:39:42.127Z</time></trkpt><trkpt lat="45.0648781" lon="7.4879386"><ele>466.0</ele><time>2026-04-27T18:39:43.127Z</time></trkpt><trkpt lat="45.0649417" lon="7.4880512"><ele>466.0</ele><time>2026-04-27T18:39:44.127Z</time></trkpt><trkpt lat="45.0649992" lon="7.4881729"><ele>464.0</ele><time>2026-04-27T18:39:45.127Z</time></trkpt><trkpt lat="45.0650478" lon="7.4882935"><ele>462.0</ele><time>2026-04-27T18:39:46.127Z</time></trkpt><trkpt lat="45.0650945" lon="7.4884069"><ele>460.0</ele><time>2026-04-27T18:39:47.127Z</time></trkpt><trkpt lat="45.0651453" lon="7.4885124"><ele>458.0</ele><time>2026-04-27T18:39:48.128Z</time></trkpt><trkpt lat="45.0651976" lon="7.4886115"><ele>456.0</ele><time>2026-04-27T18:39:49.128Z</time></trkpt><trkpt lat="45.0652535" lon="7.4887078"><ele>456.5</ele><time>2026-04-27T18:39:50.128Z</time></trkpt><trkpt lat="45.0653035" lon="7.4888018"><ele>457.0</ele><time>2026-04-27T18:39:51.128Z</time></trkpt><trkpt lat="45.0653522" lon="7.4889156"><ele>457.5</ele><time>2026-04-27T18:39:52.127Z</time></trkpt><trkpt lat="45.0653774" lon="7.4890472"><ele>458.0</ele><time>2026-04-27T18:39:53.128Z</time></trkpt><trkpt lat="45.0654148" lon="7.4891662"><ele>458.5</ele><time>2026-04-27T18:39:54.128Z</time></trkpt><trkpt lat="45.0654297" lon="7.4892809"><ele>459.0</ele><time>2026-04-27T18:39:55.127Z</time></trkpt><trkpt lat="45.0654487" lon="7.4894042"><ele>459.0</ele><time>2026-04-27T18:39:56.127Z</time></trkpt><trkpt lat="45.0654656" lon="7.4895194"><ele>459.0</ele><time>2026-04-27T18:39:57.128Z</time></trkpt><trkpt lat="45.0654547" lon="7.489628"><ele>459.0</ele><time>2026-04-27T18:39:58.128Z</time></trkpt><trkpt lat="45.0654588" lon="7.4897352"><ele>459.0</ele><time>2026-04-27T18:39:59.128Z</time></trkpt><trkpt lat="45.0654467" lon="7.4898289"><ele>459.0</ele><time>2026-04-27T18:40:00.127Z</time></trkpt><trkpt lat="45.0655083" lon="7.4899892"><ele>459.0</ele><time>2026-04-27T18:40:02.128Z</time></trkpt><trkpt lat="45.0655527" lon="7.490056"><ele>459.0</ele><time>2026-04-27T18:40:03.128Z</time></trkpt><trkpt lat="45.065604" lon="7.4901235"><ele>459.0</ele><time>2026-04-27T18:40:04.128Z</time></trkpt><trkpt lat="45.0656418" lon="7.4901951"><ele>459.0</ele><time>2026-04-27T18:40:05.127Z</time></trkpt><trkpt lat="45.0657031" lon="7.4903222"><ele>459.0</ele><time>2026-04-27T18:40:07.128Z</time></trkpt><trkpt lat="45.0657385" lon="7.4903985"><ele>459.0</ele><time>2026-04-27T18:40:08.128Z</time></trkpt><trkpt lat="45.0658042" lon="7.4905244"><ele>459.0</ele><time>2026-04-27T18:40:10.127Z</time></trkpt><trkpt lat="45.0658371" lon="7.4906352"><ele>459.0</ele><time>2026-04-27T18:40:12.126Z</time></trkpt><trkpt lat="45.0658728" lon="7.4907264"><ele>459.0</ele><time>2026-04-27T18:40:14.129Z</time></trkpt><trkpt lat="45.0659125" lon="7.4908221"><ele>459.0</ele><time>2026-04-27T18:40:16.127Z</time></trkpt><trkpt lat="45.0659411" lon="7.4909189"><ele>459.0</ele><time>2026-04-27T18:40:18.128Z</time></trkpt><trkpt lat="45.0659701" lon="7.4910229"><ele>459.0</ele><time>2026-04-27T18:40:20.129Z</time></trkpt><trkpt lat="45.0660369" lon="7.4911264"><ele>459.0</ele><time>2026-04-27T18:40:22.127Z</time></trkpt><trkpt lat="45.0660952" lon="7.4912439"><ele>460.0</ele><time>2026-04-27T18:40:24.127Z</time></trkpt><trkpt lat="45.0661562" lon="7.4913689"><ele>461.0</ele><time>2026-04-27T18:40:26.127Z</time></trkpt><trkpt lat="45.0662268" lon="7.491526"><ele>462.0</ele><time>2026-04-27T18:40:28.128Z</time></trkpt><trkpt lat="45.0662608" lon="7.4916124"><ele>463.0</ele><time>2026-04-27T18:40:29.128Z</time></trkpt><trkpt lat="45.0662965" lon="7.491699"><ele>464.0</ele><time>2026-04-27T18:40:30.128Z</time></trkpt><trkpt lat="45.0663125" lon="7.4917911"><ele>465.0</ele><time>2026-04-27T18:40:31.126Z</time></trkpt><trkpt lat="45.066342" lon="7.4919047"><ele>465.0</ele><time>2026-04-27T18:40:32.128Z</time></trkpt><trkpt lat="45.0663701" lon="7.492019"><ele>465.0</ele><time>2026-04-27T18:40:33.128Z</time></trkpt><trkpt lat="45.0664044" lon="7.4921286"><ele>465.0</ele><time>2026-04-27T18:40:34.128Z</time></trkpt><trkpt lat="45.0664334" lon="7.4922382"><ele>465.0</ele><time>2026-04-27T18:40:35.127Z</time></trkpt><trkpt lat="45.0664719" lon="7.4923495"><ele>465.0</ele><time>2026-04-27T18:40:36.128Z</time></trkpt><trkpt lat="45.0664901" lon="7.4924782"><ele>465.0</ele><time>2026-04-27T18:40:37.128Z</time></trkpt><trkpt lat="45.0665051" lon="7.4926036"><ele>466.8</ele><time>2026-04-27T18:40:38.127Z</time></trkpt><trkpt lat="45.066532" lon="7.4927395"><ele>468.6</ele><time>2026-04-27T18:40:39.128Z</time></trkpt><trkpt lat="45.0665822" lon="7.4928632"><ele>470.4</ele><time>2026-04-27T18:40:40.127Z</time></trkpt><trkpt lat="45.0666195" lon="7.4929888"><ele>472.2</ele><time>2026-04-27T18:40:41.127Z</time></trkpt><trkpt lat="45.066591" lon="7.4931101"><ele>474.0</ele><time>2026-04-27T18:40:42.129Z</time></trkpt><trkpt lat="45.0666157" lon="7.4932357"><ele>468.2</ele><time>2026-04-27T18:40:43.129Z</time></trkpt><trkpt lat="45.0666607" lon="7.4933679"><ele>462.4</ele><time>2026-04-27T18:40:44.127Z</time></trkpt><trkpt lat="45.0666828" lon="7.4934913"><ele>456.6</ele><time>2026-04-27T18:40:45.127Z</time></trkpt><trkpt lat="45.0667046" lon="7.4936279"><ele>450.8</ele><time>2026-04-27T18:40:46.128Z</time></trkpt><trkpt lat="45.0667405" lon="7.4937561"><ele>445.0</ele><time>2026-04-27T18:40:47.127Z</time></trkpt><trkpt lat="45.0667789" lon="7.493888"><ele>444.6</ele><time>2026-04-27T18:40:48.128Z</time></trkpt><trkpt lat="45.0668033" lon="7.4940223"><ele>444.2</ele><time>2026-04-27T18:40:49.128Z</time></trkpt><trkpt lat="45.0667979" lon="7.494147"><ele>443.79999999999995</ele><time>2026-04-27T18:40:50.127Z</time></trkpt><trkpt lat="45.0668018" lon="7.4942739"><ele>443.4</ele><time>2026-04-27T18:40:51.127Z</time></trkpt><trkpt lat="45.0668017" lon="7.4944052"><ele>443.0</ele><time>2026-04-27T18:40:52.127Z</time></trkpt><trkpt lat="45.0668001" lon="7.494523"><ele>443.16666666666663</ele><time>2026-04-27T18:40:53.129Z</time></trkpt><trkpt lat="45.0667667" lon="7.4946527"><ele>443.3333333333333</ele><time>2026-04-27T18:40:54.127Z</time></trkpt><trkpt lat="45.066752" lon="7.4947665"><ele>443.5</ele><time>2026-04-27T18:40:55.127Z</time></trkpt><trkpt lat="45.0667402" lon="7.4948592"><ele>443.66666666666663</ele><time>2026-04-27T18:40:56.128Z</time></trkpt><trkpt lat="45.0667282" lon="7.4949661"><ele>443.8333333333333</ele><time>2026-04-27T18:40:57.127Z</time></trkpt><trkpt lat="45.0667095" lon="7.4950791"><ele>444.0</ele><time>2026-04-27T18:40:58.128Z</time></trkpt><trkpt lat="45.0667127" lon="7.4951951"><ele>444.0</ele><time>2026-04-27T18:40:59.128Z</time></trkpt><trkpt lat="45.0667248" lon="7.4952883"><ele>444.0</ele><time>2026-04-27T18:41:00.127Z</time></trkpt><trkpt lat="45.0667183" lon="7.4953912"><ele>444.0</ele><time>2026-04-27T18:41:01.127Z</time></trkpt><trkpt lat="45.0667513" lon="7.4955675"><ele>444.0</ele><time>2026-04-27T18:41:03.128Z</time></trkpt><trkpt lat="45.0667915" lon="7.4957146"><ele>444.0</ele><time>2026-04-27T18:41:05.128Z</time></trkpt><trkpt lat="45.0668328" lon="7.4958421"><ele>444.6666666666667</ele><time>2026-04-27T18:41:07.127Z</time></trkpt><trkpt lat="45.0668632" lon="7.4959729"><ele>445.33333333333337</ele><time>2026-04-27T18:41:09.127Z</time></trkpt><trkpt lat="45.0668687" lon="7.4960876"><ele>446.0</ele><time>2026-04-27T18:41:11.127Z</time></trkpt><trkpt lat="45.0668831" lon="7.4961935"><ele>446.6666666666667</ele><time>2026-04-27T18:41:13.129Z</time></trkpt><trkpt lat="45.0668573" lon="7.4962914"><ele>447.33333333333337</ele><time>2026-04-27T18:41:15.129Z</time></trkpt><trkpt lat="45.0668311" lon="7.4964109"><ele>448.0</ele><time>2026-04-27T18:41:18.128Z</time></trkpt><trkpt lat="45.0668128" lon="7.4965406"><ele>448.33333333333337</ele><time>2026-04-27T18:41:21.128Z</time></trkpt><trkpt lat="45.0667973" lon="7.4966347"><ele>448.6666666666667</ele><time>2026-04-27T18:41:23.127Z</time></trkpt><trkpt lat="45.0667726" lon="7.4967514"><ele>449.0</ele><time>2026-04-27T18:41:26.128Z</time></trkpt><trkpt lat="45.0667578" lon="7.4968773"><ele>449.33333333333337</ele><time>2026-04-27T18:41:29.127Z</time></trkpt><trkpt lat="45.0667378" lon="7.4969846"><ele>449.6666666666667</ele><time>2026-04-27T18:41:32.127Z</time></trkpt><trkpt lat="45.066717" lon="7.4971034"><ele>450.0</ele><time>2026-04-27T18:41:35.127Z</time></trkpt><trkpt lat="45.0667165" lon="7.4972338"><ele>450.0</ele><time>2026-04-27T18:41:38.127Z</time></trkpt><trkpt lat="45.0666938" lon="7.4973394"><ele>450.0</ele><time>2026-04-27T18:41:41.127Z</time></trkpt><trkpt lat="45.0666639" lon="7.4974405"><ele>450.0</ele><time>2026-04-27T18:41:44.128Z</time></trkpt><trkpt lat="45.0666558" lon="7.4975591"><ele>450.0</ele><time>2026-04-27T18:41:47.128Z</time></trkpt><trkpt lat="45.0666438" lon="7.4976672"><ele>450.0</ele><time>2026-04-27T18:41:50.128Z</time></trkpt><trkpt lat="45.0666263" lon="7.4977766"><ele>450.0</ele><time>2026-04-27T18:41:53.128Z</time></trkpt><trkpt lat="45.0666181" lon="7.4978752"><ele>450.3333333333333</ele><time>2026-04-27T18:41:56.128Z</time></trkpt><trkpt lat="45.0666159" lon="7.4979726"><ele>450.66666666666663</ele><time>2026-04-27T18:41:59.128Z</time></trkpt><trkpt lat="45.0665863" lon="7.4980894"><ele>451.0</ele><time>2026-04-27T18:42:03.129Z</time></trkpt><trkpt lat="45.0665705" lon="7.4981801"><ele>451.3333333333333</ele><time>2026-04-27T18:42:05.127Z</time></trkpt><trkpt lat="45.0665641" lon="7.4982934"><ele>451.66666666666663</ele><time>2026-04-27T18:42:07.129Z</time></trkpt><trkpt lat="45.0665586" lon="7.4984226"><ele>452.0</ele><time>2026-04-27T18:42:09.128Z</time></trkpt><trkpt lat="45.0665466" lon="7.4985495"><ele>453.40000000000003</ele><time>2026-04-27T18:42:11.128Z</time></trkpt><trkpt lat="45.0665301" lon="7.49869"><ele>454.80000000000007</ele><time>2026-04-27T18:42:13.127Z</time></trkpt><trkpt lat="45.0665255" lon="7.4988352"><ele>456.2</ele><time>2026-04-27T18:42:15.128Z</time></trkpt><trkpt lat="45.0665142" lon="7.4989666"><ele>457.6</ele><time>2026-04-27T18:42:17.128Z</time></trkpt><trkpt lat="45.0665001" lon="7.4991135"><ele>459.0</ele><time>2026-04-27T18:42:19.127Z</time></trkpt><trkpt lat="45.0664876" lon="7.4992641"><ele>459.0</ele><time>2026-04-27T18:42:21.127Z</time></trkpt><trkpt lat="45.0664763" lon="7.4994028"><ele>459.0</ele><time>2026-04-27T18:42:23.128Z</time></trkpt><trkpt lat="45.0664775" lon="7.4995415"><ele>459.0</ele><time>2026-04-27T18:42:25.128Z</time></trkpt><trkpt lat="45.066477" lon="7.4996949"><ele>459.0</ele><time>2026-04-27T18:42:27.129Z</time></trkpt><trkpt lat="45.0664799" lon="7.4998356"><ele>459.0</ele><time>2026-04-27T18:42:29.128Z</time></trkpt><trkpt lat="45.0665198" lon="7.4999956"><ele>458.6666666666667</ele><time>2026-04-27T18:42:31.126Z</time></trkpt><trkpt lat="45.0665709" lon="7.5001626"><ele>458.33333333333337</ele><time>2026-04-27T18:42:33.128Z</time></trkpt><trkpt lat="45.0666066" lon="7.5002568"><ele>458.0</ele><time>2026-04-27T18:42:34.128Z</time></trkpt><trkpt lat="45.0666469" lon="7.5003474"><ele>457.6666666666667</ele><time>2026-04-27T18:42:35.128Z</time></trkpt><trkpt lat="45.0666774" lon="7.5004446"><ele>457.33333333333337</ele><time>2026-04-27T18:42:36.128Z</time></trkpt><trkpt lat="45.0667084" lon="7.500529"><ele>457.0</ele><time>2026-04-27T18:42:37.128Z</time></trkpt><trkpt lat="45.0667369" lon="7.500619"><ele>455.83333333333337</ele><time>2026-04-27T18:42:38.128Z</time></trkpt><trkpt lat="45.0667737" lon="7.5007117"><ele>454.6666666666667</ele><time>2026-04-27T18:42:39.127Z</time></trkpt><trkpt lat="45.0668045" lon="7.5008015"><ele>453.5</ele><time>2026-04-27T18:42:40.128Z</time></trkpt><trkpt lat="45.066842" lon="7.5008891"><ele>452.33333333333337</ele><time>2026-04-27T18:42:41.128Z</time></trkpt><trkpt lat="45.066878" lon="7.5009887"><ele>451.1666666666667</ele><time>2026-04-27T18:42:42.128Z</time></trkpt><trkpt lat="45.0669077" lon="7.5011027"><ele>450.0</ele><time>2026-04-27T18:42:43.128Z</time></trkpt><trkpt lat="45.0669654" lon="7.5012576"><ele>450.0</ele><time>2026-04-27T18:42:45.127Z</time></trkpt><trkpt lat="45.0669926" lon="7.5013387"><ele>450.0</ele><time>2026-04-27T18:42:46.128Z</time></trkpt><trkpt lat="45.0670311" lon="7.5014187"><ele>450.0</ele><time>2026-04-27T18:42:47.129Z</time></trkpt><trkpt lat="45.0670806" lon="7.5014969"><ele>450.0</ele><time>2026-04-27T18:42:48.128Z</time></trkpt><trkpt lat="45.0671221" lon="7.5015757"><ele>450.0</ele><time>2026-04-27T18:42:49.128Z</time></trkpt><trkpt lat="45.0671515" lon="7.5016559"><ele>450.0</ele><time>2026-04-27T18:42:50.128Z</time></trkpt><trkpt lat="45.0672028" lon="7.5018154"><ele>450.0</ele><time>2026-04-27T18:42:52.128Z</time></trkpt><trkpt lat="45.067248" lon="7.5019771"><ele>450.0</ele><time>2026-04-27T18:42:54.128Z</time></trkpt><trkpt lat="45.0672794" lon="7.5020566"><ele>450.0</ele><time>2026-04-27T18:42:55.128Z</time></trkpt><trkpt lat="45.0673159" lon="7.5022174"><ele>450.0</ele><time>2026-04-27T18:42:57.128Z</time></trkpt><trkpt lat="45.0673548" lon="7.5022882"><ele>450.0</ele><time>2026-04-27T18:42:58.129Z</time></trkpt><trkpt lat="45.0673814" lon="7.5023753"><ele>450.0</ele><time>2026-04-27T18:42:59.128Z</time></trkpt><trkpt lat="45.0674457" lon="7.5025332"><ele>448.8</ele><time>2026-04-27T18:43:01.128Z</time></trkpt><trkpt lat="45.0674786" lon="7.5026172"><ele>447.6</ele><time>2026-04-27T18:43:02.127Z</time></trkpt><trkpt lat="45.0675335" lon="7.5027589"><ele>446.4</ele><time>2026-04-27T18:43:04.129Z</time></trkpt><trkpt lat="45.0675673" lon="7.5028908"><ele>445.2</ele><time>2026-04-27T18:43:06.128Z</time></trkpt><trkpt lat="45.0676154" lon="7.5030215"><ele>444.0</ele><time>2026-04-27T18:43:08.127Z</time></trkpt><trkpt lat="45.0676747" lon="7.5031608"><ele>444.0</ele><time>2026-04-27T18:43:10.127Z</time></trkpt><trkpt lat="45.0677333" lon="7.5032217"><ele>444.0</ele><time>2026-04-27T18:43:11.127Z</time></trkpt><trkpt lat="45.0678292" lon="7.5033299"><ele>444.0</ele><time>2026-04-27T18:43:13.127Z</time></trkpt><trkpt lat="45.0678875" lon="7.5033755"><ele>444.0</ele><time>2026-04-27T18:43:14.127Z</time></trkpt><trkpt lat="45.0679446" lon="7.5034307"><ele>444.0</ele><time>2026-04-27T18:43:15.129Z</time></trkpt><trkpt lat="45.0680473" lon="7.5035319"><ele>444.0</ele><time>2026-04-27T18:43:17.128Z</time></trkpt><trkpt lat="45.0681011" lon="7.5035892"><ele>444.0</ele><time>2026-04-27T18:43:18.127Z</time></trkpt><trkpt lat="45.068151" lon="7.5036508"><ele>444.0</ele><time>2026-04-27T18:43:19.127Z</time></trkpt><trkpt lat="45.0682034" lon="7.5037235"><ele>444.0</ele><time>2026-04-27T18:43:20.129Z</time></trkpt><trkpt lat="45.0682503" lon="7.503797"><ele>444.0</ele><time>2026-04-27T18:43:21.129Z</time></trkpt><trkpt lat="45.0683082" lon="7.5038581"><ele>444.0</ele><time>2026-04-27T18:43:22.128Z</time></trkpt><trkpt lat="45.0683427" lon="7.5039396"><ele>444.0</ele><time>2026-04-27T18:43:23.128Z</time></trkpt><trkpt lat="45.0683788" lon="7.5040309"><ele>444.3333333333333</ele><time>2026-04-27T18:43:24.128Z</time></trkpt><trkpt lat="45.0684094" lon="7.5041297"><ele>444.66666666666663</ele><time>2026-04-27T18:43:25.128Z</time></trkpt><trkpt lat="45.0684393" lon="7.5042265"><ele>445.0</ele><time>2026-04-27T18:43:26.128Z</time></trkpt><trkpt lat="45.068466" lon="7.5043203"><ele>445.3333333333333</ele><time>2026-04-27T18:43:27.129Z</time></trkpt><trkpt lat="45.0684875" lon="7.5044269"><ele>445.66666666666663</ele><time>2026-04-27T18:43:28.127Z</time></trkpt><trkpt lat="45.0685141" lon="7.5045233"><ele>446.0</ele><time>2026-04-27T18:43:29.127Z</time></trkpt><trkpt lat="45.0685421" lon="7.5046241"><ele>445.99999999999994</ele><time>2026-04-27T18:43:30.128Z</time></trkpt><trkpt lat="45.0685565" lon="7.5047287"><ele>446.0</ele><time>2026-04-27T18:43:31.127Z</time></trkpt><trkpt lat="45.068586" lon="7.5048383"><ele>446.0</ele><time>2026-04-27T18:43:32.128Z</time></trkpt><trkpt lat="45.0686157" lon="7.5049383"><ele>446.0</ele><time>2026-04-27T18:43:33.128Z</time></trkpt><trkpt lat="45.0686469" lon="7.505043"><ele>445.99999999999994</ele><time>2026-04-27T18:43:34.127Z</time></trkpt><trkpt lat="45.0686807" lon="7.5051594"><ele>446.0</ele><time>2026-04-27T18:43:35.129Z</time></trkpt><trkpt lat="45.0687083" lon="7.5052628"><ele>445.99999999999994</ele><time>2026-04-27T18:43:36.127Z</time></trkpt><trkpt lat="45.0687339" lon="7.5053648"><ele>446.0</ele><time>2026-04-27T18:43:37.127Z</time></trkpt><trkpt lat="45.0687602" lon="7.5054775"><ele>446.0</ele><time>2026-04-27T18:43:38.127Z</time></trkpt><trkpt lat="45.0687872" lon="7.50559"><ele>446.0</ele><time>2026-04-27T18:43:39.128Z</time></trkpt><trkpt lat="45.068813" lon="7.5057032"><ele>445.99999999999994</ele><time>2026-04-27T18:43:40.129Z</time></trkpt><trkpt lat="45.0688324" lon="7.5058068"><ele>446.0</ele><time>2026-04-27T18:43:41.128Z</time></trkpt><trkpt lat="45.0688549" lon="7.5059261"><ele>445.4</ele><time>2026-04-27T18:43:42.128Z</time></trkpt><trkpt lat="45.0688794" lon="7.5060457"><ele>444.8</ele><time>2026-04-27T18:43:43.128Z</time></trkpt><trkpt lat="45.0689028" lon="7.5061746"><ele>444.19999999999993</ele><time>2026-04-27T18:43:44.128Z</time></trkpt><trkpt lat="45.0689288" lon="7.5062978"><ele>443.59999999999997</ele><time>2026-04-27T18:43:45.127Z</time></trkpt><trkpt lat="45.0689592" lon="7.506416"><ele>443.0</ele><time>2026-04-27T18:43:46.128Z</time></trkpt><trkpt lat="45.068984" lon="7.5065409"><ele>441.3333333333333</ele><time>2026-04-27T18:43:47.128Z</time></trkpt><trkpt lat="45.0690119" lon="7.5066586"><ele>439.66666666666663</ele><time>2026-04-27T18:43:48.127Z</time></trkpt><trkpt lat="45.0690404" lon="7.5067837"><ele>438.0</ele><time>2026-04-27T18:43:49.128Z</time></trkpt><trkpt lat="45.0690724" lon="7.5068982"><ele>436.33333333333337</ele><time>2026-04-27T18:43:50.127Z</time></trkpt><trkpt lat="45.0690952" lon="7.5070172"><ele>434.6666666666667</ele><time>2026-04-27T18:43:51.128Z</time></trkpt><trkpt lat="45.0691144" lon="7.5071302"><ele>433.0</ele><time>2026-04-27T18:43:52.128Z</time></trkpt><trkpt lat="45.0691371" lon="7.5072367"><ele>432.50000000000006</ele><time>2026-04-27T18:43:53.128Z</time></trkpt><trkpt lat="45.0691564" lon="7.507348"><ele>432.0</ele><time>2026-04-27T18:43:54.128Z</time></trkpt><trkpt lat="45.0691797" lon="7.5074535"><ele>431.5</ele><time>2026-04-27T18:43:55.128Z</time></trkpt><trkpt lat="45.0691989" lon="7.507566"><ele>431.0</ele><time>2026-04-27T18:43:56.128Z</time></trkpt><trkpt lat="45.069214" lon="7.5076696"><ele>430.50000000000006</ele><time>2026-04-27T18:43:57.128Z</time></trkpt><trkpt lat="45.0692341" lon="7.5077715"><ele>430.0</ele><time>2026-04-27T18:43:58.128Z</time></trkpt><trkpt lat="45.0692548" lon="7.507872"><ele>430.1666666666667</ele><time>2026-04-27T18:43:59.128Z</time></trkpt><trkpt lat="45.0692745" lon="7.507974"><ele>430.33333333333337</ele><time>2026-04-27T18:44:00.128Z</time></trkpt><trkpt lat="45.0692927" lon="7.5080703"><ele>430.5</ele><time>2026-04-27T18:44:01.127Z</time></trkpt><trkpt lat="45.0693211" lon="7.5081699"><ele>430.66666666666663</ele><time>2026-04-27T18:44:02.128Z</time></trkpt><trkpt lat="45.0693585" lon="7.5082713"><ele>430.8333333333333</ele><time>2026-04-27T18:44:03.128Z</time></trkpt><trkpt lat="45.0693959" lon="7.5083644"><ele>431.0</ele><time>2026-04-27T18:44:04.128Z</time></trkpt><trkpt lat="45.0694565" lon="7.5084582"><ele>431.0</ele><time>2026-04-27T18:44:05.129Z</time></trkpt><trkpt lat="45.0695132" lon="7.5085628"><ele>431.0</ele><time>2026-04-27T18:44:06.129Z</time></trkpt><trkpt lat="45.0695644" lon="7.5086629"><ele>431.0</ele><time>2026-04-27T18:44:07.128Z</time></trkpt><trkpt lat="45.0696202" lon="7.5087716"><ele>431.0</ele><time>2026-04-27T18:44:08.129Z</time></trkpt><trkpt lat="45.0696774" lon="7.5088792"><ele>431.0</ele><time>2026-04-27T18:44:09.128Z</time></trkpt><trkpt lat="45.0697396" lon="7.5089841"><ele>430.6</ele><time>2026-04-27T18:44:10.128Z</time></trkpt><trkpt lat="45.0697962" lon="7.5090701"><ele>430.20000000000005</ele><time>2026-04-27T18:44:11.128Z</time></trkpt><trkpt lat="45.0698455" lon="7.5091543"><ele>429.79999999999995</ele><time>2026-04-27T18:44:12.127Z</time></trkpt><trkpt lat="45.069883" lon="7.5092316"><ele>429.4</ele><time>2026-04-27T18:44:13.127Z</time></trkpt><trkpt lat="45.0699158" lon="7.5093862"><ele>429.0</ele><time>2026-04-27T18:44:15.128Z</time></trkpt><trkpt lat="45.069918" lon="7.509559"><ele>428.0</ele><time>2026-04-27T18:44:17.128Z</time></trkpt><trkpt lat="45.0699473" lon="7.509717"><ele>427.0</ele><time>2026-04-27T18:44:19.127Z</time></trkpt><trkpt lat="45.0700013" lon="7.5098454"><ele>426.0</ele><time>2026-04-27T18:44:21.127Z</time></trkpt><trkpt lat="45.0700612" lon="7.5099537"><ele>425.0</ele><time>2026-04-27T18:44:23.127Z</time></trkpt><trkpt lat="45.0701165" lon="7.5100738"><ele>424.0</ele><time>2026-04-27T18:44:25.129Z</time></trkpt><trkpt lat="45.0701711" lon="7.5101795"><ele>424.00000000000006</ele><time>2026-04-27T18:44:27.128Z</time></trkpt><trkpt lat="45.0702371" lon="7.5102715"><ele>424.0</ele><time>2026-04-27T18:44:29.127Z</time></trkpt><trkpt lat="45.0702789" lon="7.5103866"><ele>424.0</ele><time>2026-04-27T18:44:31.128Z</time></trkpt><trkpt lat="45.0702663" lon="7.5105086"><ele>424.0</ele><time>2026-04-27T18:44:33.128Z</time></trkpt><trkpt lat="45.0702325" lon="7.5106139"><ele>424.00000000000006</ele><time>2026-04-27T18:44:35.128Z</time></trkpt><trkpt lat="45.0701842" lon="7.5107122"><ele>424.0</ele><time>2026-04-27T18:44:37.128Z</time></trkpt><trkpt lat="45.0701276" lon="7.5108047"><ele>423.4</ele><time>2026-04-27T18:44:39.127Z</time></trkpt><trkpt lat="45.0700549" lon="7.5108894"><ele>422.79999999999995</ele><time>2026-04-27T18:44:41.128Z</time></trkpt><trkpt lat="45.0699768" lon="7.5109498"><ele>422.20000000000005</ele><time>2026-04-27T18:44:43.127Z</time></trkpt><trkpt lat="45.0698892" lon="7.5109981"><ele>421.6</ele><time>2026-04-27T18:44:45.127Z</time></trkpt><trkpt lat="45.0697916" lon="7.5110232"><ele>421.0</ele><time>2026-04-27T18:44:47.128Z</time></trkpt><trkpt lat="45.0696965" lon="7.5110347"><ele>419.6666666666667</ele><time>2026-04-27T18:44:49.127Z</time></trkpt><trkpt lat="45.0696278" lon="7.5109732"><ele>418.33333333333337</ele><time>2026-04-27T18:44:51.127Z</time></trkpt><trkpt lat="45.0695752" lon="7.5108748"><ele>417.0</ele><time>2026-04-27T18:44:53.129Z</time></trkpt><trkpt lat="45.0695471" lon="7.5107602"><ele>415.66666666666663</ele><time>2026-04-27T18:44:55.128Z</time></trkpt><trkpt lat="45.0695231" lon="7.5106304"><ele>414.3333333333333</ele><time>2026-04-27T18:44:57.128Z</time></trkpt><trkpt lat="45.0694643" lon="7.5105352"><ele>413.0</ele><time>2026-04-27T18:44:59.129Z</time></trkpt><trkpt lat="45.0693919" lon="7.5104535"><ele>412.99999999999994</ele><time>2026-04-27T18:45:01.128Z</time></trkpt><trkpt lat="45.0693291" lon="7.5103863"><ele>413.0</ele><time>2026-04-27T18:45:03.128Z</time></trkpt><trkpt lat="45.069241" lon="7.5103455"><ele>413.0</ele><time>2026-04-27T18:45:05.129Z</time></trkpt><trkpt lat="45.0691589" lon="7.510368"><ele>413.0</ele><time>2026-04-27T18:45:07.129Z</time></trkpt><trkpt lat="45.0691547" lon="7.5104764"><ele>412.99999999999994</ele><time>2026-04-27T18:45:09.129Z</time></trkpt><trkpt lat="45.069201" lon="7.5106084"><ele>413.0</ele><time>2026-04-27T18:45:11.128Z</time></trkpt><trkpt lat="45.0692685" lon="7.5107578"><ele>412.99999999999994</ele><time>2026-04-27T18:45:13.127Z</time></trkpt><trkpt lat="45.0693112" lon="7.5108326"><ele>413.0</ele><time>2026-04-27T18:45:14.128Z</time></trkpt><trkpt lat="45.0693528" lon="7.5109153"><ele>413.0</ele><time>2026-04-27T18:45:15.127Z</time></trkpt><trkpt lat="45.0694011" lon="7.5109992"><ele>413.0</ele><time>2026-04-27T18:45:16.127Z</time></trkpt><trkpt lat="45.0694441" lon="7.5110911"><ele>412.99999999999994</ele><time>2026-04-27T18:45:17.127Z</time></trkpt><trkpt lat="45.0694945" lon="7.5111839"><ele>413.0</ele><time>2026-04-27T18:45:18.127Z</time></trkpt><trkpt lat="45.0695557" lon="7.5112491"><ele>411.49999999999994</ele><time>2026-04-27T18:45:19.129Z</time></trkpt><trkpt lat="45.0696235" lon="7.5113197"><ele>410.0</ele><time>2026-04-27T18:45:20.128Z</time></trkpt><trkpt lat="45.0697063" lon="7.5113641"><ele>408.5</ele><time>2026-04-27T18:45:21.128Z</time></trkpt><trkpt lat="45.0697937" lon="7.51139"><ele>407.0</ele><time>2026-04-27T18:45:22.128Z</time></trkpt><trkpt lat="45.069886" lon="7.5114128"><ele>405.49999999999994</ele><time>2026-04-27T18:45:23.127Z</time></trkpt><trkpt lat="45.069973" lon="7.5114276"><ele>404.0</ele><time>2026-04-27T18:45:24.128Z</time></trkpt><trkpt lat="45.0700541" lon="7.5114336"><ele>403.99999999999994</ele><time>2026-04-27T18:45:25.128Z</time></trkpt><trkpt lat="45.0701184" lon="7.5114362"><ele>404.0</ele><time>2026-04-27T18:45:26.128Z</time></trkpt><trkpt lat="45.0701963" lon="7.5114715"><ele>404.0</ele><time>2026-04-27T18:45:28.128Z</time></trkpt><trkpt lat="45.0701553" lon="7.5115556"><ele>404.0</ele><time>2026-04-27T18:45:30.128Z</time></trkpt><trkpt lat="45.0700508" lon="7.5115617"><ele>403.99999999999994</ele><time>2026-04-27T18:45:32.129Z</time></trkpt><trkpt lat="45.0699524" lon="7.5115498"><ele>404.0</ele><time>2026-04-27T18:45:34.127Z</time></trkpt><trkpt lat="45.0698359" lon="7.5115381"><ele>402.0</ele><time>2026-04-27T18:45:36.127Z</time></trkpt><trkpt lat="45.069712" lon="7.5115304"><ele>400.0</ele><time>2026-04-27T18:45:38.129Z</time></trkpt><trkpt lat="45.0695925" lon="7.5115202"><ele>398.0</ele><time>2026-04-27T18:45:40.127Z</time></trkpt><trkpt lat="45.0694802" lon="7.5114736"><ele>396.0</ele><time>2026-04-27T18:45:42.128Z</time></trkpt><trkpt lat="45.0693697" lon="7.5114184"><ele>396.0</ele><time>2026-04-27T18:45:44.129Z</time></trkpt><trkpt lat="45.069272" lon="7.5113583"><ele>396.0</ele><time>2026-04-27T18:45:46.128Z</time></trkpt><trkpt lat="45.0692026" lon="7.5112247"><ele>396.0</ele><time>2026-04-27T18:45:48.127Z</time></trkpt><trkpt lat="45.0691545" lon="7.5111544"><ele>396.0</ele><time>2026-04-27T18:45:49.127Z</time></trkpt><trkpt lat="45.0691109" lon="7.5110854"><ele>396.0</ele><time>2026-04-27T18:45:50.127Z</time></trkpt><trkpt lat="45.0690612" lon="7.5110038"><ele>396.0</ele><time>2026-04-27T18:45:51.127Z</time></trkpt><trkpt lat="45.0690073" lon="7.5109165"><ele>395.5714285714286</ele><time>2026-04-27T18:45:52.127Z</time></trkpt><trkpt lat="45.0689601" lon="7.5108364"><ele>395.1428571428571</ele><time>2026-04-27T18:45:53.128Z</time></trkpt><trkpt lat="45.0689054" lon="7.5107739"><ele>394.7142857142857</ele><time>2026-04-27T18:45:54.127Z</time></trkpt><trkpt lat="45.0688362" lon="7.5107284"><ele>394.28571428571433</ele><time>2026-04-27T18:45:55.127Z</time></trkpt><trkpt lat="45.068767" lon="7.510711"><ele>393.8571428571429</ele><time>2026-04-27T18:45:56.13Z</time></trkpt><trkpt lat="45.0686997" lon="7.5107105"><ele>393.42857142857144</ele><time>2026-04-27T18:45:57.127Z</time></trkpt><trkpt lat="45.0686277" lon="7.510711"><ele>393.0</ele><time>2026-04-27T18:45:58.128Z</time></trkpt><trkpt lat="45.0685489" lon="7.510741"><ele>393.0</ele><time>2026-04-27T18:45:59.128Z</time></trkpt><trkpt lat="45.0684793" lon="7.5108011"><ele>393.0</ele><time>2026-04-27T18:46:00.127Z</time></trkpt><trkpt lat="45.0684093" lon="7.5108683"><ele>393.0</ele><time>2026-04-27T18:46:01.128Z</time></trkpt><trkpt lat="45.068339" lon="7.5109394"><ele>393.0</ele><time>2026-04-27T18:46:02.129Z</time></trkpt><trkpt lat="45.0682665" lon="7.5110012"><ele>393.0</ele><time>2026-04-27T18:46:03.127Z</time></trkpt><trkpt lat="45.0682003" lon="7.5110711"><ele>393.0</ele><time>2026-04-27T18:46:04.127Z</time></trkpt><trkpt lat="45.0681415" lon="7.5111297"><ele>392.3333333333333</ele><time>2026-04-27T18:46:05.129Z</time></trkpt><trkpt lat="45.0680885" lon="7.5111786"><ele>391.66666666666663</ele><time>2026-04-27T18:46:06.128Z</time></trkpt><trkpt lat="45.0680108" lon="7.5112305"><ele>391.0</ele><time>2026-04-27T18:46:08.128Z</time></trkpt><trkpt lat="45.0679486" lon="7.5112891"><ele>390.3333333333333</ele><time>2026-04-27T18:46:11.128Z</time></trkpt><trkpt lat="45.0679133" lon="7.5114004"><ele>389.66666666666663</ele><time>2026-04-27T18:46:13.129Z</time></trkpt><trkpt lat="45.0679038" lon="7.5114974"><ele>389.0</ele><time>2026-04-27T18:46:14.127Z</time></trkpt><trkpt lat="45.0678871" lon="7.5115968"><ele>388.49999999999994</ele><time>2026-04-27T18:46:15.127Z</time></trkpt><trkpt lat="45.0678616" lon="7.511692"><ele>388.0</ele><time>2026-04-27T18:46:16.132Z</time></trkpt><trkpt lat="45.067836" lon="7.5117811"><ele>387.5</ele><time>2026-04-27T18:46:17.129Z</time></trkpt><trkpt lat="45.0678081" lon="7.5118805"><ele>387.0</ele><time>2026-04-27T18:46:18.128Z</time></trkpt><trkpt lat="45.0677831" lon="7.511981"><ele>386.49999999999994</ele><time>2026-04-27T18:46:19.127Z</time></trkpt><trkpt lat="45.0677597" lon="7.51209"><ele>386.0</ele><time>2026-04-27T18:46:20.128Z</time></trkpt><trkpt lat="45.067741" lon="7.512199"><ele>385.66666666666663</ele><time>2026-04-27T18:46:21.127Z</time></trkpt><trkpt lat="45.0677143" lon="7.5123005"><ele>385.3333333333333</ele><time>2026-04-27T18:46:22.127Z</time></trkpt><trkpt lat="45.0676858" lon="7.512411"><ele>385.0</ele><time>2026-04-27T18:46:23.128Z</time></trkpt><trkpt lat="45.0676504" lon="7.5125244"><ele>384.66666666666663</ele><time>2026-04-27T18:46:24.129Z</time></trkpt><trkpt lat="45.0676335" lon="7.5126438"><ele>384.3333333333333</ele><time>2026-04-27T18:46:25.127Z</time></trkpt><trkpt lat="45.0676091" lon="7.5127687"><ele>384.0</ele><time>2026-04-27T18:46:26.128Z</time></trkpt><trkpt lat="45.0675829" lon="7.5129104"><ele>383.0</ele><time>2026-04-27T18:46:27.128Z</time></trkpt><trkpt lat="45.067562" lon="7.513029"><ele>382.0</ele><time>2026-04-27T18:46:28.129Z</time></trkpt><trkpt lat="45.0675273" lon="7.5131655"><ele>381.0</ele><time>2026-04-27T18:46:29.128Z</time></trkpt><trkpt lat="45.0675046" lon="7.5133038"><ele>380.0</ele><time>2026-04-27T18:46:30.128Z</time></trkpt><trkpt lat="45.0674699" lon="7.5134273"><ele>379.0</ele><time>2026-04-27T18:46:31.13Z</time></trkpt><trkpt lat="45.0674384" lon="7.5135406"><ele>378.5</ele><time>2026-04-27T18:46:32.128Z</time></trkpt><trkpt lat="45.0674088" lon="7.5136555"><ele>378.0</ele><time>2026-04-27T18:46:33.129Z</time></trkpt><trkpt lat="45.0673703" lon="7.5138213"><ele>377.5</ele><time>2026-04-27T18:46:35.129Z</time></trkpt><trkpt lat="45.0673348" lon="7.5139109"><ele>377.0</ele><time>2026-04-27T18:46:36.129Z</time></trkpt><trkpt lat="45.0673165" lon="7.5140114"><ele>376.5</ele><time>2026-04-27T18:46:37.128Z</time></trkpt><trkpt lat="45.0672937" lon="7.5141036"><ele>376.0</ele><time>2026-04-27T18:46:38.128Z</time></trkpt><trkpt lat="45.067277" lon="7.514208"><ele>375.5</ele><time>2026-04-27T18:46:39.129Z</time></trkpt><trkpt lat="45.0672547" lon="7.5143763"><ele>375.0</ele><time>2026-04-27T18:46:41.128Z</time></trkpt><trkpt lat="45.0673036" lon="7.5144364"><ele>374.5</ele><time>2026-04-27T18:46:42.127Z</time></trkpt><trkpt lat="45.0674146" lon="7.5145147"><ele>374.0</ele><time>2026-04-27T18:46:44.128Z</time></trkpt><trkpt lat="45.067478" lon="7.5145409"><ele>373.5</ele><time>2026-04-27T18:46:45.128Z</time></trkpt><trkpt lat="45.0675401" lon="7.5145676"><ele>373.0</ele><time>2026-04-27T18:46:46.129Z</time></trkpt><trkpt lat="45.0676031" lon="7.5145963"><ele>372.14285714285717</ele><time>2026-04-27T18:46:47.129Z</time></trkpt><trkpt lat="45.0676709" lon="7.5146167"><ele>371.28571428571433</ele><time>2026-04-27T18:46:48.129Z</time></trkpt><trkpt lat="45.0677385" lon="7.5146512"><ele>370.42857142857144</ele><time>2026-04-27T18:46:49.128Z</time></trkpt><trkpt lat="45.067805" lon="7.5146774"><ele>369.57142857142856</ele><time>2026-04-27T18:46:50.128Z</time></trkpt><trkpt lat="45.0678687" lon="7.514681"><ele>368.7142857142857</ele><time>2026-04-27T18:46:51.129Z</time></trkpt><trkpt lat="45.0679339" lon="7.5147128"><ele>367.85714285714283</ele><time>2026-04-27T18:46:52.129Z</time></trkpt><trkpt lat="45.0679979" lon="7.5147352"><ele>367.0</ele><time>2026-04-27T18:46:53.127Z</time></trkpt><trkpt lat="45.0680659" lon="7.5147487"><ele>367.0</ele><time>2026-04-27T18:46:54.128Z</time></trkpt><trkpt lat="45.0681401" lon="7.5147708"><ele>367.0</ele><time>2026-04-27T18:46:55.128Z</time></trkpt><trkpt lat="45.0682095" lon="7.5148072"><ele>367.0</ele><time>2026-04-27T18:46:56.127Z</time></trkpt><trkpt lat="45.0682815" lon="7.5148203"><ele>367.0</ele><time>2026-04-27T18:46:57.128Z</time></trkpt><trkpt lat="45.0683469" lon="7.5148494"><ele>367.0</ele><time>2026-04-27T18:46:58.129Z</time></trkpt><trkpt lat="45.0684096" lon="7.5148957"><ele>367.0</ele><time>2026-04-27T18:46:59.129Z</time></trkpt><trkpt lat="45.0684918" lon="7.5149127"><ele>367.0</ele><time>2026-04-27T18:47:00.128Z</time></trkpt><trkpt lat="45.0685645" lon="7.5150332"><ele>367.0</ele><time>2026-04-27T18:47:02.128Z</time></trkpt><trkpt lat="45.0685326" lon="7.5151692"><ele>367.0</ele><time>2026-04-27T18:47:04.128Z</time></trkpt><trkpt lat="45.0684329" lon="7.5152896"><ele>367.0</ele><time>2026-04-27T18:47:06.128Z</time></trkpt><trkpt lat="45.0683863" lon="7.515364"><ele>367.0</ele><time>2026-04-27T18:47:07.127Z</time></trkpt><trkpt lat="45.0683442" lon="7.5154456"><ele>367.0</ele><time>2026-04-27T18:47:08.128Z</time></trkpt><trkpt lat="45.0682913" lon="7.5155303"><ele>366.3333333333333</ele><time>2026-04-27T18:47:09.128Z</time></trkpt><trkpt lat="45.0682452" lon="7.5156193"><ele>365.66666666666663</ele><time>2026-04-27T18:47:10.128Z</time></trkpt><trkpt lat="45.0682046" lon="7.5157125"><ele>365.0</ele><time>2026-04-27T18:47:11.127Z</time></trkpt><trkpt lat="45.0681561" lon="7.5158052"><ele>364.3333333333333</ele><time>2026-04-27T18:47:12.129Z</time></trkpt><trkpt lat="45.0681098" lon="7.5158976"><ele>363.6666666666667</ele><time>2026-04-27T18:47:13.128Z</time></trkpt><trkpt lat="45.0680619" lon="7.5159973"><ele>363.0</ele><time>2026-04-27T18:47:14.128Z</time></trkpt><trkpt lat="45.0680118" lon="7.5160933"><ele>363.0</ele><time>2026-04-27T18:47:15.129Z</time></trkpt><trkpt lat="45.0679673" lon="7.5161734"><ele>363.0</ele><time>2026-04-27T18:47:16.128Z</time></trkpt><trkpt lat="45.0679177" lon="7.5162707"><ele>363.0</ele><time>2026-04-27T18:47:17.129Z</time></trkpt><trkpt lat="45.0678677" lon="7.5163656"><ele>363.0</ele><time>2026-04-27T18:47:18.129Z</time></trkpt><trkpt lat="45.0678226" lon="7.5164407"><ele>363.0</ele><time>2026-04-27T18:47:19.128Z</time></trkpt><trkpt lat="45.0677699" lon="7.5165293"><ele>363.0</ele><time>2026-04-27T18:47:20.128Z</time></trkpt><trkpt lat="45.0677221" lon="7.5166204"><ele>362.85714285714283</ele><time>2026-04-27T18:47:21.128Z</time></trkpt><trkpt lat="45.0676811" lon="7.5167119"><ele>362.7142857142857</ele><time>2026-04-27T18:47:22.129Z</time></trkpt><trkpt lat="45.0676431" lon="7.5167937"><ele>362.57142857142856</ele><time>2026-04-27T18:47:23.129Z</time></trkpt><trkpt lat="45.0675969" lon="7.5168827"><ele>362.42857142857144</ele><time>2026-04-27T18:47:24.127Z</time></trkpt><trkpt lat="45.0675473" lon="7.5169692"><ele>362.2857142857143</ele><time>2026-04-27T18:47:25.129Z</time></trkpt><trkpt lat="45.0675073" lon="7.5170455"><ele>362.1428571428571</ele><time>2026-04-27T18:47:26.128Z</time></trkpt><trkpt lat="45.0674691" lon="7.5171217"><ele>362.0</ele><time>2026-04-27T18:47:27.128Z</time></trkpt><trkpt lat="45.0674284" lon="7.517202"><ele>361.83333333333337</ele><time>2026-04-27T18:47:28.129Z</time></trkpt><trkpt lat="45.0673912" lon="7.5172782"><ele>361.6666666666667</ele><time>2026-04-27T18:47:29.127Z</time></trkpt><trkpt lat="45.0673517" lon="7.5173564"><ele>361.5</ele><time>2026-04-27T18:47:30.128Z</time></trkpt><trkpt lat="45.0673128" lon="7.5174326"><ele>361.3333333333333</ele><time>2026-04-27T18:47:31.128Z</time></trkpt><trkpt lat="45.0672693" lon="7.5175078"><ele>361.16666666666663</ele><time>2026-04-27T18:47:32.128Z</time></trkpt><trkpt lat="45.0672326" lon="7.5175804"><ele>361.0</ele><time>2026-04-27T18:47:33.129Z</time></trkpt><trkpt lat="45.067157" lon="7.5177358"><ele>361.0</ele><time>2026-04-27T18:47:35.127Z</time></trkpt><trkpt lat="45.0671153" lon="7.5178104"><ele>361.0</ele><time>2026-04-27T18:47:36.13Z</time></trkpt><trkpt lat="45.0670472" lon="7.5179456"><ele>361.0</ele><time>2026-04-27T18:47:38.129Z</time></trkpt><trkpt lat="45.0669709" lon="7.5180691"><ele>361.0</ele><time>2026-04-27T18:47:40.129Z</time></trkpt><trkpt lat="45.0668938" lon="7.5181921"><ele>361.0</ele><time>2026-04-27T18:47:42.128Z</time></trkpt><trkpt lat="45.066826" lon="7.5183305"><ele>361.0</ele><time>2026-04-27T18:47:44.128Z</time></trkpt><trkpt lat="45.0667574" lon="7.5184643"><ele>361.0</ele><time>2026-04-27T18:47:46.127Z</time></trkpt><trkpt lat="45.0667" lon="7.5185929"><ele>361.0</ele><time>2026-04-27T18:47:48.128Z</time></trkpt><trkpt lat="45.0666405" lon="7.5186954"><ele>361.0</ele><time>2026-04-27T18:47:50.127Z</time></trkpt><trkpt lat="45.0665886" lon="7.5187994"><ele>361.0</ele><time>2026-04-27T18:47:52.129Z</time></trkpt><trkpt lat="45.0665614" lon="7.5189165"><ele>361.0</ele><time>2026-04-27T18:47:54.129Z</time></trkpt><trkpt lat="45.0664985" lon="7.5190132"><ele>361.0</ele><time>2026-04-27T18:47:56.128Z</time></trkpt><trkpt lat="45.0664433" lon="7.5191191"><ele>361.0</ele><time>2026-04-27T18:47:58.129Z</time></trkpt><trkpt lat="45.0663851" lon="7.519218"><ele>361.0</ele><time>2026-04-27T18:48:00.129Z</time></trkpt><trkpt lat="45.0663183" lon="7.5193279"><ele>361.0</ele><time>2026-04-27T18:48:02.129Z</time></trkpt><trkpt lat="45.0662526" lon="7.5194524"><ele>361.0</ele><time>2026-04-27T18:48:04.129Z</time></trkpt><trkpt lat="45.0661863" lon="7.519551"><ele>361.0</ele><time>2026-04-27T18:48:06.129Z</time></trkpt><trkpt lat="45.0661226" lon="7.5196645"><ele>361.0</ele><time>2026-04-27T18:48:08.128Z</time></trkpt><trkpt lat="45.0660623" lon="7.5197657"><ele>361.0</ele><time>2026-04-27T18:48:12.127Z</time></trkpt><trkpt lat="45.0660232" lon="7.5198442"><ele>361.0</ele><time>2026-04-27T18:48:14.128Z</time></trkpt><trkpt lat="45.0660063" lon="7.5199446"><ele>361.0</ele><time>2026-04-27T18:48:17.129Z</time></trkpt><trkpt lat="45.0659598" lon="7.5200258"><ele>360.16666666666663</ele><time>2026-04-27T18:48:25.129Z</time></trkpt><trkpt lat="45.0659538" lon="7.5201369"><ele>359.3333333333333</ele><time>2026-04-27T18:48:28.128Z</time></trkpt><trkpt lat="45.0660197" lon="7.5201913"><ele>358.5</ele><time>2026-04-27T18:48:30.128Z</time></trkpt><trkpt lat="45.0660847" lon="7.5201888"><ele>357.6666666666667</ele><time>2026-04-27T18:48:31.128Z</time></trkpt><trkpt lat="45.0661605" lon="7.5201993"><ele>356.83333333333337</ele><time>2026-04-27T18:48:32.127Z</time></trkpt><trkpt lat="45.0662761" lon="7.5202217"><ele>356.0</ele><time>2026-04-27T18:48:34.129Z</time></trkpt><trkpt lat="45.0663812" lon="7.5202511"><ele>356.0</ele><time>2026-04-27T18:48:36.128Z</time></trkpt><trkpt lat="45.0664901" lon="7.5202736"><ele>356.0</ele><time>2026-04-27T18:48:38.127Z</time></trkpt><trkpt lat="45.066607" lon="7.5203018"><ele>356.0</ele><time>2026-04-27T18:48:40.129Z</time></trkpt><trkpt lat="45.0667248" lon="7.520324"><ele>356.0</ele><time>2026-04-27T18:48:42.127Z</time></trkpt><trkpt lat="45.0668387" lon="7.5203581"><ele>356.0</ele><time>2026-04-27T18:48:44.127Z</time></trkpt><trkpt lat="45.0669495" lon="7.5203827"><ele>356.0</ele><time>2026-04-27T18:48:46.128Z</time></trkpt><trkpt lat="45.0670648" lon="7.5204056"><ele>356.0</ele><time>2026-04-27T18:48:48.127Z</time></trkpt><trkpt lat="45.0671825" lon="7.5204264"><ele>356.0</ele><time>2026-04-27T18:48:50.127Z</time></trkpt><trkpt lat="45.0672969" lon="7.5204599"><ele>356.0</ele><time>2026-04-27T18:48:52.129Z</time></trkpt><trkpt lat="45.0674104" lon="7.5205134"><ele>356.0</ele><time>2026-04-27T18:48:54.129Z</time></trkpt><trkpt lat="45.0675276" lon="7.5205585"><ele>356.0</ele><time>2026-04-27T18:48:56.127Z</time></trkpt><trkpt lat="45.0676387" lon="7.5206099"><ele>356.0</ele><time>2026-04-27T18:48:58.129Z</time></trkpt><trkpt lat="45.0677584" lon="7.5206422"><ele>356.25</ele><time>2026-04-27T18:49:00.128Z</time></trkpt><trkpt lat="45.0678782" lon="7.5206719"><ele>356.5</ele><time>2026-04-27T18:49:02.128Z</time></trkpt><trkpt lat="45.0679973" lon="7.520699"><ele>356.75</ele><time>2026-04-27T18:49:04.128Z</time></trkpt><trkpt lat="45.068119" lon="7.5207158"><ele>357.0</ele><time>2026-04-27T18:49:06.127Z</time></trkpt><trkpt lat="45.06824" lon="7.5207355"><ele>357.20000000000005</ele><time>2026-04-27T18:49:08.13Z</time></trkpt><trkpt lat="45.0683066" lon="7.5207436"><ele>357.4</ele><time>2026-04-27T18:49:09.128Z</time></trkpt><trkpt lat="45.0684227" lon="7.5207596"><ele>357.6</ele><time>2026-04-27T18:49:11.128Z</time></trkpt><trkpt lat="45.0685281" lon="7.5207831"><ele>357.79999999999995</ele><time>2026-04-27T18:49:13.128Z</time></trkpt><trkpt lat="45.0686346" lon="7.5208162"><ele>358.0</ele><time>2026-04-27T18:49:15.128Z</time></trkpt><trkpt lat="45.0687403" lon="7.520844"><ele>358.0</ele><time>2026-04-27T18:49:17.129Z</time></trkpt><trkpt lat="45.0688471" lon="7.5208722"><ele>358.0</ele><time>2026-04-27T18:49:19.129Z</time></trkpt><trkpt lat="45.0689371" lon="7.5209151"><ele>358.0</ele><time>2026-04-27T18:49:21.127Z</time></trkpt><trkpt lat="45.0690157" lon="7.5210108"><ele>358.0</ele><time>2026-04-27T18:49:23.128Z</time></trkpt><trkpt lat="45.0690782" lon="7.5211308"><ele>358.0</ele><time>2026-04-27T18:49:25.127Z</time></trkpt><trkpt lat="45.0691492" lon="7.5212479"><ele>358.0</ele><time>2026-04-27T18:49:27.128Z</time></trkpt><trkpt lat="45.0692155" lon="7.5213718"><ele>358.0</ele><time>2026-04-27T18:49:29.128Z</time></trkpt><trkpt lat="45.0692821" lon="7.5215058"><ele>358.0</ele><time>2026-04-27T18:49:31.128Z</time></trkpt><trkpt lat="45.0693488" lon="7.5216347"><ele>358.0</ele><time>2026-04-27T18:49:33.128Z</time></trkpt><trkpt lat="45.0693875" lon="7.5217719"><ele>358.0</ele><time>2026-04-27T18:49:35.127Z</time></trkpt><trkpt lat="45.069405" lon="7.5219279"><ele>357.75</ele><time>2026-04-27T18:49:37.129Z</time></trkpt><trkpt lat="45.0694123" lon="7.5220933"><ele>357.5</ele><time>2026-04-27T18:49:39.128Z</time></trkpt><trkpt lat="45.0694041" lon="7.5222534"><ele>357.25</ele><time>2026-04-27T18:49:41.127Z</time></trkpt><trkpt lat="45.0694087" lon="7.5224172"><ele>357.0</ele><time>2026-04-27T18:49:43.128Z</time></trkpt><trkpt lat="45.0694114" lon="7.5225841"><ele>357.0</ele><time>2026-04-27T18:49:45.127Z</time></trkpt><trkpt lat="45.069414" lon="7.5227534"><ele>357.0</ele><time>2026-04-27T18:49:47.129Z</time></trkpt><trkpt lat="45.0694173" lon="7.522845"><ele>357.0</ele><time>2026-04-27T18:49:48.128Z</time></trkpt><trkpt lat="45.0694179" lon="7.5230131"><ele>357.0</ele><time>2026-04-27T18:49:50.128Z</time></trkpt><trkpt lat="45.0694269" lon="7.5231828"><ele>357.0</ele><time>2026-04-27T18:49:52.128Z</time></trkpt><trkpt lat="45.069435" lon="7.5233526"><ele>356.8</ele><time>2026-04-27T18:49:54.128Z</time></trkpt><trkpt lat="45.0694413" lon="7.5235223"><ele>356.6</ele><time>2026-04-27T18:49:56.127Z</time></trkpt><trkpt lat="45.0694486" lon="7.5236807"><ele>356.40000000000003</ele><time>2026-04-27T18:49:58.129Z</time></trkpt><trkpt lat="45.0694577" lon="7.523825"><ele>356.20000000000005</ele><time>2026-04-27T18:50:00.129Z</time></trkpt><trkpt lat="45.0695207" lon="7.52392"><ele>356.0</ele><time>2026-04-27T18:50:02.127Z</time></trkpt><trkpt lat="45.069626" lon="7.5239365"><ele>356.0</ele><time>2026-04-27T18:50:04.129Z</time></trkpt><trkpt lat="45.0697388" lon="7.5239231"><ele>356.0</ele><time>2026-04-27T18:50:06.127Z</time></trkpt><trkpt lat="45.0698565" lon="7.5239138"><ele>356.0</ele><time>2026-04-27T18:50:08.129Z</time></trkpt><trkpt lat="45.0699561" lon="7.5239114"><ele>356.0</ele><time>2026-04-27T18:50:10.129Z</time></trkpt><trkpt lat="45.0700663" lon="7.5239024"><ele>356.0</ele><time>2026-04-27T18:50:12.129Z</time></trkpt><trkpt lat="45.0701559" lon="7.5239018"><ele>356.5</ele><time>2026-04-27T18:50:14.128Z</time></trkpt><trkpt lat="45.0702414" lon="7.5239123"><ele>357.0</ele><time>2026-04-27T18:50:16.129Z</time></trkpt><trkpt lat="45.0703308" lon="7.5239335"><ele>357.5</ele><time>2026-04-27T18:50:18.128Z</time></trkpt><trkpt lat="45.0704194" lon="7.5239667"><ele>358.0</ele><time>2026-04-27T18:50:20.129Z</time></trkpt><trkpt lat="45.070437" lon="7.5240807"><ele>358.5</ele><time>2026-04-27T18:50:22.129Z</time></trkpt><trkpt lat="45.0704393" lon="7.5242178"><ele>359.0</ele><time>2026-04-27T18:50:24.128Z</time></trkpt><trkpt lat="45.0704457" lon="7.5243596"><ele>359.0</ele><time>2026-04-27T18:50:26.127Z</time></trkpt><trkpt lat="45.0704544" lon="7.5245217"><ele>359.0</ele><time>2026-04-27T18:50:28.128Z</time></trkpt><trkpt lat="45.0704679" lon="7.5246946"><ele>359.0</ele><time>2026-04-27T18:50:30.128Z</time></trkpt><trkpt lat="45.0704632" lon="7.5248724"><ele>359.0</ele><time>2026-04-27T18:50:32.129Z</time></trkpt><trkpt lat="45.0704636" lon="7.5249644"><ele>359.0</ele><time>2026-04-27T18:50:33.129Z</time></trkpt><trkpt lat="45.070469" lon="7.5250595"><ele>359.0</ele><time>2026-04-27T18:50:34.128Z</time></trkpt><trkpt lat="45.070473" lon="7.5251569"><ele>359.0</ele><time>2026-04-27T18:50:35.127Z</time></trkpt><trkpt lat="45.0704767" lon="7.5252517"><ele>359.0</ele><time>2026-04-27T18:50:36.129Z</time></trkpt><trkpt lat="45.0704861" lon="7.52534"><ele>359.0</ele><time>2026-04-27T18:50:37.128Z</time></trkpt><trkpt lat="45.0704862" lon="7.5254413"><ele>359.0</ele><time>2026-04-27T18:50:38.127Z</time></trkpt><trkpt lat="45.0704955" lon="7.5255356"><ele>359.0</ele><time>2026-04-27T18:50:39.129Z</time></trkpt><trkpt lat="45.0704976" lon="7.5256315"><ele>359.0</ele><time>2026-04-27T18:50:40.129Z</time></trkpt><trkpt lat="45.0704936" lon="7.525726"><ele>358.8571428571429</ele><time>2026-04-27T18:50:41.129Z</time></trkpt><trkpt lat="45.0704978" lon="7.5258266"><ele>358.7142857142857</ele><time>2026-04-27T18:50:42.128Z</time></trkpt><trkpt lat="45.0705026" lon="7.5259261"><ele>358.57142857142856</ele><time>2026-04-27T18:50:43.129Z</time></trkpt><trkpt lat="45.0705078" lon="7.5260271"><ele>358.42857142857144</ele><time>2026-04-27T18:50:44.129Z</time></trkpt><trkpt lat="45.0705137" lon="7.5261204"><ele>358.2857142857143</ele><time>2026-04-27T18:50:45.128Z</time></trkpt><trkpt lat="45.0705206" lon="7.5262194"><ele>358.14285714285717</ele><time>2026-04-27T18:50:46.129Z</time></trkpt><trkpt lat="45.070521" lon="7.526321"><ele>358.0</ele><time>2026-04-27T18:50:47.128Z</time></trkpt><trkpt lat="45.0705315" lon="7.5264145"><ele>357.7142857142857</ele><time>2026-04-27T18:50:48.129Z</time></trkpt><trkpt lat="45.0705387" lon="7.5265137"><ele>357.42857142857144</ele><time>2026-04-27T18:50:49.129Z</time></trkpt><trkpt lat="45.0705438" lon="7.5266127"><ele>357.1428571428571</ele><time>2026-04-27T18:50:50.129Z</time></trkpt><trkpt lat="45.0705444" lon="7.5267143"><ele>356.8571428571429</ele><time>2026-04-27T18:50:51.129Z</time></trkpt><trkpt lat="45.0705461" lon="7.5268171"><ele>356.57142857142856</ele><time>2026-04-27T18:50:52.128Z</time></trkpt><trkpt lat="45.0705463" lon="7.5269172"><ele>356.2857142857143</ele><time>2026-04-27T18:50:53.127Z</time></trkpt><trkpt lat="45.0705532" lon="7.5270162"><ele>356.0</ele><time>2026-04-27T18:50:54.129Z</time></trkpt><trkpt lat="45.0705563" lon="7.5271152"><ele>355.99999999999994</ele><time>2026-04-27T18:50:55.129Z</time></trkpt><trkpt lat="45.0705645" lon="7.5272129"><ele>356.0</ele><time>2026-04-27T18:50:56.128Z</time></trkpt><trkpt lat="45.0705687" lon="7.5273091"><ele>356.0</ele><time>2026-04-27T18:50:57.128Z</time></trkpt><trkpt lat="45.0705697" lon="7.5274052"><ele>356.0</ele><time>2026-04-27T18:50:58.127Z</time></trkpt><trkpt lat="45.070577" lon="7.5275005"><ele>356.0</ele><time>2026-04-27T18:50:59.13Z</time></trkpt><trkpt lat="45.0705833" lon="7.5275921"><ele>355.99999999999994</ele><time>2026-04-27T18:51:00.129Z</time></trkpt><trkpt lat="45.070592" lon="7.5276855"><ele>356.0</ele><time>2026-04-27T18:51:01.129Z</time></trkpt><trkpt lat="45.0705932" lon="7.5277776"><ele>356.0</ele><time>2026-04-27T18:51:02.129Z</time></trkpt><trkpt lat="45.0705978" lon="7.5278672"><ele>356.0</ele><time>2026-04-27T18:51:03.128Z</time></trkpt><trkpt lat="45.070606" lon="7.5280387"><ele>356.0</ele><time>2026-04-27T18:51:05.127Z</time></trkpt><trkpt lat="45.0706137" lon="7.5281975"><ele>356.0</ele><time>2026-04-27T18:51:07.128Z</time></trkpt><trkpt lat="45.0706219" lon="7.5283533"><ele>356.0</ele><time>2026-04-27T18:51:09.13Z</time></trkpt><trkpt lat="45.0706244" lon="7.528488"><ele>355.8</ele><time>2026-04-27T18:51:11.129Z</time></trkpt><trkpt lat="45.0706154" lon="7.5286009"><ele>355.6</ele><time>2026-04-27T18:51:13.128Z</time></trkpt><trkpt lat="45.0706182" lon="7.5287362"><ele>355.4</ele><time>2026-04-27T18:51:15.129Z</time></trkpt><trkpt lat="45.0706353" lon="7.5288978"><ele>355.2</ele><time>2026-04-27T18:51:17.13Z</time></trkpt><trkpt lat="45.0706424" lon="7.5289887"><ele>355.0</ele><time>2026-04-27T18:51:18.128Z</time></trkpt><trkpt lat="45.0706512" lon="7.5291613"><ele>354.8</ele><time>2026-04-27T18:51:20.129Z</time></trkpt><trkpt lat="45.0706587" lon="7.5293225"><ele>354.6</ele><time>2026-04-27T18:51:22.129Z</time></trkpt><trkpt lat="45.0706676" lon="7.5294722"><ele>354.4</ele><time>2026-04-27T18:51:24.128Z</time></trkpt><trkpt lat="45.0706764" lon="7.5296266"><ele>354.2</ele><time>2026-04-27T18:51:26.128Z</time></trkpt><trkpt lat="45.0706829" lon="7.5297854"><ele>354.0</ele><time>2026-04-27T18:51:28.128Z</time></trkpt><trkpt lat="45.0706904" lon="7.5299468"><ele>354.0</ele><time>2026-04-27T18:51:30.129Z</time></trkpt><trkpt lat="45.0706997" lon="7.5301021"><ele>354.0</ele><time>2026-04-27T18:51:32.128Z</time></trkpt><trkpt lat="45.0707033" lon="7.5302551"><ele>354.0</ele><time>2026-04-27T18:51:34.128Z</time></trkpt><trkpt lat="45.0707102" lon="7.5304111"><ele>354.0</ele><time>2026-04-27T18:51:36.129Z</time></trkpt><trkpt lat="45.0707118" lon="7.5305745"><ele>354.0</ele><time>2026-04-27T18:51:38.127Z</time></trkpt><trkpt lat="45.0707129" lon="7.5307309"><ele>354.0</ele><time>2026-04-27T18:51:40.128Z</time></trkpt><trkpt lat="45.07072" lon="7.5309081"><ele>354.0</ele><time>2026-04-27T18:51:42.129Z</time></trkpt><trkpt lat="45.0707324" lon="7.5310871"><ele>354.0</ele><time>2026-04-27T18:51:44.129Z</time></trkpt><trkpt lat="45.0707328" lon="7.5311774"><ele>354.0</ele><time>2026-04-27T18:51:45.128Z</time></trkpt><trkpt lat="45.070734" lon="7.5312718"><ele>354.0</ele><time>2026-04-27T18:51:46.128Z</time></trkpt><trkpt lat="45.0707393" lon="7.5313689"><ele>353.5714285714286</ele><time>2026-04-27T18:51:47.127Z</time></trkpt><trkpt lat="45.0707425" lon="7.5314667"><ele>353.1428571428571</ele><time>2026-04-27T18:51:48.129Z</time></trkpt><trkpt lat="45.0707471" lon="7.5315653"><ele>352.7142857142857</ele><time>2026-04-27T18:51:49.13Z</time></trkpt><trkpt lat="45.0707534" lon="7.5316635"><ele>352.28571428571433</ele><time>2026-04-27T18:51:50.128Z</time></trkpt><trkpt lat="45.0707574" lon="7.5317621"><ele>351.8571428571429</ele><time>2026-04-27T18:51:51.129Z</time></trkpt><trkpt lat="45.0707608" lon="7.5318632"><ele>351.42857142857144</ele><time>2026-04-27T18:51:52.127Z</time></trkpt><trkpt lat="45.070761" lon="7.5319604"><ele>351.0</ele><time>2026-04-27T18:51:53.129Z</time></trkpt><trkpt lat="45.0707649" lon="7.53206"><ele>350.8571428571429</ele><time>2026-04-27T18:51:54.129Z</time></trkpt><trkpt lat="45.0707706" lon="7.5321602"><ele>350.7142857142857</ele><time>2026-04-27T18:51:55.129Z</time></trkpt><trkpt lat="45.0707743" lon="7.5322614"><ele>350.57142857142856</ele><time>2026-04-27T18:51:56.13Z</time></trkpt><trkpt lat="45.0707805" lon="7.5323606"><ele>350.42857142857144</ele><time>2026-04-27T18:51:57.127Z</time></trkpt><trkpt lat="45.0707841" lon="7.5324655"><ele>350.2857142857143</ele><time>2026-04-27T18:51:58.127Z</time></trkpt><trkpt lat="45.070786" lon="7.5325691"><ele>350.14285714285717</ele><time>2026-04-27T18:51:59.127Z</time></trkpt><trkpt lat="45.0707897" lon="7.5326711"><ele>350.0</ele><time>2026-04-27T18:52:00.129Z</time></trkpt><trkpt lat="45.0708008" lon="7.5327731"><ele>350.0</ele><time>2026-04-27T18:52:01.128Z</time></trkpt><trkpt lat="45.0708073" lon="7.5328722"><ele>350.0</ele><time>2026-04-27T18:52:02.128Z</time></trkpt><trkpt lat="45.070817" lon="7.5329729"><ele>350.0</ele><time>2026-04-27T18:52:03.128Z</time></trkpt><trkpt lat="45.0708265" lon="7.5330672"><ele>350.0</ele><time>2026-04-27T18:52:04.128Z</time></trkpt><trkpt lat="45.0708365" lon="7.5332125"><ele>350.0</ele><time>2026-04-27T18:52:06.129Z</time></trkpt><trkpt lat="45.0708425" lon="7.5333053"><ele>350.0</ele><time>2026-04-27T18:52:09.128Z</time></trkpt><trkpt lat="45.0708509" lon="7.5334075"><ele>349.33333333333337</ele><time>2026-04-27T18:52:12.129Z</time></trkpt><trkpt lat="45.070842" lon="7.5335182"><ele>348.6666666666667</ele><time>2026-04-27T18:52:14.128Z</time></trkpt><trkpt lat="45.0708368" lon="7.5336985"><ele>348.0</ele><time>2026-04-27T18:52:16.128Z</time></trkpt><trkpt lat="45.0708496" lon="7.5337932"><ele>347.3333333333333</ele><time>2026-04-27T18:52:17.128Z</time></trkpt><trkpt lat="45.0708574" lon="7.5338909"><ele>346.66666666666663</ele><time>2026-04-27T18:52:18.128Z</time></trkpt><trkpt lat="45.0708613" lon="7.5339903"><ele>346.0</ele><time>2026-04-27T18:52:19.128Z</time></trkpt><trkpt lat="45.0708684" lon="7.5340934"><ele>345.85714285714283</ele><time>2026-04-27T18:52:20.128Z</time></trkpt><trkpt lat="45.0708773" lon="7.5341937"><ele>345.7142857142857</ele><time>2026-04-27T18:52:21.13Z</time></trkpt><trkpt lat="45.0708834" lon="7.5342932"><ele>345.57142857142856</ele><time>2026-04-27T18:52:22.128Z</time></trkpt><trkpt lat="45.0708864" lon="7.5343975"><ele>345.42857142857144</ele><time>2026-04-27T18:52:23.128Z</time></trkpt><trkpt lat="45.0708912" lon="7.5345028"><ele>345.2857142857143</ele><time>2026-04-27T18:52:24.129Z</time></trkpt><trkpt lat="45.0708956" lon="7.5346112"><ele>345.14285714285717</ele><time>2026-04-27T18:52:25.129Z</time></trkpt><trkpt lat="45.0708966" lon="7.5347197"><ele>345.0</ele><time>2026-04-27T18:52:26.128Z</time></trkpt><trkpt lat="45.070901" lon="7.534828"><ele>344.6666666666667</ele><time>2026-04-27T18:52:27.127Z</time></trkpt><trkpt lat="45.0709091" lon="7.5349339"><ele>344.3333333333333</ele><time>2026-04-27T18:52:28.129Z</time></trkpt><trkpt lat="45.0709118" lon="7.5350387"><ele>344.0</ele><time>2026-04-27T18:52:29.128Z</time></trkpt><trkpt lat="45.0709146" lon="7.5351421"><ele>343.66666666666663</ele><time>2026-04-27T18:52:30.128Z</time></trkpt><trkpt lat="45.0709166" lon="7.5352447"><ele>343.3333333333333</ele><time>2026-04-27T18:52:31.128Z</time></trkpt><trkpt lat="45.0709192" lon="7.535359"><ele>343.0</ele><time>2026-04-27T18:52:32.128Z</time></trkpt><trkpt lat="45.0709261" lon="7.5354728"><ele>342.5</ele><time>2026-04-27T18:52:33.128Z</time></trkpt><trkpt lat="45.0709321" lon="7.5355888"><ele>342.0</ele><time>2026-04-27T18:52:34.129Z</time></trkpt><trkpt lat="45.0709358" lon="7.5357031"><ele>341.5</ele><time>2026-04-27T18:52:35.128Z</time></trkpt><trkpt lat="45.0709456" lon="7.5358143"><ele>341.0</ele><time>2026-04-27T18:52:36.13Z</time></trkpt><trkpt lat="45.0709515" lon="7.5359303"><ele>340.5</ele><time>2026-04-27T18:52:37.129Z</time></trkpt><trkpt lat="45.0709572" lon="7.5360487"><ele>340.0</ele><time>2026-04-27T18:52:38.13Z</time></trkpt><trkpt lat="45.0709594" lon="7.5361638"><ele>340.0</ele><time>2026-04-27T18:52:39.128Z</time></trkpt><trkpt lat="45.0709612" lon="7.5362793"><ele>340.0</ele><time>2026-04-27T18:52:40.129Z</time></trkpt><trkpt lat="45.0709688" lon="7.5363955"><ele>340.0</ele><time>2026-04-27T18:52:41.128Z</time></trkpt><trkpt lat="45.0709724" lon="7.536507"><ele>340.0</ele><time>2026-04-27T18:52:42.129Z</time></trkpt><trkpt lat="45.0709809" lon="7.536623"><ele>340.0</ele><time>2026-04-27T18:52:43.129Z</time></trkpt><trkpt lat="45.0709883" lon="7.5367377"><ele>340.0</ele><time>2026-04-27T18:52:44.128Z</time></trkpt><trkpt lat="45.0709935" lon="7.5368517"><ele>340.0</ele><time>2026-04-27T18:52:45.129Z</time></trkpt><trkpt lat="45.070997" lon="7.5369638"><ele>340.0</ele><time>2026-04-27T18:52:46.128Z</time></trkpt><trkpt lat="45.071002" lon="7.5370768"><ele>340.0</ele><time>2026-04-27T18:52:47.129Z</time></trkpt><trkpt lat="45.0710088" lon="7.537191"><ele>340.0</ele><time>2026-04-27T18:52:48.128Z</time></trkpt><trkpt lat="45.0710155" lon="7.5373037"><ele>340.0</ele><time>2026-04-27T18:52:49.128Z</time></trkpt><trkpt lat="45.07102" lon="7.5374202"><ele>340.0</ele><time>2026-04-27T18:52:50.129Z</time></trkpt><trkpt lat="45.0710292" lon="7.5375329"><ele>339.7142857142857</ele><time>2026-04-27T18:52:51.129Z</time></trkpt><trkpt lat="45.0710357" lon="7.5376449"><ele>339.4285714285714</ele><time>2026-04-27T18:52:52.128Z</time></trkpt><trkpt lat="45.0710397" lon="7.5377535"><ele>339.1428571428571</ele><time>2026-04-27T18:52:53.129Z</time></trkpt><trkpt lat="45.071039" lon="7.5378567"><ele>338.8571428571429</ele><time>2026-04-27T18:52:54.129Z</time></trkpt><trkpt lat="45.0710475" lon="7.5379576"><ele>338.57142857142856</ele><time>2026-04-27T18:52:55.128Z</time></trkpt><trkpt lat="45.0710476" lon="7.538056"><ele>338.2857142857143</ele><time>2026-04-27T18:52:56.127Z</time></trkpt><trkpt lat="45.071055" lon="7.5381534"><ele>338.0</ele><time>2026-04-27T18:52:57.128Z</time></trkpt><trkpt lat="45.0710537" lon="7.5382526"><ele>337.7142857142857</ele><time>2026-04-27T18:52:58.129Z</time></trkpt><trkpt lat="45.0710612" lon="7.5383465"><ele>337.42857142857144</ele><time>2026-04-27T18:52:59.13Z</time></trkpt><trkpt lat="45.0710649" lon="7.5384422"><ele>337.1428571428571</ele><time>2026-04-27T18:53:00.128Z</time></trkpt><trkpt lat="45.0710706" lon="7.5385419"><ele>336.8571428571429</ele><time>2026-04-27T18:53:01.128Z</time></trkpt><trkpt lat="45.0710782" lon="7.5386326"><ele>336.57142857142856</ele><time>2026-04-27T18:53:02.13Z</time></trkpt><trkpt lat="45.0710847" lon="7.5387386"><ele>336.2857142857143</ele><time>2026-04-27T18:53:03.13Z</time></trkpt><trkpt lat="45.0710897" lon="7.5388459"><ele>336.0</ele><time>2026-04-27T18:53:04.13Z</time></trkpt><trkpt lat="45.0710987" lon="7.5389523"><ele>335.8333333333333</ele><time>2026-04-27T18:53:05.129Z</time></trkpt><trkpt lat="45.0711014" lon="7.5390654"><ele>335.6666666666667</ele><time>2026-04-27T18:53:06.129Z</time></trkpt><trkpt lat="45.0711079" lon="7.5391796"><ele>335.5</ele><time>2026-04-27T18:53:07.129Z</time></trkpt><trkpt lat="45.0711195" lon="7.5392927"><ele>335.33333333333337</ele><time>2026-04-27T18:53:08.129Z</time></trkpt><trkpt lat="45.0711245" lon="7.5394068"><ele>335.1666666666667</ele><time>2026-04-27T18:53:09.128Z</time></trkpt><trkpt lat="45.071127" lon="7.5395182"><ele>335.0</ele><time>2026-04-27T18:53:10.13Z</time></trkpt><trkpt lat="45.0711328" lon="7.539636"><ele>335.0</ele><time>2026-04-27T18:53:11.128Z</time></trkpt><trkpt lat="45.0711383" lon="7.5397573"><ele>335.0</ele><time>2026-04-27T18:53:12.129Z</time></trkpt><trkpt lat="45.0711474" lon="7.5398751"><ele>335.0</ele><time>2026-04-27T18:53:13.129Z</time></trkpt><trkpt lat="45.0711491" lon="7.5400062"><ele>335.0</ele><time>2026-04-27T18:53:14.129Z</time></trkpt><trkpt lat="45.0711556" lon="7.540129"><ele>335.0</ele><time>2026-04-27T18:53:15.127Z</time></trkpt><trkpt lat="45.0711632" lon="7.5402504"><ele>335.0</ele><time>2026-04-27T18:53:16.129Z</time></trkpt><trkpt lat="45.0711642" lon="7.5403704"><ele>334.5</ele><time>2026-04-27T18:53:17.129Z</time></trkpt><trkpt lat="45.0711697" lon="7.5404885"><ele>334.0</ele><time>2026-04-27T18:53:18.129Z</time></trkpt><trkpt lat="45.0711767" lon="7.5406098"><ele>333.5</ele><time>2026-04-27T18:53:19.128Z</time></trkpt><trkpt lat="45.0711811" lon="7.5407335"><ele>333.0</ele><time>2026-04-27T18:53:20.129Z</time></trkpt><trkpt lat="45.0711899" lon="7.5408615"><ele>332.5</ele><time>2026-04-27T18:53:21.129Z</time></trkpt><trkpt lat="45.0711997" lon="7.5409935"><ele>332.0</ele><time>2026-04-27T18:53:22.129Z</time></trkpt><trkpt lat="45.0712058" lon="7.541132"><ele>331.6</ele><time>2026-04-27T18:53:23.128Z</time></trkpt><trkpt lat="45.0712151" lon="7.5412714"><ele>331.20000000000005</ele><time>2026-04-27T18:53:24.128Z</time></trkpt><trkpt lat="45.0712177" lon="7.5414116"><ele>330.8</ele><time>2026-04-27T18:53:25.129Z</time></trkpt><trkpt lat="45.0712229" lon="7.5415517"><ele>330.4</ele><time>2026-04-27T18:53:26.129Z</time></trkpt><trkpt lat="45.0712302" lon="7.541692"><ele>330.0</ele><time>2026-04-27T18:53:27.13Z</time></trkpt><trkpt lat="45.0712307" lon="7.541832"><ele>330.0</ele><time>2026-04-27T18:53:28.127Z</time></trkpt><trkpt lat="45.0712365" lon="7.5419678"><ele>330.0</ele><time>2026-04-27T18:53:29.129Z</time></trkpt><trkpt lat="45.0712413" lon="7.5421051"><ele>330.0</ele><time>2026-04-27T18:53:30.128Z</time></trkpt><trkpt lat="45.0712431" lon="7.5422458"><ele>330.0</ele><time>2026-04-27T18:53:31.129Z</time></trkpt><trkpt lat="45.0712492" lon="7.542378"><ele>330.0</ele><time>2026-04-27T18:53:32.128Z</time></trkpt><trkpt lat="45.0712522" lon="7.5425099"><ele>329.8</ele><time>2026-04-27T18:53:33.128Z</time></trkpt><trkpt lat="45.0712627" lon="7.5426389"><ele>329.6</ele><time>2026-04-27T18:53:34.13Z</time></trkpt><trkpt lat="45.0712686" lon="7.5427728"><ele>329.4</ele><time>2026-04-27T18:53:35.128Z</time></trkpt><trkpt lat="45.0712728" lon="7.5429035"><ele>329.2</ele><time>2026-04-27T18:53:36.129Z</time></trkpt><trkpt lat="45.0712812" lon="7.5430365"><ele>329.0</ele><time>2026-04-27T18:53:37.128Z</time></trkpt><trkpt lat="45.0712854" lon="7.5431695"><ele>329.0</ele><time>2026-04-27T18:53:38.129Z</time></trkpt><trkpt lat="45.071291" lon="7.5433024"><ele>329.0</ele><time>2026-04-27T18:53:39.127Z</time></trkpt><trkpt lat="45.0712969" lon="7.5434374"><ele>329.0</ele><time>2026-04-27T18:53:40.129Z</time></trkpt><trkpt lat="45.0713026" lon="7.5435719"><ele>329.0</ele><time>2026-04-27T18:53:41.129Z</time></trkpt><trkpt lat="45.0713145" lon="7.5437133"><ele>329.0</ele><time>2026-04-27T18:53:42.128Z</time></trkpt><trkpt lat="45.0713195" lon="7.5438516"><ele>328.79999999999995</ele><time>2026-04-27T18:53:43.129Z</time></trkpt><trkpt lat="45.0713236" lon="7.5439976"><ele>328.59999999999997</ele><time>2026-04-27T18:53:44.129Z</time></trkpt><trkpt lat="45.0713337" lon="7.5441376"><ele>328.4</ele><time>2026-04-27T18:53:45.13Z</time></trkpt><trkpt lat="45.0713347" lon="7.5442793"><ele>328.2</ele><time>2026-04-27T18:53:46.128Z</time></trkpt><trkpt lat="45.0713425" lon="7.5444264"><ele>328.0</ele><time>2026-04-27T18:53:47.128Z</time></trkpt><trkpt lat="45.0713481" lon="7.544576"><ele>327.4</ele><time>2026-04-27T18:53:48.127Z</time></trkpt><trkpt lat="45.0713577" lon="7.5447194"><ele>326.79999999999995</ele><time>2026-04-27T18:53:49.129Z</time></trkpt><trkpt lat="45.071357" lon="7.5448597"><ele>326.2</ele><time>2026-04-27T18:53:50.129Z</time></trkpt><trkpt lat="45.0713577" lon="7.5450135"><ele>325.6</ele><time>2026-04-27T18:53:51.128Z</time></trkpt><trkpt lat="45.0713628" lon="7.5451632"><ele>325.0</ele><time>2026-04-27T18:53:52.128Z</time></trkpt><trkpt lat="45.0713715" lon="7.5453075"><ele>325.0</ele><time>2026-04-27T18:53:53.129Z</time></trkpt><trkpt lat="45.0713721" lon="7.5454549"><ele>325.0</ele><time>2026-04-27T18:53:54.129Z</time></trkpt><trkpt lat="45.0713744" lon="7.5456035"><ele>325.0</ele><time>2026-04-27T18:53:55.129Z</time></trkpt><trkpt lat="45.0713779" lon="7.5457474"><ele>325.0</ele><time>2026-04-27T18:53:56.129Z</time></trkpt><trkpt lat="45.0713912" lon="7.5458975"><ele>325.0</ele><time>2026-04-27T18:53:57.129Z</time></trkpt><trkpt lat="45.0713936" lon="7.5460504"><ele>325.0</ele><time>2026-04-27T18:53:58.128Z</time></trkpt><trkpt lat="45.0713918" lon="7.5461941"><ele>325.0</ele><time>2026-04-27T18:53:59.13Z</time></trkpt><trkpt lat="45.0713931" lon="7.5463286"><ele>325.0</ele><time>2026-04-27T18:54:00.129Z</time></trkpt><trkpt lat="45.0714007" lon="7.5464616"><ele>325.0</ele><time>2026-04-27T18:54:01.129Z</time></trkpt><trkpt lat="45.0714066" lon="7.5465708"><ele>325.0</ele><time>2026-04-27T18:54:02.13Z</time></trkpt><trkpt lat="45.0714159" lon="7.5466953"><ele>324.3333333333333</ele><time>2026-04-27T18:54:03.128Z</time></trkpt><trkpt lat="45.0714228" lon="7.5468266"><ele>323.66666666666663</ele><time>2026-04-27T18:54:04.129Z</time></trkpt><trkpt lat="45.0714294" lon="7.5469544"><ele>323.0</ele><time>2026-04-27T18:54:05.129Z</time></trkpt><trkpt lat="45.0714379" lon="7.5470775"><ele>322.3333333333333</ele><time>2026-04-27T18:54:06.13Z</time></trkpt><trkpt lat="45.0714436" lon="7.5471972"><ele>321.6666666666667</ele><time>2026-04-27T18:54:07.129Z</time></trkpt><trkpt lat="45.0714484" lon="7.5473149"><ele>321.0</ele><time>2026-04-27T18:54:08.13Z</time></trkpt><trkpt lat="45.0714587" lon="7.5474188"><ele>321.0</ele><time>2026-04-27T18:54:09.128Z</time></trkpt><trkpt lat="45.071468" lon="7.5475225"><ele>321.0</ele><time>2026-04-27T18:54:10.129Z</time></trkpt><trkpt lat="45.0714759" lon="7.5476192"><ele>321.0</ele><time>2026-04-27T18:54:11.128Z</time></trkpt><trkpt lat="45.0714653" lon="7.5477148"><ele>321.0</ele><time>2026-04-27T18:54:12.128Z</time></trkpt><trkpt lat="45.0714586" lon="7.5478739"><ele>321.0</ele><time>2026-04-27T18:54:14.129Z</time></trkpt><trkpt lat="45.0714251" lon="7.5480448"><ele>321.0</ele><time>2026-04-27T18:54:16.129Z</time></trkpt><trkpt lat="45.0714135" lon="7.5481335"><ele>321.0</ele><time>2026-04-27T18:54:17.129Z</time></trkpt><trkpt lat="45.0714017" lon="7.5482216"><ele>321.0</ele><time>2026-04-27T18:54:18.129Z</time></trkpt><trkpt lat="45.0713726" lon="7.5483776"><ele>321.0</ele><time>2026-04-27T18:54:20.128Z</time></trkpt><trkpt lat="45.0713694" lon="7.5485243"><ele>321.0</ele><time>2026-04-27T18:54:22.129Z</time></trkpt><trkpt lat="45.0713799" lon="7.548664"><ele>321.0</ele><time>2026-04-27T18:54:24.129Z</time></trkpt><trkpt lat="45.0713917" lon="7.5487655"><ele>321.0</ele><time>2026-04-27T18:54:26.129Z</time></trkpt><trkpt lat="45.0713953" lon="7.5488793"><ele>321.0</ele><time>2026-04-27T18:54:28.129Z</time></trkpt><trkpt lat="45.0713951" lon="7.5490047"><ele>321.0</ele><time>2026-04-27T18:54:30.128Z</time></trkpt><trkpt lat="45.071392" lon="7.5491428"><ele>321.0</ele><time>2026-04-27T18:54:32.129Z</time></trkpt><trkpt lat="45.071394" lon="7.5492518"><ele>321.0</ele><time>2026-04-27T18:54:34.129Z</time></trkpt><trkpt lat="45.0713896" lon="7.5493666"><ele>321.0</ele><time>2026-04-27T18:54:36.129Z</time></trkpt><trkpt lat="45.0713947" lon="7.549463"><ele>320.5</ele><time>2026-04-27T18:54:38.129Z</time></trkpt><trkpt lat="45.0713859" lon="7.5495771"><ele>320.0</ele><time>2026-04-27T18:54:40.13Z</time></trkpt><trkpt lat="45.0714256" lon="7.5496902"><ele>319.5</ele><time>2026-04-27T18:54:42.129Z</time></trkpt><trkpt lat="45.0714575" lon="7.549801"><ele>319.0</ele><time>2026-04-27T18:54:44.13Z</time></trkpt><trkpt lat="45.0715137" lon="7.5499416"><ele>318.5</ele><time>2026-04-27T18:54:46.129Z</time></trkpt><trkpt lat="45.0715345" lon="7.5500292"><ele>318.0</ele><time>2026-04-27T18:54:47.129Z</time></trkpt><trkpt lat="45.0715646" lon="7.5501773"><ele>318.0</ele><time>2026-04-27T18:54:49.13Z</time></trkpt><trkpt lat="45.0715744" lon="7.5503352"><ele>318.0</ele><time>2026-04-27T18:54:51.13Z</time></trkpt><trkpt lat="45.0715829" lon="7.5504964"><ele>318.0</ele><time>2026-04-27T18:54:53.13Z</time></trkpt><trkpt lat="45.0715974" lon="7.5506685"><ele>318.0</ele><time>2026-04-27T18:54:55.128Z</time></trkpt><trkpt lat="45.0716115" lon="7.5508337"><ele>318.5</ele><time>2026-04-27T18:54:57.128Z</time></trkpt><trkpt lat="45.07162" lon="7.5509236"><ele>319.0</ele><time>2026-04-27T18:54:58.13Z</time></trkpt><trkpt lat="45.0716277" lon="7.5510963"><ele>319.5</ele><time>2026-04-27T18:55:00.128Z</time></trkpt><trkpt lat="45.0716314" lon="7.551187"><ele>320.0</ele><time>2026-04-27T18:55:01.129Z</time></trkpt><trkpt lat="45.0716371" lon="7.5512758"><ele>320.5</ele><time>2026-04-27T18:55:02.128Z</time></trkpt><trkpt lat="45.0716386" lon="7.5513653"><ele>321.0</ele><time>2026-04-27T18:55:03.129Z</time></trkpt><trkpt lat="45.0716414" lon="7.5515373"><ele>321.0</ele><time>2026-04-27T18:55:05.129Z</time></trkpt><trkpt lat="45.0716351" lon="7.5517126"><ele>321.0</ele><time>2026-04-27T18:55:07.128Z</time></trkpt><trkpt lat="45.0716307" lon="7.551886"><ele>321.0</ele><time>2026-04-27T18:55:09.13Z</time></trkpt><trkpt lat="45.0716361" lon="7.5519759"><ele>321.0</ele><time>2026-04-27T18:55:10.128Z</time></trkpt><trkpt lat="45.0716383" lon="7.5520684"><ele>321.0</ele><time>2026-04-27T18:55:11.129Z</time></trkpt><trkpt lat="45.0716395" lon="7.5521615"><ele>321.0</ele><time>2026-04-27T18:55:12.13Z</time></trkpt><trkpt lat="45.0716436" lon="7.5522529"><ele>320.2</ele><time>2026-04-27T18:55:13.129Z</time></trkpt><trkpt lat="45.0716498" lon="7.5524317"><ele>319.40000000000003</ele><time>2026-04-27T18:55:15.128Z</time></trkpt><trkpt lat="45.0716534" lon="7.5525267"><ele>318.6</ele><time>2026-04-27T18:55:16.129Z</time></trkpt><trkpt lat="45.0716584" lon="7.5526159"><ele>317.8</ele><time>2026-04-27T18:55:17.129Z</time></trkpt><trkpt lat="45.071663" lon="7.5527867"><ele>317.0</ele><time>2026-04-27T18:55:19.129Z</time></trkpt><trkpt lat="45.0716625" lon="7.5529629"><ele>317.0</ele><time>2026-04-27T18:55:21.128Z</time></trkpt><trkpt lat="45.0716648" lon="7.5530523"><ele>317.0</ele><time>2026-04-27T18:55:22.128Z</time></trkpt><trkpt lat="45.0716648" lon="7.553146"><ele>317.0</ele><time>2026-04-27T18:55:23.129Z</time></trkpt><trkpt lat="45.071671" lon="7.5532376"><ele>317.0</ele><time>2026-04-27T18:55:24.128Z</time></trkpt><trkpt lat="45.0716738" lon="7.55333"><ele>317.0</ele><time>2026-04-27T18:55:25.129Z</time></trkpt><trkpt lat="45.0716794" lon="7.553428"><ele>317.0</ele><time>2026-04-27T18:55:26.128Z</time></trkpt><trkpt lat="45.0716874" lon="7.5535228"><ele>317.0</ele><time>2026-04-27T18:55:27.13Z</time></trkpt><trkpt lat="45.0716882" lon="7.5536236"><ele>316.83333333333337</ele><time>2026-04-27T18:55:28.129Z</time></trkpt><trkpt lat="45.0716927" lon="7.553724"><ele>316.6666666666667</ele><time>2026-04-27T18:55:29.129Z</time></trkpt><trkpt lat="45.0716957" lon="7.5538343"><ele>316.5</ele><time>2026-04-27T18:55:30.129Z</time></trkpt><trkpt lat="45.0717026" lon="7.5539407"><ele>316.3333333333333</ele><time>2026-04-27T18:55:31.129Z</time></trkpt><trkpt lat="45.0717079" lon="7.5540534"><ele>316.16666666666663</ele><time>2026-04-27T18:55:32.129Z</time></trkpt><trkpt lat="45.0717111" lon="7.5541659"><ele>316.0</ele><time>2026-04-27T18:55:33.13Z</time></trkpt><trkpt lat="45.0717138" lon="7.5542764"><ele>316.0</ele><time>2026-04-27T18:55:34.129Z</time></trkpt><trkpt lat="45.071725" lon="7.5543819"><ele>316.0</ele><time>2026-04-27T18:55:35.129Z</time></trkpt><trkpt lat="45.0717251" lon="7.5544962"><ele>316.0</ele><time>2026-04-27T18:55:36.129Z</time></trkpt><trkpt lat="45.0717255" lon="7.5546132"><ele>316.0</ele><time>2026-04-27T18:55:37.129Z</time></trkpt><trkpt lat="45.0717243" lon="7.5547318"><ele>316.0</ele><time>2026-04-27T18:55:38.129Z</time></trkpt><trkpt lat="45.0717305" lon="7.554845"><ele>316.0</ele><time>2026-04-27T18:55:39.129Z</time></trkpt><trkpt lat="45.0717378" lon="7.5549585"><ele>315.8333333333333</ele><time>2026-04-27T18:55:40.129Z</time></trkpt><trkpt lat="45.0717487" lon="7.5550696"><ele>315.66666666666663</ele><time>2026-04-27T18:55:41.129Z</time></trkpt><trkpt lat="45.0717575" lon="7.5551804"><ele>315.5</ele><time>2026-04-27T18:55:42.13Z</time></trkpt><trkpt lat="45.0717573" lon="7.5552919"><ele>315.3333333333333</ele><time>2026-04-27T18:55:43.13Z</time></trkpt><trkpt lat="45.0717579" lon="7.5554036"><ele>315.1666666666667</ele><time>2026-04-27T18:55:44.128Z</time></trkpt><trkpt lat="45.0717539" lon="7.5555127"><ele>315.0</ele><time>2026-04-27T18:55:45.128Z</time></trkpt><trkpt lat="45.0717595" lon="7.5556268"><ele>314.6666666666667</ele><time>2026-04-27T18:55:46.13Z</time></trkpt><trkpt lat="45.0717631" lon="7.5557357"><ele>314.3333333333333</ele><time>2026-04-27T18:55:47.129Z</time></trkpt><trkpt lat="45.0717663" lon="7.5558439"><ele>314.0</ele><time>2026-04-27T18:55:48.129Z</time></trkpt><trkpt lat="45.0717723" lon="7.5559485"><ele>313.66666666666663</ele><time>2026-04-27T18:55:49.129Z</time></trkpt><trkpt lat="45.0717788" lon="7.5560449"><ele>313.3333333333333</ele><time>2026-04-27T18:55:50.129Z</time></trkpt><trkpt lat="45.0717804" lon="7.5561388"><ele>313.0</ele><time>2026-04-27T18:55:51.13Z</time></trkpt><trkpt lat="45.0717941" lon="7.5562909"><ele>312.6</ele><time>2026-04-27T18:55:53.129Z</time></trkpt><trkpt lat="45.0718054" lon="7.5564284"><ele>312.20000000000005</ele><time>2026-04-27T18:55:55.129Z</time></trkpt><trkpt lat="45.071809" lon="7.5565629"><ele>311.8</ele><time>2026-04-27T18:55:57.129Z</time></trkpt><trkpt lat="45.0718146" lon="7.5567181"><ele>311.40000000000003</ele><time>2026-04-27T18:55:59.129Z</time></trkpt><trkpt lat="45.0718439" lon="7.5568913"><ele>311.0</ele><time>2026-04-27T18:56:01.129Z</time></trkpt><trkpt lat="45.0718536" lon="7.5569838"><ele>310.85714285714283</ele><time>2026-04-27T18:56:02.129Z</time></trkpt><trkpt lat="45.0718693" lon="7.5570789"><ele>310.7142857142857</ele><time>2026-04-27T18:56:03.13Z</time></trkpt><trkpt lat="45.0718693" lon="7.5571804"><ele>310.57142857142856</ele><time>2026-04-27T18:56:04.129Z</time></trkpt><trkpt lat="45.0718766" lon="7.557282"><ele>310.42857142857144</ele><time>2026-04-27T18:56:05.129Z</time></trkpt><trkpt lat="45.0718816" lon="7.5573815"><ele>310.2857142857143</ele><time>2026-04-27T18:56:06.129Z</time></trkpt><trkpt lat="45.0718626" lon="7.5574946"><ele>310.14285714285717</ele><time>2026-04-27T18:56:07.129Z</time></trkpt><trkpt lat="45.0718651" lon="7.5575927"><ele>310.0</ele><time>2026-04-27T18:56:08.128Z</time></trkpt><trkpt lat="45.071867" lon="7.5576876"><ele>310.0</ele><time>2026-04-27T18:56:09.13Z</time></trkpt><trkpt lat="45.0718702" lon="7.5577876"><ele>310.0</ele><time>2026-04-27T18:56:10.129Z</time></trkpt><trkpt lat="45.0718751" lon="7.5578864"><ele>310.0</ele><time>2026-04-27T18:56:11.129Z</time></trkpt><trkpt lat="45.0718808" lon="7.557986"><ele>310.0</ele><time>2026-04-27T18:56:12.129Z</time></trkpt><trkpt lat="45.0718828" lon="7.5580843"><ele>310.0</ele><time>2026-04-27T18:56:13.129Z</time></trkpt><trkpt lat="45.0718989" lon="7.5581883"><ele>310.0</ele><time>2026-04-27T18:56:14.129Z</time></trkpt><trkpt lat="45.0719101" lon="7.558288"><ele>310.0</ele><time>2026-04-27T18:56:15.129Z</time></trkpt><trkpt lat="45.0719164" lon="7.5583918"><ele>310.0</ele><time>2026-04-27T18:56:16.128Z</time></trkpt><trkpt lat="45.0719199" lon="7.5584934"><ele>310.0</ele><time>2026-04-27T18:56:17.129Z</time></trkpt><trkpt lat="45.0719254" lon="7.558593"><ele>310.0</ele><time>2026-04-27T18:56:18.13Z</time></trkpt><trkpt lat="45.0719311" lon="7.5586919"><ele>310.0</ele><time>2026-04-27T18:56:19.13Z</time></trkpt><trkpt lat="45.0719359" lon="7.5587932"><ele>310.0</ele><time>2026-04-27T18:56:20.129Z</time></trkpt><trkpt lat="45.0719356" lon="7.5588876"><ele>310.0</ele><time>2026-04-27T18:56:21.128Z</time></trkpt><trkpt lat="45.0719424" lon="7.5590769"><ele>310.0</ele><time>2026-04-27T18:56:23.129Z</time></trkpt><trkpt lat="45.0719437" lon="7.5591754"><ele>310.0</ele><time>2026-04-27T18:56:24.129Z</time></trkpt><trkpt lat="45.0719459" lon="7.5592729"><ele>310.0</ele><time>2026-04-27T18:56:25.128Z</time></trkpt><trkpt lat="45.0719515" lon="7.5593727"><ele>310.0</ele><time>2026-04-27T18:56:26.129Z</time></trkpt><trkpt lat="45.0719546" lon="7.5595514"><ele>310.0</ele><time>2026-04-27T18:56:28.129Z</time></trkpt><trkpt lat="45.0719568" lon="7.5596421"><ele>310.0</ele><time>2026-04-27T18:56:29.129Z</time></trkpt><trkpt lat="45.0719598" lon="7.5597348"><ele>310.0</ele><time>2026-04-27T18:56:30.129Z</time></trkpt><trkpt lat="45.0719669" lon="7.5598333"><ele>310.0</ele><time>2026-04-27T18:56:31.128Z</time></trkpt><trkpt lat="45.0719707" lon="7.5599286"><ele>310.0</ele><time>2026-04-27T18:56:32.128Z</time></trkpt><trkpt lat="45.0719733" lon="7.5600273"><ele>310.0</ele><time>2026-04-27T18:56:33.129Z</time></trkpt><trkpt lat="45.0719716" lon="7.5601241"><ele>310.0</ele><time>2026-04-27T18:56:34.129Z</time></trkpt><trkpt lat="45.0719735" lon="7.5602269"><ele>310.0</ele><time>2026-04-27T18:56:35.129Z</time></trkpt><trkpt lat="45.0719747" lon="7.560322"><ele>310.0</ele><time>2026-04-27T18:56:36.129Z</time></trkpt><trkpt lat="45.0719783" lon="7.5604191"><ele>310.0</ele><time>2026-04-27T18:56:37.129Z</time></trkpt><trkpt lat="45.0719852" lon="7.5605164"><ele>310.0</ele><time>2026-04-27T18:56:38.13Z</time></trkpt><trkpt lat="45.0719873" lon="7.5606127"><ele>310.0</ele><time>2026-04-27T18:56:39.129Z</time></trkpt><trkpt lat="45.0719929" lon="7.5607062"><ele>310.0</ele><time>2026-04-27T18:56:40.129Z</time></trkpt><trkpt lat="45.0719985" lon="7.5608067"><ele>310.0</ele><time>2026-04-27T18:56:41.129Z</time></trkpt><trkpt lat="45.0720015" lon="7.5609033"><ele>310.0</ele><time>2026-04-27T18:56:42.129Z</time></trkpt><trkpt lat="45.0720013" lon="7.5610109"><ele>310.0</ele><time>2026-04-27T18:56:43.129Z</time></trkpt><trkpt lat="45.0720066" lon="7.5611146"><ele>309.7142857142857</ele><time>2026-04-27T18:56:44.128Z</time></trkpt><trkpt lat="45.0720147" lon="7.5612174"><ele>309.42857142857144</ele><time>2026-04-27T18:56:45.129Z</time></trkpt><trkpt lat="45.0720149" lon="7.5613204"><ele>309.1428571428571</ele><time>2026-04-27T18:56:46.13Z</time></trkpt><trkpt lat="45.0720226" lon="7.5614263"><ele>308.8571428571429</ele><time>2026-04-27T18:56:47.129Z</time></trkpt><trkpt lat="45.0720241" lon="7.5615245"><ele>308.57142857142856</ele><time>2026-04-27T18:56:48.129Z</time></trkpt><trkpt lat="45.0720283" lon="7.5616243"><ele>308.2857142857143</ele><time>2026-04-27T18:56:49.128Z</time></trkpt><trkpt lat="45.0720308" lon="7.5617175"><ele>308.0</ele><time>2026-04-27T18:56:50.13Z</time></trkpt><trkpt lat="45.0720355" lon="7.5618152"><ele>308.0</ele><time>2026-04-27T18:56:51.13Z</time></trkpt><trkpt lat="45.0720395" lon="7.5619112"><ele>308.0</ele><time>2026-04-27T18:56:52.129Z</time></trkpt><trkpt lat="45.0720409" lon="7.5620047"><ele>308.0</ele><time>2026-04-27T18:56:53.13Z</time></trkpt><trkpt lat="45.0720486" lon="7.5620974"><ele>308.0</ele><time>2026-04-27T18:56:54.129Z</time></trkpt><trkpt lat="45.0720526" lon="7.5621911"><ele>308.0</ele><time>2026-04-27T18:56:55.129Z</time></trkpt><trkpt lat="45.0720559" lon="7.5622945"><ele>308.0</ele><time>2026-04-27T18:56:56.129Z</time></trkpt><trkpt lat="45.072088" lon="7.5624584"><ele>308.0</ele><time>2026-04-27T18:56:58.129Z</time></trkpt><trkpt lat="45.072087" lon="7.5626135"><ele>308.0</ele><time>2026-04-27T18:57:00.129Z</time></trkpt><trkpt lat="45.0720868" lon="7.5627536"><ele>308.0</ele><time>2026-04-27T18:57:02.129Z</time></trkpt><trkpt lat="45.0720964" lon="7.5628893"><ele>308.0</ele><time>2026-04-27T18:57:04.13Z</time></trkpt><trkpt lat="45.0721143" lon="7.5630544"><ele>308.0</ele><time>2026-04-27T18:57:06.13Z</time></trkpt><trkpt lat="45.0721148" lon="7.5631466"><ele>308.0</ele><time>2026-04-27T18:57:07.13Z</time></trkpt><trkpt lat="45.0721142" lon="7.5632504"><ele>308.0</ele><time>2026-04-27T18:57:08.128Z</time></trkpt><trkpt lat="45.0721173" lon="7.5633414"><ele>308.0</ele><time>2026-04-27T18:57:09.128Z</time></trkpt><trkpt lat="45.0721233" lon="7.5634409"><ele>308.0</ele><time>2026-04-27T18:57:10.128Z</time></trkpt><trkpt lat="45.0721263" lon="7.5635349"><ele>308.0</ele><time>2026-04-27T18:57:11.129Z</time></trkpt><trkpt lat="45.072127" lon="7.5636273"><ele>308.0</ele><time>2026-04-27T18:57:12.129Z</time></trkpt><trkpt lat="45.0721303" lon="7.5637178"><ele>308.0</ele><time>2026-04-27T18:57:13.128Z</time></trkpt><trkpt lat="45.0721345" lon="7.5638121"><ele>308.2</ele><time>2026-04-27T18:57:14.13Z</time></trkpt><trkpt lat="45.0721382" lon="7.5639025"><ele>308.4</ele><time>2026-04-27T18:57:15.129Z</time></trkpt><trkpt lat="45.0721346" lon="7.5639936"><ele>308.59999999999997</ele><time>2026-04-27T18:57:16.128Z</time></trkpt><trkpt lat="45.0721452" lon="7.5641643"><ele>308.8</ele><time>2026-04-27T18:57:18.13Z</time></trkpt><trkpt lat="45.0721497" lon="7.5643374"><ele>309.0</ele><time>2026-04-27T18:57:20.13Z</time></trkpt><trkpt lat="45.0721654" lon="7.5645001"><ele>308.75</ele><time>2026-04-27T18:57:22.129Z</time></trkpt><trkpt lat="45.0721763" lon="7.5646695"><ele>308.5</ele><time>2026-04-27T18:57:24.13Z</time></trkpt><trkpt lat="45.0721833" lon="7.5648449"><ele>308.25</ele><time>2026-04-27T18:57:26.129Z</time></trkpt><trkpt lat="45.0721841" lon="7.5650075"><ele>308.0</ele><time>2026-04-27T18:57:28.129Z</time></trkpt><trkpt lat="45.0721895" lon="7.565178"><ele>308.0</ele><time>2026-04-27T18:57:30.129Z</time></trkpt><trkpt lat="45.0721931" lon="7.5653411"><ele>308.0</ele><time>2026-04-27T18:57:32.129Z</time></trkpt><trkpt lat="45.072197" lon="7.565496"><ele>308.0</ele><time>2026-04-27T18:57:34.128Z</time></trkpt><trkpt lat="45.0722014" lon="7.5656407"><ele>308.0</ele><time>2026-04-27T18:57:36.129Z</time></trkpt><trkpt lat="45.0722043" lon="7.5657805"><ele>308.0</ele><time>2026-04-27T18:57:38.129Z</time></trkpt><trkpt lat="45.0722072" lon="7.5658937"><ele>307.83333333333337</ele><time>2026-04-27T18:57:40.129Z</time></trkpt><trkpt lat="45.0722131" lon="7.5660085"><ele>307.6666666666667</ele><time>2026-04-27T18:57:43.129Z</time></trkpt><trkpt lat="45.0722256" lon="7.5661125"><ele>307.5</ele><time>2026-04-27T18:57:47.13Z</time></trkpt><trkpt lat="45.0722318" lon="7.5662041"><ele>307.3333333333333</ele><time>2026-04-27T18:57:58.128Z</time></trkpt><trkpt lat="45.0722379" lon="7.56632"><ele>307.16666666666663</ele><time>2026-04-27T18:58:01.129Z</time></trkpt><trkpt lat="45.0722449" lon="7.5664399"><ele>307.0</ele><time>2026-04-27T18:58:03.128Z</time></trkpt><trkpt lat="45.0722605" lon="7.5665789"><ele>307.0</ele><time>2026-04-27T18:58:05.129Z</time></trkpt><trkpt lat="45.0722659" lon="7.5667287"><ele>307.0</ele><time>2026-04-27T18:58:07.129Z</time></trkpt><trkpt lat="45.072276" lon="7.5668854"><ele>307.0</ele><time>2026-04-27T18:58:09.128Z</time></trkpt><trkpt lat="45.0722899" lon="7.567054"><ele>307.0</ele><time>2026-04-27T18:58:11.129Z</time></trkpt><trkpt lat="45.0722981" lon="7.5672247"><ele>307.0</ele><time>2026-04-27T18:58:13.129Z</time></trkpt><trkpt lat="45.0723029" lon="7.5674022"><ele>307.0</ele><time>2026-04-27T18:58:15.128Z</time></trkpt><trkpt lat="45.0723065" lon="7.5674916"><ele>307.0</ele><time>2026-04-27T18:58:16.129Z</time></trkpt><trkpt lat="45.0723096" lon="7.567583"><ele>307.0</ele><time>2026-04-27T18:58:17.129Z</time></trkpt><trkpt lat="45.072315" lon="7.5676755"><ele>307.0</ele><time>2026-04-27T18:58:18.13Z</time></trkpt><trkpt lat="45.0723221" lon="7.5677663"><ele>307.0</ele><time>2026-04-27T18:58:19.128Z</time></trkpt><trkpt lat="45.0723256" lon="7.5678603"><ele>306.85714285714283</ele><time>2026-04-27T18:58:20.129Z</time></trkpt><trkpt lat="45.0723241" lon="7.5679524"><ele>306.7142857142857</ele><time>2026-04-27T18:58:21.13Z</time></trkpt><trkpt lat="45.0723208" lon="7.5680448"><ele>306.57142857142856</ele><time>2026-04-27T18:58:22.129Z</time></trkpt><trkpt lat="45.0723182" lon="7.56814"><ele>306.42857142857144</ele><time>2026-04-27T18:58:23.13Z</time></trkpt><trkpt lat="45.0723147" lon="7.5682298"><ele>306.2857142857143</ele><time>2026-04-27T18:58:24.128Z</time></trkpt><trkpt lat="45.0723134" lon="7.5683269"><ele>306.1428571428571</ele><time>2026-04-27T18:58:25.129Z</time></trkpt><trkpt lat="45.0723139" lon="7.5684227"><ele>306.0</ele><time>2026-04-27T18:58:26.129Z</time></trkpt><trkpt lat="45.0723222" lon="7.5685183"><ele>306.0</ele><time>2026-04-27T18:58:27.128Z</time></trkpt><trkpt lat="45.0723296" lon="7.5686156"><ele>306.0</ele><time>2026-04-27T18:58:28.129Z</time></trkpt><trkpt lat="45.0723342" lon="7.5687118"><ele>306.0</ele><time>2026-04-27T18:58:29.128Z</time></trkpt><trkpt lat="45.0723362" lon="7.5688109"><ele>306.0</ele><time>2026-04-27T18:58:30.13Z</time></trkpt><trkpt lat="45.0723395" lon="7.5689065"><ele>306.0</ele><time>2026-04-27T18:58:31.129Z</time></trkpt><trkpt lat="45.0723411" lon="7.5690016"><ele>306.0</ele><time>2026-04-27T18:58:32.129Z</time></trkpt><trkpt lat="45.0723458" lon="7.5690975"><ele>306.0</ele><time>2026-04-27T18:58:33.128Z</time></trkpt><trkpt lat="45.0723519" lon="7.56919"><ele>305.85714285714283</ele><time>2026-04-27T18:58:34.13Z</time></trkpt><trkpt lat="45.072355" lon="7.5692872"><ele>305.7142857142857</ele><time>2026-04-27T18:58:35.13Z</time></trkpt><trkpt lat="45.0723591" lon="7.5693794"><ele>305.57142857142856</ele><time>2026-04-27T18:58:36.13Z</time></trkpt><trkpt lat="45.0723642" lon="7.5694723"><ele>305.42857142857144</ele><time>2026-04-27T18:58:37.131Z</time></trkpt><trkpt lat="45.0723701" lon="7.5695672"><ele>305.2857142857143</ele><time>2026-04-27T18:58:38.13Z</time></trkpt><trkpt lat="45.0723766" lon="7.5696613"><ele>305.14285714285717</ele><time>2026-04-27T18:58:39.13Z</time></trkpt><trkpt lat="45.0723816" lon="7.5697569"><ele>305.0</ele><time>2026-04-27T18:58:40.128Z</time></trkpt><trkpt lat="45.0723846" lon="7.5698493"><ele>304.8571428571429</ele><time>2026-04-27T18:58:41.129Z</time></trkpt><trkpt lat="45.072393" lon="7.5699408"><ele>304.71428571428567</ele><time>2026-04-27T18:58:42.129Z</time></trkpt><trkpt lat="45.0723986" lon="7.570038"><ele>304.57142857142856</ele><time>2026-04-27T18:58:43.129Z</time></trkpt><trkpt lat="45.0724049" lon="7.5701305"><ele>304.42857142857144</ele><time>2026-04-27T18:58:44.128Z</time></trkpt><trkpt lat="45.0724138" lon="7.5702276"><ele>304.28571428571433</ele><time>2026-04-27T18:58:45.131Z</time></trkpt><trkpt lat="45.0724206" lon="7.570327"><ele>304.1428571428571</ele><time>2026-04-27T18:58:46.128Z</time></trkpt><trkpt lat="45.072427" lon="7.5704266"><ele>304.0</ele><time>2026-04-27T18:58:47.129Z</time></trkpt><trkpt lat="45.0724277" lon="7.5705207"><ele>303.8333333333333</ele><time>2026-04-27T18:58:48.128Z</time></trkpt><trkpt lat="45.0724301" lon="7.5706153"><ele>303.66666666666663</ele><time>2026-04-27T18:58:49.129Z</time></trkpt><trkpt lat="45.0724403" lon="7.5707928"><ele>303.5</ele><time>2026-04-27T18:58:51.129Z</time></trkpt><trkpt lat="45.0724436" lon="7.5708846"><ele>303.3333333333333</ele><time>2026-04-27T18:58:52.129Z</time></trkpt><trkpt lat="45.0724521" lon="7.5709813"><ele>303.1666666666667</ele><time>2026-04-27T18:58:53.129Z</time></trkpt><trkpt lat="45.0724506" lon="7.5710749"><ele>303.0</ele><time>2026-04-27T18:58:54.128Z</time></trkpt><trkpt lat="45.0724504" lon="7.5711693"><ele>303.3333333333333</ele><time>2026-04-27T18:58:55.13Z</time></trkpt><trkpt lat="45.0724546" lon="7.5712592"><ele>303.6666666666667</ele><time>2026-04-27T18:58:56.128Z</time></trkpt><trkpt lat="45.0724606" lon="7.5713494"><ele>304.0</ele><time>2026-04-27T18:58:57.129Z</time></trkpt><trkpt lat="45.0724676" lon="7.5714388"><ele>304.33333333333337</ele><time>2026-04-27T18:58:58.13Z</time></trkpt><trkpt lat="45.0724724" lon="7.5715312"><ele>304.6666666666667</ele><time>2026-04-27T18:58:59.131Z</time></trkpt><trkpt lat="45.0724847" lon="7.5717058"><ele>305.0</ele><time>2026-04-27T18:59:01.13Z</time></trkpt><trkpt lat="45.072488" lon="7.5718715"><ele>305.2</ele><time>2026-04-27T18:59:03.13Z</time></trkpt><trkpt lat="45.0725" lon="7.5720319"><ele>305.4</ele><time>2026-04-27T18:59:05.129Z</time></trkpt><trkpt lat="45.0725106" lon="7.5721758"><ele>305.6</ele><time>2026-04-27T18:59:07.128Z</time></trkpt><trkpt lat="45.0725165" lon="7.5723219"><ele>305.8</ele><time>2026-04-27T18:59:09.13Z</time></trkpt><trkpt lat="45.0725224" lon="7.5724507"><ele>306.0</ele><time>2026-04-27T18:59:11.129Z</time></trkpt><trkpt lat="45.0725246" lon="7.5725632"><ele>306.0</ele><time>2026-04-27T18:59:13.129Z</time></trkpt><trkpt lat="45.0725038" lon="7.5726514"><ele>306.0</ele><time>2026-04-27T18:59:16.131Z</time></trkpt><trkpt lat="45.0724979" lon="7.5727589"><ele>306.0</ele><time>2026-04-27T18:59:32.129Z</time></trkpt><trkpt lat="45.0725285" lon="7.5728874"><ele>306.0</ele><time>2026-04-27T18:59:35.13Z</time></trkpt><trkpt lat="45.0725381" lon="7.5730132"><ele>306.0</ele><time>2026-04-27T18:59:37.129Z</time></trkpt><trkpt lat="45.0725462" lon="7.5731504"><ele>306.0</ele><time>2026-04-27T18:59:39.129Z</time></trkpt><trkpt lat="45.0725524" lon="7.5732977"><ele>305.40000000000003</ele><time>2026-04-27T18:59:41.13Z</time></trkpt><trkpt lat="45.0725595" lon="7.5734489"><ele>304.8</ele><time>2026-04-27T18:59:43.129Z</time></trkpt><trkpt lat="45.072566" lon="7.5735883"><ele>304.20000000000005</ele><time>2026-04-27T18:59:45.13Z</time></trkpt><trkpt lat="45.0725652" lon="7.5737251"><ele>303.6</ele><time>2026-04-27T18:59:47.129Z</time></trkpt><trkpt lat="45.0725738" lon="7.5738762"><ele>303.0</ele><time>2026-04-27T18:59:49.13Z</time></trkpt><trkpt lat="45.0725829" lon="7.5740312"><ele>303.0</ele><time>2026-04-27T18:59:51.13Z</time></trkpt><trkpt lat="45.07259" lon="7.5742003"><ele>303.0</ele><time>2026-04-27T18:59:53.129Z</time></trkpt><trkpt lat="45.0725895" lon="7.5743609"><ele>303.0</ele><time>2026-04-27T18:59:55.129Z</time></trkpt><trkpt lat="45.0725878" lon="7.574522"><ele>303.0</ele><time>2026-04-27T18:59:57.129Z</time></trkpt><trkpt lat="45.0725794" lon="7.5746829"><ele>303.5</ele><time>2026-04-27T18:59:59.13Z</time></trkpt><trkpt lat="45.0725657" lon="7.5748423"><ele>304.0</ele><time>2026-04-27T19:00:01.129Z</time></trkpt><trkpt lat="45.0725589" lon="7.5750165"><ele>304.5</ele><time>2026-04-27T19:00:03.129Z</time></trkpt><trkpt lat="45.0725598" lon="7.5751832"><ele>305.0</ele><time>2026-04-27T19:00:05.129Z</time></trkpt><trkpt lat="45.072563" lon="7.5753436"><ele>305.0</ele><time>2026-04-27T19:00:07.13Z</time></trkpt><trkpt lat="45.0725731" lon="7.5755156"><ele>305.0</ele><time>2026-04-27T19:00:09.13Z</time></trkpt><trkpt lat="45.07255" lon="7.5756846"><ele>305.0</ele><time>2026-04-27T19:00:11.129Z</time></trkpt><trkpt lat="45.0725485" lon="7.5758568"><ele>305.0</ele><time>2026-04-27T19:00:13.13Z</time></trkpt><trkpt lat="45.0725546" lon="7.5760288"><ele>304.2</ele><time>2026-04-27T19:00:15.128Z</time></trkpt><trkpt lat="45.0725684" lon="7.5761998"><ele>303.4</ele><time>2026-04-27T19:00:17.129Z</time></trkpt><trkpt lat="45.0726115" lon="7.5763662"><ele>302.6</ele><time>2026-04-27T19:00:19.129Z</time></trkpt><trkpt lat="45.0726278" lon="7.5764538"><ele>301.8</ele><time>2026-04-27T19:00:20.13Z</time></trkpt><trkpt lat="45.0726486" lon="7.5766332"><ele>301.0</ele><time>2026-04-27T19:00:22.128Z</time></trkpt><trkpt lat="45.0726573" lon="7.5768112"><ele>301.0</ele><time>2026-04-27T19:00:24.129Z</time></trkpt><trkpt lat="45.0726663" lon="7.5769079"><ele>301.0</ele><time>2026-04-27T19:00:25.131Z</time></trkpt><trkpt lat="45.0726695" lon="7.5770051"><ele>301.0</ele><time>2026-04-27T19:00:26.129Z</time></trkpt><trkpt lat="45.0726723" lon="7.5771044"><ele>301.0</ele><time>2026-04-27T19:00:27.129Z</time></trkpt><trkpt lat="45.0726751" lon="7.5771945"><ele>301.0</ele><time>2026-04-27T19:00:28.129Z</time></trkpt><trkpt lat="45.0726936" lon="7.5773723"><ele>301.0</ele><time>2026-04-27T19:00:30.131Z</time></trkpt><trkpt lat="45.0726942" lon="7.5774618"><ele>300.85714285714283</ele><time>2026-04-27T19:00:31.13Z</time></trkpt><trkpt lat="45.0726949" lon="7.577564"><ele>300.7142857142857</ele><time>2026-04-27T19:00:32.131Z</time></trkpt><trkpt lat="45.0726955" lon="7.5776535"><ele>300.57142857142856</ele><time>2026-04-27T19:00:33.13Z</time></trkpt><trkpt lat="45.0726949" lon="7.5777512"><ele>300.42857142857144</ele><time>2026-04-27T19:00:34.128Z</time></trkpt><trkpt lat="45.0726882" lon="7.5778454"><ele>300.2857142857143</ele><time>2026-04-27T19:00:35.128Z</time></trkpt><trkpt lat="45.0726939" lon="7.5779423"><ele>300.1428571428571</ele><time>2026-04-27T19:00:36.13Z</time></trkpt><trkpt lat="45.0727042" lon="7.5780366"><ele>300.0</ele><time>2026-04-27T19:00:37.129Z</time></trkpt><trkpt lat="45.0727108" lon="7.5781277"><ele>299.85714285714283</ele><time>2026-04-27T19:00:38.13Z</time></trkpt><trkpt lat="45.0727044" lon="7.5782222"><ele>299.7142857142857</ele><time>2026-04-27T19:00:39.131Z</time></trkpt><trkpt lat="45.0727063" lon="7.5783239"><ele>299.57142857142856</ele><time>2026-04-27T19:00:40.129Z</time></trkpt><trkpt lat="45.0727109" lon="7.5784294"><ele>299.42857142857144</ele><time>2026-04-27T19:00:41.129Z</time></trkpt><trkpt lat="45.0727162" lon="7.5785262"><ele>299.2857142857143</ele><time>2026-04-27T19:00:42.13Z</time></trkpt><trkpt lat="45.0727277" lon="7.5786224"><ele>299.1428571428571</ele><time>2026-04-27T19:00:43.128Z</time></trkpt><trkpt lat="45.072735" lon="7.5787196"><ele>299.0</ele><time>2026-04-27T19:00:44.13Z</time></trkpt><trkpt lat="45.0727447" lon="7.578819"><ele>298.85714285714283</ele><time>2026-04-27T19:00:45.129Z</time></trkpt><trkpt lat="45.072751" lon="7.5789211"><ele>298.7142857142857</ele><time>2026-04-27T19:00:46.13Z</time></trkpt><trkpt lat="45.0727574" lon="7.579017"><ele>298.57142857142856</ele><time>2026-04-27T19:00:47.129Z</time></trkpt><trkpt lat="45.072763" lon="7.5791147"><ele>298.42857142857144</ele><time>2026-04-27T19:00:48.129Z</time></trkpt><trkpt lat="45.0727701" lon="7.5792155"><ele>298.2857142857143</ele><time>2026-04-27T19:00:49.13Z</time></trkpt><trkpt lat="45.0727776" lon="7.5793128"><ele>298.1428571428571</ele><time>2026-04-27T19:00:50.13Z</time></trkpt><trkpt lat="45.0727847" lon="7.5794099"><ele>298.0</ele><time>2026-04-27T19:00:51.13Z</time></trkpt><trkpt lat="45.0727982" lon="7.5795103"><ele>298.1428571428571</ele><time>2026-04-27T19:00:52.129Z</time></trkpt><trkpt lat="45.0728023" lon="7.5796092"><ele>298.2857142857143</ele><time>2026-04-27T19:00:53.129Z</time></trkpt><trkpt lat="45.0728091" lon="7.5797051"><ele>298.42857142857144</ele><time>2026-04-27T19:00:54.128Z</time></trkpt><trkpt lat="45.0728133" lon="7.5798002"><ele>298.57142857142856</ele><time>2026-04-27T19:00:55.128Z</time></trkpt><trkpt lat="45.072817" lon="7.5798951"><ele>298.7142857142857</ele><time>2026-04-27T19:00:56.128Z</time></trkpt><trkpt lat="45.0728188" lon="7.5799896"><ele>298.85714285714283</ele><time>2026-04-27T19:00:57.129Z</time></trkpt><trkpt lat="45.0728214" lon="7.5800835"><ele>299.0</ele><time>2026-04-27T19:00:58.13Z</time></trkpt><trkpt lat="45.0728245" lon="7.5801794"><ele>299.0</ele><time>2026-04-27T19:00:59.13Z</time></trkpt><trkpt lat="45.0728291" lon="7.5803615"><ele>299.0</ele><time>2026-04-27T19:01:01.129Z</time></trkpt><trkpt lat="45.0728275" lon="7.5804538"><ele>299.0</ele><time>2026-04-27T19:01:02.13Z</time></trkpt><trkpt lat="45.072826" lon="7.5805527"><ele>299.0</ele><time>2026-04-27T19:01:03.129Z</time></trkpt><trkpt lat="45.0728272" lon="7.5806605"><ele>299.0</ele><time>2026-04-27T19:01:04.129Z</time></trkpt><trkpt lat="45.0728331" lon="7.5807546"><ele>299.0</ele><time>2026-04-27T19:01:05.131Z</time></trkpt><trkpt lat="45.0728394" lon="7.5808505"><ele>299.0</ele><time>2026-04-27T19:01:06.129Z</time></trkpt><trkpt lat="45.0728411" lon="7.5809422"><ele>299.0</ele><time>2026-04-27T19:01:07.128Z</time></trkpt><trkpt lat="45.0728383" lon="7.5810361"><ele>299.0</ele><time>2026-04-27T19:01:08.128Z</time></trkpt><trkpt lat="45.0728396" lon="7.5811302"><ele>299.0</ele><time>2026-04-27T19:01:09.13Z</time></trkpt><trkpt lat="45.0728544" lon="7.5813048"><ele>299.0</ele><time>2026-04-27T19:01:11.13Z</time></trkpt><trkpt lat="45.0728598" lon="7.5813938"><ele>299.0</ele><time>2026-04-27T19:01:12.13Z</time></trkpt><trkpt lat="45.0728799" lon="7.5815538"><ele>299.25</ele><time>2026-04-27T19:01:14.129Z</time></trkpt><trkpt lat="45.0728905" lon="7.581723"><ele>299.5</ele><time>2026-04-27T19:01:16.128Z</time></trkpt><trkpt lat="45.0728989" lon="7.5818851"><ele>299.75</ele><time>2026-04-27T19:01:18.129Z</time></trkpt><trkpt lat="45.0729013" lon="7.582042"><ele>300.0</ele><time>2026-04-27T19:01:20.129Z</time></trkpt><trkpt lat="45.0729045" lon="7.5822029"><ele>299.5</ele><time>2026-04-27T19:01:22.13Z</time></trkpt><trkpt lat="45.0729098" lon="7.5823775"><ele>299.0</ele><time>2026-04-27T19:01:24.131Z</time></trkpt><trkpt lat="45.0729138" lon="7.5825389"><ele>298.5</ele><time>2026-04-27T19:01:26.13Z</time></trkpt><trkpt lat="45.0729306" lon="7.5827098"><ele>298.0</ele><time>2026-04-27T19:01:28.129Z</time></trkpt><trkpt lat="45.0729492" lon="7.5828604"><ele>297.8</ele><time>2026-04-27T19:01:30.13Z</time></trkpt><trkpt lat="45.0729573" lon="7.583011"><ele>297.6</ele><time>2026-04-27T19:01:32.131Z</time></trkpt><trkpt lat="45.072961" lon="7.583162"><ele>297.4</ele><time>2026-04-27T19:01:34.13Z</time></trkpt><trkpt lat="45.0729637" lon="7.583306"><ele>297.2</ele><time>2026-04-27T19:01:36.13Z</time></trkpt><trkpt lat="45.0729683" lon="7.583425"><ele>297.0</ele><time>2026-04-27T19:01:38.128Z</time></trkpt><trkpt lat="45.0729746" lon="7.5835332"><ele>297.0</ele><time>2026-04-27T19:01:40.129Z</time></trkpt><trkpt lat="45.072971" lon="7.5836563"><ele>297.0</ele><time>2026-04-27T19:01:50.131Z</time></trkpt><trkpt lat="45.0729789" lon="7.5837678"><ele>297.0</ele><time>2026-04-27T19:01:52.129Z</time></trkpt><trkpt lat="45.0729846" lon="7.5838913"><ele>297.0</ele><time>2026-04-27T19:01:54.129Z</time></trkpt><trkpt lat="45.0730021" lon="7.5840396"><ele>297.0</ele><time>2026-04-27T19:01:56.129Z</time></trkpt><trkpt lat="45.0730055" lon="7.5841915"><ele>296.6</ele><time>2026-04-27T19:01:58.129Z</time></trkpt><trkpt lat="45.0730058" lon="7.5843407"><ele>296.2</ele><time>2026-04-27T19:02:00.128Z</time></trkpt><trkpt lat="45.0730125" lon="7.5844788"><ele>295.8</ele><time>2026-04-27T19:02:02.13Z</time></trkpt><trkpt lat="45.073024" lon="7.5846217"><ele>295.4</ele><time>2026-04-27T19:02:04.128Z</time></trkpt><trkpt lat="45.0730247" lon="7.5847673"><ele>295.0</ele><time>2026-04-27T19:02:06.13Z</time></trkpt><trkpt lat="45.0730267" lon="7.5849152"><ele>295.0</ele><time>2026-04-27T19:02:08.13Z</time></trkpt><trkpt lat="45.0730359" lon="7.5850663"><ele>295.0</ele><time>2026-04-27T19:02:10.128Z</time></trkpt><trkpt lat="45.0730435" lon="7.5852117"><ele>295.0</ele><time>2026-04-27T19:02:12.13Z</time></trkpt><trkpt lat="45.0730492" lon="7.585353"><ele>295.0</ele><time>2026-04-27T19:02:14.129Z</time></trkpt><trkpt lat="45.0730588" lon="7.5854866"><ele>295.0</ele><time>2026-04-27T19:02:16.129Z</time></trkpt><trkpt lat="45.0730708" lon="7.5856302"><ele>294.8</ele><time>2026-04-27T19:02:18.13Z</time></trkpt><trkpt lat="45.0730783" lon="7.5857757"><ele>294.6</ele><time>2026-04-27T19:02:20.13Z</time></trkpt><trkpt lat="45.0730814" lon="7.5859144"><ele>294.4</ele><time>2026-04-27T19:02:22.13Z</time></trkpt><trkpt lat="45.0730906" lon="7.5860613"><ele>294.2</ele><time>2026-04-27T19:02:24.128Z</time></trkpt><trkpt lat="45.0730959" lon="7.5862076"><ele>294.0</ele><time>2026-04-27T19:02:26.129Z</time></trkpt><trkpt lat="45.0730995" lon="7.5863547"><ele>293.8</ele><time>2026-04-27T19:02:28.129Z</time></trkpt><trkpt lat="45.0731052" lon="7.5865041"><ele>293.59999999999997</ele><time>2026-04-27T19:02:30.13Z</time></trkpt><trkpt lat="45.0731092" lon="7.5866488"><ele>293.4</ele><time>2026-04-27T19:02:32.129Z</time></trkpt><trkpt lat="45.0731055" lon="7.5867915"><ele>293.2</ele><time>2026-04-27T19:02:34.13Z</time></trkpt><trkpt lat="45.0731076" lon="7.5869399"><ele>293.0</ele><time>2026-04-27T19:02:36.129Z</time></trkpt><trkpt lat="45.0731111" lon="7.587088"><ele>293.0</ele><time>2026-04-27T19:02:38.13Z</time></trkpt><trkpt lat="45.0731061" lon="7.5872353"><ele>293.0</ele><time>2026-04-27T19:02:40.129Z</time></trkpt><trkpt lat="45.0731141" lon="7.5873798"><ele>293.0</ele><time>2026-04-27T19:02:42.13Z</time></trkpt><trkpt lat="45.07312" lon="7.5875246"><ele>293.0</ele><time>2026-04-27T19:02:44.129Z</time></trkpt><trkpt lat="45.0731356" lon="7.5876769"><ele>293.0</ele><time>2026-04-27T19:02:46.129Z</time></trkpt><trkpt lat="45.0731472" lon="7.5878212"><ele>293.0</ele><time>2026-04-27T19:02:48.13Z</time></trkpt><trkpt lat="45.0731591" lon="7.5879745"><ele>293.0</ele><time>2026-04-27T19:02:50.129Z</time></trkpt><trkpt lat="45.0731665" lon="7.5881203"><ele>293.0</ele><time>2026-04-27T19:02:52.13Z</time></trkpt><trkpt lat="45.0731748" lon="7.5882835"><ele>293.0</ele><time>2026-04-27T19:02:54.13Z</time></trkpt><trkpt lat="45.0731872" lon="7.588463"><ele>293.0</ele><time>2026-04-27T19:02:56.128Z</time></trkpt><trkpt lat="45.0731941" lon="7.5886444"><ele>293.0</ele><time>2026-04-27T19:02:58.129Z</time></trkpt><trkpt lat="45.0731986" lon="7.5887371"><ele>293.0</ele><time>2026-04-27T19:02:59.129Z</time></trkpt><trkpt lat="45.0731997" lon="7.5888312"><ele>293.0</ele><time>2026-04-27T19:03:00.128Z</time></trkpt><trkpt lat="45.0732032" lon="7.5889251"><ele>293.0</ele><time>2026-04-27T19:03:01.13Z</time></trkpt><trkpt lat="45.0732084" lon="7.5890241"><ele>293.0</ele><time>2026-04-27T19:03:02.13Z</time></trkpt><trkpt lat="45.0732123" lon="7.5891256"><ele>292.71428571428567</ele><time>2026-04-27T19:03:03.129Z</time></trkpt><trkpt lat="45.0732141" lon="7.5892217"><ele>292.42857142857144</ele><time>2026-04-27T19:03:04.13Z</time></trkpt><trkpt lat="45.0732201" lon="7.5893121"><ele>292.1428571428571</ele><time>2026-04-27T19:03:05.131Z</time></trkpt><trkpt lat="45.0732254" lon="7.5894129"><ele>291.85714285714283</ele><time>2026-04-27T19:03:06.131Z</time></trkpt><trkpt lat="45.0732316" lon="7.5895172"><ele>291.57142857142856</ele><time>2026-04-27T19:03:07.131Z</time></trkpt><trkpt lat="45.0732457" lon="7.5896152"><ele>291.2857142857143</ele><time>2026-04-27T19:03:08.128Z</time></trkpt><trkpt lat="45.0732445" lon="7.5897215"><ele>291.0</ele><time>2026-04-27T19:03:09.129Z</time></trkpt><trkpt lat="45.0732519" lon="7.5898266"><ele>291.0</ele><time>2026-04-27T19:03:10.13Z</time></trkpt><trkpt lat="45.0732565" lon="7.5899225"><ele>291.0</ele><time>2026-04-27T19:03:11.13Z</time></trkpt><trkpt lat="45.0732604" lon="7.590018"><ele>291.0</ele><time>2026-04-27T19:03:12.128Z</time></trkpt><trkpt lat="45.073258" lon="7.5901212"><ele>291.0</ele><time>2026-04-27T19:03:13.13Z</time></trkpt><trkpt lat="45.0732627" lon="7.5902191"><ele>291.0</ele><time>2026-04-27T19:03:14.129Z</time></trkpt><trkpt lat="45.0732632" lon="7.5903236"><ele>291.0</ele><time>2026-04-27T19:03:15.13Z</time></trkpt><trkpt lat="45.0732684" lon="7.5904251"><ele>291.0</ele><time>2026-04-27T19:03:16.129Z</time></trkpt><trkpt lat="45.0732715" lon="7.5905272"><ele>291.1428571428571</ele><time>2026-04-27T19:03:17.13Z</time></trkpt><trkpt lat="45.073274" lon="7.5906273"><ele>291.2857142857143</ele><time>2026-04-27T19:03:18.128Z</time></trkpt><trkpt lat="45.0732801" lon="7.5907278"><ele>291.42857142857144</ele><time>2026-04-27T19:03:19.13Z</time></trkpt><trkpt lat="45.0732843" lon="7.5908286"><ele>291.57142857142856</ele><time>2026-04-27T19:03:20.13Z</time></trkpt><trkpt lat="45.0732899" lon="7.5909357"><ele>291.7142857142857</ele><time>2026-04-27T19:03:21.129Z</time></trkpt><trkpt lat="45.0732957" lon="7.5910394"><ele>291.85714285714283</ele><time>2026-04-27T19:03:22.129Z</time></trkpt><trkpt lat="45.073303" lon="7.5911365"><ele>292.0</ele><time>2026-04-27T19:03:23.13Z</time></trkpt><trkpt lat="45.0733009" lon="7.5912377"><ele>292.0</ele><time>2026-04-27T19:03:24.13Z</time></trkpt><trkpt lat="45.0733041" lon="7.5913415"><ele>292.0</ele><time>2026-04-27T19:03:25.13Z</time></trkpt><trkpt lat="45.0733099" lon="7.5914445"><ele>292.0</ele><time>2026-04-27T19:03:26.129Z</time></trkpt><trkpt lat="45.0733148" lon="7.5915407"><ele>292.0</ele><time>2026-04-27T19:03:27.13Z</time></trkpt><trkpt lat="45.0733126" lon="7.5916424"><ele>292.0</ele><time>2026-04-27T19:03:28.129Z</time></trkpt><trkpt lat="45.0733192" lon="7.5917511"><ele>292.0</ele><time>2026-04-27T19:03:29.129Z</time></trkpt><trkpt lat="45.0733209" lon="7.5918507"><ele>292.0</ele><time>2026-04-27T19:03:30.13Z</time></trkpt><trkpt lat="45.0733276" lon="7.5919554"><ele>292.0</ele><time>2026-04-27T19:03:31.13Z</time></trkpt><trkpt lat="45.0733323" lon="7.5920596"><ele>292.0</ele><time>2026-04-27T19:03:32.129Z</time></trkpt><trkpt lat="45.0733355" lon="7.5921634"><ele>292.0</ele><time>2026-04-27T19:03:33.129Z</time></trkpt><trkpt lat="45.0733406" lon="7.5922702"><ele>292.0</ele><time>2026-04-27T19:03:34.129Z</time></trkpt><trkpt lat="45.073343" lon="7.5923749"><ele>292.0</ele><time>2026-04-27T19:03:35.13Z</time></trkpt><trkpt lat="45.0733457" lon="7.5924819"><ele>292.0</ele><time>2026-04-27T19:03:36.129Z</time></trkpt><trkpt lat="45.0733492" lon="7.592581"><ele>292.0</ele><time>2026-04-27T19:03:37.13Z</time></trkpt><trkpt lat="45.0733504" lon="7.5926804"><ele>292.0</ele><time>2026-04-27T19:03:38.13Z</time></trkpt><trkpt lat="45.0733532" lon="7.5927915"><ele>292.0</ele><time>2026-04-27T19:03:39.13Z</time></trkpt><trkpt lat="45.073359" lon="7.5929022"><ele>292.0</ele><time>2026-04-27T19:03:40.13Z</time></trkpt><trkpt lat="45.0733629" lon="7.5930121"><ele>292.0</ele><time>2026-04-27T19:03:41.128Z</time></trkpt><trkpt lat="45.0733707" lon="7.5931203"><ele>292.0</ele><time>2026-04-27T19:03:42.128Z</time></trkpt><trkpt lat="45.0733752" lon="7.5932295"><ele>292.0</ele><time>2026-04-27T19:03:43.129Z</time></trkpt><trkpt lat="45.0733788" lon="7.5933359"><ele>292.0</ele><time>2026-04-27T19:03:44.13Z</time></trkpt><trkpt lat="45.073386" lon="7.5934412"><ele>292.0</ele><time>2026-04-27T19:03:45.128Z</time></trkpt><trkpt lat="45.0733885" lon="7.5935496"><ele>292.0</ele><time>2026-04-27T19:03:46.129Z</time></trkpt><trkpt lat="45.0733939" lon="7.5936574"><ele>292.0</ele><time>2026-04-27T19:03:47.129Z</time></trkpt><trkpt lat="45.0733976" lon="7.5937602"><ele>292.0</ele><time>2026-04-27T19:03:48.131Z</time></trkpt><trkpt lat="45.0733995" lon="7.593866"><ele>292.0</ele><time>2026-04-27T19:03:49.131Z</time></trkpt><trkpt lat="45.0734021" lon="7.5939746"><ele>291.66666666666663</ele><time>2026-04-27T19:03:50.13Z</time></trkpt><trkpt lat="45.0734032" lon="7.5940853"><ele>291.3333333333333</ele><time>2026-04-27T19:03:51.13Z</time></trkpt><trkpt lat="45.0734021" lon="7.5941861"><ele>291.0</ele><time>2026-04-27T19:03:52.129Z</time></trkpt><trkpt lat="45.0734033" lon="7.5942925"><ele>290.6666666666667</ele><time>2026-04-27T19:03:53.128Z</time></trkpt><trkpt lat="45.0734002" lon="7.5943911"><ele>290.33333333333337</ele><time>2026-04-27T19:03:54.129Z</time></trkpt><trkpt lat="45.0734086" lon="7.594487"><ele>290.0</ele><time>2026-04-27T19:03:55.13Z</time></trkpt><trkpt lat="45.0734144" lon="7.5946438"><ele>290.0</ele><time>2026-04-27T19:03:57.129Z</time></trkpt><trkpt lat="45.0734157" lon="7.594754"><ele>290.0</ele><time>2026-04-27T19:03:59.128Z</time></trkpt><trkpt lat="45.0734126" lon="7.5948457"><ele>290.0</ele><time>2026-04-27T19:04:01.13Z</time></trkpt><trkpt lat="45.0734165" lon="7.5949389"><ele>290.0</ele><time>2026-04-27T19:04:03.13Z</time></trkpt><trkpt lat="45.0734223" lon="7.5950641"><ele>290.0</ele><time>2026-04-27T19:04:05.13Z</time></trkpt><trkpt lat="45.0734275" lon="7.5952275"><ele>290.0</ele><time>2026-04-27T19:04:07.129Z</time></trkpt><trkpt lat="45.0734258" lon="7.5953964"><ele>290.4</ele><time>2026-04-27T19:04:09.13Z</time></trkpt><trkpt lat="45.073425" lon="7.5955708"><ele>290.8</ele><time>2026-04-27T19:04:11.13Z</time></trkpt><trkpt lat="45.0734158" lon="7.5957393"><ele>291.2</ele><time>2026-04-27T19:04:13.129Z</time></trkpt><trkpt lat="45.0734105" lon="7.5958326"><ele>291.6</ele><time>2026-04-27T19:04:14.13Z</time></trkpt><trkpt lat="45.0734092" lon="7.596018"><ele>292.0</ele><time>2026-04-27T19:04:16.129Z</time></trkpt><trkpt lat="45.0734135" lon="7.59611"><ele>292.1428571428571</ele><time>2026-04-27T19:04:17.13Z</time></trkpt><trkpt lat="45.0734172" lon="7.5962044"><ele>292.2857142857143</ele><time>2026-04-27T19:04:18.13Z</time></trkpt><trkpt lat="45.0734256" lon="7.5962983"><ele>292.42857142857144</ele><time>2026-04-27T19:04:19.129Z</time></trkpt><trkpt lat="45.073425" lon="7.5963929"><ele>292.57142857142856</ele><time>2026-04-27T19:04:20.129Z</time></trkpt><trkpt lat="45.0734296" lon="7.5964938"><ele>292.7142857142857</ele><time>2026-04-27T19:04:21.131Z</time></trkpt><trkpt lat="45.0734353" lon="7.5965928"><ele>292.85714285714283</ele><time>2026-04-27T19:04:22.13Z</time></trkpt><trkpt lat="45.073442" lon="7.5966966"><ele>293.0</ele><time>2026-04-27T19:04:23.129Z</time></trkpt><trkpt lat="45.0734485" lon="7.5968025"><ele>293.0</ele><time>2026-04-27T19:04:24.129Z</time></trkpt><trkpt lat="45.0734517" lon="7.5969125"><ele>293.0</ele><time>2026-04-27T19:04:25.131Z</time></trkpt><trkpt lat="45.0734579" lon="7.5970128"><ele>293.0</ele><time>2026-04-27T19:04:26.13Z</time></trkpt><trkpt lat="45.0734608" lon="7.5971241"><ele>293.0</ele><time>2026-04-27T19:04:27.13Z</time></trkpt><trkpt lat="45.0734655" lon="7.5972316"><ele>293.0</ele><time>2026-04-27T19:04:28.13Z</time></trkpt><trkpt lat="45.073469" lon="7.5973433"><ele>293.0</ele><time>2026-04-27T19:04:29.131Z</time></trkpt><trkpt lat="45.0734809" lon="7.597451"><ele>292.99999999999994</ele><time>2026-04-27T19:04:30.13Z</time></trkpt><trkpt lat="45.0734816" lon="7.5975581"><ele>293.0</ele><time>2026-04-27T19:04:31.131Z</time></trkpt><trkpt lat="45.0734846" lon="7.597667"><ele>293.0</ele><time>2026-04-27T19:04:32.131Z</time></trkpt><trkpt lat="45.0734869" lon="7.5977707"><ele>293.0</ele><time>2026-04-27T19:04:33.13Z</time></trkpt><trkpt lat="45.0734931" lon="7.5978768"><ele>293.0</ele><time>2026-04-27T19:04:34.129Z</time></trkpt><trkpt lat="45.0734987" lon="7.59798"><ele>292.99999999999994</ele><time>2026-04-27T19:04:35.131Z</time></trkpt><trkpt lat="45.0735054" lon="7.598084"><ele>293.0</ele><time>2026-04-27T19:04:36.129Z</time></trkpt><trkpt lat="45.0735128" lon="7.5981881"><ele>292.99999999999994</ele><time>2026-04-27T19:04:37.13Z</time></trkpt><trkpt lat="45.0735223" lon="7.5982831"><ele>293.0</ele><time>2026-04-27T19:04:38.13Z</time></trkpt><trkpt lat="45.0735269" lon="7.5983884"><ele>293.0</ele><time>2026-04-27T19:04:39.13Z</time></trkpt><trkpt lat="45.0735352" lon="7.5984948"><ele>293.0</ele><time>2026-04-27T19:04:40.129Z</time></trkpt><trkpt lat="45.0735356" lon="7.5985937"><ele>293.0</ele><time>2026-04-27T19:04:41.13Z</time></trkpt><trkpt lat="45.0735438" lon="7.5987034"><ele>292.99999999999994</ele><time>2026-04-27T19:04:42.13Z</time></trkpt><trkpt lat="45.0735499" lon="7.5988061"><ele>293.0</ele><time>2026-04-27T19:04:43.131Z</time></trkpt><trkpt lat="45.0735511" lon="7.598915"><ele>292.85714285714283</ele><time>2026-04-27T19:04:44.129Z</time></trkpt><trkpt lat="45.0735566" lon="7.5990185"><ele>292.7142857142857</ele><time>2026-04-27T19:04:45.13Z</time></trkpt><trkpt lat="45.0735597" lon="7.5991219"><ele>292.57142857142856</ele><time>2026-04-27T19:04:46.13Z</time></trkpt><trkpt lat="45.0735637" lon="7.5992261"><ele>292.42857142857144</ele><time>2026-04-27T19:04:47.129Z</time></trkpt><trkpt lat="45.0735631" lon="7.59933"><ele>292.2857142857143</ele><time>2026-04-27T19:04:48.129Z</time></trkpt><trkpt lat="45.0735694" lon="7.5994317"><ele>292.1428571428571</ele><time>2026-04-27T19:04:49.129Z</time></trkpt><trkpt lat="45.0735757" lon="7.5995346"><ele>292.0</ele><time>2026-04-27T19:04:50.13Z</time></trkpt><trkpt lat="45.0735775" lon="7.5996289"><ele>291.2857142857143</ele><time>2026-04-27T19:04:51.13Z</time></trkpt><trkpt lat="45.0735795" lon="7.5997254"><ele>290.57142857142856</ele><time>2026-04-27T19:04:52.129Z</time></trkpt><trkpt lat="45.0735845" lon="7.5998234"><ele>289.8571428571429</ele><time>2026-04-27T19:04:53.129Z</time></trkpt><trkpt lat="45.0735904" lon="7.5999231"><ele>289.1428571428571</ele><time>2026-04-27T19:04:54.13Z</time></trkpt><trkpt lat="45.0735928" lon="7.6000178"><ele>288.42857142857144</ele><time>2026-04-27T19:04:55.13Z</time></trkpt><trkpt lat="45.0735975" lon="7.6001129"><ele>287.7142857142857</ele><time>2026-04-27T19:04:56.131Z</time></trkpt><trkpt lat="45.073602" lon="7.6002055"><ele>287.0</ele><time>2026-04-27T19:04:57.13Z</time></trkpt><trkpt lat="45.0736027" lon="7.600309"><ele>286.6666666666667</ele><time>2026-04-27T19:04:58.13Z</time></trkpt><trkpt lat="45.0736043" lon="7.600407"><ele>286.33333333333337</ele><time>2026-04-27T19:04:59.13Z</time></trkpt><trkpt lat="45.0736074" lon="7.6005035"><ele>286.0</ele><time>2026-04-27T19:05:00.129Z</time></trkpt><trkpt lat="45.073612" lon="7.6006008"><ele>285.6666666666667</ele><time>2026-04-27T19:05:01.131Z</time></trkpt><trkpt lat="45.0736133" lon="7.6007006"><ele>285.3333333333333</ele><time>2026-04-27T19:05:02.131Z</time></trkpt><trkpt lat="45.0736195" lon="7.6007965"><ele>285.0</ele><time>2026-04-27T19:05:03.13Z</time></trkpt><trkpt lat="45.0736232" lon="7.6009751"><ele>285.0</ele><time>2026-04-27T19:05:05.129Z</time></trkpt><trkpt lat="45.0736324" lon="7.6011021"><ele>285.0</ele><time>2026-04-27T19:05:07.128Z</time></trkpt><trkpt lat="45.0736367" lon="7.6012202"><ele>285.0</ele><time>2026-04-27T19:05:09.13Z</time></trkpt><trkpt lat="45.0736393" lon="7.6013568"><ele>285.0</ele><time>2026-04-27T19:05:11.128Z</time></trkpt><trkpt lat="45.0736488" lon="7.6015156"><ele>285.0</ele><time>2026-04-27T19:05:13.13Z</time></trkpt><trkpt lat="45.0736541" lon="7.601677"><ele>285.0</ele><time>2026-04-27T19:05:15.129Z</time></trkpt><trkpt lat="45.0736724" lon="7.601849"><ele>285.0</ele><time>2026-04-27T19:05:17.13Z</time></trkpt><trkpt lat="45.0736733" lon="7.6019409"><ele>285.0</ele><time>2026-04-27T19:05:18.129Z</time></trkpt><trkpt lat="45.0736731" lon="7.6020316"><ele>285.0</ele><time>2026-04-27T19:05:19.13Z</time></trkpt><trkpt lat="45.0736725" lon="7.6021215"><ele>285.0</ele><time>2026-04-27T19:05:20.129Z</time></trkpt><trkpt lat="45.0736804" lon="7.6022962"><ele>285.0</ele><time>2026-04-27T19:05:22.131Z</time></trkpt><trkpt lat="45.0736818" lon="7.6024706"><ele>285.0</ele><time>2026-04-27T19:05:24.131Z</time></trkpt><trkpt lat="45.0736862" lon="7.6025653"><ele>285.0</ele><time>2026-04-27T19:05:25.129Z</time></trkpt><trkpt lat="45.0736937" lon="7.6026555"><ele>285.0</ele><time>2026-04-27T19:05:26.129Z</time></trkpt><trkpt lat="45.0737105" lon="7.6028261"><ele>285.0</ele><time>2026-04-27T19:05:28.13Z</time></trkpt><trkpt lat="45.0737065" lon="7.6029843"><ele>285.0</ele><time>2026-04-27T19:05:30.131Z</time></trkpt><trkpt lat="45.0737155" lon="7.6031546"><ele>284.8333333333333</ele><time>2026-04-27T19:05:32.129Z</time></trkpt><trkpt lat="45.0737346" lon="7.6032819"><ele>284.6666666666667</ele><time>2026-04-27T19:05:34.13Z</time></trkpt><trkpt lat="45.0737257" lon="7.6033748"><ele>284.5</ele><time>2026-04-27T19:05:36.129Z</time></trkpt><trkpt lat="45.0737374" lon="7.6034931"><ele>284.33333333333337</ele><time>2026-04-27T19:05:38.129Z</time></trkpt><trkpt lat="45.0737487" lon="7.6036168"><ele>284.1666666666667</ele><time>2026-04-27T19:05:40.129Z</time></trkpt><trkpt lat="45.0737438" lon="7.6037181"><ele>284.0</ele><time>2026-04-27T19:05:46.13Z</time></trkpt><trkpt lat="45.0737541" lon="7.6038442"><ele>284.0</ele><time>2026-04-27T19:05:49.13Z</time></trkpt><trkpt lat="45.0737544" lon="7.6039414"><ele>284.0</ele><time>2026-04-27T19:05:51.129Z</time></trkpt><trkpt lat="45.0737555" lon="7.6040638"><ele>284.0</ele><time>2026-04-27T19:05:53.13Z</time></trkpt><trkpt lat="45.0737534" lon="7.6041967"><ele>284.0</ele><time>2026-04-27T19:05:55.13Z</time></trkpt><trkpt lat="45.0737646" lon="7.6043189"><ele>284.0</ele><time>2026-04-27T19:05:57.129Z</time></trkpt><trkpt lat="45.0737712" lon="7.6044717"><ele>284.0</ele><time>2026-04-27T19:05:59.13Z</time></trkpt><trkpt lat="45.0737794" lon="7.6046443"><ele>284.0</ele><time>2026-04-27T19:06:01.129Z</time></trkpt><trkpt lat="45.0737865" lon="7.6047358"><ele>284.0</ele><time>2026-04-27T19:06:02.129Z</time></trkpt><trkpt lat="45.0737902" lon="7.6048256"><ele>284.0</ele><time>2026-04-27T19:06:03.13Z</time></trkpt><trkpt lat="45.0737947" lon="7.6049157"><ele>284.0</ele><time>2026-04-27T19:06:04.13Z</time></trkpt><trkpt lat="45.0737974" lon="7.6050061"><ele>284.0</ele><time>2026-04-27T19:06:05.131Z</time></trkpt><trkpt lat="45.0737995" lon="7.6051001"><ele>284.0</ele><time>2026-04-27T19:06:06.13Z</time></trkpt><trkpt lat="45.073806" lon="7.6051913"><ele>284.0</ele><time>2026-04-27T19:06:07.13Z</time></trkpt><trkpt lat="45.0738159" lon="7.6052891"><ele>284.0</ele><time>2026-04-27T19:06:08.13Z</time></trkpt><trkpt lat="45.0738204" lon="7.605382"><ele>284.0</ele><time>2026-04-27T19:06:09.13Z</time></trkpt><trkpt lat="45.0738347" lon="7.605561"><ele>284.0</ele><time>2026-04-27T19:06:11.13Z</time></trkpt><trkpt lat="45.073848" lon="7.6057386"><ele>284.0</ele><time>2026-04-27T19:06:13.129Z</time></trkpt><trkpt lat="45.0738581" lon="7.6058315"><ele>284.0</ele><time>2026-04-27T19:06:14.13Z</time></trkpt><trkpt lat="45.0738593" lon="7.6059294"><ele>284.0</ele><time>2026-04-27T19:06:15.13Z</time></trkpt><trkpt lat="45.0738636" lon="7.6060233"><ele>284.0</ele><time>2026-04-27T19:06:16.129Z</time></trkpt><trkpt lat="45.0738564" lon="7.6061174"><ele>284.0</ele><time>2026-04-27T19:06:17.13Z</time></trkpt><trkpt lat="45.0738508" lon="7.6062101"><ele>284.0</ele><time>2026-04-27T19:06:18.13Z</time></trkpt><trkpt lat="45.0738523" lon="7.6063105"><ele>284.0</ele><time>2026-04-27T19:06:19.13Z</time></trkpt><trkpt lat="45.0738546" lon="7.6064041"><ele>284.0</ele><time>2026-04-27T19:06:20.13Z</time></trkpt><trkpt lat="45.0738591" lon="7.6064975"><ele>284.0</ele><time>2026-04-27T19:06:21.129Z</time></trkpt><trkpt lat="45.0738688" lon="7.6065918"><ele>283.8</ele><time>2026-04-27T19:06:22.129Z</time></trkpt><trkpt lat="45.0738786" lon="7.6067804"><ele>283.59999999999997</ele><time>2026-04-27T19:06:24.13Z</time></trkpt><trkpt lat="45.0738973" lon="7.606956"><ele>283.4</ele><time>2026-04-27T19:06:26.129Z</time></trkpt><trkpt lat="45.0739055" lon="7.6070556"><ele>283.2</ele><time>2026-04-27T19:06:27.129Z</time></trkpt><trkpt lat="45.0739084" lon="7.6071553"><ele>283.0</ele><time>2026-04-27T19:06:28.13Z</time></trkpt><trkpt lat="45.0739135" lon="7.6072489"><ele>283.0</ele><time>2026-04-27T19:06:29.129Z</time></trkpt><trkpt lat="45.0739175" lon="7.6073476"><ele>283.0</ele><time>2026-04-27T19:06:30.129Z</time></trkpt><trkpt lat="45.0739252" lon="7.607443"><ele>283.0</ele><time>2026-04-27T19:06:31.129Z</time></trkpt><trkpt lat="45.0739308" lon="7.6075346"><ele>283.0</ele><time>2026-04-27T19:06:32.129Z</time></trkpt><trkpt lat="45.0739362" lon="7.607632"><ele>283.0</ele><time>2026-04-27T19:06:33.129Z</time></trkpt><trkpt lat="45.0739396" lon="7.6077286"><ele>283.0</ele><time>2026-04-27T19:06:34.13Z</time></trkpt><trkpt lat="45.0739389" lon="7.6078215"><ele>283.0</ele><time>2026-04-27T19:06:35.13Z</time></trkpt><trkpt lat="45.0739528" lon="7.6079235"><ele>283.6</ele><time>2026-04-27T19:06:36.13Z</time></trkpt><trkpt lat="45.073962" lon="7.6080121"><ele>284.20000000000005</ele><time>2026-04-27T19:06:37.129Z</time></trkpt><trkpt lat="45.0739775" lon="7.6081805"><ele>284.8</ele><time>2026-04-27T19:06:39.13Z</time></trkpt><trkpt lat="45.0739807" lon="7.6083568"><ele>285.40000000000003</ele><time>2026-04-27T19:06:41.129Z</time></trkpt><trkpt lat="45.0739728" lon="7.6085342"><ele>286.0</ele><time>2026-04-27T19:06:43.129Z</time></trkpt><trkpt lat="45.0739736" lon="7.6086323"><ele>285.71428571428567</ele><time>2026-04-27T19:06:44.13Z</time></trkpt><trkpt lat="45.0739766" lon="7.6087327"><ele>285.42857142857144</ele><time>2026-04-27T19:06:45.13Z</time></trkpt><trkpt lat="45.0739744" lon="7.6088234"><ele>285.1428571428571</ele><time>2026-04-27T19:06:46.13Z</time></trkpt><trkpt lat="45.0739768" lon="7.6089169"><ele>284.85714285714283</ele><time>2026-04-27T19:06:47.129Z</time></trkpt><trkpt lat="45.0739801" lon="7.6090161"><ele>284.57142857142856</ele><time>2026-04-27T19:06:48.131Z</time></trkpt><trkpt lat="45.0739958" lon="7.6091143"><ele>284.2857142857143</ele><time>2026-04-27T19:06:49.13Z</time></trkpt><trkpt lat="45.0740103" lon="7.6092065"><ele>284.0</ele><time>2026-04-27T19:06:50.13Z</time></trkpt><trkpt lat="45.0740335" lon="7.6093012"><ele>284.0</ele><time>2026-04-27T19:06:51.13Z</time></trkpt><trkpt lat="45.074048" lon="7.6093911"><ele>284.0</ele><time>2026-04-27T19:06:52.13Z</time></trkpt><trkpt lat="45.0740513" lon="7.609491"><ele>284.0</ele><time>2026-04-27T19:06:53.13Z</time></trkpt><trkpt lat="45.0740559" lon="7.6095867"><ele>284.0</ele><time>2026-04-27T19:06:54.13Z</time></trkpt><trkpt lat="45.074061" lon="7.6096878"><ele>284.0</ele><time>2026-04-27T19:06:55.129Z</time></trkpt><trkpt lat="45.0740667" lon="7.609783"><ele>284.0</ele><time>2026-04-27T19:06:56.129Z</time></trkpt><trkpt lat="45.0740747" lon="7.609877"><ele>284.0</ele><time>2026-04-27T19:06:57.129Z</time></trkpt><trkpt lat="45.0740787" lon="7.6099746"><ele>283.5</ele><time>2026-04-27T19:06:58.13Z</time></trkpt><trkpt lat="45.0740815" lon="7.6100724"><ele>283.0</ele><time>2026-04-27T19:06:59.13Z</time></trkpt><trkpt lat="45.0740893" lon="7.6101724"><ele>282.5</ele><time>2026-04-27T19:07:00.129Z</time></trkpt><trkpt lat="45.074101" lon="7.6102625"><ele>282.0</ele><time>2026-04-27T19:07:01.13Z</time></trkpt><trkpt lat="45.0741155" lon="7.6104489"><ele>281.5</ele><time>2026-04-27T19:07:03.129Z</time></trkpt><trkpt lat="45.0741185" lon="7.610543"><ele>281.0</ele><time>2026-04-27T19:07:04.131Z</time></trkpt><trkpt lat="45.0741201" lon="7.6106421"><ele>280.8571428571429</ele><time>2026-04-27T19:07:05.13Z</time></trkpt><trkpt lat="45.0741216" lon="7.6107463"><ele>280.7142857142857</ele><time>2026-04-27T19:07:06.131Z</time></trkpt><trkpt lat="45.0741111" lon="7.6108374"><ele>280.57142857142856</ele><time>2026-04-27T19:07:07.129Z</time></trkpt><trkpt lat="45.0740987" lon="7.6109267"><ele>280.42857142857144</ele><time>2026-04-27T19:07:08.13Z</time></trkpt><trkpt lat="45.0740962" lon="7.6110198"><ele>280.2857142857143</ele><time>2026-04-27T19:07:09.13Z</time></trkpt><trkpt lat="45.0740889" lon="7.611114"><ele>280.14285714285717</ele><time>2026-04-27T19:07:10.131Z</time></trkpt><trkpt lat="45.0740958" lon="7.6112174"><ele>280.0</ele><time>2026-04-27T19:07:11.129Z</time></trkpt><trkpt lat="45.0740968" lon="7.6113173"><ele>280.0</ele><time>2026-04-27T19:07:12.131Z</time></trkpt><trkpt lat="45.0740986" lon="7.6115134"><ele>280.0</ele><time>2026-04-27T19:07:14.13Z</time></trkpt><trkpt lat="45.0740967" lon="7.6116057"><ele>280.0</ele><time>2026-04-27T19:07:15.131Z</time></trkpt><trkpt lat="45.0740957" lon="7.6117136"><ele>280.0</ele><time>2026-04-27T19:07:16.13Z</time></trkpt><trkpt lat="45.0740967" lon="7.6118106"><ele>280.0</ele><time>2026-04-27T19:07:17.13Z</time></trkpt><trkpt lat="45.0740945" lon="7.6119083"><ele>280.0</ele><time>2026-04-27T19:07:18.129Z</time></trkpt><trkpt lat="45.0740974" lon="7.6120157"><ele>280.0</ele><time>2026-04-27T19:07:19.13Z</time></trkpt><trkpt lat="45.0740935" lon="7.6121102"><ele>280.0</ele><time>2026-04-27T19:07:20.131Z</time></trkpt><trkpt lat="45.0741006" lon="7.6122131"><ele>280.0</ele><time>2026-04-27T19:07:21.129Z</time></trkpt><trkpt lat="45.0741037" lon="7.6123095"><ele>280.0</ele><time>2026-04-27T19:07:22.13Z</time></trkpt><trkpt lat="45.0741099" lon="7.6124032"><ele>280.0</ele><time>2026-04-27T19:07:23.13Z</time></trkpt><trkpt lat="45.0741202" lon="7.6125836"><ele>280.0</ele><time>2026-04-27T19:07:25.13Z</time></trkpt><trkpt lat="45.0741324" lon="7.6127709"><ele>280.2857142857143</ele><time>2026-04-27T19:07:27.13Z</time></trkpt><trkpt lat="45.0741291" lon="7.6128647"><ele>280.57142857142856</ele><time>2026-04-27T19:07:28.13Z</time></trkpt><trkpt lat="45.0741301" lon="7.6129649"><ele>280.8571428571429</ele><time>2026-04-27T19:07:29.13Z</time></trkpt><trkpt lat="45.0741454" lon="7.6130707"><ele>281.1428571428571</ele><time>2026-04-27T19:07:30.13Z</time></trkpt><trkpt lat="45.0741434" lon="7.6131627"><ele>281.42857142857144</ele><time>2026-04-27T19:07:31.129Z</time></trkpt><trkpt lat="45.0741482" lon="7.6132543"><ele>281.7142857142857</ele><time>2026-04-27T19:07:32.131Z</time></trkpt><trkpt lat="45.0741513" lon="7.6133502"><ele>282.0</ele><time>2026-04-27T19:07:33.129Z</time></trkpt><trkpt lat="45.0741478" lon="7.6134429"><ele>282.0</ele><time>2026-04-27T19:07:34.131Z</time></trkpt><trkpt lat="45.0741445" lon="7.6135436"><ele>282.0</ele><time>2026-04-27T19:07:35.131Z</time></trkpt><trkpt lat="45.0741519" lon="7.6136351"><ele>282.0</ele><time>2026-04-27T19:07:36.131Z</time></trkpt><trkpt lat="45.0741661" lon="7.6137259"><ele>282.0</ele><time>2026-04-27T19:07:37.13Z</time></trkpt><trkpt lat="45.0741688" lon="7.6138152"><ele>282.0</ele><time>2026-04-27T19:07:38.131Z</time></trkpt><trkpt lat="45.0741742" lon="7.6139718"><ele>282.0</ele><time>2026-04-27T19:07:40.13Z</time></trkpt><trkpt lat="45.0741772" lon="7.6141267"><ele>281.8</ele><time>2026-04-27T19:07:42.13Z</time></trkpt><trkpt lat="45.0741931" lon="7.614255"><ele>281.6</ele><time>2026-04-27T19:07:44.131Z</time></trkpt><trkpt lat="45.0741941" lon="7.6143854"><ele>281.40000000000003</ele><time>2026-04-27T19:07:46.13Z</time></trkpt><trkpt lat="45.0741937" lon="7.6145391"><ele>281.2</ele><time>2026-04-27T19:07:48.129Z</time></trkpt><trkpt lat="45.0742056" lon="7.6146324"><ele>281.0</ele><time>2026-04-27T19:07:49.129Z</time></trkpt><trkpt lat="45.0742244" lon="7.6148037"><ele>281.00000000000006</ele><time>2026-04-27T19:07:51.129Z</time></trkpt><trkpt lat="45.0742313" lon="7.6148993"><ele>281.0</ele><time>2026-04-27T19:07:52.13Z</time></trkpt><trkpt lat="45.0742417" lon="7.6149903"><ele>281.0</ele><time>2026-04-27T19:07:53.129Z</time></trkpt><trkpt lat="45.0742482" lon="7.6150846"><ele>281.0</ele><time>2026-04-27T19:07:54.13Z</time></trkpt><trkpt lat="45.0742498" lon="7.6151794"><ele>281.0</ele><time>2026-04-27T19:07:55.129Z</time></trkpt><trkpt lat="45.0742548" lon="7.6152768"><ele>281.00000000000006</ele><time>2026-04-27T19:07:56.129Z</time></trkpt><trkpt lat="45.0742505" lon="7.6153753"><ele>281.0</ele><time>2026-04-27T19:07:57.13Z</time></trkpt><trkpt lat="45.0742504" lon="7.6154846"><ele>281.0</ele><time>2026-04-27T19:07:58.13Z</time></trkpt><trkpt lat="45.0742547" lon="7.6155757"><ele>281.0</ele><time>2026-04-27T19:07:59.129Z</time></trkpt><trkpt lat="45.0742517" lon="7.6156762"><ele>281.0</ele><time>2026-04-27T19:08:00.129Z</time></trkpt><trkpt lat="45.0742676" lon="7.6158554"><ele>281.0</ele><time>2026-04-27T19:08:02.13Z</time></trkpt><trkpt lat="45.0742734" lon="7.6159523"><ele>281.0</ele><time>2026-04-27T19:08:03.13Z</time></trkpt><trkpt lat="45.0742772" lon="7.6161345"><ele>280.5714285714286</ele><time>2026-04-27T19:08:05.129Z</time></trkpt><trkpt lat="45.0742853" lon="7.6162329"><ele>280.14285714285717</ele><time>2026-04-27T19:08:06.129Z</time></trkpt><trkpt lat="45.0742969" lon="7.6163246"><ele>279.7142857142857</ele><time>2026-04-27T19:08:07.13Z</time></trkpt><trkpt lat="45.0742882" lon="7.6164258"><ele>279.28571428571433</ele><time>2026-04-27T19:08:08.13Z</time></trkpt><trkpt lat="45.0742881" lon="7.616542"><ele>278.8571428571429</ele><time>2026-04-27T19:08:09.13Z</time></trkpt><trkpt lat="45.0742949" lon="7.6166419"><ele>278.42857142857144</ele><time>2026-04-27T19:08:10.13Z</time></trkpt><trkpt lat="45.0743104" lon="7.6167347"><ele>278.0</ele><time>2026-04-27T19:08:11.13Z</time></trkpt><trkpt lat="45.0743009" lon="7.6168267"><ele>278.0</ele><time>2026-04-27T19:08:12.129Z</time></trkpt><trkpt lat="45.0742985" lon="7.6169232"><ele>278.0</ele><time>2026-04-27T19:08:13.13Z</time></trkpt><trkpt lat="45.074297" lon="7.6170222"><ele>278.0</ele><time>2026-04-27T19:08:14.131Z</time></trkpt><trkpt lat="45.0743088" lon="7.6172177"><ele>278.0</ele><time>2026-04-27T19:08:16.129Z</time></trkpt><trkpt lat="45.0743169" lon="7.6173063"><ele>278.0</ele><time>2026-04-27T19:08:17.13Z</time></trkpt><trkpt lat="45.0743268" lon="7.6174036"><ele>278.0</ele><time>2026-04-27T19:08:18.13Z</time></trkpt><trkpt lat="45.0743312" lon="7.6175"><ele>278.0</ele><time>2026-04-27T19:08:19.13Z</time></trkpt><trkpt lat="45.0743141" lon="7.6175874"><ele>278.0</ele><time>2026-04-27T19:08:20.13Z</time></trkpt><trkpt lat="45.0743258" lon="7.6177685"><ele>278.0</ele><time>2026-04-27T19:08:22.13Z</time></trkpt><trkpt lat="45.0743361" lon="7.6178584"><ele>278.0</ele><time>2026-04-27T19:08:23.13Z</time></trkpt><trkpt lat="45.0743412" lon="7.6179556"><ele>278.0</ele><time>2026-04-27T19:08:24.13Z</time></trkpt><trkpt lat="45.0743426" lon="7.6180574"><ele>278.0</ele><time>2026-04-27T19:08:25.13Z</time></trkpt><trkpt lat="45.0743484" lon="7.6181501"><ele>277.8</ele><time>2026-04-27T19:08:26.13Z</time></trkpt><trkpt lat="45.0743475" lon="7.6183277"><ele>277.6</ele><time>2026-04-27T19:08:28.129Z</time></trkpt><trkpt lat="45.0743329" lon="7.6184272"><ele>277.4</ele><time>2026-04-27T19:08:29.131Z</time></trkpt><trkpt lat="45.0743421" lon="7.6185197"><ele>277.2</ele><time>2026-04-27T19:08:30.13Z</time></trkpt><trkpt lat="45.0743633" lon="7.6186949"><ele>277.0</ele><time>2026-04-27T19:08:32.131Z</time></trkpt><trkpt lat="45.0743829" lon="7.6187816"><ele>277.0</ele><time>2026-04-27T19:08:33.131Z</time></trkpt><trkpt lat="45.0744025" lon="7.6188674"><ele>277.0</ele><time>2026-04-27T19:08:34.13Z</time></trkpt><trkpt lat="45.0744153" lon="7.6189618"><ele>277.0</ele><time>2026-04-27T19:08:35.13Z</time></trkpt><trkpt lat="45.0744256" lon="7.6190968"><ele>277.0</ele><time>2026-04-27T19:08:37.13Z</time></trkpt><trkpt lat="45.0744282" lon="7.6191862"><ele>277.0</ele><time>2026-04-27T19:08:39.131Z</time></trkpt><trkpt lat="45.0744328" lon="7.6192765"><ele>277.0</ele><time>2026-04-27T19:08:48.131Z</time></trkpt><trkpt lat="45.0744399" lon="7.6193945"><ele>277.0</ele><time>2026-04-27T19:09:02.129Z</time></trkpt><trkpt lat="45.0744512" lon="7.6194979"><ele>277.0</ele><time>2026-04-27T19:09:06.13Z</time></trkpt><trkpt lat="45.0744439" lon="7.6196053"><ele>277.0</ele><time>2026-04-27T19:09:09.13Z</time></trkpt><trkpt lat="45.0744506" lon="7.6197209"><ele>277.0</ele><time>2026-04-27T19:09:11.129Z</time></trkpt><trkpt lat="45.0744708" lon="7.6198452"><ele>277.0</ele><time>2026-04-27T19:09:13.131Z</time></trkpt><trkpt lat="45.0744785" lon="7.6199674"><ele>277.0</ele><time>2026-04-27T19:09:15.13Z</time></trkpt><trkpt lat="45.0744839" lon="7.6200859"><ele>277.0</ele><time>2026-04-27T19:09:17.129Z</time></trkpt><trkpt lat="45.0744889" lon="7.6201956"><ele>277.6</ele><time>2026-04-27T19:09:19.13Z</time></trkpt><trkpt lat="45.0744828" lon="7.6203186"><ele>278.2</ele><time>2026-04-27T19:09:21.129Z</time></trkpt><trkpt lat="45.0744629" lon="7.6204588"><ele>278.8</ele><time>2026-04-27T19:09:23.129Z</time></trkpt><trkpt lat="45.0744533" lon="7.6206053"><ele>279.4</ele><time>2026-04-27T19:09:25.13Z</time></trkpt><trkpt lat="45.074435" lon="7.620744"><ele>280.0</ele><time>2026-04-27T19:09:27.13Z</time></trkpt><trkpt lat="45.074453" lon="7.6208877"><ele>280.0</ele><time>2026-04-27T19:09:29.13Z</time></trkpt><trkpt lat="45.0744664" lon="7.621047"><ele>280.0</ele><time>2026-04-27T19:09:31.129Z</time></trkpt><trkpt lat="45.0744729" lon="7.6211948"><ele>280.0</ele><time>2026-04-27T19:09:33.13Z</time></trkpt><trkpt lat="45.0744814" lon="7.6212952"><ele>280.0</ele><time>2026-04-27T19:09:35.132Z</time></trkpt><trkpt lat="45.0744186" lon="7.6213309"><ele>280.0</ele><time>2026-04-27T19:09:41.131Z</time></trkpt><trkpt lat="45.0743266" lon="7.6212933"><ele>279.6</ele><time>2026-04-27T19:09:43.13Z</time></trkpt><trkpt lat="45.0742389" lon="7.6212663"><ele>279.2</ele><time>2026-04-27T19:09:45.131Z</time></trkpt><trkpt lat="45.0741463" lon="7.6212369"><ele>278.8</ele><time>2026-04-27T19:09:47.129Z</time></trkpt><trkpt lat="45.0740521" lon="7.6211981"><ele>278.4</ele><time>2026-04-27T19:09:49.13Z</time></trkpt><trkpt lat="45.0739605" lon="7.6211491"><ele>278.0</ele><time>2026-04-27T19:09:51.131Z</time></trkpt><trkpt lat="45.0738707" lon="7.6211207"><ele>278.0</ele><time>2026-04-27T19:09:53.129Z</time></trkpt><trkpt lat="45.0737795" lon="7.6210859"><ele>278.0</ele><time>2026-04-27T19:09:55.13Z</time></trkpt><trkpt lat="45.073676" lon="7.6210581"><ele>278.0</ele><time>2026-04-27T19:09:57.13Z</time></trkpt><trkpt lat="45.0735792" lon="7.6210275"><ele>278.0</ele><time>2026-04-27T19:09:59.13Z</time></trkpt><trkpt lat="45.0734814" lon="7.6210055"><ele>278.0</ele><time>2026-04-27T19:10:01.129Z</time></trkpt><trkpt lat="45.0733853" lon="7.6209851"><ele>278.0</ele><time>2026-04-27T19:10:03.131Z</time></trkpt><trkpt lat="45.0732879" lon="7.6209583"><ele>278.0</ele><time>2026-04-27T19:10:05.129Z</time></trkpt><trkpt lat="45.0731975" lon="7.6209329"><ele>278.0</ele><time>2026-04-27T19:10:07.129Z</time></trkpt><trkpt lat="45.0730999" lon="7.6209339"><ele>278.0</ele><time>2026-04-27T19:10:09.129Z</time></trkpt><trkpt lat="45.0730195" lon="7.6209212"><ele>278.0</ele><time>2026-04-27T19:10:11.13Z</time></trkpt><trkpt lat="45.0729322" lon="7.6209045"><ele>274.0</ele><time>2026-04-27T19:10:13.13Z</time></trkpt><trkpt lat="45.0728667" lon="7.6208935"><ele>274.0</ele><time>2026-04-27T19:10:15.13Z</time></trkpt><trkpt lat="45.0727857" lon="7.6208858"><ele>274.0</ele><time>2026-04-27T19:10:18.131Z</time></trkpt><trkpt lat="45.0728691" lon="7.6208777"><ele>274.0</ele><time>2026-04-27T19:10:25.131Z</time></trkpt></trkseg></trk></gpx>